<?xml version='1.0' encoding='UTF-8'?><gpx version="1.1" creator="JPX - https://github.com/jenetics/jpx" xmlns="http://www.topografix.com/GPX/1/1"><trk><trkseg><trkpt lat="43.7662276" lon="11.2988469"><ele>53.0</ele><time>2026-04-06T13:30:30.821Z</time></trkpt><trkpt lat="43.7662629" lon="11.2989289"><ele>53.0</ele><time>2026-04-06T13:30:38.83Z</time></trkpt><trkpt lat="43.7663082" lon="11.2990008"><ele>53.0</ele><time>2026-04-06T13:30:41.625Z</time></trkpt><trkpt lat="43.7662794" lon="11.2992416"><ele>53.0</ele><time>2026-04-06T13:30:44.41Z</time></trkpt><trkpt lat="43.7662588" lon="11.299351"><ele>53.0</ele><time>2026-04-06T13:30:45.43Z</time></trkpt><trkpt lat="43.7662473" lon="11.2994455"><ele>53.0</ele><time>2026-04-06T13:30:46.408Z</time></trkpt><trkpt lat="43.7662343" lon="11.2995627"><ele>53.0</ele><time>2026-04-06T13:30:47.407Z</time></trkpt><trkpt lat="43.7662226" lon="11.2997025"><ele>53.0</ele><time>2026-04-06T13:30:48.405Z</time></trkpt><trkpt lat="43.7662033" lon="11.2998592"><ele>53.0</ele><time>2026-04-06T13:30:49.409Z</time></trkpt><trkpt lat="43.7661766" lon="11.3000243"><ele>53.0</ele><time>2026-04-06T13:30:50.416Z</time></trkpt><trkpt lat="43.7661529" lon="11.3001688"><ele>53.0</ele><time>2026-04-06T13:30:51.424Z</time></trkpt><trkpt lat="43.7661301" lon="11.3003097"><ele>53.0</ele><time>2026-04-06T13:30:52.421Z</time></trkpt><trkpt lat="43.7660975" lon="11.3004721"><ele>53.0</ele><time>2026-04-06T13:30:53.427Z</time></trkpt><trkpt lat="43.7660664" lon="11.3006505"><ele>53.0</ele><time>2026-04-06T13:30:54.42Z</time></trkpt><trkpt lat="43.7660391" lon="11.300838"><ele>53.0</ele><time>2026-04-06T13:30:55.421Z</time></trkpt><trkpt lat="43.7660116" lon="11.3010296"><ele>53.0</ele><time>2026-04-06T13:30:56.424Z</time></trkpt><trkpt lat="43.7659929" lon="11.3012075"><ele>53.0</ele><time>2026-04-06T13:30:57.426Z</time></trkpt><trkpt lat="43.765965" lon="11.3013701"><ele>53.0</ele><time>2026-04-06T13:30:58.428Z</time></trkpt><trkpt lat="43.7659508" lon="11.3015354"><ele>53.25</ele><time>2026-04-06T13:30:59.415Z</time></trkpt><trkpt lat="43.7659259" lon="11.3017074"><ele>53.5</ele><time>2026-04-06T13:31:00.421Z</time></trkpt><trkpt lat="43.7659017" lon="11.3018613"><ele>53.75</ele><time>2026-04-06T13:31:01.42Z</time></trkpt><trkpt lat="43.7658918" lon="11.3020303"><ele>54.0</ele><time>2026-04-06T13:31:02.419Z</time></trkpt><trkpt lat="43.7658408" lon="11.3021985"><ele>54.400000000000006</ele><time>2026-04-06T13:31:03.417Z</time></trkpt><trkpt lat="43.7658156" lon="11.3023484"><ele>54.800000000000004</ele><time>2026-04-06T13:31:04.419Z</time></trkpt><trkpt lat="43.7657942" lon="11.3024831"><ele>55.199999999999996</ele><time>2026-04-06T13:31:05.421Z</time></trkpt><trkpt lat="43.7657679" lon="11.3026136"><ele>55.599999999999994</ele><time>2026-04-06T13:31:06.418Z</time></trkpt><trkpt lat="43.7657427" lon="11.3027378"><ele>56.0</ele><time>2026-04-06T13:31:07.42Z</time></trkpt><trkpt lat="43.76573" lon="11.3028472"><ele>56.00000000000001</ele><time>2026-04-06T13:31:08.464Z</time></trkpt><trkpt lat="43.7657225" lon="11.3029493"><ele>56.0</ele><time>2026-04-06T13:31:09.447Z</time></trkpt><trkpt lat="43.7657072" lon="11.3030478"><ele>56.0</ele><time>2026-04-06T13:31:10.444Z</time></trkpt><trkpt lat="43.7656636" lon="11.3031497"><ele>56.0</ele><time>2026-04-06T13:31:11.47Z</time></trkpt><trkpt lat="43.7656165" lon="11.3032321"><ele>56.00000000000001</ele><time>2026-04-06T13:31:12.45Z</time></trkpt><trkpt lat="43.7655542" lon="11.3033087"><ele>56.0</ele><time>2026-04-06T13:31:13.445Z</time></trkpt><trkpt lat="43.7654721" lon="11.303398"><ele>56.25</ele><time>2026-04-06T13:31:14.443Z</time></trkpt><trkpt lat="43.7653791" lon="11.303495"><ele>56.5</ele><time>2026-04-06T13:31:15.456Z</time></trkpt><trkpt lat="43.7652709" lon="11.3035942"><ele>56.75</ele><time>2026-04-06T13:31:16.451Z</time></trkpt><trkpt lat="43.7651573" lon="11.3036945"><ele>57.0</ele><time>2026-04-06T13:31:17.456Z</time></trkpt><trkpt lat="43.7650274" lon="11.3038017"><ele>56.75</ele><time>2026-04-06T13:31:18.457Z</time></trkpt><trkpt lat="43.7648948" lon="11.3038957"><ele>56.5</ele><time>2026-04-06T13:31:19.458Z</time></trkpt><trkpt lat="43.7647546" lon="11.3039639"><ele>56.25</ele><time>2026-04-06T13:31:20.454Z</time></trkpt><trkpt lat="43.7646166" lon="11.3039938"><ele>56.0</ele><time>2026-04-06T13:31:21.457Z</time></trkpt><trkpt lat="43.7644861" lon="11.3039956"><ele>52.66666666666667</ele><time>2026-04-06T13:31:22.459Z</time></trkpt><trkpt lat="43.7643453" lon="11.3039832"><ele>49.333333333333336</ele><time>2026-04-06T13:31:23.457Z</time></trkpt><trkpt lat="43.7641904" lon="11.3039567"><ele>46.0</ele><time>2026-04-06T13:31:24.46Z</time></trkpt><trkpt lat="43.7640367" lon="11.3039191"><ele>46.66666666666667</ele><time>2026-04-06T13:31:25.462Z</time></trkpt><trkpt lat="43.7638712" lon="11.3038775"><ele>47.333333333333336</ele><time>2026-04-06T13:31:26.461Z</time></trkpt><trkpt lat="43.7636925" lon="11.3038278"><ele>48.0</ele><time>2026-04-06T13:31:27.47Z</time></trkpt><trkpt lat="43.76351" lon="11.303776"><ele>48.0</ele><time>2026-04-06T13:31:28.471Z</time></trkpt><trkpt lat="43.7633255" lon="11.3037223"><ele>48.0</ele><time>2026-04-06T13:31:29.466Z</time></trkpt><trkpt lat="43.7631307" lon="11.3036734"><ele>48.0</ele><time>2026-04-06T13:31:30.458Z</time></trkpt><trkpt lat="43.7629309" lon="11.3036178"><ele>48.0</ele><time>2026-04-06T13:31:31.465Z</time></trkpt><trkpt lat="43.7627441" lon="11.3035571"><ele>48.0</ele><time>2026-04-06T13:31:32.456Z</time></trkpt><trkpt lat="43.7625682" lon="11.3035022"><ele>48.0</ele><time>2026-04-06T13:31:33.461Z</time></trkpt><trkpt lat="43.7623885" lon="11.3034486"><ele>49.66666666666667</ele><time>2026-04-06T13:31:34.458Z</time></trkpt><trkpt lat="43.7622071" lon="11.3034098"><ele>51.333333333333336</ele><time>2026-04-06T13:31:35.455Z</time></trkpt><trkpt lat="43.762006" lon="11.3033955"><ele>53.0</ele><time>2026-04-06T13:31:36.46Z</time></trkpt><trkpt lat="43.7618085" lon="11.3033996"><ele>55.0</ele><time>2026-04-06T13:31:37.46Z</time></trkpt><trkpt lat="43.7616004" lon="11.3034144"><ele>57.0</ele><time>2026-04-06T13:31:38.47Z</time></trkpt><trkpt lat="43.7613872" lon="11.303444"><ele>59.0</ele><time>2026-04-06T13:31:39.458Z</time></trkpt><trkpt lat="43.7611772" lon="11.3034813"><ele>58.0</ele><time>2026-04-06T13:31:40.453Z</time></trkpt><trkpt lat="43.7609688" lon="11.3035227"><ele>57.0</ele><time>2026-04-06T13:31:41.463Z</time></trkpt><trkpt lat="43.7607498" lon="11.3035741"><ele>56.0</ele><time>2026-04-06T13:31:42.462Z</time></trkpt><trkpt lat="43.7605276" lon="11.3036057"><ele>56.0</ele><time>2026-04-06T13:31:43.464Z</time></trkpt><trkpt lat="43.7602968" lon="11.3036342"><ele>56.0</ele><time>2026-04-06T13:31:44.458Z</time></trkpt><trkpt lat="43.760068" lon="11.3036517"><ele>56.0</ele><time>2026-04-06T13:31:45.469Z</time></trkpt><trkpt lat="43.7598343" lon="11.303664"><ele>56.0</ele><time>2026-04-06T13:31:46.464Z</time></trkpt><trkpt lat="43.7596064" lon="11.3036561"><ele>56.0</ele><time>2026-04-06T13:31:47.467Z</time></trkpt><trkpt lat="43.7593837" lon="11.3036327"><ele>56.0</ele><time>2026-04-06T13:31:48.461Z</time></trkpt><trkpt lat="43.7591542" lon="11.3035927"><ele>56.333333333333336</ele><time>2026-04-06T13:31:49.457Z</time></trkpt><trkpt lat="43.7589367" lon="11.3035328"><ele>56.66666666666667</ele><time>2026-04-06T13:31:50.464Z</time></trkpt><trkpt lat="43.7587186" lon="11.3034519"><ele>57.0</ele><time>2026-04-06T13:31:51.46Z</time></trkpt><trkpt lat="43.7585057" lon="11.3033591"><ele>57.0</ele><time>2026-04-06T13:31:52.463Z</time></trkpt><trkpt lat="43.7583065" lon="11.3032473"><ele>57.0</ele><time>2026-04-06T13:31:53.456Z</time></trkpt><trkpt lat="43.7581034" lon="11.3031238"><ele>57.0</ele><time>2026-04-06T13:31:54.471Z</time></trkpt><trkpt lat="43.757893" lon="11.3029986"><ele>58.0</ele><time>2026-04-06T13:31:55.466Z</time></trkpt><trkpt lat="43.757679" lon="11.3028773"><ele>59.0</ele><time>2026-04-06T13:31:56.466Z</time></trkpt><trkpt lat="43.7574604" lon="11.3027598"><ele>59.0</ele><time>2026-04-06T13:31:57.464Z</time></trkpt><trkpt lat="43.7572397" lon="11.302639"><ele>59.0</ele><time>2026-04-06T13:31:58.461Z</time></trkpt><trkpt lat="43.7570082" lon="11.3025117"><ele>58.5</ele><time>2026-04-06T13:31:59.464Z</time></trkpt><trkpt lat="43.7567859" lon="11.3023746"><ele>58.0</ele><time>2026-04-06T13:32:00.462Z</time></trkpt><trkpt lat="43.7565604" lon="11.3022444"><ele>57.0</ele><time>2026-04-06T13:32:01.461Z</time></trkpt><trkpt lat="43.7563367" lon="11.3021159"><ele>56.0</ele><time>2026-04-06T13:32:02.469Z</time></trkpt><trkpt lat="43.7561178" lon="11.3019953"><ele>56.5</ele><time>2026-04-06T13:32:03.475Z</time></trkpt><trkpt lat="43.7558919" lon="11.3018587"><ele>57.0</ele><time>2026-04-06T13:32:04.472Z</time></trkpt><trkpt lat="43.7556484" lon="11.3017177"><ele>57.0</ele><time>2026-04-06T13:32:05.47Z</time></trkpt><trkpt lat="43.7554225" lon="11.3015743"><ele>57.0</ele><time>2026-04-06T13:32:06.471Z</time></trkpt><trkpt lat="43.7551861" lon="11.301435"><ele>57.33333333333333</ele><time>2026-04-06T13:32:07.466Z</time></trkpt><trkpt lat="43.7549912" lon="11.301325"><ele>57.666666666666664</ele><time>2026-04-06T13:32:08.476Z</time></trkpt><trkpt lat="43.7547905" lon="11.3012082"><ele>58.0</ele><time>2026-04-06T13:32:09.497Z</time></trkpt><trkpt lat="43.7545949" lon="11.3010884"><ele>58.0</ele><time>2026-04-06T13:32:10.557Z</time></trkpt><trkpt lat="43.754399" lon="11.30097"><ele>58.0</ele><time>2026-04-06T13:32:11.563Z</time></trkpt><trkpt lat="43.7541983" lon="11.3008467"><ele>58.0</ele><time>2026-04-06T13:32:12.566Z</time></trkpt><trkpt lat="43.7539886" lon="11.3007225"><ele>57.5</ele><time>2026-04-06T13:32:13.564Z</time></trkpt><trkpt lat="43.7537731" lon="11.3005965"><ele>57.0</ele><time>2026-04-06T13:32:14.559Z</time></trkpt><trkpt lat="43.7535546" lon="11.3004696"><ele>56.5</ele><time>2026-04-06T13:32:15.561Z</time></trkpt><trkpt lat="43.7533319" lon="11.3003383"><ele>56.0</ele><time>2026-04-06T13:32:16.562Z</time></trkpt><trkpt lat="43.7531107" lon="11.3002049"><ele>56.0</ele><time>2026-04-06T13:32:17.56Z</time></trkpt><trkpt lat="43.7528877" lon="11.3000703"><ele>56.0</ele><time>2026-04-06T13:32:18.561Z</time></trkpt><trkpt lat="43.7526623" lon="11.299931"><ele>56.5</ele><time>2026-04-06T13:32:19.558Z</time></trkpt><trkpt lat="43.7524397" lon="11.2997834"><ele>57.0</ele><time>2026-04-06T13:32:20.563Z</time></trkpt><trkpt lat="43.75223" lon="11.2996173"><ele>58.0</ele><time>2026-04-06T13:32:21.565Z</time></trkpt><trkpt lat="43.752009" lon="11.2994542"><ele>59.0</ele><time>2026-04-06T13:32:22.56Z</time></trkpt><trkpt lat="43.7517892" lon="11.2992843"><ele>59.0</ele><time>2026-04-06T13:32:23.564Z</time></trkpt><trkpt lat="43.7515743" lon="11.2991069"><ele>59.0</ele><time>2026-04-06T13:32:24.563Z</time></trkpt><trkpt lat="43.7513638" lon="11.298921"><ele>58.5</ele><time>2026-04-06T13:32:25.56Z</time></trkpt><trkpt lat="43.7511579" lon="11.2987247"><ele>58.0</ele><time>2026-04-06T13:32:26.558Z</time></trkpt><trkpt lat="43.7509546" lon="11.2985214"><ele>59.0</ele><time>2026-04-06T13:32:27.565Z</time></trkpt><trkpt lat="43.750758" lon="11.2983109"><ele>60.0</ele><time>2026-04-06T13:32:28.565Z</time></trkpt><trkpt lat="43.7505647" lon="11.2980964"><ele>61.0</ele><time>2026-04-06T13:32:29.559Z</time></trkpt><trkpt lat="43.7503748" lon="11.2978859"><ele>62.0</ele><time>2026-04-06T13:32:30.556Z</time></trkpt><trkpt lat="43.7501862" lon="11.2976778"><ele>62.0</ele><time>2026-04-06T13:32:31.558Z</time></trkpt><trkpt lat="43.7499989" lon="11.297474"><ele>62.0</ele><time>2026-04-06T13:32:32.559Z</time></trkpt><trkpt lat="43.7498115" lon="11.2972709"><ele>62.0</ele><time>2026-04-06T13:32:33.563Z</time></trkpt><trkpt lat="43.7496247" lon="11.2970703"><ele>62.0</ele><time>2026-04-06T13:32:34.56Z</time></trkpt><trkpt lat="43.7494389" lon="11.2968689"><ele>64.5</ele><time>2026-04-06T13:32:35.562Z</time></trkpt><trkpt lat="43.7492545" lon="11.2966728"><ele>67.0</ele><time>2026-04-06T13:32:36.558Z</time></trkpt><trkpt lat="43.7490763" lon="11.2964743"><ele>65.5</ele><time>2026-04-06T13:32:37.559Z</time></trkpt><trkpt lat="43.7489065" lon="11.2962646"><ele>64.0</ele><time>2026-04-06T13:32:38.55Z</time></trkpt><trkpt lat="43.7487498" lon="11.2960388"><ele>64.0</ele><time>2026-04-06T13:32:39.551Z</time></trkpt><trkpt lat="43.7486056" lon="11.2958053"><ele>64.0</ele><time>2026-04-06T13:32:40.55Z</time></trkpt><trkpt lat="43.7484856" lon="11.2955527"><ele>64.0</ele><time>2026-04-06T13:32:41.54Z</time></trkpt><trkpt lat="43.7483938" lon="11.2952824"><ele>67.33333333333333</ele><time>2026-04-06T13:32:42.539Z</time></trkpt><trkpt lat="43.748322" lon="11.2949986"><ele>70.66666666666667</ele><time>2026-04-06T13:32:43.545Z</time></trkpt><trkpt lat="43.7482698" lon="11.2947004"><ele>74.0</ele><time>2026-04-06T13:32:44.536Z</time></trkpt><trkpt lat="43.7482363" lon="11.2943971"><ele>74.33333333333334</ele><time>2026-04-06T13:32:45.548Z</time></trkpt><trkpt lat="43.7482199" lon="11.2940912"><ele>74.66666666666667</ele><time>2026-04-06T13:32:46.555Z</time></trkpt><trkpt lat="43.7482225" lon="11.2937798"><ele>75.0</ele><time>2026-04-06T13:32:47.543Z</time></trkpt><trkpt lat="43.748237" lon="11.2934692"><ele>75.66666666666667</ele><time>2026-04-06T13:32:48.545Z</time></trkpt><trkpt lat="43.7482533" lon="11.2931628"><ele>76.33333333333334</ele><time>2026-04-06T13:32:49.545Z</time></trkpt><trkpt lat="43.7482678" lon="11.2928571"><ele>77.0</ele><time>2026-04-06T13:32:50.545Z</time></trkpt><trkpt lat="43.7482848" lon="11.2925484"><ele>78.5</ele><time>2026-04-06T13:32:51.555Z</time></trkpt><trkpt lat="43.748301" lon="11.2922355"><ele>80.0</ele><time>2026-04-06T13:32:52.559Z</time></trkpt><trkpt lat="43.7483167" lon="11.2919186"><ele>80.0</ele><time>2026-04-06T13:32:53.559Z</time></trkpt><trkpt lat="43.7483336" lon="11.2916011"><ele>80.0</ele><time>2026-04-06T13:32:54.558Z</time></trkpt><trkpt lat="43.7483493" lon="11.2912832"><ele>83.5</ele><time>2026-04-06T13:32:55.557Z</time></trkpt><trkpt lat="43.7483626" lon="11.2909638"><ele>87.0</ele><time>2026-04-06T13:32:56.557Z</time></trkpt><trkpt lat="43.7483661" lon="11.2906386"><ele>89.0</ele><time>2026-04-06T13:32:57.562Z</time></trkpt><trkpt lat="43.748355" lon="11.2903188"><ele>91.0</ele><time>2026-04-06T13:32:58.552Z</time></trkpt><trkpt lat="43.748322" lon="11.2900033"><ele>93.5</ele><time>2026-04-06T13:32:59.55Z</time></trkpt><trkpt lat="43.7482702" lon="11.2896937"><ele>96.0</ele><time>2026-04-06T13:33:00.541Z</time></trkpt><trkpt lat="43.7482005" lon="11.2893963"><ele>96.0</ele><time>2026-04-06T13:33:01.54Z</time></trkpt><trkpt lat="43.7481107" lon="11.2891081"><ele>96.0</ele><time>2026-04-06T13:33:02.542Z</time></trkpt><trkpt lat="43.7480032" lon="11.288834"><ele>96.0</ele><time>2026-04-06T13:33:03.542Z</time></trkpt><trkpt lat="43.7478853" lon="11.2885773"><ele>96.0</ele><time>2026-04-06T13:33:04.547Z</time></trkpt><trkpt lat="43.7477638" lon="11.2883322"><ele>96.0</ele><time>2026-04-06T13:33:05.56Z</time></trkpt><trkpt lat="43.7476465" lon="11.2880977"><ele>97.33333333333334</ele><time>2026-04-06T13:33:06.564Z</time></trkpt><trkpt lat="43.7475356" lon="11.28787"><ele>98.66666666666667</ele><time>2026-04-06T13:33:07.562Z</time></trkpt><trkpt lat="43.747429" lon="11.2876412"><ele>100.0</ele><time>2026-04-06T13:33:08.561Z</time></trkpt><trkpt lat="43.7473245" lon="11.2874085"><ele>104.0</ele><time>2026-04-06T13:33:09.56Z</time></trkpt><trkpt lat="43.747224" lon="11.2871704"><ele>108.0</ele><time>2026-04-06T13:33:10.563Z</time></trkpt><trkpt lat="43.7471269" lon="11.2869294"><ele>112.0</ele><time>2026-04-06T13:33:11.552Z</time></trkpt><trkpt lat="43.7470355" lon="11.2866998"><ele>112.0</ele><time>2026-04-06T13:33:12.555Z</time></trkpt><trkpt lat="43.7469538" lon="11.2864831"><ele>112.0</ele><time>2026-04-06T13:33:13.567Z</time></trkpt><trkpt lat="43.7468777" lon="11.286281"><ele>112.0</ele><time>2026-04-06T13:33:14.56Z</time></trkpt><trkpt lat="43.7468089" lon="11.2860887"><ele>108.5</ele><time>2026-04-06T13:33:15.569Z</time></trkpt><trkpt lat="43.7467422" lon="11.2859039"><ele>105.0</ele><time>2026-04-06T13:33:16.558Z</time></trkpt><trkpt lat="43.7466768" lon="11.2857232"><ele>101.5</ele><time>2026-04-06T13:33:17.558Z</time></trkpt><trkpt lat="43.7466161" lon="11.2855572"><ele>98.0</ele><time>2026-04-06T13:33:18.56Z</time></trkpt><trkpt lat="43.7465583" lon="11.2853978"><ele>98.0</ele><time>2026-04-06T13:33:19.559Z</time></trkpt><trkpt lat="43.7465034" lon="11.2852461"><ele>98.0</ele><time>2026-04-06T13:33:20.56Z</time></trkpt><trkpt lat="43.7464493" lon="11.2850928"><ele>98.0</ele><time>2026-04-06T13:33:21.561Z</time></trkpt><trkpt lat="43.7463926" lon="11.2849313"><ele>98.0</ele><time>2026-04-06T13:33:22.564Z</time></trkpt><trkpt lat="43.7463309" lon="11.2847591"><ele>96.75</ele><time>2026-04-06T13:33:23.563Z</time></trkpt><trkpt lat="43.7462639" lon="11.2845869"><ele>95.5</ele><time>2026-04-06T13:33:24.563Z</time></trkpt><trkpt lat="43.7461929" lon="11.2844129"><ele>94.25</ele><time>2026-04-06T13:33:25.563Z</time></trkpt><trkpt lat="43.7461205" lon="11.2842379"><ele>93.0</ele><time>2026-04-06T13:33:26.564Z</time></trkpt><trkpt lat="43.7460459" lon="11.2840638"><ele>89.0</ele><time>2026-04-06T13:33:27.559Z</time></trkpt><trkpt lat="43.7459593" lon="11.2838942"><ele>85.0</ele><time>2026-04-06T13:33:28.563Z</time></trkpt><trkpt lat="43.7457663" lon="11.2835844"><ele>81.0</ele><time>2026-04-06T13:33:30.541Z</time></trkpt><trkpt lat="43.7456643" lon="11.2834394"><ele>81.0</ele><time>2026-04-06T13:33:31.545Z</time></trkpt><trkpt lat="43.7455586" lon="11.2833034"><ele>81.0</ele><time>2026-04-06T13:33:32.541Z</time></trkpt><trkpt lat="43.7454467" lon="11.2831803"><ele>81.0</ele><time>2026-04-06T13:33:33.535Z</time></trkpt><trkpt lat="43.7453257" lon="11.2830675"><ele>81.0</ele><time>2026-04-06T13:33:34.559Z</time></trkpt><trkpt lat="43.7452037" lon="11.2829498"><ele>79.0</ele><time>2026-04-06T13:33:35.551Z</time></trkpt><trkpt lat="43.7450773" lon="11.2828262"><ele>77.0</ele><time>2026-04-06T13:33:36.557Z</time></trkpt><trkpt lat="43.7449482" lon="11.2827054"><ele>75.0</ele><time>2026-04-06T13:33:37.557Z</time></trkpt><trkpt lat="43.744826" lon="11.2825895"><ele>75.0</ele><time>2026-04-06T13:33:38.556Z</time></trkpt><trkpt lat="43.7447114" lon="11.2824787"><ele>75.0</ele><time>2026-04-06T13:33:39.551Z</time></trkpt><trkpt lat="43.7446002" lon="11.2823772"><ele>75.0</ele><time>2026-04-06T13:33:40.564Z</time></trkpt><trkpt lat="43.744498" lon="11.2822772"><ele>75.0</ele><time>2026-04-06T13:33:41.549Z</time></trkpt><trkpt lat="43.7444063" lon="11.282168"><ele>75.2</ele><time>2026-04-06T13:33:42.554Z</time></trkpt><trkpt lat="43.7443331" lon="11.2820457"><ele>75.4</ele><time>2026-04-06T13:33:43.548Z</time></trkpt><trkpt lat="43.7442863" lon="11.28192"><ele>75.6</ele><time>2026-04-06T13:33:44.543Z</time></trkpt><trkpt lat="43.7442756" lon="11.2818013"><ele>75.8</ele><time>2026-04-06T13:33:45.536Z</time></trkpt><trkpt lat="43.744299" lon="11.2816894"><ele>76.0</ele><time>2026-04-06T13:33:46.542Z</time></trkpt><trkpt lat="43.7443454" lon="11.2815968"><ele>75.8</ele><time>2026-04-06T13:33:47.532Z</time></trkpt><trkpt lat="43.7444184" lon="11.2815395"><ele>75.6</ele><time>2026-04-06T13:33:48.47Z</time></trkpt><trkpt lat="43.7445114" lon="11.2815212"><ele>75.4</ele><time>2026-04-06T13:33:49.467Z</time></trkpt><trkpt lat="43.7446052" lon="11.2815443"><ele>75.2</ele><time>2026-04-06T13:33:50.464Z</time></trkpt><trkpt lat="43.7446868" lon="11.281632"><ele>75.0</ele><time>2026-04-06T13:33:51.46Z</time></trkpt><trkpt lat="43.7447569" lon="11.2817542"><ele>75.0</ele><time>2026-04-06T13:33:52.454Z</time></trkpt><trkpt lat="43.7447935" lon="11.2819079"><ele>75.0</ele><time>2026-04-06T13:33:53.465Z</time></trkpt><trkpt lat="43.7447806" lon="11.2820804"><ele>75.0</ele><time>2026-04-06T13:33:54.466Z</time></trkpt><trkpt lat="43.7447283" lon="11.2822598"><ele>75.0</ele><time>2026-04-06T13:33:55.46Z</time></trkpt><trkpt lat="43.7446641" lon="11.2824369"><ele>75.0</ele><time>2026-04-06T13:33:56.462Z</time></trkpt><trkpt lat="43.744588" lon="11.2826106"><ele>75.0</ele><time>2026-04-06T13:33:57.454Z</time></trkpt><trkpt lat="43.7444848" lon="11.2828113"><ele>75.0</ele><time>2026-04-06T13:33:58.457Z</time></trkpt><trkpt lat="43.744383" lon="11.2830242"><ele>75.33333333333333</ele><time>2026-04-06T13:33:59.458Z</time></trkpt><trkpt lat="43.7442926" lon="11.2832473"><ele>75.66666666666666</ele><time>2026-04-06T13:34:00.464Z</time></trkpt><trkpt lat="43.7442124" lon="11.2834636"><ele>76.0</ele><time>2026-04-06T13:34:01.461Z</time></trkpt><trkpt lat="43.7441347" lon="11.2836663"><ele>76.0</ele><time>2026-04-06T13:34:02.47Z</time></trkpt><trkpt lat="43.7440512" lon="11.2838684"><ele>76.0</ele><time>2026-04-06T13:34:03.474Z</time></trkpt><trkpt lat="43.7439585" lon="11.284072"><ele>76.0</ele><time>2026-04-06T13:34:04.468Z</time></trkpt><trkpt lat="43.7438695" lon="11.2842877"><ele>76.0</ele><time>2026-04-06T13:34:05.475Z</time></trkpt><trkpt lat="43.743763" lon="11.2845061"><ele>76.0</ele><time>2026-04-06T13:34:06.473Z</time></trkpt><trkpt lat="43.7436589" lon="11.2847205"><ele>76.0</ele><time>2026-04-06T13:34:07.476Z</time></trkpt><trkpt lat="43.7435686" lon="11.2849075"><ele>75.5</ele><time>2026-04-06T13:34:08.47Z</time></trkpt><trkpt lat="43.7434851" lon="11.2850732"><ele>75.0</ele><time>2026-04-06T13:34:09.476Z</time></trkpt><trkpt lat="43.7433978" lon="11.2852408"><ele>74.5</ele><time>2026-04-06T13:34:10.475Z</time></trkpt><trkpt lat="43.743311" lon="11.2853899"><ele>74.0</ele><time>2026-04-06T13:34:11.471Z</time></trkpt><trkpt lat="43.7432338" lon="11.28553"><ele>74.5</ele><time>2026-04-06T13:34:12.473Z</time></trkpt><trkpt lat="43.7431616" lon="11.2856793"><ele>75.0</ele><time>2026-04-06T13:34:13.474Z</time></trkpt><trkpt lat="43.7430966" lon="11.2858137"><ele>75.5</ele><time>2026-04-06T13:34:14.472Z</time></trkpt><trkpt lat="43.7430365" lon="11.2859467"><ele>76.0</ele><time>2026-04-06T13:34:15.469Z</time></trkpt><trkpt lat="43.7429651" lon="11.2860972"><ele>76.0</ele><time>2026-04-06T13:34:16.465Z</time></trkpt><trkpt lat="43.7428906" lon="11.286258"><ele>76.0</ele><time>2026-04-06T13:34:17.469Z</time></trkpt><trkpt lat="43.7428101" lon="11.2864301"><ele>76.0</ele><time>2026-04-06T13:34:18.469Z</time></trkpt><trkpt lat="43.7427308" lon="11.286612"><ele>76.0</ele><time>2026-04-06T13:34:19.471Z</time></trkpt><trkpt lat="43.7426577" lon="11.2867869"><ele>76.0</ele><time>2026-04-06T13:34:20.474Z</time></trkpt><trkpt lat="43.7425864" lon="11.2869418"><ele>76.0</ele><time>2026-04-06T13:34:21.469Z</time></trkpt><trkpt lat="43.742511" lon="11.2870732"><ele>76.0</ele><time>2026-04-06T13:34:22.468Z</time></trkpt><trkpt lat="43.7424328" lon="11.2871989"><ele>76.0</ele><time>2026-04-06T13:34:23.47Z</time></trkpt><trkpt lat="43.7423436" lon="11.2872974"><ele>76.25</ele><time>2026-04-06T13:34:24.475Z</time></trkpt><trkpt lat="43.7422381" lon="11.287351"><ele>76.5</ele><time>2026-04-06T13:34:25.472Z</time></trkpt><trkpt lat="43.7421219" lon="11.2873683"><ele>76.75</ele><time>2026-04-06T13:34:26.468Z</time></trkpt><trkpt lat="43.7419948" lon="11.2873488"><ele>77.0</ele><time>2026-04-06T13:34:27.462Z</time></trkpt><trkpt lat="43.7418561" lon="11.2873155"><ele>77.0</ele><time>2026-04-06T13:34:28.483Z</time></trkpt><trkpt lat="43.7417145" lon="11.2872815"><ele>77.0</ele><time>2026-04-06T13:34:29.477Z</time></trkpt><trkpt lat="43.7415723" lon="11.2872489"><ele>77.0</ele><time>2026-04-06T13:34:30.478Z</time></trkpt><trkpt lat="43.7414473" lon="11.2872134"><ele>77.0</ele><time>2026-04-06T13:34:31.472Z</time></trkpt><trkpt lat="43.7413295" lon="11.2871813"><ele>77.0</ele><time>2026-04-06T13:34:32.479Z</time></trkpt><trkpt lat="43.7412248" lon="11.2871628"><ele>77.0</ele><time>2026-04-06T13:34:33.465Z</time></trkpt><trkpt lat="43.7411183" lon="11.2871599"><ele>77.0</ele><time>2026-04-06T13:34:34.473Z</time></trkpt><trkpt lat="43.7410217" lon="11.2871658"><ele>77.0</ele><time>2026-04-06T13:34:35.473Z</time></trkpt><trkpt lat="43.7409323" lon="11.2871688"><ele>77.0</ele><time>2026-04-06T13:34:36.471Z</time></trkpt><trkpt lat="43.7408471" lon="11.2871539"><ele>77.16666666666667</ele><time>2026-04-06T13:34:37.466Z</time></trkpt><trkpt lat="43.7407757" lon="11.2871182"><ele>77.33333333333334</ele><time>2026-04-06T13:34:38.468Z</time></trkpt><trkpt lat="43.7406683" lon="11.2870821"><ele>77.5</ele><time>2026-04-06T13:34:40.469Z</time></trkpt><trkpt lat="43.7406027" lon="11.2871859"><ele>77.66666666666667</ele><time>2026-04-06T13:34:42.47Z</time></trkpt><trkpt lat="43.7405714" lon="11.2872707"><ele>77.83333333333333</ele><time>2026-04-06T13:34:43.472Z</time></trkpt><trkpt lat="43.7405173" lon="11.2873625"><ele>78.0</ele><time>2026-04-06T13:34:44.471Z</time></trkpt><trkpt lat="43.7404348" lon="11.2874548"><ele>78.0</ele><time>2026-04-06T13:34:45.468Z</time></trkpt><trkpt lat="43.740335" lon="11.2875538"><ele>78.0</ele><time>2026-04-06T13:34:46.475Z</time></trkpt><trkpt lat="43.7402331" lon="11.2876527"><ele>78.0</ele><time>2026-04-06T13:34:47.465Z</time></trkpt><trkpt lat="43.7401406" lon="11.287751"><ele>78.0</ele><time>2026-04-06T13:34:48.471Z</time></trkpt><trkpt lat="43.7400584" lon="11.2878578"><ele>78.25</ele><time>2026-04-06T13:34:49.471Z</time></trkpt><trkpt lat="43.7399761" lon="11.2879723"><ele>78.5</ele><time>2026-04-06T13:34:50.473Z</time></trkpt><trkpt lat="43.7398972" lon="11.2880903"><ele>78.75</ele><time>2026-04-06T13:34:51.483Z</time></trkpt><trkpt lat="43.7398217" lon="11.2882193"><ele>79.0</ele><time>2026-04-06T13:34:52.48Z</time></trkpt><trkpt lat="43.7397461" lon="11.2883525"><ele>79.0</ele><time>2026-04-06T13:34:53.482Z</time></trkpt><trkpt lat="43.7396752" lon="11.2884881"><ele>79.0</ele><time>2026-04-06T13:34:54.477Z</time></trkpt><trkpt lat="43.7396028" lon="11.2886239"><ele>79.0</ele><time>2026-04-06T13:34:55.474Z</time></trkpt><trkpt lat="43.7395344" lon="11.2887601"><ele>79.0</ele><time>2026-04-06T13:34:56.48Z</time></trkpt><trkpt lat="43.739469" lon="11.2888944"><ele>78.75</ele><time>2026-04-06T13:34:57.478Z</time></trkpt><trkpt lat="43.7394011" lon="11.2890307"><ele>78.5</ele><time>2026-04-06T13:34:58.485Z</time></trkpt><trkpt lat="43.7393312" lon="11.2891739"><ele>78.25</ele><time>2026-04-06T13:34:59.48Z</time></trkpt><trkpt lat="43.7392515" lon="11.2893314"><ele>78.0</ele><time>2026-04-06T13:35:00.483Z</time></trkpt><trkpt lat="43.7391673" lon="11.2894932"><ele>79.0</ele><time>2026-04-06T13:35:01.473Z</time></trkpt><trkpt lat="43.7390775" lon="11.289669"><ele>80.0</ele><time>2026-04-06T13:35:02.48Z</time></trkpt><trkpt lat="43.7390074" lon="11.289835"><ele>81.0</ele><time>2026-04-06T13:35:03.48Z</time></trkpt><trkpt lat="43.7389334" lon="11.2899982"><ele>82.0</ele><time>2026-04-06T13:35:04.475Z</time></trkpt><trkpt lat="43.7388732" lon="11.2901514"><ele>82.0</ele><time>2026-04-06T13:35:05.474Z</time></trkpt><trkpt lat="43.7388122" lon="11.2902908"><ele>82.0</ele><time>2026-04-06T13:35:06.472Z</time></trkpt><trkpt lat="43.7387469" lon="11.2904197"><ele>82.0</ele><time>2026-04-06T13:35:07.472Z</time></trkpt><trkpt lat="43.7386935" lon="11.2905464"><ele>82.0</ele><time>2026-04-06T13:35:08.474Z</time></trkpt><trkpt lat="43.738644" lon="11.2906779"><ele>82.0</ele><time>2026-04-06T13:35:09.476Z</time></trkpt><trkpt lat="43.7385996" lon="11.2908166"><ele>82.0</ele><time>2026-04-06T13:35:10.474Z</time></trkpt><trkpt lat="43.7385554" lon="11.2909588"><ele>82.0</ele><time>2026-04-06T13:35:11.47Z</time></trkpt><trkpt lat="43.73852" lon="11.2910908"><ele>82.0</ele><time>2026-04-06T13:35:12.475Z</time></trkpt><trkpt lat="43.7384905" lon="11.2912128"><ele>82.0</ele><time>2026-04-06T13:35:13.475Z</time></trkpt><trkpt lat="43.738457" lon="11.2913251"><ele>82.0</ele><time>2026-04-06T13:35:14.471Z</time></trkpt><trkpt lat="43.738425" lon="11.2914334"><ele>82.0</ele><time>2026-04-06T13:35:15.47Z</time></trkpt><trkpt lat="43.7383948" lon="11.2915528"><ele>82.0</ele><time>2026-04-06T13:35:16.472Z</time></trkpt><trkpt lat="43.7383681" lon="11.291692"><ele>82.0</ele><time>2026-04-06T13:35:17.473Z</time></trkpt><trkpt lat="43.7383368" lon="11.2918493"><ele>82.0</ele><time>2026-04-06T13:35:18.476Z</time></trkpt><trkpt lat="43.738306" lon="11.2920139"><ele>82.0</ele><time>2026-04-06T13:35:19.475Z</time></trkpt><trkpt lat="43.7382753" lon="11.2921797"><ele>81.6</ele><time>2026-04-06T13:35:20.47Z</time></trkpt><trkpt lat="43.7382482" lon="11.292337"><ele>81.19999999999999</ele><time>2026-04-06T13:35:21.477Z</time></trkpt><trkpt lat="43.7382239" lon="11.2924805"><ele>80.8</ele><time>2026-04-06T13:35:22.473Z</time></trkpt><trkpt lat="43.7382" lon="11.2926099"><ele>80.4</ele><time>2026-04-06T13:35:23.478Z</time></trkpt><trkpt lat="43.7381752" lon="11.29273"><ele>80.0</ele><time>2026-04-06T13:35:24.474Z</time></trkpt><trkpt lat="43.7381492" lon="11.2928452"><ele>80.0</ele><time>2026-04-06T13:35:25.474Z</time></trkpt><trkpt lat="43.7381265" lon="11.2929452"><ele>80.0</ele><time>2026-04-06T13:35:26.476Z</time></trkpt><trkpt lat="43.7381019" lon="11.2930316"><ele>80.0</ele><time>2026-04-06T13:35:27.474Z</time></trkpt><trkpt lat="43.7380342" lon="11.2931735"><ele>80.0</ele><time>2026-04-06T13:35:29.478Z</time></trkpt><trkpt lat="43.7379955" lon="11.2932497"><ele>80.0</ele><time>2026-04-06T13:35:30.468Z</time></trkpt><trkpt lat="43.7379804" lon="11.2934195"><ele>80.0</ele><time>2026-04-06T13:35:32.462Z</time></trkpt><trkpt lat="43.7379996" lon="11.2935219"><ele>80.0</ele><time>2026-04-06T13:35:33.476Z</time></trkpt><trkpt lat="43.7380056" lon="11.2936313"><ele>80.0</ele><time>2026-04-06T13:35:34.467Z</time></trkpt><trkpt lat="43.7379937" lon="11.2937503"><ele>80.0</ele><time>2026-04-06T13:35:35.469Z</time></trkpt><trkpt lat="43.7379694" lon="11.2938809"><ele>80.0</ele><time>2026-04-06T13:35:36.475Z</time></trkpt><trkpt lat="43.7379324" lon="11.2940273"><ele>79.75</ele><time>2026-04-06T13:35:37.471Z</time></trkpt><trkpt lat="43.7378891" lon="11.2941984"><ele>79.5</ele><time>2026-04-06T13:35:38.477Z</time></trkpt><trkpt lat="43.7378365" lon="11.2943773"><ele>79.25</ele><time>2026-04-06T13:35:39.478Z</time></trkpt><trkpt lat="43.7377749" lon="11.294535"><ele>79.0</ele><time>2026-04-06T13:35:40.479Z</time></trkpt><trkpt lat="43.7377066" lon="11.2946734"><ele>79.0</ele><time>2026-04-06T13:35:41.468Z</time></trkpt><trkpt lat="43.7376218" lon="11.2948114"><ele>79.0</ele><time>2026-04-06T13:35:42.472Z</time></trkpt><trkpt lat="43.7375208" lon="11.2949526"><ele>79.0</ele><time>2026-04-06T13:35:43.476Z</time></trkpt><trkpt lat="43.7374055" lon="11.2950984"><ele>79.0</ele><time>2026-04-06T13:35:44.469Z</time></trkpt><trkpt lat="43.7372748" lon="11.2952415"><ele>79.0</ele><time>2026-04-06T13:35:45.463Z</time></trkpt><trkpt lat="43.7371381" lon="11.2953654"><ele>79.0</ele><time>2026-04-06T13:35:46.462Z</time></trkpt><trkpt lat="43.7370153" lon="11.2954661"><ele>79.0</ele><time>2026-04-06T13:35:47.475Z</time></trkpt><trkpt lat="43.7369007" lon="11.2955602"><ele>79.0</ele><time>2026-04-06T13:35:48.481Z</time></trkpt><trkpt lat="43.7367676" lon="11.2956536"><ele>80.66666666666666</ele><time>2026-04-06T13:35:49.476Z</time></trkpt><trkpt lat="43.7366339" lon="11.2957532"><ele>82.33333333333333</ele><time>2026-04-06T13:35:50.463Z</time></trkpt><trkpt lat="43.7364926" lon="11.2958647"><ele>84.0</ele><time>2026-04-06T13:35:51.456Z</time></trkpt><trkpt lat="43.7363594" lon="11.2959682"><ele>84.0</ele><time>2026-04-06T13:35:52.444Z</time></trkpt><trkpt lat="43.7362021" lon="11.2960745"><ele>84.0</ele><time>2026-04-06T13:35:53.454Z</time></trkpt><trkpt lat="43.7360367" lon="11.2961952"><ele>84.0</ele><time>2026-04-06T13:35:54.458Z</time></trkpt><trkpt lat="43.7358672" lon="11.2962749"><ele>84.0</ele><time>2026-04-06T13:35:55.467Z</time></trkpt><trkpt lat="43.7356958" lon="11.2963562"><ele>84.0</ele><time>2026-04-06T13:35:56.461Z</time></trkpt><trkpt lat="43.7355328" lon="11.2964405"><ele>84.0</ele><time>2026-04-06T13:35:57.471Z</time></trkpt><trkpt lat="43.7353734" lon="11.2965196"><ele>84.66666666666667</ele><time>2026-04-06T13:35:58.474Z</time></trkpt><trkpt lat="43.7352261" lon="11.2965851"><ele>85.33333333333334</ele><time>2026-04-06T13:35:59.467Z</time></trkpt><trkpt lat="43.7350815" lon="11.2966459"><ele>86.0</ele><time>2026-04-06T13:36:00.47Z</time></trkpt><trkpt lat="43.7349388" lon="11.296696"><ele>86.0</ele><time>2026-04-06T13:36:01.472Z</time></trkpt><trkpt lat="43.7347968" lon="11.2967355"><ele>86.0</ele><time>2026-04-06T13:36:02.474Z</time></trkpt><trkpt lat="43.7346589" lon="11.2967671"><ele>86.0</ele><time>2026-04-06T13:36:03.471Z</time></trkpt><trkpt lat="43.7345355" lon="11.296798"><ele>86.0</ele><time>2026-04-06T13:36:04.472Z</time></trkpt><trkpt lat="43.7344195" lon="11.2968384"><ele>85.8</ele><time>2026-04-06T13:36:05.47Z</time></trkpt><trkpt lat="43.7343204" lon="11.2968788"><ele>85.6</ele><time>2026-04-06T13:36:06.474Z</time></trkpt><trkpt lat="43.7342294" lon="11.296905"><ele>85.4</ele><time>2026-04-06T13:36:07.473Z</time></trkpt><trkpt lat="43.7341429" lon="11.296929"><ele>85.2</ele><time>2026-04-06T13:36:08.471Z</time></trkpt><trkpt lat="43.7340419" lon="11.2969514"><ele>85.0</ele><time>2026-04-06T13:36:09.469Z</time></trkpt><trkpt lat="43.7339404" lon="11.2969686"><ele>85.0</ele><time>2026-04-06T13:36:10.466Z</time></trkpt><trkpt lat="43.7338226" lon="11.2969766"><ele>85.0</ele><time>2026-04-06T13:36:11.461Z</time></trkpt><trkpt lat="43.7336954" lon="11.2969752"><ele>85.0</ele><time>2026-04-06T13:36:12.465Z</time></trkpt><trkpt lat="43.7335617" lon="11.2969573"><ele>85.0</ele><time>2026-04-06T13:36:13.466Z</time></trkpt><trkpt lat="43.7334189" lon="11.296924"><ele>85.33333333333333</ele><time>2026-04-06T13:36:14.463Z</time></trkpt><trkpt lat="43.7332772" lon="11.2968828"><ele>85.66666666666667</ele><time>2026-04-06T13:36:15.462Z</time></trkpt><trkpt lat="43.7331138" lon="11.2968348"><ele>86.0</ele><time>2026-04-06T13:36:16.464Z</time></trkpt><trkpt lat="43.7329733" lon="11.2967928"><ele>86.0</ele><time>2026-04-06T13:36:17.453Z</time></trkpt><trkpt lat="43.7328534" lon="11.2967493"><ele>86.0</ele><time>2026-04-06T13:36:18.465Z</time></trkpt><trkpt lat="43.7327389" lon="11.2967225"><ele>86.0</ele><time>2026-04-06T13:36:19.465Z</time></trkpt><trkpt lat="43.7326312" lon="11.2966959"><ele>86.0</ele><time>2026-04-06T13:36:20.468Z</time></trkpt><trkpt lat="43.7325243" lon="11.2966725"><ele>86.25</ele><time>2026-04-06T13:36:21.47Z</time></trkpt><trkpt lat="43.7324118" lon="11.2966438"><ele>86.5</ele><time>2026-04-06T13:36:22.469Z</time></trkpt><trkpt lat="43.7322889" lon="11.2966103"><ele>86.75</ele><time>2026-04-06T13:36:23.469Z</time></trkpt><trkpt lat="43.7321544" lon="11.296562"><ele>87.0</ele><time>2026-04-06T13:36:24.468Z</time></trkpt><trkpt lat="43.7320206" lon="11.2965129"><ele>87.0</ele><time>2026-04-06T13:36:25.462Z</time></trkpt><trkpt lat="43.7318969" lon="11.2964543"><ele>87.0</ele><time>2026-04-06T13:36:26.465Z</time></trkpt><trkpt lat="43.7317798" lon="11.2964099"><ele>87.0</ele><time>2026-04-06T13:36:27.472Z</time></trkpt><trkpt lat="43.7316511" lon="11.2963838"><ele>87.0</ele><time>2026-04-06T13:36:28.474Z</time></trkpt><trkpt lat="43.7315067" lon="11.2963462"><ele>86.66666666666667</ele><time>2026-04-06T13:36:29.47Z</time></trkpt><trkpt lat="43.7313518" lon="11.2963037"><ele>86.33333333333334</ele><time>2026-04-06T13:36:30.474Z</time></trkpt><trkpt lat="43.7311805" lon="11.2962624"><ele>86.0</ele><time>2026-04-06T13:36:31.463Z</time></trkpt><trkpt lat="43.730996" lon="11.2962129"><ele>86.66666666666667</ele><time>2026-04-06T13:36:32.47Z</time></trkpt><trkpt lat="43.7308111" lon="11.2961511"><ele>87.33333333333333</ele><time>2026-04-06T13:36:33.462Z</time></trkpt><trkpt lat="43.7306373" lon="11.2961012"><ele>88.0</ele><time>2026-04-06T13:36:34.465Z</time></trkpt><trkpt lat="43.7304817" lon="11.2960406"><ele>88.0</ele><time>2026-04-06T13:36:35.46Z</time></trkpt><trkpt lat="43.7303255" lon="11.2959919"><ele>88.0</ele><time>2026-04-06T13:36:36.469Z</time></trkpt><trkpt lat="43.7301726" lon="11.2959461"><ele>88.0</ele><time>2026-04-06T13:36:37.462Z</time></trkpt><trkpt lat="43.7300208" lon="11.2958986"><ele>88.66666666666666</ele><time>2026-04-06T13:36:38.464Z</time></trkpt><trkpt lat="43.7298602" lon="11.2958513"><ele>89.33333333333333</ele><time>2026-04-06T13:36:39.458Z</time></trkpt><trkpt lat="43.7296915" lon="11.2957898"><ele>90.0</ele><time>2026-04-06T13:36:40.459Z</time></trkpt><trkpt lat="43.7295045" lon="11.2957206"><ele>89.0</ele><time>2026-04-06T13:36:41.465Z</time></trkpt><trkpt lat="43.7293084" lon="11.2956645"><ele>88.0</ele><time>2026-04-06T13:36:42.471Z</time></trkpt><trkpt lat="43.7291085" lon="11.2956221"><ele>87.0</ele><time>2026-04-06T13:36:43.467Z</time></trkpt><trkpt lat="43.7289317" lon="11.2955805"><ele>86.66666666666667</ele><time>2026-04-06T13:36:44.467Z</time></trkpt><trkpt lat="43.7287671" lon="11.2955378"><ele>86.33333333333334</ele><time>2026-04-06T13:36:45.466Z</time></trkpt><trkpt lat="43.7286062" lon="11.2955048"><ele>86.0</ele><time>2026-04-06T13:36:46.462Z</time></trkpt><trkpt lat="43.7284687" lon="11.2954381"><ele>86.5</ele><time>2026-04-06T13:36:47.464Z</time></trkpt><trkpt lat="43.7283399" lon="11.2953661"><ele>87.0</ele><time>2026-04-06T13:36:48.461Z</time></trkpt><trkpt lat="43.7282179" lon="11.29531"><ele>87.5</ele><time>2026-04-06T13:36:49.458Z</time></trkpt><trkpt lat="43.7281355" lon="11.2952467"><ele>88.0</ele><time>2026-04-06T13:36:50.462Z</time></trkpt><trkpt lat="43.7280517" lon="11.2951681"><ele>88.0</ele><time>2026-04-06T13:36:51.468Z</time></trkpt><trkpt lat="43.7279692" lon="11.2950851"><ele>88.0</ele><time>2026-04-06T13:36:52.462Z</time></trkpt><trkpt lat="43.727901" lon="11.2949826"><ele>88.0</ele><time>2026-04-06T13:36:53.459Z</time></trkpt><trkpt lat="43.7278145" lon="11.294869"><ele>88.0</ele><time>2026-04-06T13:36:54.473Z</time></trkpt><trkpt lat="43.7277233" lon="11.2947426"><ele>88.25</ele><time>2026-04-06T13:36:55.461Z</time></trkpt><trkpt lat="43.7276358" lon="11.2945964"><ele>88.5</ele><time>2026-04-06T13:36:56.465Z</time></trkpt><trkpt lat="43.7275391" lon="11.2944566"><ele>88.75</ele><time>2026-04-06T13:36:57.469Z</time></trkpt><trkpt lat="43.7274426" lon="11.2943004"><ele>89.0</ele><time>2026-04-06T13:36:58.466Z</time></trkpt><trkpt lat="43.7273414" lon="11.2941587"><ele>89.0</ele><time>2026-04-06T13:36:59.465Z</time></trkpt><trkpt lat="43.7272466" lon="11.2940364"><ele>89.0</ele><time>2026-04-06T13:37:00.459Z</time></trkpt><trkpt lat="43.7271708" lon="11.2939067"><ele>89.0</ele><time>2026-04-06T13:37:01.461Z</time></trkpt><trkpt lat="43.7270997" lon="11.2938019"><ele>89.0</ele><time>2026-04-06T13:37:02.465Z</time></trkpt><trkpt lat="43.7270412" lon="11.2936783"><ele>89.0</ele><time>2026-04-06T13:37:03.466Z</time></trkpt><trkpt lat="43.7269648" lon="11.2935776"><ele>89.0</ele><time>2026-04-06T13:37:04.463Z</time></trkpt><trkpt lat="43.7268981" lon="11.2934916"><ele>89.0</ele><time>2026-04-06T13:37:05.469Z</time></trkpt><trkpt lat="43.7268236" lon="11.2934139"><ele>89.0</ele><time>2026-04-06T13:37:06.468Z</time></trkpt><trkpt lat="43.7267427" lon="11.2933434"><ele>89.0</ele><time>2026-04-06T13:37:07.462Z</time></trkpt><trkpt lat="43.7266662" lon="11.2932966"><ele>89.0</ele><time>2026-04-06T13:37:08.464Z</time></trkpt><trkpt lat="43.7265935" lon="11.2932539"><ele>89.0</ele><time>2026-04-06T13:37:09.461Z</time></trkpt><trkpt lat="43.7265193" lon="11.2931937"><ele>89.0</ele><time>2026-04-06T13:37:10.463Z</time></trkpt><trkpt lat="43.7264311" lon="11.293144"><ele>89.0</ele><time>2026-04-06T13:37:11.462Z</time></trkpt><trkpt lat="43.726339" lon="11.2931012"><ele>89.0</ele><time>2026-04-06T13:37:12.466Z</time></trkpt><trkpt lat="43.726235" lon="11.2930553"><ele>89.2</ele><time>2026-04-06T13:37:13.464Z</time></trkpt><trkpt lat="43.726136" lon="11.2929956"><ele>89.4</ele><time>2026-04-06T13:37:14.461Z</time></trkpt><trkpt lat="43.7260358" lon="11.2929421"><ele>89.6</ele><time>2026-04-06T13:37:15.459Z</time></trkpt><trkpt lat="43.725944" lon="11.2928956"><ele>89.8</ele><time>2026-04-06T13:37:16.46Z</time></trkpt><trkpt lat="43.7258641" lon="11.292862"><ele>90.0</ele><time>2026-04-06T13:37:17.454Z</time></trkpt><trkpt lat="43.7257913" lon="11.2928216"><ele>90.0</ele><time>2026-04-06T13:37:18.452Z</time></trkpt><trkpt lat="43.7257148" lon="11.2927853"><ele>90.0</ele><time>2026-04-06T13:37:19.45Z</time></trkpt><trkpt lat="43.7256302" lon="11.292808"><ele>90.0</ele><time>2026-04-06T13:37:20.449Z</time></trkpt><trkpt lat="43.7255463" lon="11.2928585"><ele>90.0</ele><time>2026-04-06T13:37:21.45Z</time></trkpt><trkpt lat="43.7254648" lon="11.2929316"><ele>90.0</ele><time>2026-04-06T13:37:22.451Z</time></trkpt><trkpt lat="43.7253793" lon="11.2930204"><ele>89.8</ele><time>2026-04-06T13:37:23.453Z</time></trkpt><trkpt lat="43.7253078" lon="11.293094"><ele>89.6</ele><time>2026-04-06T13:37:24.449Z</time></trkpt><trkpt lat="43.7252199" lon="11.2931467"><ele>89.4</ele><time>2026-04-06T13:37:25.446Z</time></trkpt><trkpt lat="43.7251279" lon="11.2931489"><ele>89.2</ele><time>2026-04-06T13:37:26.448Z</time></trkpt><trkpt lat="43.7250081" lon="11.2931368"><ele>89.0</ele><time>2026-04-06T13:37:27.443Z</time></trkpt><trkpt lat="43.7248875" lon="11.2931168"><ele>89.0</ele><time>2026-04-06T13:37:28.448Z</time></trkpt><trkpt lat="43.7247693" lon="11.2931141"><ele>89.0</ele><time>2026-04-06T13:37:29.444Z</time></trkpt><trkpt lat="43.7246568" lon="11.2931129"><ele>89.0</ele><time>2026-04-06T13:37:30.45Z</time></trkpt><trkpt lat="43.7245651" lon="11.2930941"><ele>89.0</ele><time>2026-04-06T13:37:31.451Z</time></trkpt><trkpt lat="43.7244753" lon="11.2930743"><ele>89.0</ele><time>2026-04-06T13:37:32.453Z</time></trkpt><trkpt lat="43.724379" lon="11.2930742"><ele>89.0</ele><time>2026-04-06T13:37:33.457Z</time></trkpt><trkpt lat="43.7242717" lon="11.2930883"><ele>89.0</ele><time>2026-04-06T13:37:34.448Z</time></trkpt><trkpt lat="43.7241774" lon="11.2931299"><ele>89.0</ele><time>2026-04-06T13:37:35.446Z</time></trkpt><trkpt lat="43.7240838" lon="11.2932117"><ele>89.0</ele><time>2026-04-06T13:37:36.454Z</time></trkpt><trkpt lat="43.7240092" lon="11.2933432"><ele>89.0</ele><time>2026-04-06T13:37:37.449Z</time></trkpt><trkpt lat="43.7239442" lon="11.2934947"><ele>88.66666666666667</ele><time>2026-04-06T13:37:38.465Z</time></trkpt><trkpt lat="43.7238621" lon="11.2936563"><ele>88.33333333333333</ele><time>2026-04-06T13:37:39.461Z</time></trkpt><trkpt lat="43.7237638" lon="11.2938043"><ele>88.0</ele><time>2026-04-06T13:37:40.461Z</time></trkpt><trkpt lat="43.7236352" lon="11.2939874"><ele>89.25</ele><time>2026-04-06T13:37:41.456Z</time></trkpt><trkpt lat="43.7235359" lon="11.2941468"><ele>90.5</ele><time>2026-04-06T13:37:42.455Z</time></trkpt><trkpt lat="43.7234505" lon="11.2942993"><ele>91.75</ele><time>2026-04-06T13:37:43.459Z</time></trkpt><trkpt lat="43.7233357" lon="11.2944312"><ele>93.0</ele><time>2026-04-06T13:37:44.455Z</time></trkpt><trkpt lat="43.7232315" lon="11.2945786"><ele>93.0</ele><time>2026-04-06T13:37:45.455Z</time></trkpt><trkpt lat="43.7231464" lon="11.294749"><ele>93.0</ele><time>2026-04-06T13:37:46.453Z</time></trkpt><trkpt lat="43.7230102" lon="11.2949274"><ele>93.0</ele><time>2026-04-06T13:37:47.456Z</time></trkpt><trkpt lat="43.7228732" lon="11.2950746"><ele>92.0</ele><time>2026-04-06T13:37:48.451Z</time></trkpt><trkpt lat="43.7227314" lon="11.2951847"><ele>91.0</ele><time>2026-04-06T13:37:49.454Z</time></trkpt><trkpt lat="43.7225902" lon="11.2952944"><ele>90.0</ele><time>2026-04-06T13:37:50.452Z</time></trkpt><trkpt lat="43.7224188" lon="11.2953856"><ele>93.0</ele><time>2026-04-06T13:37:51.449Z</time></trkpt><trkpt lat="43.7222462" lon="11.2954702"><ele>96.0</ele><time>2026-04-06T13:37:52.455Z</time></trkpt><trkpt lat="43.7220649" lon="11.2955425"><ele>99.0</ele><time>2026-04-06T13:37:53.456Z</time></trkpt><trkpt lat="43.7218751" lon="11.2956318"><ele>99.0</ele><time>2026-04-06T13:37:54.461Z</time></trkpt><trkpt lat="43.7217315" lon="11.2957264"><ele>99.0</ele><time>2026-04-06T13:37:55.457Z</time></trkpt><trkpt lat="43.7215835" lon="11.2957956"><ele>99.0</ele><time>2026-04-06T13:37:56.465Z</time></trkpt><trkpt lat="43.7214636" lon="11.2958354"><ele>99.0</ele><time>2026-04-06T13:37:57.47Z</time></trkpt><trkpt lat="43.7213464" lon="11.2958787"><ele>99.0</ele><time>2026-04-06T13:37:58.461Z</time></trkpt><trkpt lat="43.721233" lon="11.2958461"><ele>99.0</ele><time>2026-04-06T13:37:59.448Z</time></trkpt><trkpt lat="43.721141" lon="11.29575"><ele>99.0</ele><time>2026-04-06T13:38:00.461Z</time></trkpt><trkpt lat="43.7211082" lon="11.2955927"><ele>99.0</ele><time>2026-04-06T13:38:01.461Z</time></trkpt><trkpt lat="43.7210954" lon="11.2954453"><ele>101.0</ele><time>2026-04-06T13:38:02.454Z</time></trkpt><trkpt lat="43.7211472" lon="11.2953233"><ele>103.0</ele><time>2026-04-06T13:38:03.46Z</time></trkpt><trkpt lat="43.7212137" lon="11.2952204"><ele>105.0</ele><time>2026-04-06T13:38:04.459Z</time></trkpt><trkpt lat="43.7213251" lon="11.2951609"><ele>107.0</ele><time>2026-04-06T13:38:05.451Z</time></trkpt><trkpt lat="43.7214422" lon="11.2951154"><ele>109.0</ele><time>2026-04-06T13:38:06.452Z</time></trkpt><trkpt lat="43.721582" lon="11.2950864"><ele>109.0</ele><time>2026-04-06T13:38:07.443Z</time></trkpt><trkpt lat="43.7217335" lon="11.2950631"><ele>109.0</ele><time>2026-04-06T13:38:08.456Z</time></trkpt><trkpt lat="43.721924" lon="11.2950178"><ele>109.0</ele><time>2026-04-06T13:38:09.455Z</time></trkpt><trkpt lat="43.7221029" lon="11.2949896"><ele>107.25</ele><time>2026-04-06T13:38:10.451Z</time></trkpt><trkpt lat="43.7222469" lon="11.2949712"><ele>105.5</ele><time>2026-04-06T13:38:11.449Z</time></trkpt><trkpt lat="43.7223928" lon="11.2949284"><ele>103.75</ele><time>2026-04-06T13:38:12.455Z</time></trkpt><trkpt lat="43.7225288" lon="11.294879"><ele>102.0</ele><time>2026-04-06T13:38:13.452Z</time></trkpt><trkpt lat="43.7226383" lon="11.2948197"><ele>100.19999999999999</ele><time>2026-04-06T13:38:14.455Z</time></trkpt><trkpt lat="43.7227489" lon="11.294747"><ele>98.4</ele><time>2026-04-06T13:38:15.459Z</time></trkpt><trkpt lat="43.7228201" lon="11.2946384"><ele>96.6</ele><time>2026-04-06T13:38:16.461Z</time></trkpt><trkpt lat="43.7228497" lon="11.2944977"><ele>94.80000000000001</ele><time>2026-04-06T13:38:17.453Z</time></trkpt><trkpt lat="43.7228244" lon="11.2943458"><ele>93.0</ele><time>2026-04-06T13:38:18.461Z</time></trkpt><trkpt lat="43.7227928" lon="11.2942112"><ele>97.75</ele><time>2026-04-06T13:38:19.454Z</time></trkpt><trkpt lat="43.7227191" lon="11.2941036"><ele>102.5</ele><time>2026-04-06T13:38:20.461Z</time></trkpt><trkpt lat="43.7226316" lon="11.2940372"><ele>107.25</ele><time>2026-04-06T13:38:21.451Z</time></trkpt><trkpt lat="43.7225126" lon="11.2940092"><ele>112.0</ele><time>2026-04-06T13:38:22.461Z</time></trkpt><trkpt lat="43.7223752" lon="11.2940042"><ele>112.0</ele><time>2026-04-06T13:38:23.454Z</time></trkpt><trkpt lat="43.7222284" lon="11.29398"><ele>112.0</ele><time>2026-04-06T13:38:24.458Z</time></trkpt><trkpt lat="43.7220623" lon="11.2939084"><ele>112.0</ele><time>2026-04-06T13:38:25.454Z</time></trkpt><trkpt lat="43.7219199" lon="11.2937878"><ele>114.66666666666667</ele><time>2026-04-06T13:38:26.45Z</time></trkpt><trkpt lat="43.7217836" lon="11.2936299"><ele>117.33333333333334</ele><time>2026-04-06T13:38:27.459Z</time></trkpt><trkpt lat="43.7216661" lon="11.293461"><ele>120.0</ele><time>2026-04-06T13:38:28.466Z</time></trkpt><trkpt lat="43.7215482" lon="11.2932861"><ele>120.0</ele><time>2026-04-06T13:38:29.456Z</time></trkpt><trkpt lat="43.7214371" lon="11.2931137"><ele>120.0</ele><time>2026-04-06T13:38:30.459Z</time></trkpt><trkpt lat="43.7213135" lon="11.2929506"><ele>120.0</ele><time>2026-04-06T13:38:31.455Z</time></trkpt><trkpt lat="43.7211815" lon="11.2927857"><ele>117.66666666666666</ele><time>2026-04-06T13:38:32.458Z</time></trkpt><trkpt lat="43.7210699" lon="11.2926318"><ele>115.33333333333333</ele><time>2026-04-06T13:38:33.448Z</time></trkpt><trkpt lat="43.7209915" lon="11.2924563"><ele>113.0</ele><time>2026-04-06T13:38:34.454Z</time></trkpt><trkpt lat="43.7209372" lon="11.2922666"><ele>120.0</ele><time>2026-04-06T13:38:35.454Z</time></trkpt><trkpt lat="43.7209108" lon="11.292055"><ele>127.0</ele><time>2026-04-06T13:38:36.457Z</time></trkpt><trkpt lat="43.7209232" lon="11.2918448"><ele>134.0</ele><time>2026-04-06T13:38:37.467Z</time></trkpt><trkpt lat="43.720975" lon="11.2916497"><ele>134.0</ele><time>2026-04-06T13:38:38.453Z</time></trkpt><trkpt lat="43.7210197" lon="11.2914501"><ele>134.0</ele><time>2026-04-06T13:38:39.458Z</time></trkpt><trkpt lat="43.7210964" lon="11.2912684"><ele>134.0</ele><time>2026-04-06T13:38:40.454Z</time></trkpt><trkpt lat="43.7211409" lon="11.2910953"><ele>134.0</ele><time>2026-04-06T13:38:41.458Z</time></trkpt><trkpt lat="43.7211409" lon="11.2909074"><ele>134.0</ele><time>2026-04-06T13:38:42.459Z</time></trkpt><trkpt lat="43.721092" lon="11.2907369"><ele>134.0</ele><time>2026-04-06T13:38:43.458Z</time></trkpt><trkpt lat="43.7209979" lon="11.2905961"><ele>134.0</ele><time>2026-04-06T13:38:44.459Z</time></trkpt><trkpt lat="43.7208861" lon="11.2905074"><ele>134.0</ele><time>2026-04-06T13:38:45.464Z</time></trkpt><trkpt lat="43.7207337" lon="11.2904783"><ele>134.0</ele><time>2026-04-06T13:38:46.463Z</time></trkpt><trkpt lat="43.7206043" lon="11.2905075"><ele>134.0</ele><time>2026-04-06T13:38:47.46Z</time></trkpt><trkpt lat="43.7204709" lon="11.2905789"><ele>134.0</ele><time>2026-04-06T13:38:48.46Z</time></trkpt><trkpt lat="43.7203256" lon="11.2907104"><ele>134.0</ele><time>2026-04-06T13:38:49.462Z</time></trkpt><trkpt lat="43.7202269" lon="11.2908499"><ele>135.33333333333331</ele><time>2026-04-06T13:38:50.459Z</time></trkpt><trkpt lat="43.7200987" lon="11.2910027"><ele>136.66666666666666</ele><time>2026-04-06T13:38:51.46Z</time></trkpt><trkpt lat="43.719964" lon="11.2911559"><ele>138.0</ele><time>2026-04-06T13:38:52.462Z</time></trkpt><trkpt lat="43.7198185" lon="11.2913026"><ele>140.0</ele><time>2026-04-06T13:38:53.462Z</time></trkpt><trkpt lat="43.7196959" lon="11.2914414"><ele>142.0</ele><time>2026-04-06T13:38:54.458Z</time></trkpt><trkpt lat="43.7195776" lon="11.2915641"><ele>144.0</ele><time>2026-04-06T13:38:55.456Z</time></trkpt><trkpt lat="43.7194342" lon="11.2916571"><ele>145.0</ele><time>2026-04-06T13:38:56.452Z</time></trkpt><trkpt lat="43.7192832" lon="11.2917122"><ele>146.0</ele><time>2026-04-06T13:38:57.459Z</time></trkpt><trkpt lat="43.7191261" lon="11.2917376"><ele>147.0</ele><time>2026-04-06T13:38:58.462Z</time></trkpt><trkpt lat="43.7189443" lon="11.2917453"><ele>147.0</ele><time>2026-04-06T13:38:59.449Z</time></trkpt><trkpt lat="43.7187648" lon="11.2917401"><ele>147.0</ele><time>2026-04-06T13:39:00.45Z</time></trkpt><trkpt lat="43.7185868" lon="11.2917261"><ele>147.0</ele><time>2026-04-06T13:39:01.454Z</time></trkpt><trkpt lat="43.7183936" lon="11.2917212"><ele>149.0</ele><time>2026-04-06T13:39:02.454Z</time></trkpt><trkpt lat="43.7182144" lon="11.2917126"><ele>151.0</ele><time>2026-04-06T13:39:03.449Z</time></trkpt><trkpt lat="43.7180144" lon="11.291687"><ele>153.0</ele><time>2026-04-06T13:39:04.455Z</time></trkpt><trkpt lat="43.7178205" lon="11.2916743"><ele>154.66666666666666</ele><time>2026-04-06T13:39:05.455Z</time></trkpt><trkpt lat="43.7176186" lon="11.29166"><ele>156.33333333333331</ele><time>2026-04-06T13:39:06.457Z</time></trkpt><trkpt lat="43.7174342" lon="11.2916623"><ele>158.0</ele><time>2026-04-06T13:39:07.455Z</time></trkpt><trkpt lat="43.7172529" lon="11.2916758"><ele>158.0</ele><time>2026-04-06T13:39:08.453Z</time></trkpt><trkpt lat="43.7170831" lon="11.2917056"><ele>158.0</ele><time>2026-04-06T13:39:09.455Z</time></trkpt><trkpt lat="43.7169154" lon="11.291775"><ele>158.0</ele><time>2026-04-06T13:39:10.458Z</time></trkpt><trkpt lat="43.716757" lon="11.29183"><ele>159.75</ele><time>2026-04-06T13:39:11.458Z</time></trkpt><trkpt lat="43.7166152" lon="11.2918839"><ele>161.5</ele><time>2026-04-06T13:39:12.459Z</time></trkpt><trkpt lat="43.7164807" lon="11.2919326"><ele>163.25</ele><time>2026-04-06T13:39:13.463Z</time></trkpt><trkpt lat="43.7163592" lon="11.2919753"><ele>165.0</ele><time>2026-04-06T13:39:14.461Z</time></trkpt><trkpt lat="43.7162232" lon="11.2920407"><ele>165.0</ele><time>2026-04-06T13:39:15.459Z</time></trkpt><trkpt lat="43.7160795" lon="11.2920679"><ele>165.0</ele><time>2026-04-06T13:39:16.46Z</time></trkpt><trkpt lat="43.7158161" lon="11.292017"><ele>165.0</ele><time>2026-04-06T13:39:18.449Z</time></trkpt><trkpt lat="43.7156929" lon="11.291966"><ele>166.25</ele><time>2026-04-06T13:39:19.446Z</time></trkpt><trkpt lat="43.7155568" lon="11.2919046"><ele>167.5</ele><time>2026-04-06T13:39:20.451Z</time></trkpt><trkpt lat="43.715443" lon="11.2918152"><ele>168.75</ele><time>2026-04-06T13:39:21.455Z</time></trkpt><trkpt lat="43.7153372" lon="11.2917312"><ele>170.0</ele><time>2026-04-06T13:39:22.456Z</time></trkpt><trkpt lat="43.7152211" lon="11.2916275"><ele>171.5</ele><time>2026-04-06T13:39:23.456Z</time></trkpt><trkpt lat="43.7150955" lon="11.2915545"><ele>173.0</ele><time>2026-04-06T13:39:24.457Z</time></trkpt><trkpt lat="43.7149725" lon="11.2914903"><ele>174.5</ele><time>2026-04-06T13:39:25.455Z</time></trkpt><trkpt lat="43.7148254" lon="11.2914555"><ele>176.0</ele><time>2026-04-06T13:39:26.458Z</time></trkpt><trkpt lat="43.7146734" lon="11.2914381"><ele>176.33333333333331</ele><time>2026-04-06T13:39:27.456Z</time></trkpt><trkpt lat="43.7144984" lon="11.2913863"><ele>176.66666666666666</ele><time>2026-04-06T13:39:28.463Z</time></trkpt><trkpt lat="43.7143335" lon="11.2913224"><ele>177.0</ele><time>2026-04-06T13:39:29.459Z</time></trkpt><trkpt lat="43.7141582" lon="11.2912477"><ele>177.33333333333334</ele><time>2026-04-06T13:39:30.462Z</time></trkpt><trkpt lat="43.7139771" lon="11.2911858"><ele>177.66666666666669</ele><time>2026-04-06T13:39:31.459Z</time></trkpt><trkpt lat="43.7138156" lon="11.2911081"><ele>178.0</ele><time>2026-04-06T13:39:32.455Z</time></trkpt><trkpt lat="43.7136384" lon="11.2909918"><ele>177.66666666666669</ele><time>2026-04-06T13:39:33.457Z</time></trkpt><trkpt lat="43.7134761" lon="11.2908613"><ele>177.33333333333334</ele><time>2026-04-06T13:39:34.454Z</time></trkpt><trkpt lat="43.7133111" lon="11.2907155"><ele>177.0</ele><time>2026-04-06T13:39:35.456Z</time></trkpt><trkpt lat="43.7131406" lon="11.2905663"><ele>178.0</ele><time>2026-04-06T13:39:36.466Z</time></trkpt><trkpt lat="43.7129756" lon="11.2904227"><ele>179.0</ele><time>2026-04-06T13:39:37.467Z</time></trkpt><trkpt lat="43.7128118" lon="11.2903524"><ele>180.0</ele><time>2026-04-06T13:39:38.454Z</time></trkpt><trkpt lat="43.7126479" lon="11.290314"><ele>180.0</ele><time>2026-04-06T13:39:39.466Z</time></trkpt><trkpt lat="43.7124669" lon="11.2903194"><ele>180.0</ele><time>2026-04-06T13:39:40.469Z</time></trkpt><trkpt lat="43.7122673" lon="11.2903708"><ele>180.0</ele><time>2026-04-06T13:39:41.458Z</time></trkpt><trkpt lat="43.7120634" lon="11.2904366"><ele>179.33333333333334</ele><time>2026-04-06T13:39:42.462Z</time></trkpt><trkpt lat="43.7118567" lon="11.2904791"><ele>178.66666666666669</ele><time>2026-04-06T13:39:43.465Z</time></trkpt><trkpt lat="43.7116507" lon="11.2905415"><ele>178.0</ele><time>2026-04-06T13:39:44.459Z</time></trkpt><trkpt lat="43.711476" lon="11.2905977"><ele>179.0</ele><time>2026-04-06T13:39:45.462Z</time></trkpt><trkpt lat="43.7113162" lon="11.2906411"><ele>180.0</ele><time>2026-04-06T13:39:46.453Z</time></trkpt><trkpt lat="43.7111473" lon="11.2906931"><ele>181.0</ele><time>2026-04-06T13:39:47.452Z</time></trkpt><trkpt lat="43.7109501" lon="11.2906869"><ele>181.0</ele><time>2026-04-06T13:39:48.454Z</time></trkpt><trkpt lat="43.7107562" lon="11.2906677"><ele>181.0</ele><time>2026-04-06T13:39:49.453Z</time></trkpt><trkpt lat="43.7105532" lon="11.2906219"><ele>181.0</ele><time>2026-04-06T13:39:50.454Z</time></trkpt><trkpt lat="43.710358" lon="11.2905412"><ele>182.0</ele><time>2026-04-06T13:39:51.456Z</time></trkpt><trkpt lat="43.7101739" lon="11.2904444"><ele>183.0</ele><time>2026-04-06T13:39:52.451Z</time></trkpt><trkpt lat="43.709972" lon="11.2903565"><ele>184.0</ele><time>2026-04-06T13:39:53.452Z</time></trkpt><trkpt lat="43.7097738" lon="11.2902524"><ele>184.0</ele><time>2026-04-06T13:39:54.448Z</time></trkpt><trkpt lat="43.7095805" lon="11.2901344"><ele>184.0</ele><time>2026-04-06T13:39:55.453Z</time></trkpt><trkpt lat="43.7094389" lon="11.2900175"><ele>184.0</ele><time>2026-04-06T13:39:56.455Z</time></trkpt><trkpt lat="43.7092873" lon="11.2898907"><ele>184.33333333333334</ele><time>2026-04-06T13:39:57.46Z</time></trkpt><trkpt lat="43.7091328" lon="11.2897637"><ele>184.66666666666666</ele><time>2026-04-06T13:39:58.461Z</time></trkpt><trkpt lat="43.7089807" lon="11.2896388"><ele>185.0</ele><time>2026-04-06T13:39:59.457Z</time></trkpt><trkpt lat="43.7088215" lon="11.2895608"><ele>185.0</ele><time>2026-04-06T13:40:00.456Z</time></trkpt><trkpt lat="43.708662" lon="11.2895142"><ele>185.0</ele><time>2026-04-06T13:40:01.455Z</time></trkpt><trkpt lat="43.7085034" lon="11.289462"><ele>185.0</ele><time>2026-04-06T13:40:02.46Z</time></trkpt><trkpt lat="43.7083517" lon="11.2894258"><ele>185.66666666666666</ele><time>2026-04-06T13:40:03.46Z</time></trkpt><trkpt lat="43.7081852" lon="11.2894407"><ele>186.33333333333334</ele><time>2026-04-06T13:40:04.466Z</time></trkpt><trkpt lat="43.7080445" lon="11.2894592"><ele>187.0</ele><time>2026-04-06T13:40:05.466Z</time></trkpt><trkpt lat="43.7078912" lon="11.2894862"><ele>186.0</ele><time>2026-04-06T13:40:06.47Z</time></trkpt><trkpt lat="43.7077291" lon="11.2895033"><ele>185.0</ele><time>2026-04-06T13:40:07.472Z</time></trkpt><trkpt lat="43.7075737" lon="11.2895313"><ele>184.0</ele><time>2026-04-06T13:40:08.473Z</time></trkpt><trkpt lat="43.7074601" lon="11.2895424"><ele>183.0</ele><time>2026-04-06T13:40:09.468Z</time></trkpt><trkpt lat="43.7073592" lon="11.2895528"><ele>183.0</ele><time>2026-04-06T13:40:10.463Z</time></trkpt><trkpt lat="43.7072952" lon="11.2895295"><ele>183.0</ele><time>2026-04-06T13:40:11.464Z</time></trkpt><trkpt lat="43.7072227" lon="11.2894359"><ele>183.0</ele><time>2026-04-06T13:40:14.48Z</time></trkpt><trkpt lat="43.7071655" lon="11.289346"><ele>183.0</ele><time>2026-04-06T13:40:16.48Z</time></trkpt><trkpt lat="43.7071014" lon="11.2892519"><ele>183.0</ele><time>2026-04-06T13:40:18.48Z</time></trkpt><trkpt lat="43.7070525" lon="11.2891696"><ele>183.0</ele><time>2026-04-06T13:40:20.494Z</time></trkpt><trkpt lat="43.7070075" lon="11.2890744"><ele>183.0</ele><time>2026-04-06T13:40:22.474Z</time></trkpt><trkpt lat="43.7069473" lon="11.2889892"><ele>183.0</ele><time>2026-04-06T13:40:24.472Z</time></trkpt><trkpt lat="43.7068817" lon="11.2889073"><ele>183.0</ele><time>2026-04-06T13:40:26.47Z</time></trkpt><trkpt lat="43.706821" lon="11.2888223"><ele>183.0</ele><time>2026-04-06T13:40:28.476Z</time></trkpt><trkpt lat="43.706766" lon="11.2887415"><ele>183.0</ele><time>2026-04-06T13:40:30.473Z</time></trkpt><trkpt lat="43.7067069" lon="11.288637"><ele>183.0</ele><time>2026-04-06T13:40:32.476Z</time></trkpt><trkpt lat="43.7066446" lon="11.2885368"><ele>181.0</ele><time>2026-04-06T13:40:34.475Z</time></trkpt><trkpt lat="43.7065747" lon="11.2884473"><ele>179.0</ele><time>2026-04-06T13:40:36.47Z</time></trkpt><trkpt lat="43.7065197" lon="11.2883521"><ele>177.0</ele><time>2026-04-06T13:40:38.477Z</time></trkpt><trkpt lat="43.7064657" lon="11.2882536"><ele>175.0</ele><time>2026-04-06T13:40:40.47Z</time></trkpt><trkpt lat="43.7064115" lon="11.2881665"><ele>173.0</ele><time>2026-04-06T13:40:42.481Z</time></trkpt><trkpt lat="43.7063405" lon="11.2881269"><ele>171.0</ele><time>2026-04-06T13:40:44.475Z</time></trkpt><trkpt lat="43.7062536" lon="11.2881368"><ele>171.0</ele><time>2026-04-06T13:40:46.475Z</time></trkpt><trkpt lat="43.7061561" lon="11.2881887"><ele>171.0</ele><time>2026-04-06T13:40:48.471Z</time></trkpt><trkpt lat="43.7060604" lon="11.2882541"><ele>171.0</ele><time>2026-04-06T13:40:50.473Z</time></trkpt><trkpt lat="43.7059814" lon="11.2883"><ele>171.0</ele><time>2026-04-06T13:40:52.47Z</time></trkpt><trkpt lat="43.7058889" lon="11.2883187"><ele>171.0</ele><time>2026-04-06T13:40:54.476Z</time></trkpt><trkpt lat="43.7057793" lon="11.2883189"><ele>170.8</ele><time>2026-04-06T13:40:56.456Z</time></trkpt><trkpt lat="43.7056819" lon="11.2883012"><ele>170.60000000000002</ele><time>2026-04-06T13:40:58.469Z</time></trkpt><trkpt lat="43.7055794" lon="11.288295"><ele>170.4</ele><time>2026-04-06T13:41:00.466Z</time></trkpt><trkpt lat="43.7054705" lon="11.2883164"><ele>170.2</ele><time>2026-04-06T13:41:02.478Z</time></trkpt><trkpt lat="43.7053612" lon="11.2883489"><ele>170.0</ele><time>2026-04-06T13:41:04.475Z</time></trkpt><trkpt lat="43.7052454" lon="11.2883918"><ele>167.8</ele><time>2026-04-06T13:41:06.463Z</time></trkpt><trkpt lat="43.705155" lon="11.2884409"><ele>165.6</ele><time>2026-04-06T13:41:08.458Z</time></trkpt><trkpt lat="43.7050439" lon="11.288458"><ele>163.4</ele><time>2026-04-06T13:41:10.465Z</time></trkpt><trkpt lat="43.7049237" lon="11.288479"><ele>161.2</ele><time>2026-04-06T13:41:12.469Z</time></trkpt><trkpt lat="43.7048621" lon="11.2885"><ele>159.0</ele><time>2026-04-06T13:41:13.463Z</time></trkpt><trkpt lat="43.704795" lon="11.2885345"><ele>159.0</ele><time>2026-04-06T13:41:14.461Z</time></trkpt><trkpt lat="43.7047333" lon="11.2885667"><ele>159.0</ele><time>2026-04-06T13:41:15.466Z</time></trkpt><trkpt lat="43.7046273" lon="11.2886132"><ele>159.0</ele><time>2026-04-06T13:41:17.465Z</time></trkpt><trkpt lat="43.7045575" lon="11.2885675"><ele>159.0</ele><time>2026-04-06T13:41:19.471Z</time></trkpt><trkpt lat="43.704555" lon="11.2884304"><ele>159.0</ele><time>2026-04-06T13:41:22.476Z</time></trkpt><trkpt lat="43.704541" lon="11.2883197"><ele>159.0</ele><time>2026-04-06T13:41:24.477Z</time></trkpt><trkpt lat="43.7045428" lon="11.2882112"><ele>159.0</ele><time>2026-04-06T13:41:26.476Z</time></trkpt><trkpt lat="43.7045866" lon="11.2881069"><ele>159.0</ele><time>2026-04-06T13:41:28.476Z</time></trkpt><trkpt lat="43.7046378" lon="11.2879852"><ele>159.0</ele><time>2026-04-06T13:41:30.475Z</time></trkpt><trkpt lat="43.7046768" lon="11.2878657"><ele>159.0</ele><time>2026-04-06T13:41:32.48Z</time></trkpt><trkpt lat="43.7047069" lon="11.2877471"><ele>159.0</ele><time>2026-04-06T13:41:34.476Z</time></trkpt><trkpt lat="43.7047259" lon="11.2876098"><ele>158.2</ele><time>2026-04-06T13:41:36.475Z</time></trkpt><trkpt lat="43.7047446" lon="11.2874748"><ele>157.4</ele><time>2026-04-06T13:41:38.475Z</time></trkpt><trkpt lat="43.7047676" lon="11.2873366"><ele>156.6</ele><time>2026-04-06T13:41:40.47Z</time></trkpt><trkpt lat="43.7047993" lon="11.2871928"><ele>155.8</ele><time>2026-04-06T13:41:42.476Z</time></trkpt><trkpt lat="43.7048249" lon="11.2870425"><ele>155.0</ele><time>2026-04-06T13:41:44.475Z</time></trkpt><trkpt lat="43.7048451" lon="11.2869086"><ele>155.0</ele><time>2026-04-06T13:41:46.475Z</time></trkpt><trkpt lat="43.7048611" lon="11.2867778"><ele>155.0</ele><time>2026-04-06T13:41:48.479Z</time></trkpt><trkpt lat="43.704871" lon="11.2866436"><ele>155.0</ele><time>2026-04-06T13:41:50.477Z</time></trkpt><trkpt lat="43.7048906" lon="11.2865001"><ele>155.0</ele><time>2026-04-06T13:41:52.478Z</time></trkpt><trkpt lat="43.7049014" lon="11.2863634"><ele>155.0</ele><time>2026-04-06T13:41:54.486Z</time></trkpt><trkpt lat="43.7049134" lon="11.286183"><ele>156.4</ele><time>2026-04-06T13:41:56.478Z</time></trkpt><trkpt lat="43.7049215" lon="11.2860816"><ele>157.8</ele><time>2026-04-06T13:41:57.477Z</time></trkpt><trkpt lat="43.7049326" lon="11.2859305"><ele>159.2</ele><time>2026-04-06T13:41:59.468Z</time></trkpt><trkpt lat="43.7049326" lon="11.2857892"><ele>160.6</ele><time>2026-04-06T13:42:01.476Z</time></trkpt><trkpt lat="43.7049285" lon="11.2856481"><ele>162.0</ele><time>2026-04-06T13:42:03.476Z</time></trkpt><trkpt lat="43.7049374" lon="11.2855165"><ele>162.0</ele><time>2026-04-06T13:42:05.467Z</time></trkpt><trkpt lat="43.7048881" lon="11.2854364"><ele>162.0</ele><time>2026-04-06T13:42:08.484Z</time></trkpt><trkpt lat="43.7048201" lon="11.285426"><ele>162.0</ele><time>2026-04-06T13:42:11.482Z</time></trkpt><trkpt lat="43.7047176" lon="11.2854423"><ele>162.0</ele><time>2026-04-06T13:42:13.478Z</time></trkpt><trkpt lat="43.704611" lon="11.2854506"><ele>162.0</ele><time>2026-04-06T13:42:15.482Z</time></trkpt><trkpt lat="43.7045182" lon="11.2854566"><ele>162.0</ele><time>2026-04-06T13:42:17.489Z</time></trkpt><trkpt lat="43.7044481" lon="11.2854671"><ele>162.8</ele><time>2026-04-06T13:42:19.486Z</time></trkpt><trkpt lat="43.7043722" lon="11.2854947"><ele>163.6</ele><time>2026-04-06T13:42:21.483Z</time></trkpt><trkpt lat="43.7042758" lon="11.2855545"><ele>164.4</ele><time>2026-04-06T13:42:23.478Z</time></trkpt><trkpt lat="43.704199" lon="11.2856092"><ele>165.20000000000002</ele><time>2026-04-06T13:42:25.481Z</time></trkpt><trkpt lat="43.7041036" lon="11.2856096"><ele>166.0</ele><time>2026-04-06T13:42:28.49Z</time></trkpt><trkpt lat="43.7040209" lon="11.2855853"><ele>166.0</ele><time>2026-04-06T13:42:30.488Z</time></trkpt><trkpt lat="43.7039574" lon="11.2855518"><ele>166.0</ele><time>2026-04-06T13:42:32.486Z</time></trkpt><trkpt lat="43.7038577" lon="11.2855331"><ele>166.0</ele><time>2026-04-06T13:42:47.478Z</time></trkpt><trkpt lat="43.7037219" lon="11.2855379"><ele>166.0</ele><time>2026-04-06T13:42:49.469Z</time></trkpt><trkpt lat="43.7036499" lon="11.2855421"><ele>166.0</ele><time>2026-04-06T13:42:50.477Z</time></trkpt><trkpt lat="43.7035702" lon="11.2855292"><ele>166.5</ele><time>2026-04-06T13:42:51.474Z</time></trkpt><trkpt lat="43.7034818" lon="11.2855101"><ele>167.0</ele><time>2026-04-06T13:42:52.473Z</time></trkpt><trkpt lat="43.7033945" lon="11.2855087"><ele>167.5</ele><time>2026-04-06T13:42:53.483Z</time></trkpt><trkpt lat="43.7033038" lon="11.2855125"><ele>168.0</ele><time>2026-04-06T13:42:54.479Z</time></trkpt><trkpt lat="43.703222" lon="11.285516"><ele>168.5</ele><time>2026-04-06T13:42:55.479Z</time></trkpt><trkpt lat="43.7031449" lon="11.2855208"><ele>169.0</ele><time>2026-04-06T13:42:56.477Z</time></trkpt><trkpt lat="43.7030642" lon="11.2855195"><ele>169.0</ele><time>2026-04-06T13:42:57.477Z</time></trkpt><trkpt lat="43.7029799" lon="11.2855154"><ele>169.0</ele><time>2026-04-06T13:42:58.471Z</time></trkpt><trkpt lat="43.7029047" lon="11.2855254"><ele>169.0</ele><time>2026-04-06T13:42:59.47Z</time></trkpt><trkpt lat="43.7028245" lon="11.2855596"><ele>169.0</ele><time>2026-04-06T13:43:00.466Z</time></trkpt><trkpt lat="43.7027302" lon="11.2856068"><ele>169.0</ele><time>2026-04-06T13:43:01.472Z</time></trkpt><trkpt lat="43.702644" lon="11.2856571"><ele>169.0</ele><time>2026-04-06T13:43:02.468Z</time></trkpt><trkpt lat="43.7025546" lon="11.2857147"><ele>170.83333333333334</ele><time>2026-04-06T13:43:03.464Z</time></trkpt><trkpt lat="43.7024669" lon="11.2857698"><ele>172.66666666666669</ele><time>2026-04-06T13:43:04.47Z</time></trkpt><trkpt lat="43.7023913" lon="11.2858398"><ele>174.5</ele><time>2026-04-06T13:43:05.47Z</time></trkpt><trkpt lat="43.7023308" lon="11.2859121"><ele>176.33333333333334</ele><time>2026-04-06T13:43:06.473Z</time></trkpt><trkpt lat="43.7022864" lon="11.2859812"><ele>178.16666666666666</ele><time>2026-04-06T13:43:07.47Z</time></trkpt><trkpt lat="43.7022158" lon="11.2860856"><ele>180.0</ele><time>2026-04-06T13:43:09.462Z</time></trkpt><trkpt lat="43.7021356" lon="11.2861289"><ele>180.0</ele><time>2026-04-06T13:43:11.475Z</time></trkpt><trkpt lat="43.7020352" lon="11.286165"><ele>180.0</ele><time>2026-04-06T13:43:13.477Z</time></trkpt><trkpt lat="43.7019688" lon="11.2861754"><ele>180.0</ele><time>2026-04-06T13:43:14.483Z</time></trkpt><trkpt lat="43.7018863" lon="11.286192"><ele>180.0</ele><time>2026-04-06T13:43:15.481Z</time></trkpt><trkpt lat="43.7017989" lon="11.2862141"><ele>180.0</ele><time>2026-04-06T13:43:16.485Z</time></trkpt><trkpt lat="43.7017169" lon="11.286228"><ele>180.0</ele><time>2026-04-06T13:43:17.479Z</time></trkpt><trkpt lat="43.7016346" lon="11.2862374"><ele>179.83333333333334</ele><time>2026-04-06T13:43:18.482Z</time></trkpt><trkpt lat="43.7015534" lon="11.2862524"><ele>179.66666666666666</ele><time>2026-04-06T13:43:19.481Z</time></trkpt><trkpt lat="43.7014737" lon="11.28628"><ele>179.5</ele><time>2026-04-06T13:43:20.482Z</time></trkpt><trkpt lat="43.7013991" lon="11.2863077"><ele>179.33333333333331</ele><time>2026-04-06T13:43:21.478Z</time></trkpt><trkpt lat="43.7013333" lon="11.2863543"><ele>179.16666666666666</ele><time>2026-04-06T13:43:22.477Z</time></trkpt><trkpt lat="43.7012762" lon="11.2864279"><ele>179.0</ele><time>2026-04-06T13:43:23.471Z</time></trkpt><trkpt lat="43.701218" lon="11.2864958"><ele>179.83333333333331</ele><time>2026-04-06T13:43:24.472Z</time></trkpt><trkpt lat="43.7011636" lon="11.2865509"><ele>180.66666666666666</ele><time>2026-04-06T13:43:25.471Z</time></trkpt><trkpt lat="43.701101" lon="11.2866124"><ele>181.5</ele><time>2026-04-06T13:43:26.466Z</time></trkpt><trkpt lat="43.7010371" lon="11.2866744"><ele>182.33333333333334</ele><time>2026-04-06T13:43:27.465Z</time></trkpt><trkpt lat="43.7009665" lon="11.2867396"><ele>183.16666666666669</ele><time>2026-04-06T13:43:28.474Z</time></trkpt><trkpt lat="43.700887" lon="11.2868091"><ele>184.0</ele><time>2026-04-06T13:43:29.462Z</time></trkpt><trkpt lat="43.7008101" lon="11.2868602"><ele>185.33333333333334</ele><time>2026-04-06T13:43:30.46Z</time></trkpt><trkpt lat="43.7007364" lon="11.28691"><ele>186.66666666666669</ele><time>2026-04-06T13:43:31.458Z</time></trkpt><trkpt lat="43.7006705" lon="11.2869564"><ele>188.0</ele><time>2026-04-06T13:43:32.463Z</time></trkpt><trkpt lat="43.700596" lon="11.2869979"><ele>189.33333333333334</ele><time>2026-04-06T13:43:33.467Z</time></trkpt><trkpt lat="43.7005107" lon="11.2870245"><ele>190.66666666666666</ele><time>2026-04-06T13:43:34.466Z</time></trkpt><trkpt lat="43.7004132" lon="11.2870365"><ele>192.0</ele><time>2026-04-06T13:43:35.471Z</time></trkpt><trkpt lat="43.7003091" lon="11.2870503"><ele>191.0</ele><time>2026-04-06T13:43:36.474Z</time></trkpt><trkpt lat="43.7002102" lon="11.2870692"><ele>190.0</ele><time>2026-04-06T13:43:37.473Z</time></trkpt><trkpt lat="43.7001136" lon="11.2870897"><ele>189.0</ele><time>2026-04-06T13:43:38.477Z</time></trkpt><trkpt lat="43.7000224" lon="11.2871081"><ele>188.0</ele><time>2026-04-06T13:43:39.473Z</time></trkpt><trkpt lat="43.6999474" lon="11.2871353"><ele>187.0</ele><time>2026-04-06T13:43:40.475Z</time></trkpt><trkpt lat="43.6998808" lon="11.2871654"><ele>186.0</ele><time>2026-04-06T13:43:42.476Z</time></trkpt><trkpt lat="43.6998593" lon="11.2870569"><ele>186.0</ele><time>2026-04-06T13:44:01.487Z</time></trkpt><trkpt lat="43.6998246" lon="11.2869683"><ele>186.0</ele><time>2026-04-06T13:44:03.476Z</time></trkpt><trkpt lat="43.6997829" lon="11.2868807"><ele>186.0</ele><time>2026-04-06T13:44:05.473Z</time></trkpt><trkpt lat="43.6997669" lon="11.2867861"><ele>186.0</ele><time>2026-04-06T13:44:20.485Z</time></trkpt><trkpt lat="43.6997258" lon="11.2867053"><ele>186.0</ele><time>2026-04-06T13:44:24.479Z</time></trkpt><trkpt lat="43.6997623" lon="11.2867962"><ele>186.0</ele><time>2026-04-06T13:46:55.48Z</time></trkpt><trkpt lat="43.6998104" lon="11.2869362"><ele>186.0</ele><time>2026-04-06T13:46:57.479Z</time></trkpt><trkpt lat="43.6998596" lon="11.2870563"><ele>186.0</ele><time>2026-04-06T13:46:59.477Z</time></trkpt><trkpt lat="43.6998441" lon="11.2871532"><ele>186.0</ele><time>2026-04-06T13:47:02.488Z</time></trkpt><trkpt lat="43.6997799" lon="11.2872297"><ele>186.0</ele><time>2026-04-06T13:47:04.48Z</time></trkpt><trkpt lat="43.6997107" lon="11.28727"><ele>186.0</ele><time>2026-04-06T13:47:06.477Z</time></trkpt><trkpt lat="43.699626" lon="11.2873129"><ele>186.0</ele><time>2026-04-06T13:47:08.482Z</time></trkpt><trkpt lat="43.6995457" lon="11.2873427"><ele>186.0</ele><time>2026-04-06T13:47:10.481Z</time></trkpt><trkpt lat="43.6994648" lon="11.2873538"><ele>186.0</ele><time>2026-04-06T13:47:12.476Z</time></trkpt><trkpt lat="43.6993709" lon="11.2873944"><ele>186.0</ele><time>2026-04-06T13:47:14.478Z</time></trkpt><trkpt lat="43.699265" lon="11.2874644"><ele>186.0</ele><time>2026-04-06T13:47:16.476Z</time></trkpt><trkpt lat="43.6992101" lon="11.2875169"><ele>186.0</ele><time>2026-04-06T13:47:17.475Z</time></trkpt><trkpt lat="43.6991506" lon="11.2875704"><ele>186.0</ele><time>2026-04-06T13:47:18.473Z</time></trkpt><trkpt lat="43.6991028" lon="11.2876337"><ele>188.0</ele><time>2026-04-06T13:47:19.474Z</time></trkpt><trkpt lat="43.6990432" lon="11.2877607"><ele>190.0</ele><time>2026-04-06T13:47:21.479Z</time></trkpt><trkpt lat="43.6989953" lon="11.2878612"><ele>192.0</ele><time>2026-04-06T13:47:22.478Z</time></trkpt><trkpt lat="43.6989355" lon="11.2879675"><ele>194.0</ele><time>2026-04-06T13:47:23.481Z</time></trkpt><trkpt lat="43.6988743" lon="11.288065"><ele>196.0</ele><time>2026-04-06T13:47:24.474Z</time></trkpt><trkpt lat="43.6988234" lon="11.2881751"><ele>197.20000000000002</ele><time>2026-04-06T13:47:25.482Z</time></trkpt><trkpt lat="43.6987768" lon="11.2883017"><ele>198.4</ele><time>2026-04-06T13:47:26.477Z</time></trkpt><trkpt lat="43.6987375" lon="11.2884174"><ele>199.6</ele><time>2026-04-06T13:47:27.477Z</time></trkpt><trkpt lat="43.6986992" lon="11.2885132"><ele>200.8</ele><time>2026-04-06T13:47:28.474Z</time></trkpt><trkpt lat="43.6986428" lon="11.2886259"><ele>202.0</ele><time>2026-04-06T13:47:30.466Z</time></trkpt><trkpt lat="43.6985293" lon="11.2886793"><ele>204.2</ele><time>2026-04-06T13:47:32.475Z</time></trkpt><trkpt lat="43.6984582" lon="11.2887026"><ele>206.39999999999998</ele><time>2026-04-06T13:47:33.467Z</time></trkpt><trkpt lat="43.6983744" lon="11.2887355"><ele>208.60000000000002</ele><time>2026-04-06T13:47:34.466Z</time></trkpt><trkpt lat="43.6982766" lon="11.2887331"><ele>210.8</ele><time>2026-04-06T13:47:35.473Z</time></trkpt><trkpt lat="43.6981718" lon="11.2887253"><ele>213.0</ele><time>2026-04-06T13:47:36.467Z</time></trkpt><trkpt lat="43.6980774" lon="11.2886926"><ele>213.0</ele><time>2026-04-06T13:47:37.472Z</time></trkpt><trkpt lat="43.6979806" lon="11.2886602"><ele>213.0</ele><time>2026-04-06T13:47:38.475Z</time></trkpt><trkpt lat="43.6978768" lon="11.2886348"><ele>213.0</ele><time>2026-04-06T13:47:39.476Z</time></trkpt><trkpt lat="43.6977624" lon="11.288625"><ele>213.0</ele><time>2026-04-06T13:47:40.473Z</time></trkpt><trkpt lat="43.6976537" lon="11.2886291"><ele>213.0</ele><time>2026-04-06T13:47:41.472Z</time></trkpt><trkpt lat="43.6975569" lon="11.2886439"><ele>213.2</ele><time>2026-04-06T13:47:42.475Z</time></trkpt><trkpt lat="43.6974587" lon="11.2886797"><ele>213.4</ele><time>2026-04-06T13:47:43.469Z</time></trkpt><trkpt lat="43.697347" lon="11.2887368"><ele>213.59999999999997</ele><time>2026-04-06T13:47:44.478Z</time></trkpt><trkpt lat="43.6972382" lon="11.2888046"><ele>213.79999999999998</ele><time>2026-04-06T13:47:45.484Z</time></trkpt><trkpt lat="43.6971475" lon="11.2888581"><ele>214.0</ele><time>2026-04-06T13:47:46.478Z</time></trkpt><trkpt lat="43.6970684" lon="11.2889015"><ele>213.83333333333331</ele><time>2026-04-06T13:47:47.478Z</time></trkpt><trkpt lat="43.6970021" lon="11.2889485"><ele>213.66666666666666</ele><time>2026-04-06T13:47:48.472Z</time></trkpt><trkpt lat="43.6969315" lon="11.2890007"><ele>213.5</ele><time>2026-04-06T13:47:49.483Z</time></trkpt><trkpt lat="43.6968566" lon="11.2890611"><ele>213.33333333333331</ele><time>2026-04-06T13:47:50.483Z</time></trkpt><trkpt lat="43.6967818" lon="11.2891156"><ele>213.16666666666666</ele><time>2026-04-06T13:47:51.49Z</time></trkpt><trkpt lat="43.6967049" lon="11.2891751"><ele>213.0</ele><time>2026-04-06T13:47:52.485Z</time></trkpt><trkpt lat="43.6966251" lon="11.2892401"><ele>213.60000000000002</ele><time>2026-04-06T13:47:53.487Z</time></trkpt><trkpt lat="43.6965452" lon="11.2893095"><ele>214.20000000000002</ele><time>2026-04-06T13:47:54.485Z</time></trkpt><trkpt lat="43.6964667" lon="11.2893718"><ele>214.8</ele><time>2026-04-06T13:47:55.487Z</time></trkpt><trkpt lat="43.6963814" lon="11.2894395"><ele>215.4</ele><time>2026-04-06T13:47:56.485Z</time></trkpt><trkpt lat="43.6962908" lon="11.2895132"><ele>216.0</ele><time>2026-04-06T13:47:57.486Z</time></trkpt><trkpt lat="43.6962" lon="11.2895756"><ele>216.0</ele><time>2026-04-06T13:47:58.486Z</time></trkpt><trkpt lat="43.6961038" lon="11.2896375"><ele>216.00000000000003</ele><time>2026-04-06T13:47:59.484Z</time></trkpt><trkpt lat="43.6960177" lon="11.2896924"><ele>216.00000000000003</ele><time>2026-04-06T13:48:00.485Z</time></trkpt><trkpt lat="43.6959391" lon="11.2897486"><ele>216.0</ele><time>2026-04-06T13:48:01.482Z</time></trkpt><trkpt lat="43.695866" lon="11.2897994"><ele>216.0</ele><time>2026-04-06T13:48:02.48Z</time></trkpt><trkpt lat="43.695794" lon="11.2898526"><ele>216.16666666666666</ele><time>2026-04-06T13:48:03.478Z</time></trkpt><trkpt lat="43.6957298" lon="11.289908"><ele>216.33333333333331</ele><time>2026-04-06T13:48:04.478Z</time></trkpt><trkpt lat="43.6956793" lon="11.2899779"><ele>216.5</ele><time>2026-04-06T13:48:05.473Z</time></trkpt><trkpt lat="43.695614" lon="11.2900978"><ele>216.66666666666666</ele><time>2026-04-06T13:48:07.476Z</time></trkpt><trkpt lat="43.6955833" lon="11.2901882"><ele>216.83333333333331</ele><time>2026-04-06T13:48:17.483Z</time></trkpt><trkpt lat="43.6956228" lon="11.2903156"><ele>217.0</ele><time>2026-04-06T13:48:19.473Z</time></trkpt><trkpt lat="43.6956617" lon="11.2904034"><ele>217.0</ele><time>2026-04-06T13:48:20.478Z</time></trkpt><trkpt lat="43.6956971" lon="11.2905163"><ele>217.0</ele><time>2026-04-06T13:48:21.48Z</time></trkpt><trkpt lat="43.6957145" lon="11.2906393"><ele>217.0</ele><time>2026-04-06T13:48:22.481Z</time></trkpt><trkpt lat="43.6957398" lon="11.2907593"><ele>217.0</ele><time>2026-04-06T13:48:23.476Z</time></trkpt><trkpt lat="43.6957723" lon="11.2908849"><ele>217.0</ele><time>2026-04-06T13:48:24.473Z</time></trkpt><trkpt lat="43.6958087" lon="11.2910164"><ele>216.2</ele><time>2026-04-06T13:48:25.478Z</time></trkpt><trkpt lat="43.6958396" lon="11.2911674"><ele>215.39999999999998</ele><time>2026-04-06T13:48:26.477Z</time></trkpt><trkpt lat="43.6958701" lon="11.29131"><ele>214.60000000000002</ele><time>2026-04-06T13:48:27.483Z</time></trkpt><trkpt lat="43.6959085" lon="11.29145"><ele>213.8</ele><time>2026-04-06T13:48:28.489Z</time></trkpt><trkpt lat="43.6959432" lon="11.2915849"><ele>213.0</ele><time>2026-04-06T13:48:29.48Z</time></trkpt><trkpt lat="43.6959738" lon="11.2917157"><ele>212.2</ele><time>2026-04-06T13:48:30.48Z</time></trkpt><trkpt lat="43.6960029" lon="11.2918464"><ele>211.4</ele><time>2026-04-06T13:48:31.478Z</time></trkpt><trkpt lat="43.6960291" lon="11.2919762"><ele>210.6</ele><time>2026-04-06T13:48:32.476Z</time></trkpt><trkpt lat="43.6960418" lon="11.2921059"><ele>209.79999999999998</ele><time>2026-04-06T13:48:33.476Z</time></trkpt><trkpt lat="43.6960302" lon="11.292236"><ele>209.0</ele><time>2026-04-06T13:48:34.471Z</time></trkpt><trkpt lat="43.6960069" lon="11.2923513"><ele>208.71428571428572</ele><time>2026-04-06T13:48:35.473Z</time></trkpt><trkpt lat="43.6959709" lon="11.2924375"><ele>208.42857142857142</ele><time>2026-04-06T13:48:36.469Z</time></trkpt><trkpt lat="43.6959192" lon="11.2925002"><ele>208.14285714285717</ele><time>2026-04-06T13:48:37.471Z</time></trkpt><trkpt lat="43.6958602" lon="11.292547"><ele>207.85714285714286</ele><time>2026-04-06T13:48:38.476Z</time></trkpt><trkpt lat="43.6957959" lon="11.2925923"><ele>207.57142857142858</ele><time>2026-04-06T13:48:39.482Z</time></trkpt><trkpt lat="43.6957309" lon="11.2926321"><ele>207.2857142857143</ele><time>2026-04-06T13:48:40.476Z</time></trkpt><trkpt lat="43.6956421" lon="11.2926729"><ele>207.0</ele><time>2026-04-06T13:48:42.48Z</time></trkpt><trkpt lat="43.6955696" lon="11.2927035"><ele>207.0</ele><time>2026-04-06T13:48:45.487Z</time></trkpt><trkpt lat="43.6954891" lon="11.2927285"><ele>207.0</ele><time>2026-04-06T13:48:50.488Z</time></trkpt><trkpt lat="43.6954072" lon="11.2927572"><ele>207.0</ele><time>2026-04-06T13:48:52.489Z</time></trkpt><trkpt lat="43.695283" lon="11.2927997"><ele>207.0</ele><time>2026-04-06T13:48:54.482Z</time></trkpt><trkpt lat="43.695199" lon="11.2928308"><ele>207.0</ele><time>2026-04-06T13:48:55.481Z</time></trkpt><trkpt lat="43.6951122" lon="11.2928548"><ele>207.2</ele><time>2026-04-06T13:48:56.469Z</time></trkpt><trkpt lat="43.6950108" lon="11.2928635"><ele>207.39999999999998</ele><time>2026-04-06T13:48:57.472Z</time></trkpt><trkpt lat="43.6949033" lon="11.2928608"><ele>207.60000000000002</ele><time>2026-04-06T13:48:58.474Z</time></trkpt><trkpt lat="43.694802" lon="11.29285"><ele>207.8</ele><time>2026-04-06T13:48:59.475Z</time></trkpt><trkpt lat="43.6946925" lon="11.2928433"><ele>208.0</ele><time>2026-04-06T13:49:00.467Z</time></trkpt><trkpt lat="43.6945705" lon="11.2928402"><ele>208.0</ele><time>2026-04-06T13:49:01.476Z</time></trkpt><trkpt lat="43.6944478" lon="11.2928416"><ele>208.0</ele><time>2026-04-06T13:49:02.477Z</time></trkpt><trkpt lat="43.6943234" lon="11.2928422"><ele>208.0</ele><time>2026-04-06T13:49:03.472Z</time></trkpt><trkpt lat="43.6942095" lon="11.2928585"><ele>208.0</ele><time>2026-04-06T13:49:04.477Z</time></trkpt><trkpt lat="43.6941029" lon="11.2928934"><ele>208.0</ele><time>2026-04-06T13:49:05.478Z</time></trkpt><trkpt lat="43.6940099" lon="11.2929507"><ele>208.0</ele><time>2026-04-06T13:49:06.47Z</time></trkpt><trkpt lat="43.6939224" lon="11.2930429"><ele>208.0</ele><time>2026-04-06T13:49:07.465Z</time></trkpt><trkpt lat="43.6938355" lon="11.2931691"><ele>208.0</ele><time>2026-04-06T13:49:08.477Z</time></trkpt><trkpt lat="43.6937568" lon="11.2933058"><ele>207.25</ele><time>2026-04-06T13:49:09.475Z</time></trkpt><trkpt lat="43.6936754" lon="11.2934386"><ele>206.5</ele><time>2026-04-06T13:49:10.478Z</time></trkpt><trkpt lat="43.6935786" lon="11.2935233"><ele>205.75</ele><time>2026-04-06T13:49:11.466Z</time></trkpt><trkpt lat="43.6934686" lon="11.293586"><ele>205.0</ele><time>2026-04-06T13:49:12.472Z</time></trkpt><trkpt lat="43.6933491" lon="11.2936417"><ele>205.0</ele><time>2026-04-06T13:49:13.466Z</time></trkpt><trkpt lat="43.6932299" lon="11.2937284"><ele>205.0</ele><time>2026-04-06T13:49:14.456Z</time></trkpt><trkpt lat="43.6931226" lon="11.2938522"><ele>205.0</ele><time>2026-04-06T13:49:15.474Z</time></trkpt><trkpt lat="43.6930514" lon="11.2940166"><ele>205.0</ele><time>2026-04-06T13:49:16.479Z</time></trkpt><trkpt lat="43.6930091" lon="11.2942028"><ele>203.8</ele><time>2026-04-06T13:49:17.474Z</time></trkpt><trkpt lat="43.6929777" lon="11.2943781"><ele>202.6</ele><time>2026-04-06T13:49:18.468Z</time></trkpt><trkpt lat="43.6929625" lon="11.294539"><ele>201.39999999999998</ele><time>2026-04-06T13:49:19.472Z</time></trkpt><trkpt lat="43.6929509" lon="11.2946878"><ele>200.2</ele><time>2026-04-06T13:49:20.474Z</time></trkpt><trkpt lat="43.69292" lon="11.2948089"><ele>199.0</ele><time>2026-04-06T13:49:21.47Z</time></trkpt><trkpt lat="43.6928734" lon="11.2949018"><ele>199.39999999999998</ele><time>2026-04-06T13:49:22.483Z</time></trkpt><trkpt lat="43.6928112" lon="11.2949628"><ele>199.8</ele><time>2026-04-06T13:49:23.47Z</time></trkpt><trkpt lat="43.692734" lon="11.2949839"><ele>200.2</ele><time>2026-04-06T13:49:24.476Z</time></trkpt><trkpt lat="43.6926402" lon="11.2949717"><ele>200.60000000000002</ele><time>2026-04-06T13:49:25.469Z</time></trkpt><trkpt lat="43.6925459" lon="11.2949367"><ele>201.0</ele><time>2026-04-06T13:49:26.473Z</time></trkpt><trkpt lat="43.6924468" lon="11.2948909"><ele>201.0</ele><time>2026-04-06T13:49:27.474Z</time></trkpt><trkpt lat="43.6923463" lon="11.2948411"><ele>201.0</ele><time>2026-04-06T13:49:28.478Z</time></trkpt><trkpt lat="43.6922393" lon="11.2947942"><ele>201.0</ele><time>2026-04-06T13:49:29.475Z</time></trkpt><trkpt lat="43.6921273" lon="11.2947597"><ele>201.0</ele><time>2026-04-06T13:49:30.462Z</time></trkpt><trkpt lat="43.6920142" lon="11.2947538"><ele>201.0</ele><time>2026-04-06T13:49:31.481Z</time></trkpt><trkpt lat="43.6918999" lon="11.2948014"><ele>201.20000000000002</ele><time>2026-04-06T13:49:32.477Z</time></trkpt><trkpt lat="43.6918026" lon="11.2948674"><ele>201.4</ele><time>2026-04-06T13:49:33.474Z</time></trkpt><trkpt lat="43.6917146" lon="11.2949382"><ele>201.6</ele><time>2026-04-06T13:49:34.486Z</time></trkpt><trkpt lat="43.6916346" lon="11.2950163"><ele>201.8</ele><time>2026-04-06T13:49:35.483Z</time></trkpt><trkpt lat="43.6915474" lon="11.2951056"><ele>202.0</ele><time>2026-04-06T13:49:36.482Z</time></trkpt><trkpt lat="43.6914508" lon="11.295188"><ele>201.99999999999997</ele><time>2026-04-06T13:49:37.48Z</time></trkpt><trkpt lat="43.6913636" lon="11.295266"><ele>202.0</ele><time>2026-04-06T13:49:38.485Z</time></trkpt><trkpt lat="43.6912922" lon="11.2953401"><ele>202.0</ele><time>2026-04-06T13:49:39.471Z</time></trkpt><trkpt lat="43.6912313" lon="11.2954208"><ele>202.0</ele><time>2026-04-06T13:49:41.473Z</time></trkpt><trkpt lat="43.6911617" lon="11.2955204"><ele>201.99999999999997</ele><time>2026-04-06T13:50:24.495Z</time></trkpt><trkpt lat="43.6911183" lon="11.2955902"><ele>202.0</ele><time>2026-04-06T13:50:25.492Z</time></trkpt><trkpt lat="43.6910811" lon="11.295678"><ele>201.99999999999997</ele><time>2026-04-06T13:50:26.495Z</time></trkpt><trkpt lat="43.6910516" lon="11.2957677"><ele>202.0</ele><time>2026-04-06T13:50:27.493Z</time></trkpt><trkpt lat="43.691024" lon="11.2958466"><ele>202.0</ele><time>2026-04-06T13:50:28.489Z</time></trkpt><trkpt lat="43.6909824" lon="11.2959309"><ele>202.0</ele><time>2026-04-06T13:50:29.483Z</time></trkpt><trkpt lat="43.6909333" lon="11.2960256"><ele>201.99999999999997</ele><time>2026-04-06T13:50:30.498Z</time></trkpt><trkpt lat="43.6908818" lon="11.2961389"><ele>202.0</ele><time>2026-04-06T13:50:31.487Z</time></trkpt><trkpt lat="43.6908225" lon="11.2962547"><ele>202.0</ele><time>2026-04-06T13:50:32.486Z</time></trkpt><trkpt lat="43.6907678" lon="11.2963673"><ele>202.0</ele><time>2026-04-06T13:50:33.486Z</time></trkpt><trkpt lat="43.6907223" lon="11.2964808"><ele>202.0</ele><time>2026-04-06T13:50:34.488Z</time></trkpt><trkpt lat="43.6906715" lon="11.2965967"><ele>202.0</ele><time>2026-04-06T13:50:35.485Z</time></trkpt><trkpt lat="43.6906227" lon="11.2967198"><ele>202.0</ele><time>2026-04-06T13:50:36.486Z</time></trkpt><trkpt lat="43.6905819" lon="11.296855"><ele>201.33333333333331</ele><time>2026-04-06T13:50:37.481Z</time></trkpt><trkpt lat="43.6905533" lon="11.2969804"><ele>200.66666666666666</ele><time>2026-04-06T13:50:38.482Z</time></trkpt><trkpt lat="43.6905302" lon="11.297101"><ele>200.0</ele><time>2026-04-06T13:50:39.488Z</time></trkpt><trkpt lat="43.6905099" lon="11.2972171"><ele>199.33333333333331</ele><time>2026-04-06T13:50:40.483Z</time></trkpt><trkpt lat="43.6904942" lon="11.2973191"><ele>198.66666666666666</ele><time>2026-04-06T13:50:41.483Z</time></trkpt><trkpt lat="43.6904731" lon="11.297417"><ele>198.0</ele><time>2026-04-06T13:50:42.484Z</time></trkpt><trkpt lat="43.6904533" lon="11.2975129"><ele>197.5</ele><time>2026-04-06T13:50:43.489Z</time></trkpt><trkpt lat="43.6904216" lon="11.2975949"><ele>197.0</ele><time>2026-04-06T13:50:44.49Z</time></trkpt><trkpt lat="43.6903637" lon="11.2977181"><ele>196.5</ele><time>2026-04-06T13:50:46.486Z</time></trkpt><trkpt lat="43.6903579" lon="11.2978081"><ele>196.0</ele><time>2026-04-06T13:50:48.485Z</time></trkpt><trkpt lat="43.6904124" lon="11.2978837"><ele>195.5</ele><time>2026-04-06T13:50:50.476Z</time></trkpt><trkpt lat="43.6905215" lon="11.2979804"><ele>195.0</ele><time>2026-04-06T13:50:52.483Z</time></trkpt><trkpt lat="43.690569" lon="11.298042"><ele>195.0</ele><time>2026-04-06T13:50:53.486Z</time></trkpt><trkpt lat="43.6906273" lon="11.2981099"><ele>195.0</ele><time>2026-04-06T13:50:54.48Z</time></trkpt><trkpt lat="43.6906903" lon="11.2981736"><ele>195.0</ele><time>2026-04-06T13:50:55.483Z</time></trkpt><trkpt lat="43.6907436" lon="11.2982535"><ele>195.0</ele><time>2026-04-06T13:50:56.489Z</time></trkpt><trkpt lat="43.69079" lon="11.2983393"><ele>195.0</ele><time>2026-04-06T13:50:57.498Z</time></trkpt><trkpt lat="43.690833" lon="11.2984284"><ele>195.0</ele><time>2026-04-06T13:50:58.496Z</time></trkpt><trkpt lat="43.6908754" lon="11.298525"><ele>195.0</ele><time>2026-04-06T13:50:59.495Z</time></trkpt><trkpt lat="43.6909253" lon="11.2986215"><ele>195.0</ele><time>2026-04-06T13:51:00.494Z</time></trkpt><trkpt lat="43.6909849" lon="11.2987049"><ele>195.0</ele><time>2026-04-06T13:51:01.495Z</time></trkpt><trkpt lat="43.6910391" lon="11.2987881"><ele>195.0</ele><time>2026-04-06T13:51:02.495Z</time></trkpt><trkpt lat="43.6910873" lon="11.2988714"><ele>195.0</ele><time>2026-04-06T13:51:03.495Z</time></trkpt><trkpt lat="43.6911379" lon="11.2989695"><ele>195.0</ele><time>2026-04-06T13:51:04.494Z</time></trkpt><trkpt lat="43.6911899" lon="11.2990577"><ele>193.0</ele><time>2026-04-06T13:51:05.494Z</time></trkpt><trkpt lat="43.6912462" lon="11.2991417"><ele>191.0</ele><time>2026-04-06T13:51:06.491Z</time></trkpt><trkpt lat="43.6912952" lon="11.2992221"><ele>189.0</ele><time>2026-04-06T13:51:07.493Z</time></trkpt><trkpt lat="43.6913528" lon="11.2992808"><ele>187.0</ele><time>2026-04-06T13:51:08.484Z</time></trkpt><trkpt lat="43.6914082" lon="11.2993569"><ele>185.0</ele><time>2026-04-06T13:51:09.488Z</time></trkpt><trkpt lat="43.6914588" lon="11.2994191"><ele>183.0</ele><time>2026-04-06T13:51:10.488Z</time></trkpt><trkpt lat="43.6915111" lon="11.2994856"><ele>181.0</ele><time>2026-04-06T13:51:11.488Z</time></trkpt><trkpt lat="43.691588" lon="11.2996164"><ele>181.0</ele><time>2026-04-06T13:51:13.482Z</time></trkpt><trkpt lat="43.6916146" lon="11.2996962"><ele>181.0</ele><time>2026-04-06T13:51:14.477Z</time></trkpt><trkpt lat="43.6916357" lon="11.299779"><ele>181.0</ele><time>2026-04-06T13:51:15.481Z</time></trkpt><trkpt lat="43.6916503" lon="11.299877"><ele>181.0</ele><time>2026-04-06T13:51:16.478Z</time></trkpt><trkpt lat="43.6916433" lon="11.2999952"><ele>181.0</ele><time>2026-04-06T13:51:17.488Z</time></trkpt><trkpt lat="43.6916246" lon="11.3001072"><ele>181.0</ele><time>2026-04-06T13:51:18.484Z</time></trkpt><trkpt lat="43.6915994" lon="11.3002159"><ele>180.5</ele><time>2026-04-06T13:51:19.475Z</time></trkpt><trkpt lat="43.691574" lon="11.300323"><ele>180.0</ele><time>2026-04-06T13:51:20.483Z</time></trkpt><trkpt lat="43.6915364" lon="11.3004226"><ele>179.5</ele><time>2026-04-06T13:51:21.482Z</time></trkpt><trkpt lat="43.6914946" lon="11.3005168"><ele>179.0</ele><time>2026-04-06T13:51:22.478Z</time></trkpt><trkpt lat="43.6914357" lon="11.3006092"><ele>178.5</ele><time>2026-04-06T13:51:23.485Z</time></trkpt><trkpt lat="43.6913725" lon="11.3007061"><ele>178.0</ele><time>2026-04-06T13:51:24.482Z</time></trkpt><trkpt lat="43.6913084" lon="11.3007995"><ele>176.2</ele><time>2026-04-06T13:51:25.489Z</time></trkpt><trkpt lat="43.6912326" lon="11.3008819"><ele>174.4</ele><time>2026-04-06T13:51:26.484Z</time></trkpt><trkpt lat="43.6911657" lon="11.3009574"><ele>172.6</ele><time>2026-04-06T13:51:27.49Z</time></trkpt><trkpt lat="43.6911045" lon="11.301031"><ele>170.79999999999998</ele><time>2026-04-06T13:51:28.496Z</time></trkpt><trkpt lat="43.6910349" lon="11.301119"><ele>169.0</ele><time>2026-04-06T13:51:29.487Z</time></trkpt><trkpt lat="43.6909739" lon="11.3012134"><ele>169.0</ele><time>2026-04-06T13:51:30.492Z</time></trkpt><trkpt lat="43.6909153" lon="11.3013039"><ele>169.0</ele><time>2026-04-06T13:51:31.485Z</time></trkpt><trkpt lat="43.690849" lon="11.3013972"><ele>169.0</ele><time>2026-04-06T13:51:32.491Z</time></trkpt><trkpt lat="43.6907852" lon="11.3014974"><ele>169.0</ele><time>2026-04-06T13:51:33.491Z</time></trkpt><trkpt lat="43.6907244" lon="11.3015909"><ele>169.0</ele><time>2026-04-06T13:51:34.49Z</time></trkpt><trkpt lat="43.6906619" lon="11.3016726"><ele>167.66666666666669</ele><time>2026-04-06T13:51:35.489Z</time></trkpt><trkpt lat="43.6906045" lon="11.3017523"><ele>166.33333333333334</ele><time>2026-04-06T13:51:36.491Z</time></trkpt><trkpt lat="43.6905478" lon="11.3018256"><ele>165.0</ele><time>2026-04-06T13:51:37.479Z</time></trkpt><trkpt lat="43.6904705" lon="11.3018725"><ele>163.66666666666666</ele><time>2026-04-06T13:51:38.491Z</time></trkpt><trkpt lat="43.690401" lon="11.3019243"><ele>162.33333333333331</ele><time>2026-04-06T13:51:39.482Z</time></trkpt><trkpt lat="43.6903296" lon="11.3019586"><ele>161.0</ele><time>2026-04-06T13:51:40.484Z</time></trkpt><trkpt lat="43.6902637" lon="11.3019796"><ele>160.66666666666666</ele><time>2026-04-06T13:51:41.488Z</time></trkpt><trkpt lat="43.6901928" lon="11.3019974"><ele>160.33333333333331</ele><time>2026-04-06T13:51:42.486Z</time></trkpt><trkpt lat="43.6900856" lon="11.3020082"><ele>160.0</ele><time>2026-04-06T13:51:44.482Z</time></trkpt><trkpt lat="43.6900194" lon="11.302046"><ele>159.66666666666666</ele><time>2026-04-06T13:51:46.498Z</time></trkpt><trkpt lat="43.6899393" lon="11.3020734"><ele>159.33333333333334</ele><time>2026-04-06T13:52:04.5Z</time></trkpt><trkpt lat="43.6898606" lon="11.3020537"><ele>159.0</ele><time>2026-04-06T13:52:06.5Z</time></trkpt><trkpt lat="43.689794" lon="11.3020375"><ele>159.0</ele><time>2026-04-06T13:52:07.488Z</time></trkpt><trkpt lat="43.6897057" lon="11.3020198"><ele>159.0</ele><time>2026-04-06T13:52:09.488Z</time></trkpt><trkpt lat="43.6896063" lon="11.3020013"><ele>159.0</ele><time>2026-04-06T13:52:11.483Z</time></trkpt><trkpt lat="43.6895343" lon="11.3019885"><ele>159.0</ele><time>2026-04-06T13:52:12.489Z</time></trkpt><trkpt lat="43.6894667" lon="11.3019729"><ele>159.0</ele><time>2026-04-06T13:52:13.495Z</time></trkpt><trkpt lat="43.689393" lon="11.3019486"><ele>159.0</ele><time>2026-04-06T13:52:14.494Z</time></trkpt><trkpt lat="43.6893185" lon="11.3019258"><ele>158.66666666666666</ele><time>2026-04-06T13:52:15.49Z</time></trkpt><trkpt lat="43.6892391" lon="11.3019105"><ele>158.33333333333334</ele><time>2026-04-06T13:52:16.494Z</time></trkpt><trkpt lat="43.6891646" lon="11.301889"><ele>158.0</ele><time>2026-04-06T13:52:17.498Z</time></trkpt><trkpt lat="43.6890971" lon="11.3018683"><ele>157.66666666666669</ele><time>2026-04-06T13:52:18.495Z</time></trkpt><trkpt lat="43.6890256" lon="11.3018527"><ele>157.33333333333334</ele><time>2026-04-06T13:52:19.489Z</time></trkpt><trkpt lat="43.6889388" lon="11.301813"><ele>157.0</ele><time>2026-04-06T13:52:21.485Z</time></trkpt><trkpt lat="43.6888734" lon="11.3017976"><ele>157.0</ele><time>2026-04-06T13:52:27.501Z</time></trkpt><trkpt lat="43.6888272" lon="11.3018574"><ele>157.0</ele><time>2026-04-06T13:52:29.494Z</time></trkpt><trkpt lat="43.6887653" lon="11.3019946"><ele>157.0</ele><time>2026-04-06T13:52:31.494Z</time></trkpt><trkpt lat="43.6886956" lon="11.3021179"><ele>157.0</ele><time>2026-04-06T13:52:33.489Z</time></trkpt><trkpt lat="43.6886372" lon="11.3022185"><ele>157.0</ele><time>2026-04-06T13:52:35.491Z</time></trkpt><trkpt lat="43.6885929" lon="11.3023142"><ele>154.57142857142856</ele><time>2026-04-06T13:52:37.496Z</time></trkpt><trkpt lat="43.6885543" lon="11.3023936"><ele>152.14285714285714</ele><time>2026-04-06T13:52:39.492Z</time></trkpt><trkpt lat="43.6885244" lon="11.3024751"><ele>149.71428571428572</ele><time>2026-04-06T13:52:41.491Z</time></trkpt><trkpt lat="43.6884661" lon="11.3025589"><ele>147.28571428571428</ele><time>2026-04-06T13:52:44.491Z</time></trkpt><trkpt lat="43.6884046" lon="11.3025934"><ele>144.85714285714286</ele><time>2026-04-06T13:52:46.492Z</time></trkpt><trkpt lat="43.6883282" lon="11.3026242"><ele>142.42857142857142</ele><time>2026-04-06T13:52:48.495Z</time></trkpt><trkpt lat="43.6882816" lon="11.302694"><ele>140.0</ele><time>2026-04-06T13:52:50.495Z</time></trkpt><trkpt lat="43.6882611" lon="11.302812"><ele>140.0</ele><time>2026-04-06T13:52:52.502Z</time></trkpt><trkpt lat="43.6882906" lon="11.3029596"><ele>140.0</ele><time>2026-04-06T13:52:54.491Z</time></trkpt><trkpt lat="43.688316" lon="11.3031086"><ele>140.0</ele><time>2026-04-06T13:52:56.49Z</time></trkpt><trkpt lat="43.688289" lon="11.3032846"><ele>140.0</ele><time>2026-04-06T13:52:58.493Z</time></trkpt><trkpt lat="43.6882705" lon="11.3033812"><ele>140.0</ele><time>2026-04-06T13:52:59.489Z</time></trkpt><trkpt lat="43.6882559" lon="11.3035243"><ele>139.16666666666666</ele><time>2026-04-06T13:53:01.486Z</time></trkpt><trkpt lat="43.6882661" lon="11.3036263"><ele>138.33333333333331</ele><time>2026-04-06T13:53:03.497Z</time></trkpt><trkpt lat="43.6882327" lon="11.3037446"><ele>137.5</ele><time>2026-04-06T13:53:06.495Z</time></trkpt><trkpt lat="43.6881882" lon="11.3038298"><ele>136.66666666666666</ele><time>2026-04-06T13:53:08.5Z</time></trkpt><trkpt lat="43.688148" lon="11.3039135"><ele>135.83333333333334</ele><time>2026-04-06T13:53:10.496Z</time></trkpt><trkpt lat="43.6880771" lon="11.3040052"><ele>135.0</ele><time>2026-04-06T13:53:12.487Z</time></trkpt><trkpt lat="43.6880051" lon="11.3041185"><ele>133.4</ele><time>2026-04-06T13:53:14.487Z</time></trkpt><trkpt lat="43.687929" lon="11.3042419"><ele>131.8</ele><time>2026-04-06T13:53:16.488Z</time></trkpt><trkpt lat="43.6878833" lon="11.304305"><ele>130.2</ele><time>2026-04-06T13:53:17.491Z</time></trkpt><trkpt lat="43.6878068" lon="11.3044301"><ele>128.6</ele><time>2026-04-06T13:53:19.487Z</time></trkpt><trkpt lat="43.6877385" lon="11.3045355"><ele>127.0</ele><time>2026-04-06T13:53:21.495Z</time></trkpt><trkpt lat="43.6877018" lon="11.304627"><ele>126.00000000000001</ele><time>2026-04-06T13:53:23.501Z</time></trkpt><trkpt lat="43.6876789" lon="11.3047268"><ele>125.0</ele><time>2026-04-06T13:53:26.491Z</time></trkpt><trkpt lat="43.6876467" lon="11.3048233"><ele>124.0</ele><time>2026-04-06T13:53:31.495Z</time></trkpt><trkpt lat="43.6876157" lon="11.3049045"><ele>123.0</ele><time>2026-04-06T13:53:33.493Z</time></trkpt><trkpt lat="43.6875864" lon="11.3050035"><ele>122.00000000000001</ele><time>2026-04-06T13:53:35.497Z</time></trkpt><trkpt lat="43.687579" lon="11.3051036"><ele>121.0</ele><time>2026-04-06T13:53:37.492Z</time></trkpt><trkpt lat="43.6875078" lon="11.3051685"><ele>120.33333333333334</ele><time>2026-04-06T13:53:40.491Z</time></trkpt><trkpt lat="43.6874337" lon="11.3051465"><ele>119.66666666666667</ele><time>2026-04-06T13:53:43.493Z</time></trkpt><trkpt lat="43.6874047" lon="11.305056"><ele>119.0</ele><time>2026-04-06T13:53:54.492Z</time></trkpt><trkpt lat="43.6873776" lon="11.3051424"><ele>118.33333333333334</ele><time>2026-04-06T13:54:39.501Z</time></trkpt><trkpt lat="43.6873299" lon="11.3052478"><ele>117.66666666666667</ele><time>2026-04-06T13:54:41.498Z</time></trkpt><trkpt lat="43.687284" lon="11.305384"><ele>117.0</ele><time>2026-04-06T13:54:43.491Z</time></trkpt><trkpt lat="43.6872392" lon="11.3055009"><ele>116.8</ele><time>2026-04-06T13:54:45.493Z</time></trkpt><trkpt lat="43.6871621" lon="11.3055915"><ele>116.6</ele><time>2026-04-06T13:54:47.499Z</time></trkpt><trkpt lat="43.6870956" lon="11.3056452"><ele>116.39999999999999</ele><time>2026-04-06T13:54:49.497Z</time></trkpt><trkpt lat="43.6870255" lon="11.3056801"><ele>116.19999999999999</ele><time>2026-04-06T13:54:51.512Z</time></trkpt><trkpt lat="43.6869349" lon="11.3056916"><ele>116.0</ele><time>2026-04-06T13:54:53.513Z</time></trkpt><trkpt lat="43.6868266" lon="11.3057207"><ele>115.99999999999999</ele><time>2026-04-06T13:54:55.506Z</time></trkpt><trkpt lat="43.6867634" lon="11.3057399"><ele>116.0</ele><time>2026-04-06T13:54:56.503Z</time></trkpt><trkpt lat="43.6866961" lon="11.3057471"><ele>116.0</ele><time>2026-04-06T13:54:57.501Z</time></trkpt><trkpt lat="43.6866302" lon="11.3057533"><ele>116.0</ele><time>2026-04-06T13:54:58.498Z</time></trkpt><trkpt lat="43.6865672" lon="11.305762"><ele>115.99999999999999</ele><time>2026-04-06T13:54:59.501Z</time></trkpt><trkpt lat="43.6865001" lon="11.3057764"><ele>116.0</ele><time>2026-04-06T13:55:00.502Z</time></trkpt><trkpt lat="43.6863777" lon="11.3058044"><ele>115.99999999999999</ele><time>2026-04-06T13:55:02.5Z</time></trkpt><trkpt lat="43.6863057" lon="11.3058183"><ele>116.0</ele><time>2026-04-06T13:55:03.493Z</time></trkpt><trkpt lat="43.6862249" lon="11.3058326"><ele>116.0</ele><time>2026-04-06T13:55:04.497Z</time></trkpt><trkpt lat="43.6861586" lon="11.3058505"><ele>116.0</ele><time>2026-04-06T13:55:05.499Z</time></trkpt><trkpt lat="43.6860902" lon="11.3058586"><ele>115.99999999999999</ele><time>2026-04-06T13:55:06.495Z</time></trkpt><trkpt lat="43.6859982" lon="11.3058918"><ele>116.0</ele><time>2026-04-06T13:55:08.494Z</time></trkpt><trkpt lat="43.6861015" lon="11.3058654"><ele>116.0</ele><time>2026-04-06T13:56:33.5Z</time></trkpt><trkpt lat="43.6862232" lon="11.3058306"><ele>116.0</ele><time>2026-04-06T13:56:35.49Z</time></trkpt><trkpt lat="43.6862903" lon="11.3058128"><ele>116.0</ele><time>2026-04-06T13:56:36.49Z</time></trkpt><trkpt lat="43.6864066" lon="11.3057823"><ele>116.0</ele><time>2026-04-06T13:56:38.499Z</time></trkpt><trkpt lat="43.6865118" lon="11.3057604"><ele>116.0</ele><time>2026-04-06T13:56:40.5Z</time></trkpt><trkpt lat="43.6866298" lon="11.3057565"><ele>115.99999999999999</ele><time>2026-04-06T13:56:42.497Z</time></trkpt><trkpt lat="43.6867377" lon="11.3057252"><ele>116.0</ele><time>2026-04-06T13:56:44.502Z</time></trkpt><trkpt lat="43.6868119" lon="11.3057057"><ele>116.0</ele><time>2026-04-06T13:56:45.497Z</time></trkpt><trkpt lat="43.686891" lon="11.3056982"><ele>116.0</ele><time>2026-04-06T13:56:46.502Z</time></trkpt><trkpt lat="43.6869554" lon="11.3056924"><ele>115.99999999999999</ele><time>2026-04-06T13:56:47.495Z</time></trkpt><trkpt lat="43.687031" lon="11.305685"><ele>116.0</ele><time>2026-04-06T13:56:49.496Z</time></trkpt><trkpt lat="43.6870482" lon="11.3057936"><ele>115.83333333333333</ele><time>2026-04-06T13:56:54.504Z</time></trkpt><trkpt lat="43.6870541" lon="11.3058987"><ele>115.66666666666666</ele><time>2026-04-06T13:56:58.504Z</time></trkpt><trkpt lat="43.6870927" lon="11.3059779"><ele>115.5</ele><time>2026-04-06T13:57:02.501Z</time></trkpt><trkpt lat="43.687097" lon="11.3060725"><ele>115.33333333333334</ele><time>2026-04-06T13:57:05.501Z</time></trkpt><trkpt lat="43.6870763" lon="11.3061842"><ele>115.16666666666667</ele><time>2026-04-06T13:57:08.503Z</time></trkpt><trkpt lat="43.6871109" lon="11.3062917"><ele>115.0</ele><time>2026-04-06T13:57:10.498Z</time></trkpt><trkpt lat="43.6872058" lon="11.3063944"><ele>115.16666666666667</ele><time>2026-04-06T13:57:12.497Z</time></trkpt><trkpt lat="43.6872475" lon="11.3064673"><ele>115.33333333333334</ele><time>2026-04-06T13:57:13.5Z</time></trkpt><trkpt lat="43.6872806" lon="11.3065435"><ele>115.5</ele><time>2026-04-06T13:57:14.501Z</time></trkpt><trkpt lat="43.6873303" lon="11.3066517"><ele>115.66666666666666</ele><time>2026-04-06T13:57:16.5Z</time></trkpt><trkpt lat="43.6873724" lon="11.3067341"><ele>115.83333333333333</ele><time>2026-04-06T13:57:18.503Z</time></trkpt><trkpt lat="43.6874238" lon="11.3068493"><ele>116.0</ele><time>2026-04-06T13:57:43.514Z</time></trkpt><trkpt lat="43.6874933" lon="11.3069907"><ele>115.99999999999999</ele><time>2026-04-06T13:57:45.494Z</time></trkpt><trkpt lat="43.6875406" lon="11.3070702"><ele>116.0</ele><time>2026-04-06T13:57:46.509Z</time></trkpt><trkpt lat="43.6875746" lon="11.3071505"><ele>116.0</ele><time>2026-04-06T13:57:47.51Z</time></trkpt><trkpt lat="43.6876108" lon="11.3072277"><ele>116.0</ele><time>2026-04-06T13:57:48.506Z</time></trkpt><trkpt lat="43.6876504" lon="11.3073195"><ele>115.99999999999999</ele><time>2026-04-06T13:57:49.498Z</time></trkpt><trkpt lat="43.6876987" lon="11.3074325"><ele>116.0</ele><time>2026-04-06T13:57:50.503Z</time></trkpt><trkpt lat="43.6877555" lon="11.3075348"><ele>116.0</ele><time>2026-04-06T13:57:51.5Z</time></trkpt><trkpt lat="43.6878073" lon="11.3076318"><ele>116.0</ele><time>2026-04-06T13:57:52.511Z</time></trkpt><trkpt lat="43.6878498" lon="11.307718"><ele>116.0</ele><time>2026-04-06T13:57:53.498Z</time></trkpt><trkpt lat="43.6878866" lon="11.3077922"><ele>116.0</ele><time>2026-04-06T13:57:54.506Z</time></trkpt><trkpt lat="43.6879415" lon="11.3079391"><ele>116.0</ele><time>2026-04-06T13:57:56.511Z</time></trkpt><trkpt lat="43.687996" lon="11.30806"><ele>116.16666666666666</ele><time>2026-04-06T13:57:58.51Z</time></trkpt><trkpt lat="43.6880445" lon="11.3081262"><ele>116.33333333333333</ele><time>2026-04-06T13:57:59.507Z</time></trkpt><trkpt lat="43.6881053" lon="11.3082021"><ele>116.5</ele><time>2026-04-06T13:58:00.505Z</time></trkpt><trkpt lat="43.6881697" lon="11.3082969"><ele>116.66666666666666</ele><time>2026-04-06T13:58:01.504Z</time></trkpt><trkpt lat="43.6882208" lon="11.3083613"><ele>116.83333333333333</ele><time>2026-04-06T13:58:02.499Z</time></trkpt><trkpt lat="43.6882914" lon="11.308441"><ele>117.0</ele><time>2026-04-06T13:58:04.493Z</time></trkpt><trkpt lat="43.6882407" lon="11.3083746"><ele>117.0</ele><time>2026-04-06T13:58:28.517Z</time></trkpt><trkpt lat="43.6881886" lon="11.3083032"><ele>117.0</ele><time>2026-04-06T13:58:30.505Z</time></trkpt><trkpt lat="43.6881036" lon="11.3081709"><ele>117.0</ele><time>2026-04-06T13:58:32.505Z</time></trkpt><trkpt lat="43.6880463" lon="11.30809"><ele>117.0</ele><time>2026-04-06T13:58:33.506Z</time></trkpt><trkpt lat="43.6879895" lon="11.3080078"><ele>117.0</ele><time>2026-04-06T13:58:34.501Z</time></trkpt><trkpt lat="43.6879449" lon="11.3079141"><ele>117.0</ele><time>2026-04-06T13:58:35.504Z</time></trkpt><trkpt lat="43.6879108" lon="11.3078217"><ele>116.83333333333333</ele><time>2026-04-06T13:58:36.504Z</time></trkpt><trkpt lat="43.6878748" lon="11.3077189"><ele>116.66666666666666</ele><time>2026-04-06T13:58:37.501Z</time></trkpt><trkpt lat="43.6878309" lon="11.307612"><ele>116.5</ele><time>2026-04-06T13:58:38.505Z</time></trkpt><trkpt lat="43.6877831" lon="11.3075201"><ele>116.33333333333333</ele><time>2026-04-06T13:58:39.508Z</time></trkpt><trkpt lat="43.6877407" lon="11.307425"><ele>116.16666666666666</ele><time>2026-04-06T13:58:40.506Z</time></trkpt><trkpt lat="43.6876977" lon="11.3073292"><ele>116.0</ele><time>2026-04-06T13:58:41.502Z</time></trkpt><trkpt lat="43.687654" lon="11.307244"><ele>115.99999999999999</ele><time>2026-04-06T13:58:42.505Z</time></trkpt><trkpt lat="43.6876044" lon="11.3071549"><ele>116.0</ele><time>2026-04-06T13:58:43.501Z</time></trkpt><trkpt lat="43.6875574" lon="11.3070545"><ele>116.0</ele><time>2026-04-06T13:58:44.507Z</time></trkpt><trkpt lat="43.6875138" lon="11.3069582"><ele>116.0</ele><time>2026-04-06T13:58:45.504Z</time></trkpt><trkpt lat="43.6874682" lon="11.3068568"><ele>115.99999999999999</ele><time>2026-04-06T13:58:46.505Z</time></trkpt><trkpt lat="43.6874184" lon="11.3067525"><ele>116.0</ele><time>2026-04-06T13:58:47.501Z</time></trkpt><trkpt lat="43.687376" lon="11.306644"><ele>115.99999999999999</ele><time>2026-04-06T13:58:48.504Z</time></trkpt><trkpt lat="43.6873307" lon="11.3065509"><ele>116.0</ele><time>2026-04-06T13:58:49.502Z</time></trkpt><trkpt lat="43.6872894" lon="11.3064605"><ele>116.0</ele><time>2026-04-06T13:58:50.507Z</time></trkpt><trkpt lat="43.6872375" lon="11.3063714"><ele>116.0</ele><time>2026-04-06T13:58:51.502Z</time></trkpt><trkpt lat="43.6871762" lon="11.3063088"><ele>115.99999999999999</ele><time>2026-04-06T13:58:52.503Z</time></trkpt><trkpt lat="43.6871197" lon="11.306263"><ele>116.0</ele><time>2026-04-06T13:58:53.502Z</time></trkpt><trkpt lat="43.6870584" lon="11.3061558"><ele>116.0</ele><time>2026-04-06T13:58:55.503Z</time></trkpt><trkpt lat="43.6870013" lon="11.3060755"><ele>116.0</ele><time>2026-04-06T13:58:58.515Z</time></trkpt><trkpt lat="43.6869032" lon="11.3060934"><ele>116.0</ele><time>2026-04-06T13:59:01.51Z</time></trkpt><trkpt lat="43.6868115" lon="11.306131"><ele>116.0</ele><time>2026-04-06T13:59:03.505Z</time></trkpt><trkpt lat="43.6866896" lon="11.3061548"><ele>116.0</ele><time>2026-04-06T13:59:05.497Z</time></trkpt><trkpt lat="43.6866188" lon="11.3061592"><ele>115.99999999999999</ele><time>2026-04-06T13:59:06.5Z</time></trkpt><trkpt lat="43.6864944" lon="11.3061726"><ele>116.0</ele><time>2026-04-06T13:59:08.495Z</time></trkpt><trkpt lat="43.6864207" lon="11.3061711"><ele>116.0</ele><time>2026-04-06T13:59:09.504Z</time></trkpt><trkpt lat="43.6863525" lon="11.3061751"><ele>116.0</ele><time>2026-04-06T13:59:10.508Z</time></trkpt><trkpt lat="43.6862851" lon="11.3061758"><ele>115.99999999999999</ele><time>2026-04-06T13:59:11.512Z</time></trkpt><trkpt lat="43.6862212" lon="11.3061904"><ele>116.0</ele><time>2026-04-06T13:59:12.502Z</time></trkpt><trkpt lat="43.6861116" lon="11.3062272"><ele>116.0</ele><time>2026-04-06T13:59:14.498Z</time></trkpt><trkpt lat="43.6860037" lon="11.3063017"><ele>116.0</ele><time>2026-04-06T13:59:16.502Z</time></trkpt><trkpt lat="43.6859362" lon="11.3063388"><ele>116.0</ele><time>2026-04-06T13:59:17.494Z</time></trkpt><trkpt lat="43.6858299" lon="11.3063671"><ele>116.0</ele><time>2026-04-06T13:59:19.499Z</time></trkpt><trkpt lat="43.6857164" lon="11.3063947"><ele>116.0</ele><time>2026-04-06T13:59:21.503Z</time></trkpt><trkpt lat="43.6855903" lon="11.3064207"><ele>115.99999999999999</ele><time>2026-04-06T13:59:23.509Z</time></trkpt><trkpt lat="43.6855134" lon="11.3064384"><ele>116.0</ele><time>2026-04-06T13:59:24.503Z</time></trkpt><trkpt lat="43.6854453" lon="11.3064707"><ele>116.0</ele><time>2026-04-06T13:59:25.5Z</time></trkpt><trkpt lat="43.6853852" lon="11.3064999"><ele>116.0</ele><time>2026-04-06T13:59:26.507Z</time></trkpt><trkpt lat="43.6852526" lon="11.3065114"><ele>115.99999999999999</ele><time>2026-04-06T13:59:28.505Z</time></trkpt><trkpt lat="43.685181" lon="11.3065271"><ele>116.0</ele><time>2026-04-06T13:59:29.504Z</time></trkpt><trkpt lat="43.6851058" lon="11.3065281"><ele>116.16666666666666</ele><time>2026-04-06T13:59:30.503Z</time></trkpt><trkpt lat="43.6850332" lon="11.3065306"><ele>116.33333333333333</ele><time>2026-04-06T13:59:31.502Z</time></trkpt><trkpt lat="43.6849511" lon="11.3065334"><ele>116.5</ele><time>2026-04-06T13:59:32.503Z</time></trkpt><trkpt lat="43.6848671" lon="11.3065339"><ele>116.66666666666666</ele><time>2026-04-06T13:59:33.506Z</time></trkpt><trkpt lat="43.6847738" lon="11.3065368"><ele>116.83333333333333</ele><time>2026-04-06T13:59:34.509Z</time></trkpt><trkpt lat="43.6846852" lon="11.3065492"><ele>117.0</ele><time>2026-04-06T13:59:35.506Z</time></trkpt><trkpt lat="43.6845948" lon="11.3065631"><ele>117.0</ele><time>2026-04-06T13:59:36.504Z</time></trkpt><trkpt lat="43.6845157" lon="11.3065627"><ele>117.0</ele><time>2026-04-06T13:59:37.501Z</time></trkpt><trkpt lat="43.6844479" lon="11.3065572"><ele>117.0</ele><time>2026-04-06T13:59:38.504Z</time></trkpt><trkpt lat="43.6843315" lon="11.3065471"><ele>117.0</ele><time>2026-04-06T13:59:40.506Z</time></trkpt><trkpt lat="43.6842387" lon="11.3065457"><ele>117.0</ele><time>2026-04-06T13:59:42.498Z</time></trkpt><trkpt lat="43.6842949" lon="11.3066055"><ele>117.0</ele><time>2026-04-06T14:04:28.524Z</time></trkpt><trkpt lat="43.6843633" lon="11.3065673"><ele>117.0</ele><time>2026-04-06T14:04:30.522Z</time></trkpt><trkpt lat="43.684445" lon="11.3065518"><ele>117.0</ele><time>2026-04-06T14:04:32.529Z</time></trkpt><trkpt lat="43.6845222" lon="11.3065504"><ele>117.0</ele><time>2026-04-06T14:04:34.52Z</time></trkpt><trkpt lat="43.6845972" lon="11.3065649"><ele>117.0</ele><time>2026-04-06T14:04:36.524Z</time></trkpt><trkpt lat="43.6846892" lon="11.3065595"><ele>117.0</ele><time>2026-04-06T14:04:38.527Z</time></trkpt><trkpt lat="43.6848063" lon="11.3065533"><ele>117.0</ele><time>2026-04-06T14:04:40.518Z</time></trkpt><trkpt lat="43.6849067" lon="11.3065439"><ele>117.0</ele><time>2026-04-06T14:04:42.503Z</time></trkpt><trkpt lat="43.6850155" lon="11.3065418"><ele>116.99999999999999</ele><time>2026-04-06T14:04:44.506Z</time></trkpt><trkpt lat="43.6851371" lon="11.3065239"><ele>116.99999999999999</ele><time>2026-04-06T14:04:46.495Z</time></trkpt><trkpt lat="43.6852569" lon="11.3065126"><ele>117.0</ele><time>2026-04-06T14:04:48.5Z</time></trkpt><trkpt lat="43.6853293" lon="11.3064985"><ele>117.0</ele><time>2026-04-06T14:04:49.506Z</time></trkpt><trkpt lat="43.6854043" lon="11.3064832"><ele>117.0</ele><time>2026-04-06T14:04:50.509Z</time></trkpt><trkpt lat="43.6854847" lon="11.3064676"><ele>116.99999999999999</ele><time>2026-04-06T14:04:51.507Z</time></trkpt><trkpt lat="43.6855614" lon="11.30645"><ele>116.99999999999999</ele><time>2026-04-06T14:04:52.509Z</time></trkpt><trkpt lat="43.6856257" lon="11.3064304"><ele>117.0</ele><time>2026-04-06T14:04:53.499Z</time></trkpt><trkpt lat="43.6857315" lon="11.3063843"><ele>117.0</ele><time>2026-04-06T14:04:55.503Z</time></trkpt><trkpt lat="43.6858585" lon="11.3063426"><ele>117.0</ele><time>2026-04-06T14:04:57.5Z</time></trkpt><trkpt lat="43.6859272" lon="11.3063234"><ele>117.0</ele><time>2026-04-06T14:04:58.501Z</time></trkpt><trkpt lat="43.6859961" lon="11.3062965"><ele>117.0</ele><time>2026-04-06T14:04:59.496Z</time></trkpt><trkpt lat="43.6860665" lon="11.3062663"><ele>117.0</ele><time>2026-04-06T14:05:00.497Z</time></trkpt><trkpt lat="43.6861296" lon="11.3062319"><ele>117.0</ele><time>2026-04-06T14:05:01.496Z</time></trkpt><trkpt lat="43.6862419" lon="11.3061979"><ele>117.0</ele><time>2026-04-06T14:05:03.499Z</time></trkpt><trkpt lat="43.6863553" lon="11.3061945"><ele>116.85714285714286</ele><time>2026-04-06T14:05:05.5Z</time></trkpt><trkpt lat="43.686429" lon="11.306182"><ele>116.71428571428572</ele><time>2026-04-06T14:05:06.502Z</time></trkpt><trkpt lat="43.6865081" lon="11.3061722"><ele>116.57142857142858</ele><time>2026-04-06T14:05:07.5Z</time></trkpt><trkpt lat="43.6865847" lon="11.3061684"><ele>116.42857142857144</ele><time>2026-04-06T14:05:08.502Z</time></trkpt><trkpt lat="43.6866563" lon="11.3061581"><ele>116.28571428571429</ele><time>2026-04-06T14:05:09.503Z</time></trkpt><trkpt lat="43.6867248" lon="11.3061478"><ele>116.14285714285717</ele><time>2026-04-06T14:05:10.504Z</time></trkpt><trkpt lat="43.6867952" lon="11.3061384"><ele>116.00000000000001</ele><time>2026-04-06T14:05:11.491Z</time></trkpt><trkpt lat="43.6868636" lon="11.3061128"><ele>115.99999999999999</ele><time>2026-04-06T14:05:12.496Z</time></trkpt><trkpt lat="43.6869242" lon="11.3060843"><ele>116.0</ele><time>2026-04-06T14:05:13.496Z</time></trkpt><trkpt lat="43.687019" lon="11.3060732"><ele>116.0</ele><time>2026-04-06T14:05:15.492Z</time></trkpt><trkpt lat="43.6870604" lon="11.3061449"><ele>116.0</ele><time>2026-04-06T14:05:17.509Z</time></trkpt><trkpt lat="43.687092" lon="11.3062843"><ele>115.99999999999999</ele><time>2026-04-06T14:05:19.494Z</time></trkpt><trkpt lat="43.6871796" lon="11.3063921"><ele>116.0</ele><time>2026-04-06T14:05:21.506Z</time></trkpt><trkpt lat="43.6872281" lon="11.3064575"><ele>115.99999999999999</ele><time>2026-04-06T14:05:22.512Z</time></trkpt><trkpt lat="43.6872779" lon="11.3065342"><ele>116.0</ele><time>2026-04-06T14:05:23.497Z</time></trkpt><trkpt lat="43.6873275" lon="11.3066356"><ele>116.0</ele><time>2026-04-06T14:05:24.51Z</time></trkpt><trkpt lat="43.6873697" lon="11.3067328"><ele>116.0</ele><time>2026-04-06T14:05:25.5Z</time></trkpt><trkpt lat="43.6874175" lon="11.3068364"><ele>115.99999999999999</ele><time>2026-04-06T14:05:26.503Z</time></trkpt><trkpt lat="43.6874711" lon="11.3069405"><ele>116.0</ele><time>2026-04-06T14:05:27.504Z</time></trkpt><trkpt lat="43.6875271" lon="11.3070442"><ele>116.0</ele><time>2026-04-06T14:05:28.504Z</time></trkpt><trkpt lat="43.6875853" lon="11.3071555"><ele>116.0</ele><time>2026-04-06T14:05:29.501Z</time></trkpt><trkpt lat="43.6876363" lon="11.307269"><ele>116.0</ele><time>2026-04-06T14:05:30.504Z</time></trkpt><trkpt lat="43.6876823" lon="11.3073719"><ele>116.0</ele><time>2026-04-06T14:05:31.502Z</time></trkpt><trkpt lat="43.6877275" lon="11.3074818"><ele>116.0</ele><time>2026-04-06T14:05:32.502Z</time></trkpt><trkpt lat="43.6877789" lon="11.3075995"><ele>115.99999999999999</ele><time>2026-04-06T14:05:33.504Z</time></trkpt><trkpt lat="43.687841" lon="11.3077264"><ele>116.0</ele><time>2026-04-06T14:05:34.502Z</time></trkpt><trkpt lat="43.6878922" lon="11.3078428"><ele>116.0</ele><time>2026-04-06T14:05:35.499Z</time></trkpt><trkpt lat="43.6879321" lon="11.3079467"><ele>116.0</ele><time>2026-04-06T14:05:36.498Z</time></trkpt><trkpt lat="43.6879742" lon="11.3080322"><ele>115.99999999999999</ele><time>2026-04-06T14:05:37.5Z</time></trkpt><trkpt lat="43.6880162" lon="11.3081069"><ele>116.0</ele><time>2026-04-06T14:05:38.503Z</time></trkpt><trkpt lat="43.6880586" lon="11.3081717"><ele>116.16666666666666</ele><time>2026-04-06T14:05:39.502Z</time></trkpt><trkpt lat="43.6881139" lon="11.3082286"><ele>116.33333333333333</ele><time>2026-04-06T14:05:40.502Z</time></trkpt><trkpt lat="43.6881694" lon="11.3082943"><ele>116.5</ele><time>2026-04-06T14:05:41.504Z</time></trkpt><trkpt lat="43.6882205" lon="11.3083592"><ele>116.66666666666666</ele><time>2026-04-06T14:05:42.498Z</time></trkpt><trkpt lat="43.688282" lon="11.3084542"><ele>116.83333333333333</ele><time>2026-04-06T14:05:44.501Z</time></trkpt><trkpt lat="43.6883648" lon="11.3084638"><ele>117.0</ele><time>2026-04-06T14:05:46.494Z</time></trkpt><trkpt lat="43.6884824" lon="11.3084219"><ele>117.0</ele><time>2026-04-06T14:05:48.492Z</time></trkpt><trkpt lat="43.6885516" lon="11.3084139"><ele>117.0</ele><time>2026-04-06T14:05:49.498Z</time></trkpt><trkpt lat="43.6886256" lon="11.308421"><ele>117.0</ele><time>2026-04-06T14:05:50.496Z</time></trkpt><trkpt lat="43.6887071" lon="11.3084311"><ele>117.0</ele><time>2026-04-06T14:05:51.503Z</time></trkpt><trkpt lat="43.6888002" lon="11.308428"><ele>117.0</ele><time>2026-04-06T14:05:52.505Z</time></trkpt><trkpt lat="43.6888913" lon="11.3084251"><ele>117.0</ele><time>2026-04-06T14:05:53.507Z</time></trkpt><trkpt lat="43.6889785" lon="11.3084327"><ele>116.39999999999999</ele><time>2026-04-06T14:05:54.503Z</time></trkpt><trkpt lat="43.6890809" lon="11.3084543"><ele>115.79999999999998</ele><time>2026-04-06T14:05:55.498Z</time></trkpt><trkpt lat="43.6891853" lon="11.3084757"><ele>115.2</ele><time>2026-04-06T14:05:56.498Z</time></trkpt><trkpt lat="43.6892837" lon="11.3085047"><ele>114.6</ele><time>2026-04-06T14:05:57.504Z</time></trkpt><trkpt lat="43.6893801" lon="11.3085429"><ele>114.0</ele><time>2026-04-06T14:05:58.5Z</time></trkpt><trkpt lat="43.6894754" lon="11.3085805"><ele>114.0</ele><time>2026-04-06T14:05:59.499Z</time></trkpt><trkpt lat="43.6895719" lon="11.308604"><ele>114.0</ele><time>2026-04-06T14:06:00.507Z</time></trkpt><trkpt lat="43.6896637" lon="11.3086352"><ele>114.0</ele><time>2026-04-06T14:06:01.501Z</time></trkpt><trkpt lat="43.6897633" lon="11.3086604"><ele>114.0</ele><time>2026-04-06T14:06:02.504Z</time></trkpt><trkpt lat="43.6898728" lon="11.3086995"><ele>114.0</ele><time>2026-04-06T14:06:03.499Z</time></trkpt><trkpt lat="43.6899894" lon="11.30872"><ele>114.0</ele><time>2026-04-06T14:06:04.502Z</time></trkpt><trkpt lat="43.6900953" lon="11.3087449"><ele>114.0</ele><time>2026-04-06T14:06:05.504Z</time></trkpt><trkpt lat="43.6902022" lon="11.308767"><ele>114.0</ele><time>2026-04-06T14:06:06.501Z</time></trkpt><trkpt lat="43.6903112" lon="11.3087941"><ele>114.0</ele><time>2026-04-06T14:06:07.494Z</time></trkpt><trkpt lat="43.6904052" lon="11.3088062"><ele>114.0</ele><time>2026-04-06T14:06:08.502Z</time></trkpt><trkpt lat="43.6904903" lon="11.3088219"><ele>113.66666666666667</ele><time>2026-04-06T14:06:09.501Z</time></trkpt><trkpt lat="43.690568" lon="11.3088421"><ele>113.33333333333334</ele><time>2026-04-06T14:06:10.493Z</time></trkpt><trkpt lat="43.6906457" lon="11.3088681"><ele>113.0</ele><time>2026-04-06T14:06:11.495Z</time></trkpt><trkpt lat="43.6907373" lon="11.308886"><ele>112.66666666666667</ele><time>2026-04-06T14:06:12.499Z</time></trkpt><trkpt lat="43.6908214" lon="11.308904"><ele>112.33333333333334</ele><time>2026-04-06T14:06:13.503Z</time></trkpt><trkpt lat="43.6908945" lon="11.3089217"><ele>112.0</ele><time>2026-04-06T14:06:14.496Z</time></trkpt><trkpt lat="43.6909612" lon="11.3089373"><ele>112.33333333333334</ele><time>2026-04-06T14:06:15.496Z</time></trkpt><trkpt lat="43.6910709" lon="11.3089475"><ele>112.66666666666667</ele><time>2026-04-06T14:06:17.499Z</time></trkpt><trkpt lat="43.6911422" lon="11.3089189"><ele>113.0</ele><time>2026-04-06T14:06:21.512Z</time></trkpt><trkpt lat="43.691197" lon="11.3089844"><ele>113.33333333333334</ele><time>2026-04-06T14:06:45.509Z</time></trkpt><trkpt lat="43.6912439" lon="11.3090497"><ele>113.66666666666667</ele><time>2026-04-06T14:06:47.511Z</time></trkpt><trkpt lat="43.6912913" lon="11.309115"><ele>114.0</ele><time>2026-04-06T14:06:58.513Z</time></trkpt><trkpt lat="43.6912346" lon="11.3091762"><ele>114.0</ele><time>2026-04-06T14:07:02.507Z</time></trkpt><trkpt lat="43.691155" lon="11.3091986"><ele>114.0</ele><time>2026-04-06T14:07:04.514Z</time></trkpt><trkpt lat="43.6910209" lon="11.3092475"><ele>114.0</ele><time>2026-04-06T14:07:06.5Z</time></trkpt><trkpt lat="43.6909452" lon="11.3092838"><ele>114.0</ele><time>2026-04-06T14:07:07.499Z</time></trkpt><trkpt lat="43.6908773" lon="11.3093245"><ele>114.0</ele><time>2026-04-06T14:07:08.499Z</time></trkpt><trkpt lat="43.6908056" lon="11.3093724"><ele>114.6</ele><time>2026-04-06T14:07:09.49Z</time></trkpt><trkpt lat="43.6907264" lon="11.3094269"><ele>115.2</ele><time>2026-04-06T14:07:10.498Z</time></trkpt><trkpt lat="43.6906397" lon="11.3094913"><ele>115.79999999999998</ele><time>2026-04-06T14:07:11.501Z</time></trkpt><trkpt lat="43.690557" lon="11.3095761"><ele>116.39999999999999</ele><time>2026-04-06T14:07:12.497Z</time></trkpt><trkpt lat="43.690467" lon="11.3096873"><ele>117.0</ele><time>2026-04-06T14:07:13.498Z</time></trkpt><trkpt lat="43.6903801" lon="11.3097876"><ele>118.8</ele><time>2026-04-06T14:07:14.493Z</time></trkpt><trkpt lat="43.6903104" lon="11.3098819"><ele>120.6</ele><time>2026-04-06T14:07:15.5Z</time></trkpt><trkpt lat="43.6902408" lon="11.3099689"><ele>122.39999999999999</ele><time>2026-04-06T14:07:16.505Z</time></trkpt><trkpt lat="43.690167" lon="11.3100686"><ele>124.19999999999999</ele><time>2026-04-06T14:07:17.507Z</time></trkpt><trkpt lat="43.6900852" lon="11.3101628"><ele>126.0</ele><time>2026-04-06T14:07:18.501Z</time></trkpt><trkpt lat="43.6900032" lon="11.3102502"><ele>127.5</ele><time>2026-04-06T14:07:19.506Z</time></trkpt><trkpt lat="43.6899162" lon="11.3103259"><ele>129.0</ele><time>2026-04-06T14:07:20.493Z</time></trkpt><trkpt lat="43.6898081" lon="11.3103848"><ele>130.5</ele><time>2026-04-06T14:07:21.496Z</time></trkpt><trkpt lat="43.6896917" lon="11.3104137"><ele>132.0</ele><time>2026-04-06T14:07:22.498Z</time></trkpt><trkpt lat="43.6895792" lon="11.3104466"><ele>132.0</ele><time>2026-04-06T14:07:23.5Z</time></trkpt><trkpt lat="43.6894629" lon="11.3104612"><ele>132.0</ele><time>2026-04-06T14:07:24.504Z</time></trkpt><trkpt lat="43.6893336" lon="11.3104659"><ele>132.0</ele><time>2026-04-06T14:07:25.5Z</time></trkpt><trkpt lat="43.6891921" lon="11.310476"><ele>132.0</ele><time>2026-04-06T14:07:26.505Z</time></trkpt><trkpt lat="43.6890442" lon="11.3105088"><ele>133.75</ele><time>2026-04-06T14:07:27.494Z</time></trkpt><trkpt lat="43.6889098" lon="11.3105182"><ele>135.5</ele><time>2026-04-06T14:07:28.492Z</time></trkpt><trkpt lat="43.6887927" lon="11.3105244"><ele>137.25</ele><time>2026-04-06T14:07:29.502Z</time></trkpt><trkpt lat="43.6886839" lon="11.3105393"><ele>139.0</ele><time>2026-04-06T14:07:30.497Z</time></trkpt><trkpt lat="43.6885855" lon="11.3105602"><ele>144.25</ele><time>2026-04-06T14:07:31.496Z</time></trkpt><trkpt lat="43.6884749" lon="11.3105805"><ele>149.5</ele><time>2026-04-06T14:07:32.5Z</time></trkpt><trkpt lat="43.6883374" lon="11.3105949"><ele>154.75</ele><time>2026-04-06T14:07:33.496Z</time></trkpt><trkpt lat="43.688225" lon="11.3106107"><ele>160.0</ele><time>2026-04-06T14:07:34.499Z</time></trkpt><trkpt lat="43.688108" lon="11.310637"><ele>160.0</ele><time>2026-04-06T14:07:35.499Z</time></trkpt><trkpt lat="43.6880041" lon="11.3106484"><ele>160.0</ele><time>2026-04-06T14:07:36.505Z</time></trkpt><trkpt lat="43.6878893" lon="11.3106747"><ele>160.0</ele><time>2026-04-06T14:07:37.502Z</time></trkpt><trkpt lat="43.6877713" lon="11.3107053"><ele>160.0</ele><time>2026-04-06T14:07:38.498Z</time></trkpt><trkpt lat="43.687648" lon="11.3107624"><ele>158.25</ele><time>2026-04-06T14:07:39.502Z</time></trkpt><trkpt lat="43.6875177" lon="11.3108199"><ele>156.5</ele><time>2026-04-06T14:07:40.499Z</time></trkpt><trkpt lat="43.6873839" lon="11.3108688"><ele>154.75</ele><time>2026-04-06T14:07:41.502Z</time></trkpt><trkpt lat="43.6872515" lon="11.3109176"><ele>153.0</ele><time>2026-04-06T14:07:42.501Z</time></trkpt><trkpt lat="43.6871246" lon="11.3109649"><ele>153.0</ele><time>2026-04-06T14:07:43.498Z</time></trkpt><trkpt lat="43.6869888" lon="11.3110061"><ele>153.0</ele><time>2026-04-06T14:07:44.5Z</time></trkpt><trkpt lat="43.6868639" lon="11.3110548"><ele>153.0</ele><time>2026-04-06T14:07:45.5Z</time></trkpt><trkpt lat="43.6867558" lon="11.3111094"><ele>153.0</ele><time>2026-04-06T14:07:46.505Z</time></trkpt><trkpt lat="43.6866401" lon="11.3111505"><ele>152.8</ele><time>2026-04-06T14:07:47.5Z</time></trkpt><trkpt lat="43.6865237" lon="11.3111814"><ele>152.60000000000002</ele><time>2026-04-06T14:07:48.502Z</time></trkpt><trkpt lat="43.6864261" lon="11.3112119"><ele>152.39999999999998</ele><time>2026-04-06T14:07:49.504Z</time></trkpt><trkpt lat="43.6863339" lon="11.3112437"><ele>152.2</ele><time>2026-04-06T14:07:50.502Z</time></trkpt><trkpt lat="43.6862385" lon="11.3112678"><ele>152.0</ele><time>2026-04-06T14:07:51.5Z</time></trkpt><trkpt lat="43.686141" lon="11.3113018"><ele>152.2</ele><time>2026-04-06T14:07:52.501Z</time></trkpt><trkpt lat="43.6860423" lon="11.3113195"><ele>152.39999999999998</ele><time>2026-04-06T14:07:53.501Z</time></trkpt><trkpt lat="43.6859373" lon="11.3113359"><ele>152.60000000000002</ele><time>2026-04-06T14:07:54.506Z</time></trkpt><trkpt lat="43.6858302" lon="11.311344"><ele>152.8</ele><time>2026-04-06T14:07:55.503Z</time></trkpt><trkpt lat="43.685745" lon="11.3113397"><ele>153.0</ele><time>2026-04-06T14:07:56.5Z</time></trkpt><trkpt lat="43.6856661" lon="11.3113302"><ele>153.0</ele><time>2026-04-06T14:07:57.509Z</time></trkpt><trkpt lat="43.6855553" lon="11.311311"><ele>153.0</ele><time>2026-04-06T14:07:59.502Z</time></trkpt><trkpt lat="43.685479" lon="11.3112963"><ele>153.0</ele><time>2026-04-06T14:08:02.51Z</time></trkpt><trkpt lat="43.6855484" lon="11.311344"><ele>153.0</ele><time>2026-04-06T14:08:11.508Z</time></trkpt><trkpt lat="43.6856854" lon="11.3113296"><ele>153.0</ele><time>2026-04-06T14:08:13.501Z</time></trkpt><trkpt lat="43.685776" lon="11.3113415"><ele>153.0</ele><time>2026-04-06T14:08:14.503Z</time></trkpt><trkpt lat="43.6858573" lon="11.3113395"><ele>153.0</ele><time>2026-04-06T14:08:15.502Z</time></trkpt><trkpt lat="43.6859466" lon="11.3113302"><ele>153.0</ele><time>2026-04-06T14:08:16.504Z</time></trkpt><trkpt lat="43.6860364" lon="11.311321"><ele>153.0</ele><time>2026-04-06T14:08:17.507Z</time></trkpt><trkpt lat="43.6861101" lon="11.3112999"><ele>153.0</ele><time>2026-04-06T14:08:18.504Z</time></trkpt><trkpt lat="43.686177" lon="11.3112798"><ele>153.0</ele><time>2026-04-06T14:08:19.499Z</time></trkpt><trkpt lat="43.686292" lon="11.311255"><ele>152.83333333333334</ele><time>2026-04-06T14:08:21.517Z</time></trkpt><trkpt lat="43.6863907" lon="11.3112344"><ele>152.66666666666666</ele><time>2026-04-06T14:08:23.509Z</time></trkpt><trkpt lat="43.686457" lon="11.3111979"><ele>152.5</ele><time>2026-04-06T14:08:25.52Z</time></trkpt><trkpt lat="43.6865163" lon="11.3111621"><ele>152.33333333333331</ele><time>2026-04-06T14:08:29.521Z</time></trkpt><trkpt lat="43.6865974" lon="11.3111359"><ele>152.16666666666666</ele><time>2026-04-06T14:08:53.52Z</time></trkpt><trkpt lat="43.6866765" lon="11.3111095"><ele>152.0</ele><time>2026-04-06T14:08:55.516Z</time></trkpt><trkpt lat="43.6867616" lon="11.3111403"><ele>152.0</ele><time>2026-04-06T14:08:57.519Z</time></trkpt><trkpt lat="43.686799" lon="11.3112416"><ele>152.0</ele><time>2026-04-06T14:08:59.518Z</time></trkpt><trkpt lat="43.6868287" lon="11.3113769"><ele>152.0</ele><time>2026-04-06T14:09:01.499Z</time></trkpt><trkpt lat="43.6868461" lon="11.3115012"><ele>152.0</ele><time>2026-04-06T14:09:03.498Z</time></trkpt><trkpt lat="43.6868639" lon="11.3116011"><ele>152.0</ele><time>2026-04-06T14:09:05.508Z</time></trkpt><trkpt lat="43.6868893" lon="11.3117003"><ele>152.0</ele><time>2026-04-06T14:09:08.508Z</time></trkpt><trkpt lat="43.6869174" lon="11.3117899"><ele>152.42857142857142</ele><time>2026-04-06T14:09:11.502Z</time></trkpt><trkpt lat="43.6869256" lon="11.311897"><ele>152.85714285714286</ele><time>2026-04-06T14:09:20.507Z</time></trkpt><trkpt lat="43.6869344" lon="11.3119836"><ele>153.28571428571428</ele><time>2026-04-06T14:09:22.51Z</time></trkpt><trkpt lat="43.6869675" lon="11.3120938"><ele>153.71428571428572</ele><time>2026-04-06T14:09:25.511Z</time></trkpt><trkpt lat="43.6869492" lon="11.312182"><ele>154.14285714285714</ele><time>2026-04-06T14:09:29.506Z</time></trkpt><trkpt lat="43.6869142" lon="11.3122728"><ele>154.57142857142858</ele><time>2026-04-06T14:10:12.512Z</time></trkpt><trkpt lat="43.6869127" lon="11.31236"><ele>155.0</ele><time>2026-04-06T14:10:14.51Z</time></trkpt><trkpt lat="43.686914" lon="11.3124649"><ele>153.83333333333331</ele><time>2026-04-06T14:10:16.515Z</time></trkpt><trkpt lat="43.686931" lon="11.3125813"><ele>152.66666666666666</ele><time>2026-04-06T14:10:18.512Z</time></trkpt><trkpt lat="43.6869345" lon="11.3126859"><ele>151.5</ele><time>2026-04-06T14:10:20.506Z</time></trkpt><trkpt lat="43.6869572" lon="11.3128178"><ele>150.33333333333334</ele><time>2026-04-06T14:10:22.51Z</time></trkpt><trkpt lat="43.6869714" lon="11.3129239"><ele>149.16666666666669</ele><time>2026-04-06T14:10:24.508Z</time></trkpt><trkpt lat="43.6869667" lon="11.313024"><ele>148.0</ele><time>2026-04-06T14:10:26.508Z</time></trkpt><trkpt lat="43.6869656" lon="11.3131138"><ele>146.16666666666669</ele><time>2026-04-06T14:13:45.525Z</time></trkpt><trkpt lat="43.6869516" lon="11.3132069"><ele>144.33333333333334</ele><time>2026-04-06T14:13:53.52Z</time></trkpt><trkpt lat="43.6869818" lon="11.3133052"><ele>142.5</ele><time>2026-04-06T14:14:12.514Z</time></trkpt><trkpt lat="43.6869839" lon="11.3134437"><ele>140.66666666666666</ele><time>2026-04-06T14:14:15.51Z</time></trkpt><trkpt lat="43.6869964" lon="11.3135577"><ele>138.83333333333331</ele><time>2026-04-06T14:14:17.515Z</time></trkpt><trkpt lat="43.6869922" lon="11.313671"><ele>137.0</ele><time>2026-04-06T14:14:19.512Z</time></trkpt><trkpt lat="43.6870422" lon="11.3137813"><ele>137.00000000000003</ele><time>2026-04-06T14:14:22.512Z</time></trkpt><trkpt lat="43.6870889" lon="11.3138531"><ele>137.0</ele><time>2026-04-06T14:14:24.507Z</time></trkpt><trkpt lat="43.6871065" lon="11.3139369"><ele>137.0</ele><time>2026-04-06T14:14:26.512Z</time></trkpt><trkpt lat="43.6870691" lon="11.3140108"><ele>137.0</ele><time>2026-04-06T14:14:28.52Z</time></trkpt><trkpt lat="43.6870031" lon="11.314045"><ele>137.0</ele><time>2026-04-06T14:14:32.513Z</time></trkpt><trkpt lat="43.6869252" lon="11.3140166"><ele>137.00000000000003</ele><time>2026-04-06T14:15:04.504Z</time></trkpt><trkpt lat="43.6868455" lon="11.3139852"><ele>137.0</ele><time>2026-04-06T14:15:08.51Z</time></trkpt><trkpt lat="43.6867525" lon="11.3139276"><ele>136.57142857142858</ele><time>2026-04-06T14:15:10.508Z</time></trkpt><trkpt lat="43.6866788" lon="11.3138801"><ele>136.14285714285714</ele><time>2026-04-06T14:15:11.503Z</time></trkpt><trkpt lat="43.686613" lon="11.3138366"><ele>135.71428571428572</ele><time>2026-04-06T14:15:12.502Z</time></trkpt><trkpt lat="43.6865499" lon="11.313784"><ele>135.28571428571428</ele><time>2026-04-06T14:15:13.504Z</time></trkpt><trkpt lat="43.6864975" lon="11.3137327"><ele>134.85714285714286</ele><time>2026-04-06T14:15:14.504Z</time></trkpt><trkpt lat="43.6864343" lon="11.3136922"><ele>134.42857142857144</ele><time>2026-04-06T14:15:15.501Z</time></trkpt><trkpt lat="43.6863637" lon="11.3136703"><ele>134.0</ele><time>2026-04-06T14:15:16.506Z</time></trkpt><trkpt lat="43.686301" lon="11.3136563"><ele>134.0</ele><time>2026-04-06T14:15:17.505Z</time></trkpt><trkpt lat="43.6862071" lon="11.3136273"><ele>134.0</ele><time>2026-04-06T14:15:19.502Z</time></trkpt><trkpt lat="43.6861425" lon="11.3136235"><ele>134.0</ele><time>2026-04-06T14:15:21.505Z</time></trkpt><trkpt lat="43.6860601" lon="11.3136335"><ele>134.0</ele><time>2026-04-06T14:15:24.508Z</time></trkpt><trkpt lat="43.6859904" lon="11.3136455"><ele>134.0</ele><time>2026-04-06T14:15:26.508Z</time></trkpt><trkpt lat="43.6858966" lon="11.3136618"><ele>134.0</ele><time>2026-04-06T14:15:29.516Z</time></trkpt><trkpt lat="43.6857757" lon="11.3136637"><ele>133.4</ele><time>2026-04-06T14:15:31.503Z</time></trkpt><trkpt lat="43.6856483" lon="11.3136632"><ele>132.8</ele><time>2026-04-06T14:15:33.505Z</time></trkpt><trkpt lat="43.6855705" lon="11.3136613"><ele>132.2</ele><time>2026-04-06T14:15:34.503Z</time></trkpt><trkpt lat="43.6854914" lon="11.313657"><ele>131.6</ele><time>2026-04-06T14:15:35.504Z</time></trkpt><trkpt lat="43.6854296" lon="11.3136386"><ele>131.0</ele><time>2026-04-06T14:15:36.504Z</time></trkpt><trkpt lat="43.6853197" lon="11.3135872"><ele>131.2</ele><time>2026-04-06T14:15:38.503Z</time></trkpt><trkpt lat="43.6852146" lon="11.3135927"><ele>131.39999999999998</ele><time>2026-04-06T14:15:40.509Z</time></trkpt><trkpt lat="43.6851127" lon="11.3136176"><ele>131.6</ele><time>2026-04-06T14:15:42.505Z</time></trkpt><trkpt lat="43.6850477" lon="11.3136363"><ele>131.79999999999998</ele><time>2026-04-06T14:15:44.514Z</time></trkpt><trkpt lat="43.6849705" lon="11.3136163"><ele>132.0</ele><time>2026-04-06T14:15:47.512Z</time></trkpt><trkpt lat="43.6848737" lon="11.3136105"><ele>132.0</ele><time>2026-04-06T14:15:49.511Z</time></trkpt><trkpt lat="43.6848074" lon="11.3136233"><ele>132.0</ele><time>2026-04-06T14:15:50.502Z</time></trkpt><trkpt lat="43.6847237" lon="11.3136444"><ele>132.0</ele><time>2026-04-06T14:15:51.508Z</time></trkpt><trkpt lat="43.6846385" lon="11.3136644"><ele>132.0</ele><time>2026-04-06T14:15:52.502Z</time></trkpt><trkpt lat="43.6845329" lon="11.3136913"><ele>132.0</ele><time>2026-04-06T14:15:53.506Z</time></trkpt><trkpt lat="43.6844502" lon="11.313693"><ele>132.0</ele><time>2026-04-06T14:15:54.504Z</time></trkpt><trkpt lat="43.6843863" lon="11.3137073"><ele>132.6</ele><time>2026-04-06T14:15:55.501Z</time></trkpt><trkpt lat="43.6842758" lon="11.3136952"><ele>133.2</ele><time>2026-04-06T14:15:57.502Z</time></trkpt><trkpt lat="43.6841644" lon="11.3136904"><ele>133.8</ele><time>2026-04-06T14:15:59.505Z</time></trkpt><trkpt lat="43.6840749" lon="11.313711"><ele>134.4</ele><time>2026-04-06T14:16:01.503Z</time></trkpt><trkpt lat="43.6840087" lon="11.3137459"><ele>135.0</ele><time>2026-04-06T14:17:01.518Z</time></trkpt><trkpt lat="43.6839293" lon="11.3138114"><ele>135.0</ele><time>2026-04-06T14:17:05.503Z</time></trkpt><trkpt lat="43.6838455" lon="11.3138592"><ele>135.0</ele><time>2026-04-06T14:17:07.505Z</time></trkpt><trkpt lat="43.6837327" lon="11.3139009"><ele>135.0</ele><time>2026-04-06T14:17:09.501Z</time></trkpt><trkpt lat="43.6836395" lon="11.3139433"><ele>135.0</ele><time>2026-04-06T14:17:11.499Z</time></trkpt><trkpt lat="43.6835548" lon="11.3139717"><ele>135.0</ele><time>2026-04-06T14:17:13.504Z</time></trkpt><trkpt lat="43.6834762" lon="11.3140167"><ele>135.0</ele><time>2026-04-06T14:17:15.501Z</time></trkpt><trkpt lat="43.6833847" lon="11.3140658"><ele>135.0</ele><time>2026-04-06T14:17:17.502Z</time></trkpt><trkpt lat="43.6832707" lon="11.3141122"><ele>135.0</ele><time>2026-04-06T14:17:19.504Z</time></trkpt><trkpt lat="43.6831625" lon="11.314148"><ele>135.0</ele><time>2026-04-06T14:17:21.503Z</time></trkpt><trkpt lat="43.6830713" lon="11.3141968"><ele>135.0</ele><time>2026-04-06T14:17:23.497Z</time></trkpt><trkpt lat="43.6829954" lon="11.3142306"><ele>135.0</ele><time>2026-04-06T14:17:25.512Z</time></trkpt><trkpt lat="43.6829101" lon="11.3142276"><ele>135.0</ele><time>2026-04-06T14:17:27.504Z</time></trkpt><trkpt lat="43.682821" lon="11.3141735"><ele>135.0</ele><time>2026-04-06T14:17:29.507Z</time></trkpt><trkpt lat="43.6827265" lon="11.3141278"><ele>135.0</ele><time>2026-04-06T14:17:31.499Z</time></trkpt><trkpt lat="43.6826636" lon="11.3140848"><ele>135.0</ele><time>2026-04-06T14:17:33.503Z</time></trkpt><trkpt lat="43.682592" lon="11.3139831"><ele>135.85714285714286</ele><time>2026-04-06T14:17:35.503Z</time></trkpt><trkpt lat="43.6825364" lon="11.3139064"><ele>136.7142857142857</ele><time>2026-04-06T14:17:37.5Z</time></trkpt><trkpt lat="43.6824709" lon="11.3138744"><ele>137.57142857142856</ele><time>2026-04-06T14:17:39.501Z</time></trkpt><trkpt lat="43.6823927" lon="11.313844"><ele>138.42857142857142</ele><time>2026-04-06T14:17:41.502Z</time></trkpt><trkpt lat="43.6823232" lon="11.3138336"><ele>139.28571428571428</ele><time>2026-04-06T14:17:43.505Z</time></trkpt><trkpt lat="43.6823319" lon="11.3139367"><ele>140.14285714285714</ele><time>2026-04-06T14:18:12.512Z</time></trkpt><trkpt lat="43.6823549" lon="11.3140275"><ele>141.0</ele><time>2026-04-06T14:18:14.51Z</time></trkpt><trkpt lat="43.682378" lon="11.3141391"><ele>141.0</ele><time>2026-04-06T14:18:16.508Z</time></trkpt><trkpt lat="43.6824003" lon="11.3142701"><ele>141.0</ele><time>2026-04-06T14:18:18.513Z</time></trkpt><trkpt lat="43.6824222" lon="11.314391"><ele>141.0</ele><time>2026-04-06T14:18:20.515Z</time></trkpt><trkpt lat="43.6824416" lon="11.3145081"><ele>141.0</ele><time>2026-04-06T14:18:22.499Z</time></trkpt><trkpt lat="43.6824652" lon="11.3146369"><ele>141.0</ele><time>2026-04-06T14:18:24.498Z</time></trkpt><trkpt lat="43.6824796" lon="11.3147609"><ele>141.5</ele><time>2026-04-06T14:18:26.503Z</time></trkpt><trkpt lat="43.6824942" lon="11.3148973"><ele>142.0</ele><time>2026-04-06T14:18:28.502Z</time></trkpt><trkpt lat="43.6825246" lon="11.3150278"><ele>142.5</ele><time>2026-04-06T14:18:30.506Z</time></trkpt><trkpt lat="43.6825459" lon="11.3151231"><ele>143.0</ele><time>2026-04-06T14:18:32.513Z</time></trkpt><trkpt lat="43.6825615" lon="11.3152329"><ele>143.5</ele><time>2026-04-06T14:18:35.511Z</time></trkpt><trkpt lat="43.6826251" lon="11.3152636"><ele>144.0</ele><time>2026-04-06T14:18:40.505Z</time></trkpt><trkpt lat="43.6826488" lon="11.3151466"><ele>144.0</ele><time>2026-04-06T14:18:44.501Z</time></trkpt><trkpt lat="43.6826926" lon="11.3149999"><ele>144.0</ele><time>2026-04-06T14:18:47.502Z</time></trkpt><trkpt lat="43.6827341" lon="11.314873"><ele>144.0</ele><time>2026-04-06T14:18:49.507Z</time></trkpt><trkpt lat="43.6827619" lon="11.3147714"><ele>144.0</ele><time>2026-04-06T14:18:51.498Z</time></trkpt><trkpt lat="43.6827927" lon="11.3146259"><ele>144.0</ele><time>2026-04-06T14:18:53.497Z</time></trkpt><trkpt lat="43.6827908" lon="11.3144909"><ele>142.5</ele><time>2026-04-06T14:18:55.502Z</time></trkpt><trkpt lat="43.6828018" lon="11.3143753"><ele>141.0</ele><time>2026-04-06T14:18:57.509Z</time></trkpt><trkpt lat="43.6828413" lon="11.3142924"><ele>139.5</ele><time>2026-04-06T14:18:59.505Z</time></trkpt><trkpt lat="43.6829018" lon="11.3142367"><ele>138.0</ele><time>2026-04-06T14:19:01.504Z</time></trkpt><trkpt lat="43.6829725" lon="11.3142007"><ele>136.5</ele><time>2026-04-06T14:19:26.504Z</time></trkpt><trkpt lat="43.6830503" lon="11.3141663"><ele>135.0</ele><time>2026-04-06T14:19:28.502Z</time></trkpt><trkpt lat="43.6831401" lon="11.3141274"><ele>135.0</ele><time>2026-04-06T14:19:30.509Z</time></trkpt><trkpt lat="43.6832511" lon="11.3140762"><ele>135.0</ele><time>2026-04-06T14:19:32.495Z</time></trkpt><trkpt lat="43.6833719" lon="11.3140487"><ele>135.0</ele><time>2026-04-06T14:19:34.494Z</time></trkpt><trkpt lat="43.6834854" lon="11.3139974"><ele>135.0</ele><time>2026-04-06T14:19:36.49Z</time></trkpt><trkpt lat="43.6835741" lon="11.3139366"><ele>135.0</ele><time>2026-04-06T14:19:38.496Z</time></trkpt><trkpt lat="43.6836746" lon="11.31389"><ele>135.0</ele><time>2026-04-06T14:19:40.499Z</time></trkpt><trkpt lat="43.6837655" lon="11.3138646"><ele>135.0</ele><time>2026-04-06T14:19:42.497Z</time></trkpt><trkpt lat="43.6838643" lon="11.3138176"><ele>135.0</ele><time>2026-04-06T14:19:44.491Z</time></trkpt><trkpt lat="43.6839603" lon="11.3137588"><ele>135.0</ele><time>2026-04-06T14:19:46.493Z</time></trkpt><trkpt lat="43.6840271" lon="11.313722"><ele>135.0</ele><time>2026-04-06T14:19:49.502Z</time></trkpt><trkpt lat="43.6841056" lon="11.3137185"><ele>135.0</ele><time>2026-04-06T14:20:13.503Z</time></trkpt><trkpt lat="43.6842197" lon="11.3136993"><ele>135.0</ele><time>2026-04-06T14:20:15.506Z</time></trkpt><trkpt lat="43.6842876" lon="11.3137016"><ele>135.0</ele><time>2026-04-06T14:20:16.493Z</time></trkpt><trkpt lat="43.6844138" lon="11.3137111"><ele>135.0</ele><time>2026-04-06T14:20:18.495Z</time></trkpt><trkpt lat="43.6844922" lon="11.313701"><ele>134.5</ele><time>2026-04-06T14:20:19.497Z</time></trkpt><trkpt lat="43.6845817" lon="11.3136881"><ele>134.0</ele><time>2026-04-06T14:20:20.5Z</time></trkpt><trkpt lat="43.6846733" lon="11.3136733"><ele>133.5</ele><time>2026-04-06T14:20:21.498Z</time></trkpt><trkpt lat="43.6847518" lon="11.3136558"><ele>133.0</ele><time>2026-04-06T14:20:22.501Z</time></trkpt><trkpt lat="43.6848272" lon="11.3136363"><ele>132.5</ele><time>2026-04-06T14:20:23.498Z</time></trkpt><trkpt lat="43.6848907" lon="11.3136188"><ele>132.0</ele><time>2026-04-06T14:20:24.49Z</time></trkpt><trkpt lat="43.684974" lon="11.313633"><ele>132.0</ele><time>2026-04-06T14:20:26.504Z</time></trkpt><trkpt lat="43.685054" lon="11.3136366"><ele>132.0</ele><time>2026-04-06T14:20:28.505Z</time></trkpt><trkpt lat="43.6851385" lon="11.3136376"><ele>132.0</ele><time>2026-04-06T14:20:30.512Z</time></trkpt><trkpt lat="43.6852488" lon="11.3136097"><ele>132.0</ele><time>2026-04-06T14:20:32.499Z</time></trkpt><trkpt lat="43.6853508" lon="11.3136052"><ele>132.0</ele><time>2026-04-06T14:20:34.494Z</time></trkpt><trkpt lat="43.6854677" lon="11.3136343"><ele>131.83333333333334</ele><time>2026-04-06T14:20:36.496Z</time></trkpt><trkpt lat="43.6855308" lon="11.3136516"><ele>131.66666666666666</ele><time>2026-04-06T14:20:37.493Z</time></trkpt><trkpt lat="43.6856012" lon="11.3136533"><ele>131.5</ele><time>2026-04-06T14:20:38.493Z</time></trkpt><trkpt lat="43.6856749" lon="11.3136586"><ele>131.33333333333331</ele><time>2026-04-06T14:20:39.495Z</time></trkpt><trkpt lat="43.68575" lon="11.3136606"><ele>131.16666666666666</ele><time>2026-04-06T14:20:40.495Z</time></trkpt><trkpt lat="43.6858198" lon="11.3136578"><ele>131.0</ele><time>2026-04-06T14:20:41.493Z</time></trkpt><trkpt lat="43.6859251" lon="11.3136626"><ele>131.0</ele><time>2026-04-06T14:20:43.497Z</time></trkpt><trkpt lat="43.6859944" lon="11.3136636"><ele>131.0</ele><time>2026-04-06T14:20:46.504Z</time></trkpt><trkpt lat="43.6860781" lon="11.3136356"><ele>131.0</ele><time>2026-04-06T14:20:54.51Z</time></trkpt><trkpt lat="43.6861708" lon="11.3136389"><ele>131.0</ele><time>2026-04-06T14:20:56.511Z</time></trkpt><trkpt lat="43.6862788" lon="11.3136541"><ele>131.0</ele><time>2026-04-06T14:20:58.509Z</time></trkpt><trkpt lat="43.6863427" lon="11.3136775"><ele>131.0</ele><time>2026-04-06T14:20:59.513Z</time></trkpt><trkpt lat="43.6864056" lon="11.3137024"><ele>131.5</ele><time>2026-04-06T14:21:00.509Z</time></trkpt><trkpt lat="43.6864757" lon="11.3137319"><ele>132.0</ele><time>2026-04-06T14:21:01.495Z</time></trkpt><trkpt lat="43.6865492" lon="11.3137858"><ele>132.5</ele><time>2026-04-06T14:21:02.504Z</time></trkpt><trkpt lat="43.6866226" lon="11.3138469"><ele>133.0</ele><time>2026-04-06T14:21:03.501Z</time></trkpt><trkpt lat="43.6866816" lon="11.3138855"><ele>133.5</ele><time>2026-04-06T14:21:04.497Z</time></trkpt><trkpt lat="43.686773" lon="11.3139478"><ele>134.0</ele><time>2026-04-06T14:21:06.497Z</time></trkpt><trkpt lat="43.6868329" lon="11.3139903"><ele>134.5</ele><time>2026-04-06T14:21:08.507Z</time></trkpt><trkpt lat="43.6869057" lon="11.3140318"><ele>135.0</ele><time>2026-04-06T14:21:12.506Z</time></trkpt><trkpt lat="43.6869732" lon="11.3140526"><ele>135.5</ele><time>2026-04-06T14:21:15.507Z</time></trkpt><trkpt lat="43.6870397" lon="11.3140277"><ele>136.0</ele><time>2026-04-06T14:21:19.501Z</time></trkpt><trkpt lat="43.6870969" lon="11.3139494"><ele>136.5</ele><time>2026-04-06T14:21:21.503Z</time></trkpt><trkpt lat="43.6871842" lon="11.3139126"><ele>137.0</ele><time>2026-04-06T14:21:23.495Z</time></trkpt><trkpt lat="43.6872531" lon="11.3138941"><ele>137.0</ele><time>2026-04-06T14:21:24.497Z</time></trkpt><trkpt lat="43.6873294" lon="11.3138755"><ele>137.0</ele><time>2026-04-06T14:21:25.502Z</time></trkpt><trkpt lat="43.6874146" lon="11.3138335"><ele>137.0</ele><time>2026-04-06T14:21:26.487Z</time></trkpt><trkpt lat="43.6875043" lon="11.3137762"><ele>137.0</ele><time>2026-04-06T14:21:27.495Z</time></trkpt><trkpt lat="43.6875821" lon="11.3137239"><ele>137.0</ele><time>2026-04-06T14:21:28.497Z</time></trkpt><trkpt lat="43.6876509" lon="11.3136843"><ele>137.0</ele><time>2026-04-06T14:21:29.498Z</time></trkpt><trkpt lat="43.6877138" lon="11.3136567"><ele>136.16666666666666</ele><time>2026-04-06T14:21:30.497Z</time></trkpt><trkpt lat="43.687781" lon="11.3136443"><ele>135.33333333333331</ele><time>2026-04-06T14:21:31.499Z</time></trkpt><trkpt lat="43.6878603" lon="11.3136446"><ele>134.5</ele><time>2026-04-06T14:21:32.497Z</time></trkpt><trkpt lat="43.6879527" lon="11.3136315"><ele>133.66666666666666</ele><time>2026-04-06T14:21:33.495Z</time></trkpt><trkpt lat="43.6880406" lon="11.3136236"><ele>132.83333333333334</ele><time>2026-04-06T14:21:34.498Z</time></trkpt><trkpt lat="43.6881172" lon="11.3136301"><ele>132.0</ele><time>2026-04-06T14:21:35.492Z</time></trkpt><trkpt lat="43.6881929" lon="11.3136462"><ele>132.0</ele><time>2026-04-06T14:21:36.493Z</time></trkpt><trkpt lat="43.6882632" lon="11.3136525"><ele>132.0</ele><time>2026-04-06T14:21:37.489Z</time></trkpt><trkpt lat="43.6883267" lon="11.3136451"><ele>132.0</ele><time>2026-04-06T14:21:38.486Z</time></trkpt><trkpt lat="43.6883906" lon="11.3136145"><ele>132.0</ele><time>2026-04-06T14:21:39.488Z</time></trkpt><trkpt lat="43.6884563" lon="11.3135758"><ele>132.0</ele><time>2026-04-06T14:21:40.493Z</time></trkpt><trkpt lat="43.6885528" lon="11.3135"><ele>132.0</ele><time>2026-04-06T14:21:42.493Z</time></trkpt><trkpt lat="43.688649" lon="11.3134684"><ele>131.0</ele><time>2026-04-06T14:21:44.498Z</time></trkpt><trkpt lat="43.688713" lon="11.3134588"><ele>130.0</ele><time>2026-04-06T14:21:45.494Z</time></trkpt><trkpt lat="43.6888303" lon="11.3134461"><ele>129.0</ele><time>2026-04-06T14:21:47.499Z</time></trkpt><trkpt lat="43.6889392" lon="11.3134406"><ele>128.0</ele><time>2026-04-06T14:21:49.491Z</time></trkpt><trkpt lat="43.6890031" lon="11.313441"><ele>127.0</ele><time>2026-04-06T14:21:51.503Z</time></trkpt><trkpt lat="43.689071" lon="11.3134002"><ele>126.0</ele><time>2026-04-06T14:22:08.499Z</time></trkpt><trkpt lat="43.6891339" lon="11.3133639"><ele>126.0</ele><time>2026-04-06T14:22:10.5Z</time></trkpt><trkpt lat="43.689219" lon="11.3132868"><ele>126.0</ele><time>2026-04-06T14:22:12.493Z</time></trkpt><trkpt lat="43.6892975" lon="11.3131929"><ele>126.0</ele><time>2026-04-06T14:22:14.485Z</time></trkpt><trkpt lat="43.6893764" lon="11.3130963"><ele>126.0</ele><time>2026-04-06T14:22:16.494Z</time></trkpt><trkpt lat="43.6894434" lon="11.3130084"><ele>126.0</ele><time>2026-04-06T14:22:18.503Z</time></trkpt><trkpt lat="43.689511" lon="11.3129297"><ele>126.0</ele><time>2026-04-06T14:22:20.492Z</time></trkpt><trkpt lat="43.6895683" lon="11.3128745"><ele>126.0</ele><time>2026-04-06T14:22:22.499Z</time></trkpt><trkpt lat="43.6896323" lon="11.3128014"><ele>126.0</ele><time>2026-04-06T14:22:24.495Z</time></trkpt><trkpt lat="43.6896923" lon="11.3127391"><ele>126.0</ele><time>2026-04-06T14:22:26.496Z</time></trkpt><trkpt lat="43.6897639" lon="11.3126756"><ele>126.0</ele><time>2026-04-06T14:22:28.493Z</time></trkpt><trkpt lat="43.689847" lon="11.3125961"><ele>126.0</ele><time>2026-04-06T14:22:30.504Z</time></trkpt><trkpt lat="43.689939" lon="11.3125292"><ele>126.0</ele><time>2026-04-06T14:22:32.493Z</time></trkpt><trkpt lat="43.6900196" lon="11.3124764"><ele>126.0</ele><time>2026-04-06T14:22:34.496Z</time></trkpt><trkpt lat="43.6900776" lon="11.3124101"><ele>126.0</ele><time>2026-04-06T14:22:36.489Z</time></trkpt><trkpt lat="43.6901498" lon="11.3123205"><ele>126.0</ele><time>2026-04-06T14:22:38.494Z</time></trkpt><trkpt lat="43.690228" lon="11.3122113"><ele>126.0</ele><time>2026-04-06T14:22:40.491Z</time></trkpt><trkpt lat="43.6903112" lon="11.3120991"><ele>125.19999999999999</ele><time>2026-04-06T14:22:42.494Z</time></trkpt><trkpt lat="43.6903955" lon="11.311989"><ele>124.39999999999999</ele><time>2026-04-06T14:22:44.489Z</time></trkpt><trkpt lat="43.690439" lon="11.3118608"><ele>123.6</ele><time>2026-04-06T14:22:46.487Z</time></trkpt><trkpt lat="43.6904993" lon="11.3117737"><ele>122.8</ele><time>2026-04-06T14:22:49.496Z</time></trkpt><trkpt lat="43.690553" lon="11.3116931"><ele>122.0</ele><time>2026-04-06T14:22:51.501Z</time></trkpt><trkpt lat="43.6906483" lon="11.3115989"><ele>122.0</ele><time>2026-04-06T14:22:53.49Z</time></trkpt><trkpt lat="43.6907278" lon="11.3114844"><ele>121.99999999999999</ele><time>2026-04-06T14:22:55.485Z</time></trkpt><trkpt lat="43.6907679" lon="11.3114074"><ele>121.99999999999999</ele><time>2026-04-06T14:22:56.486Z</time></trkpt><trkpt lat="43.6908069" lon="11.3113367"><ele>122.0</ele><time>2026-04-06T14:22:57.486Z</time></trkpt><trkpt lat="43.6909111" lon="11.3112184"><ele>122.0</ele><time>2026-04-06T14:22:59.492Z</time></trkpt><trkpt lat="43.6909696" lon="11.3111558"><ele>120.99999999999999</ele><time>2026-04-06T14:23:00.494Z</time></trkpt><trkpt lat="43.6910708" lon="11.3110362"><ele>120.0</ele><time>2026-04-06T14:23:02.492Z</time></trkpt><trkpt lat="43.691125" lon="11.3109856"><ele>119.0</ele><time>2026-04-06T14:23:03.498Z</time></trkpt><trkpt lat="43.6911682" lon="11.3109163"><ele>118.0</ele><time>2026-04-06T14:23:04.495Z</time></trkpt><trkpt lat="43.6912206" lon="11.3108373"><ele>116.99999999999999</ele><time>2026-04-06T14:23:05.493Z</time></trkpt><trkpt lat="43.69126" lon="11.3107539"><ele>116.0</ele><time>2026-04-06T14:23:06.493Z</time></trkpt><trkpt lat="43.6912946" lon="11.3106549"><ele>115.85714285714288</ele><time>2026-04-06T14:23:07.495Z</time></trkpt><trkpt lat="43.6913189" lon="11.3105514"><ele>115.71428571428572</ele><time>2026-04-06T14:23:08.489Z</time></trkpt><trkpt lat="43.6913345" lon="11.3104439"><ele>115.57142857142857</ele><time>2026-04-06T14:23:09.492Z</time></trkpt><trkpt lat="43.6913448" lon="11.3103368"><ele>115.42857142857143</ele><time>2026-04-06T14:23:10.492Z</time></trkpt><trkpt lat="43.6913496" lon="11.3102404"><ele>115.28571428571428</ele><time>2026-04-06T14:23:11.496Z</time></trkpt><trkpt lat="43.6913687" lon="11.3101569"><ele>115.14285714285712</ele><time>2026-04-06T14:23:12.495Z</time></trkpt><trkpt lat="43.6913908" lon="11.3100576"><ele>114.99999999999999</ele><time>2026-04-06T14:23:13.491Z</time></trkpt><trkpt lat="43.6914224" lon="11.309943"><ele>115.0</ele><time>2026-04-06T14:23:14.49Z</time></trkpt><trkpt lat="43.6914399" lon="11.3098494"><ele>115.0</ele><time>2026-04-06T14:23:15.496Z</time></trkpt><trkpt lat="43.6914492" lon="11.3097555"><ele>115.0</ele><time>2026-04-06T14:23:16.495Z</time></trkpt><trkpt lat="43.6914344" lon="11.3095957"><ele>115.0</ele><time>2026-04-06T14:23:18.493Z</time></trkpt><trkpt lat="43.6914042" lon="11.3094162"><ele>115.0</ele><time>2026-04-06T14:23:20.498Z</time></trkpt><trkpt lat="43.6913905" lon="11.3092677"><ele>114.83333333333334</ele><time>2026-04-06T14:23:22.503Z</time></trkpt><trkpt lat="43.6913835" lon="11.3091758"><ele>114.66666666666667</ele><time>2026-04-06T14:23:24.514Z</time></trkpt><trkpt lat="43.6913177" lon="11.3091174"><ele>114.5</ele><time>2026-04-06T14:23:27.503Z</time></trkpt><trkpt lat="43.6912395" lon="11.3091366"><ele>114.33333333333334</ele><time>2026-04-06T14:24:10.506Z</time></trkpt><trkpt lat="43.6911382" lon="11.3091999"><ele>114.16666666666667</ele><time>2026-04-06T14:24:12.493Z</time></trkpt><trkpt lat="43.6910441" lon="11.309234"><ele>114.0</ele><time>2026-04-06T14:24:13.497Z</time></trkpt><trkpt lat="43.6909596" lon="11.3092695"><ele>114.6</ele><time>2026-04-06T14:24:14.496Z</time></trkpt><trkpt lat="43.6908785" lon="11.3093019"><ele>115.2</ele><time>2026-04-06T14:24:15.499Z</time></trkpt><trkpt lat="43.6907849" lon="11.3093413"><ele>115.79999999999998</ele><time>2026-04-06T14:24:16.501Z</time></trkpt><trkpt lat="43.6906959" lon="11.3093974"><ele>116.39999999999999</ele><time>2026-04-06T14:24:17.5Z</time></trkpt><trkpt lat="43.6906155" lon="11.3094758"><ele>117.0</ele><time>2026-04-06T14:24:18.488Z</time></trkpt><trkpt lat="43.6905333" lon="11.3095818"><ele>117.0</ele><time>2026-04-06T14:24:19.494Z</time></trkpt><trkpt lat="43.6904487" lon="11.3096926"><ele>116.99999999999999</ele><time>2026-04-06T14:24:20.491Z</time></trkpt><trkpt lat="43.6903827" lon="11.3097787"><ele>116.99999999999999</ele><time>2026-04-06T14:24:21.482Z</time></trkpt><trkpt lat="43.6903238" lon="11.3098586"><ele>117.0</ele><time>2026-04-06T14:24:22.492Z</time></trkpt><trkpt lat="43.6902592" lon="11.309944"><ele>117.0</ele><time>2026-04-06T14:24:23.492Z</time></trkpt><trkpt lat="43.690184" lon="11.3100461"><ele>120.0</ele><time>2026-04-06T14:24:24.498Z</time></trkpt><trkpt lat="43.6901088" lon="11.310142"><ele>122.99999999999999</ele><time>2026-04-06T14:24:25.492Z</time></trkpt><trkpt lat="43.6900241" lon="11.310235"><ele>125.99999999999999</ele><time>2026-04-06T14:24:26.494Z</time></trkpt><trkpt lat="43.6899242" lon="11.3103075"><ele>129.0</ele><time>2026-04-06T14:24:27.489Z</time></trkpt><trkpt lat="43.6898307" lon="11.3103633"><ele>132.0</ele><time>2026-04-06T14:24:28.489Z</time></trkpt><trkpt lat="43.6897203" lon="11.3104083"><ele>132.0</ele><time>2026-04-06T14:24:29.497Z</time></trkpt><trkpt lat="43.6896101" lon="11.3104324"><ele>132.0</ele><time>2026-04-06T14:24:30.501Z</time></trkpt><trkpt lat="43.6894949" lon="11.3104561"><ele>132.0</ele><time>2026-04-06T14:24:31.497Z</time></trkpt><trkpt lat="43.6893725" lon="11.3104698"><ele>132.0</ele><time>2026-04-06T14:24:32.499Z</time></trkpt><trkpt lat="43.6892466" lon="11.3104805"><ele>133.75</ele><time>2026-04-06T14:24:33.502Z</time></trkpt><trkpt lat="43.6891199" lon="11.3104989"><ele>135.5</ele><time>2026-04-06T14:24:34.497Z</time></trkpt><trkpt lat="43.6889887" lon="11.3105133"><ele>137.25</ele><time>2026-04-06T14:24:35.501Z</time></trkpt><trkpt lat="43.6888672" lon="11.3105284"><ele>139.0</ele><time>2026-04-06T14:24:36.497Z</time></trkpt><trkpt lat="43.6887422" lon="11.3105442"><ele>139.0</ele><time>2026-04-06T14:24:37.492Z</time></trkpt><trkpt lat="43.6886251" lon="11.3105728"><ele>139.0</ele><time>2026-04-06T14:24:38.498Z</time></trkpt><trkpt lat="43.6885151" lon="11.310587"><ele>139.0</ele><time>2026-04-06T14:24:39.501Z</time></trkpt><trkpt lat="43.688401" lon="11.3106056"><ele>139.0</ele><time>2026-04-06T14:24:40.498Z</time></trkpt><trkpt lat="43.6882911" lon="11.3106214"><ele>143.2</ele><time>2026-04-06T14:24:41.493Z</time></trkpt><trkpt lat="43.6882011" lon="11.3106363"><ele>147.4</ele><time>2026-04-06T14:24:42.502Z</time></trkpt><trkpt lat="43.6881095" lon="11.3106459"><ele>151.6</ele><time>2026-04-06T14:24:43.498Z</time></trkpt><trkpt lat="43.6880108" lon="11.3106637"><ele>155.8</ele><time>2026-04-06T14:24:44.494Z</time></trkpt><trkpt lat="43.6878983" lon="11.3106853"><ele>160.0</ele><time>2026-04-06T14:24:45.496Z</time></trkpt><trkpt lat="43.6877821" lon="11.3107155"><ele>158.25</ele><time>2026-04-06T14:24:46.501Z</time></trkpt><trkpt lat="43.6876655" lon="11.3107495"><ele>156.5</ele><time>2026-04-06T14:24:47.496Z</time></trkpt><trkpt lat="43.6875561" lon="11.3107909"><ele>154.75</ele><time>2026-04-06T14:24:48.498Z</time></trkpt><trkpt lat="43.6874465" lon="11.3108383"><ele>153.0</ele><time>2026-04-06T14:24:49.494Z</time></trkpt><trkpt lat="43.6873335" lon="11.3108793"><ele>153.0</ele><time>2026-04-06T14:24:50.495Z</time></trkpt><trkpt lat="43.6872193" lon="11.3109219"><ele>153.0</ele><time>2026-04-06T14:24:51.498Z</time></trkpt><trkpt lat="43.6871078" lon="11.3109692"><ele>153.0</ele><time>2026-04-06T14:24:52.497Z</time></trkpt><trkpt lat="43.6869921" lon="11.3110151"><ele>153.0</ele><time>2026-04-06T14:24:53.491Z</time></trkpt><trkpt lat="43.6868943" lon="11.3110526"><ele>152.8</ele><time>2026-04-06T14:24:54.499Z</time></trkpt><trkpt lat="43.6867916" lon="11.3110839"><ele>152.60000000000002</ele><time>2026-04-06T14:24:55.494Z</time></trkpt><trkpt lat="43.6866893" lon="11.3111243"><ele>152.39999999999998</ele><time>2026-04-06T14:24:56.5Z</time></trkpt><trkpt lat="43.6865817" lon="11.311156"><ele>152.2</ele><time>2026-04-06T14:24:57.496Z</time></trkpt><trkpt lat="43.6864626" lon="11.3111886"><ele>152.0</ele><time>2026-04-06T14:24:58.495Z</time></trkpt><trkpt lat="43.6863434" lon="11.3112229"><ele>152.0</ele><time>2026-04-06T14:24:59.498Z</time></trkpt><trkpt lat="43.6862324" lon="11.3112536"><ele>152.0</ele><time>2026-04-06T14:25:00.505Z</time></trkpt><trkpt lat="43.6861158" lon="11.3112889"><ele>152.0</ele><time>2026-04-06T14:25:01.494Z</time></trkpt><trkpt lat="43.685997" lon="11.3113174"><ele>152.0</ele><time>2026-04-06T14:25:02.498Z</time></trkpt><trkpt lat="43.6858777" lon="11.3113367"><ele>152.25</ele><time>2026-04-06T14:25:03.492Z</time></trkpt><trkpt lat="43.6857405" lon="11.3113422"><ele>152.5</ele><time>2026-04-06T14:25:04.498Z</time></trkpt><trkpt lat="43.6856053" lon="11.311337"><ele>152.75</ele><time>2026-04-06T14:25:05.493Z</time></trkpt><trkpt lat="43.685466" lon="11.3113379"><ele>153.0</ele><time>2026-04-06T14:25:06.494Z</time></trkpt><trkpt lat="43.6853253" lon="11.3113458"><ele>153.5</ele><time>2026-04-06T14:25:07.498Z</time></trkpt><trkpt lat="43.6851851" lon="11.3113413"><ele>154.0</ele><time>2026-04-06T14:25:08.498Z</time></trkpt><trkpt lat="43.685065" lon="11.3113418"><ele>154.5</ele><time>2026-04-06T14:25:09.493Z</time></trkpt><trkpt lat="43.6849366" lon="11.3113425"><ele>155.0</ele><time>2026-04-06T14:25:10.503Z</time></trkpt><trkpt lat="43.684793" lon="11.311341"><ele>155.0</ele><time>2026-04-06T14:25:11.497Z</time></trkpt><trkpt lat="43.6846548" lon="11.3113273"><ele>155.0</ele><time>2026-04-06T14:25:12.497Z</time></trkpt><trkpt lat="43.684523" lon="11.3113267"><ele>155.0</ele><time>2026-04-06T14:25:13.503Z</time></trkpt><trkpt lat="43.6843816" lon="11.3113131"><ele>155.0</ele><time>2026-04-06T14:25:14.497Z</time></trkpt><trkpt lat="43.6842433" lon="11.3113014"><ele>156.25</ele><time>2026-04-06T14:25:15.498Z</time></trkpt><trkpt lat="43.684106" lon="11.3112834"><ele>157.5</ele><time>2026-04-06T14:25:16.492Z</time></trkpt><trkpt lat="43.6839701" lon="11.3112729"><ele>158.75</ele><time>2026-04-06T14:25:17.499Z</time></trkpt><trkpt lat="43.683835" lon="11.3112613"><ele>160.0</ele><time>2026-04-06T14:25:18.494Z</time></trkpt><trkpt lat="43.6837045" lon="11.3112506"><ele>161.5</ele><time>2026-04-06T14:25:19.493Z</time></trkpt><trkpt lat="43.6835693" lon="11.3112397"><ele>163.0</ele><time>2026-04-06T14:25:20.493Z</time></trkpt><trkpt lat="43.683432" lon="11.3112314"><ele>164.5</ele><time>2026-04-06T14:25:21.495Z</time></trkpt><trkpt lat="43.6832805" lon="11.3112213"><ele>166.0</ele><time>2026-04-06T14:25:22.5Z</time></trkpt><trkpt lat="43.6831386" lon="11.3112135"><ele>166.0</ele><time>2026-04-06T14:25:23.495Z</time></trkpt><trkpt lat="43.6829916" lon="11.3112252"><ele>166.0</ele><time>2026-04-06T14:25:24.492Z</time></trkpt><trkpt lat="43.6828395" lon="11.3112064"><ele>166.0</ele><time>2026-04-06T14:25:25.491Z</time></trkpt><trkpt lat="43.6826918" lon="11.3111981"><ele>166.0</ele><time>2026-04-06T14:25:26.495Z</time></trkpt><trkpt lat="43.6825394" lon="11.3111798"><ele>167.25</ele><time>2026-04-06T14:25:27.495Z</time></trkpt><trkpt lat="43.6823894" lon="11.3111731"><ele>168.5</ele><time>2026-04-06T14:25:28.498Z</time></trkpt><trkpt lat="43.6822495" lon="11.3111712"><ele>169.75</ele><time>2026-04-06T14:25:29.501Z</time></trkpt><trkpt lat="43.682098" lon="11.3111581"><ele>171.0</ele><time>2026-04-06T14:25:30.5Z</time></trkpt><trkpt lat="43.6819576" lon="11.3111521"><ele>171.5</ele><time>2026-04-06T14:25:31.493Z</time></trkpt><trkpt lat="43.68183" lon="11.3111465"><ele>172.0</ele><time>2026-04-06T14:25:32.491Z</time></trkpt><trkpt lat="43.6816911" lon="11.3111793"><ele>172.5</ele><time>2026-04-06T14:25:33.498Z</time></trkpt><trkpt lat="43.6815726" lon="11.3111947"><ele>173.0</ele><time>2026-04-06T14:25:34.497Z</time></trkpt><trkpt lat="43.6814537" lon="11.3112235"><ele>173.0</ele><time>2026-04-06T14:25:35.497Z</time></trkpt><trkpt lat="43.6813585" lon="11.3112373"><ele>173.0</ele><time>2026-04-06T14:25:36.496Z</time></trkpt><trkpt lat="43.6812707" lon="11.3112391"><ele>173.0</ele><time>2026-04-06T14:25:37.492Z</time></trkpt><trkpt lat="43.6811924" lon="11.3112161"><ele>173.0</ele><time>2026-04-06T14:25:38.49Z</time></trkpt><trkpt lat="43.6811187" lon="11.3111919"><ele>173.0</ele><time>2026-04-06T14:25:39.494Z</time></trkpt><trkpt lat="43.6810373" lon="11.3111702"><ele>173.0</ele><time>2026-04-06T14:25:40.494Z</time></trkpt><trkpt lat="43.6809449" lon="11.3111414"><ele>174.2</ele><time>2026-04-06T14:25:41.493Z</time></trkpt><trkpt lat="43.6808434" lon="11.3111073"><ele>175.4</ele><time>2026-04-06T14:25:42.491Z</time></trkpt><trkpt lat="43.6807431" lon="11.3110666"><ele>176.6</ele><time>2026-04-06T14:25:43.491Z</time></trkpt><trkpt lat="43.6806496" lon="11.3110241"><ele>177.79999999999998</ele><time>2026-04-06T14:25:44.494Z</time></trkpt><trkpt lat="43.6805604" lon="11.3109724"><ele>179.0</ele><time>2026-04-06T14:25:45.493Z</time></trkpt><trkpt lat="43.680478" lon="11.3109188"><ele>179.0</ele><time>2026-04-06T14:25:46.492Z</time></trkpt><trkpt lat="43.6803931" lon="11.3108719"><ele>179.0</ele><time>2026-04-06T14:25:47.502Z</time></trkpt><trkpt lat="43.6802957" lon="11.3108302"><ele>179.0</ele><time>2026-04-06T14:25:48.495Z</time></trkpt><trkpt lat="43.6802019" lon="11.3107846"><ele>179.0</ele><time>2026-04-06T14:25:49.487Z</time></trkpt><trkpt lat="43.6801245" lon="11.31073"><ele>179.0</ele><time>2026-04-06T14:25:50.49Z</time></trkpt><trkpt lat="43.6800441" lon="11.3106813"><ele>181.33333333333331</ele><time>2026-04-06T14:25:51.496Z</time></trkpt><trkpt lat="43.6799709" lon="11.3106443"><ele>183.66666666666666</ele><time>2026-04-06T14:25:52.493Z</time></trkpt><trkpt lat="43.6799067" lon="11.3106181"><ele>186.0</ele><time>2026-04-06T14:25:53.488Z</time></trkpt><trkpt lat="43.6798068" lon="11.3106177"><ele>188.33333333333331</ele><time>2026-04-06T14:25:55.482Z</time></trkpt><trkpt lat="43.6797244" lon="11.3106742"><ele>190.66666666666666</ele><time>2026-04-06T14:25:57.499Z</time></trkpt><trkpt lat="43.6796527" lon="11.3107054"><ele>193.0</ele><time>2026-04-06T14:25:59.499Z</time></trkpt><trkpt lat="43.6795636" lon="11.3107565"><ele>193.0</ele><time>2026-04-06T14:26:01.493Z</time></trkpt><trkpt lat="43.6794656" lon="11.3108188"><ele>193.0</ele><time>2026-04-06T14:26:03.491Z</time></trkpt><trkpt lat="43.6793677" lon="11.3108652"><ele>193.0</ele><time>2026-04-06T14:26:05.491Z</time></trkpt><trkpt lat="43.6792627" lon="11.3109304"><ele>193.0</ele><time>2026-04-06T14:26:07.494Z</time></trkpt><trkpt lat="43.6791631" lon="11.310996"><ele>193.0</ele><time>2026-04-06T14:26:09.492Z</time></trkpt><trkpt lat="43.6791051" lon="11.3110328"><ele>192.8</ele><time>2026-04-06T14:26:10.494Z</time></trkpt><trkpt lat="43.6790327" lon="11.3110752"><ele>192.60000000000002</ele><time>2026-04-06T14:26:11.489Z</time></trkpt><trkpt lat="43.6789465" lon="11.3111292"><ele>192.39999999999998</ele><time>2026-04-06T14:26:12.486Z</time></trkpt><trkpt lat="43.6788492" lon="11.3111908"><ele>192.2</ele><time>2026-04-06T14:26:13.504Z</time></trkpt><trkpt lat="43.6787512" lon="11.3112597"><ele>192.0</ele><time>2026-04-06T14:26:14.499Z</time></trkpt><trkpt lat="43.6786628" lon="11.3113026"><ele>191.6</ele><time>2026-04-06T14:26:15.499Z</time></trkpt><trkpt lat="43.6785857" lon="11.3113414"><ele>191.2</ele><time>2026-04-06T14:26:16.5Z</time></trkpt><trkpt lat="43.6785031" lon="11.3113809"><ele>190.8</ele><time>2026-04-06T14:26:17.504Z</time></trkpt><trkpt lat="43.6784116" lon="11.3114213"><ele>190.4</ele><time>2026-04-06T14:26:18.5Z</time></trkpt><trkpt lat="43.6783212" lon="11.3114617"><ele>190.0</ele><time>2026-04-06T14:26:19.502Z</time></trkpt><trkpt lat="43.6782314" lon="11.311509"><ele>191.0</ele><time>2026-04-06T14:26:20.494Z</time></trkpt><trkpt lat="43.6781429" lon="11.311546"><ele>192.0</ele><time>2026-04-06T14:26:21.497Z</time></trkpt><trkpt lat="43.6780676" lon="11.3115885"><ele>193.0</ele><time>2026-04-06T14:26:22.501Z</time></trkpt><trkpt lat="43.6780001" lon="11.3116265"><ele>194.0</ele><time>2026-04-06T14:26:23.498Z</time></trkpt><trkpt lat="43.6779277" lon="11.3116673"><ele>194.99999999999997</ele><time>2026-04-06T14:26:24.497Z</time></trkpt><trkpt lat="43.6778547" lon="11.3117146"><ele>196.0</ele><time>2026-04-06T14:26:25.497Z</time></trkpt><trkpt lat="43.677792" lon="11.3117533"><ele>195.49999999999997</ele><time>2026-04-06T14:26:26.492Z</time></trkpt><trkpt lat="43.6777126" lon="11.311756"><ele>195.0</ele><time>2026-04-06T14:26:28.496Z</time></trkpt><trkpt lat="43.6776708" lon="11.3116655"><ele>194.5</ele><time>2026-04-06T14:26:30.51Z</time></trkpt><trkpt lat="43.6776497" lon="11.3115025"><ele>194.0</ele><time>2026-04-06T14:26:32.49Z</time></trkpt><trkpt lat="43.6776468" lon="11.3114015"><ele>193.49999999999997</ele><time>2026-04-06T14:26:33.498Z</time></trkpt><trkpt lat="43.6776333" lon="11.3113043"><ele>193.0</ele><time>2026-04-06T14:26:34.497Z</time></trkpt><trkpt lat="43.6776281" lon="11.3112089"><ele>192.0</ele><time>2026-04-06T14:26:35.497Z</time></trkpt><trkpt lat="43.677624" lon="11.3111213"><ele>191.0</ele><time>2026-04-06T14:26:36.497Z</time></trkpt><trkpt lat="43.6776264" lon="11.3109478"><ele>190.0</ele><time>2026-04-06T14:26:38.492Z</time></trkpt><trkpt lat="43.6776438" lon="11.3108581"><ele>189.0</ele><time>2026-04-06T14:26:39.496Z</time></trkpt><trkpt lat="43.677666" lon="11.310702"><ele>188.0</ele><time>2026-04-06T14:26:41.492Z</time></trkpt><trkpt lat="43.6776195" lon="11.31058"><ele>186.16666666666666</ele><time>2026-04-06T14:26:43.488Z</time></trkpt><trkpt lat="43.6775648" lon="11.3105313"><ele>184.33333333333331</ele><time>2026-04-06T14:26:44.49Z</time></trkpt><trkpt lat="43.6774866" lon="11.3104923"><ele>182.5</ele><time>2026-04-06T14:26:45.49Z</time></trkpt><trkpt lat="43.6774005" lon="11.3104543"><ele>180.66666666666666</ele><time>2026-04-06T14:26:46.491Z</time></trkpt><trkpt lat="43.6773236" lon="11.3104141"><ele>178.83333333333334</ele><time>2026-04-06T14:26:47.492Z</time></trkpt><trkpt lat="43.6772513" lon="11.310363"><ele>177.0</ele><time>2026-04-06T14:26:48.496Z</time></trkpt><trkpt lat="43.6771795" lon="11.3103009"><ele>177.0</ele><time>2026-04-06T14:26:49.493Z</time></trkpt><trkpt lat="43.6771147" lon="11.3102247"><ele>177.0</ele><time>2026-04-06T14:26:50.493Z</time></trkpt><trkpt lat="43.677055" lon="11.310154"><ele>177.0</ele><time>2026-04-06T14:26:51.496Z</time></trkpt><trkpt lat="43.6769981" lon="11.3101046"><ele>177.0</ele><time>2026-04-06T14:26:52.493Z</time></trkpt><trkpt lat="43.6768862" lon="11.3100462"><ele>177.0</ele><time>2026-04-06T14:26:54.492Z</time></trkpt><trkpt lat="43.6767735" lon="11.3100549"><ele>176.2</ele><time>2026-04-06T14:26:56.492Z</time></trkpt><trkpt lat="43.6766826" lon="11.3101226"><ele>175.39999999999998</ele><time>2026-04-06T14:26:58.493Z</time></trkpt><trkpt lat="43.6766006" lon="11.3102628"><ele>174.60000000000002</ele><time>2026-04-06T14:27:00.506Z</time></trkpt><trkpt lat="43.6765476" lon="11.3103826"><ele>173.8</ele><time>2026-04-06T14:27:02.491Z</time></trkpt><trkpt lat="43.6764487" lon="11.3103738"><ele>173.0</ele><time>2026-04-06T14:27:05.496Z</time></trkpt><trkpt lat="43.6763729" lon="11.3102568"><ele>173.0</ele><time>2026-04-06T14:27:07.497Z</time></trkpt><trkpt lat="43.6763305" lon="11.3101871"><ele>173.0</ele><time>2026-04-06T14:27:08.492Z</time></trkpt><trkpt lat="43.6762779" lon="11.3101244"><ele>173.0</ele><time>2026-04-06T14:27:09.492Z</time></trkpt><trkpt lat="43.6762115" lon="11.3100577"><ele>173.0</ele><time>2026-04-06T14:27:10.495Z</time></trkpt><trkpt lat="43.67614" lon="11.3099985"><ele>173.0</ele><time>2026-04-06T14:27:11.495Z</time></trkpt><trkpt lat="43.6760719" lon="11.3099258"><ele>173.0</ele><time>2026-04-06T14:27:12.504Z</time></trkpt><trkpt lat="43.67601" lon="11.3098649"><ele>170.83333333333331</ele><time>2026-04-06T14:27:13.5Z</time></trkpt><trkpt lat="43.6759517" lon="11.3097887"><ele>168.66666666666666</ele><time>2026-04-06T14:27:14.499Z</time></trkpt><trkpt lat="43.6758973" lon="11.3097089"><ele>166.5</ele><time>2026-04-06T14:27:15.495Z</time></trkpt><trkpt lat="43.6758432" lon="11.3096255"><ele>164.33333333333334</ele><time>2026-04-06T14:27:16.497Z</time></trkpt><trkpt lat="43.6757874" lon="11.3095391"><ele>162.16666666666669</ele><time>2026-04-06T14:27:17.497Z</time></trkpt><trkpt lat="43.6757397" lon="11.3094598"><ele>160.0</ele><time>2026-04-06T14:27:18.495Z</time></trkpt><trkpt lat="43.6756925" lon="11.309378"><ele>159.5</ele><time>2026-04-06T14:27:19.498Z</time></trkpt><trkpt lat="43.6756543" lon="11.3092873"><ele>159.0</ele><time>2026-04-06T14:27:20.502Z</time></trkpt><trkpt lat="43.675615" lon="11.3091926"><ele>158.5</ele><time>2026-04-06T14:27:21.502Z</time></trkpt><trkpt lat="43.675577" lon="11.3090997"><ele>158.0</ele><time>2026-04-06T14:27:22.503Z</time></trkpt><trkpt lat="43.675543" lon="11.3090049"><ele>157.5</ele><time>2026-04-06T14:27:23.504Z</time></trkpt><trkpt lat="43.675515" lon="11.3088889"><ele>157.0</ele><time>2026-04-06T14:27:24.505Z</time></trkpt><trkpt lat="43.675502" lon="11.3087745"><ele>156.0</ele><time>2026-04-06T14:27:25.5Z</time></trkpt><trkpt lat="43.6754866" lon="11.3086573"><ele>155.0</ele><time>2026-04-06T14:27:26.5Z</time></trkpt><trkpt lat="43.675492" lon="11.3085349"><ele>154.0</ele><time>2026-04-06T14:27:27.498Z</time></trkpt><trkpt lat="43.6755028" lon="11.3084148"><ele>153.0</ele><time>2026-04-06T14:27:28.501Z</time></trkpt><trkpt lat="43.6755109" lon="11.3083111"><ele>152.0</ele><time>2026-04-06T14:27:29.504Z</time></trkpt><trkpt lat="43.6755119" lon="11.3082047"><ele>151.0</ele><time>2026-04-06T14:27:30.504Z</time></trkpt><trkpt lat="43.6755062" lon="11.3081126"><ele>149.66666666666669</ele><time>2026-04-06T14:27:31.497Z</time></trkpt><trkpt lat="43.6754921" lon="11.3079654"><ele>148.33333333333334</ele><time>2026-04-06T14:27:33.498Z</time></trkpt><trkpt lat="43.6754717" lon="11.3078561"><ele>147.0</ele><time>2026-04-06T14:27:35.506Z</time></trkpt><trkpt lat="43.675458" lon="11.3077528"><ele>145.66666666666666</ele><time>2026-04-06T14:28:13.506Z</time></trkpt><trkpt lat="43.6754846" lon="11.3076487"><ele>144.33333333333331</ele><time>2026-04-06T14:28:15.503Z</time></trkpt><trkpt lat="43.6755212" lon="11.3075618"><ele>143.0</ele><time>2026-04-06T14:28:16.505Z</time></trkpt><trkpt lat="43.6755632" lon="11.3074843"><ele>143.0</ele><time>2026-04-06T14:28:17.505Z</time></trkpt><trkpt lat="43.6756322" lon="11.3073414"><ele>143.0</ele><time>2026-04-06T14:28:19.505Z</time></trkpt><trkpt lat="43.6756883" lon="11.3072615"><ele>143.0</ele><time>2026-04-06T14:28:20.504Z</time></trkpt><trkpt lat="43.675732" lon="11.3071847"><ele>143.0</ele><time>2026-04-06T14:28:21.5Z</time></trkpt><trkpt lat="43.6757552" lon="11.3071008"><ele>143.0</ele><time>2026-04-06T14:28:22.503Z</time></trkpt><trkpt lat="43.6757656" lon="11.3070048"><ele>143.0</ele><time>2026-04-06T14:28:23.497Z</time></trkpt><trkpt lat="43.6757777" lon="11.3068591"><ele>141.0</ele><time>2026-04-06T14:28:25.496Z</time></trkpt><trkpt lat="43.675847" lon="11.3067706"><ele>139.0</ele><time>2026-04-06T14:28:27.498Z</time></trkpt><trkpt lat="43.6759587" lon="11.3067625"><ele>137.0</ele><time>2026-04-06T14:28:29.506Z</time></trkpt><trkpt lat="43.6760658" lon="11.306768"><ele>135.0</ele><time>2026-04-06T14:28:31.5Z</time></trkpt><trkpt lat="43.6761696" lon="11.3067691"><ele>133.0</ele><time>2026-04-06T14:28:33.503Z</time></trkpt><trkpt lat="43.6762736" lon="11.3067479"><ele>132.5</ele><time>2026-04-06T14:28:35.496Z</time></trkpt><trkpt lat="43.6763362" lon="11.3067272"><ele>132.0</ele><time>2026-04-06T14:28:36.498Z</time></trkpt><trkpt lat="43.6763977" lon="11.3067065"><ele>131.5</ele><time>2026-04-06T14:28:37.497Z</time></trkpt><trkpt lat="43.6764954" lon="11.3066836"><ele>131.0</ele><time>2026-04-06T14:28:39.493Z</time></trkpt><trkpt lat="43.6765834" lon="11.3066508"><ele>130.5</ele><time>2026-04-06T14:28:43.502Z</time></trkpt><trkpt lat="43.6766534" lon="11.3065855"><ele>130.0</ele><time>2026-04-06T14:28:45.5Z</time></trkpt><trkpt lat="43.676742" lon="11.3065262"><ele>130.0</ele><time>2026-04-06T14:28:47.477Z</time></trkpt><trkpt lat="43.6768111" lon="11.3064587"><ele>130.0</ele><time>2026-04-06T14:28:49.486Z</time></trkpt><trkpt lat="43.6768272" lon="11.3063602"><ele>130.0</ele><time>2026-04-06T14:28:52.485Z</time></trkpt><trkpt lat="43.6767957" lon="11.3062822"><ele>130.0</ele><time>2026-04-06T14:28:54.49Z</time></trkpt><trkpt lat="43.6767391" lon="11.3061794"><ele>130.0</ele><time>2026-04-06T14:28:56.476Z</time></trkpt><trkpt lat="43.6766913" lon="11.3060751"><ele>130.0</ele><time>2026-04-06T14:28:58.492Z</time></trkpt><trkpt lat="43.6767166" lon="11.305969"><ele>129.6</ele><time>2026-04-06T14:29:01.496Z</time></trkpt><trkpt lat="43.6767497" lon="11.3058535"><ele>129.2</ele><time>2026-04-06T14:29:04.502Z</time></trkpt><trkpt lat="43.676714" lon="11.3057224"><ele>128.8</ele><time>2026-04-06T14:29:06.492Z</time></trkpt><trkpt lat="43.6766236" lon="11.3055835"><ele>128.4</ele><time>2026-04-06T14:29:08.486Z</time></trkpt><trkpt lat="43.6765736" lon="11.3054944"><ele>128.0</ele><time>2026-04-06T14:29:09.485Z</time></trkpt><trkpt lat="43.6764964" lon="11.3053623"><ele>129.0</ele><time>2026-04-06T14:29:11.49Z</time></trkpt><trkpt lat="43.6764728" lon="11.3052814"><ele>130.0</ele><time>2026-04-06T14:29:12.491Z</time></trkpt><trkpt lat="43.6764439" lon="11.3051812"><ele>131.0</ele><time>2026-04-06T14:29:13.491Z</time></trkpt><trkpt lat="43.676423" lon="11.3050771"><ele>132.0</ele><time>2026-04-06T14:29:14.491Z</time></trkpt><trkpt lat="43.6764019" lon="11.3049658"><ele>133.0</ele><time>2026-04-06T14:29:15.485Z</time></trkpt><trkpt lat="43.6763663" lon="11.3048615"><ele>134.0</ele><time>2026-04-06T14:29:16.481Z</time></trkpt><trkpt lat="43.6763153" lon="11.3047746"><ele>135.66666666666666</ele><time>2026-04-06T14:29:17.491Z</time></trkpt><trkpt lat="43.6762579" lon="11.3047014"><ele>137.33333333333331</ele><time>2026-04-06T14:29:18.485Z</time></trkpt><trkpt lat="43.6762037" lon="11.304634"><ele>139.0</ele><time>2026-04-06T14:29:19.49Z</time></trkpt><trkpt lat="43.6761515" lon="11.3045568"><ele>140.66666666666666</ele><time>2026-04-06T14:29:20.489Z</time></trkpt><trkpt lat="43.6760885" lon="11.3045013"><ele>142.33333333333334</ele><time>2026-04-06T14:29:21.483Z</time></trkpt><trkpt lat="43.6760203" lon="11.3044668"><ele>144.0</ele><time>2026-04-06T14:29:22.485Z</time></trkpt><trkpt lat="43.6758887" lon="11.3044771"><ele>145.5</ele><time>2026-04-06T14:29:24.488Z</time></trkpt><trkpt lat="43.6758156" lon="11.3045179"><ele>147.0</ele><time>2026-04-06T14:29:25.493Z</time></trkpt><trkpt lat="43.6757539" lon="11.3045568"><ele>148.5</ele><time>2026-04-06T14:29:26.489Z</time></trkpt><trkpt lat="43.6756931" lon="11.3045848"><ele>150.0</ele><time>2026-04-06T14:29:27.488Z</time></trkpt><trkpt lat="43.6755689" lon="11.3045919"><ele>151.5</ele><time>2026-04-06T14:29:29.485Z</time></trkpt><trkpt lat="43.6755054" lon="11.3045684"><ele>153.0</ele><time>2026-04-06T14:29:30.489Z</time></trkpt><trkpt lat="43.6754207" lon="11.3045189"><ele>153.0</ele><time>2026-04-06T14:29:32.481Z</time></trkpt><trkpt lat="43.6754157" lon="11.3044163"><ele>153.0</ele><time>2026-04-06T14:29:35.502Z</time></trkpt><trkpt lat="43.675501" lon="11.3043885"><ele>153.0</ele><time>2026-04-06T14:29:37.499Z</time></trkpt><trkpt lat="43.675568" lon="11.3043207"><ele>153.0</ele><time>2026-04-06T14:29:39.498Z</time></trkpt><trkpt lat="43.6755494" lon="11.3042101"><ele>153.0</ele><time>2026-04-06T14:29:41.5Z</time></trkpt><trkpt lat="43.6754786" lon="11.3041052"><ele>153.0</ele><time>2026-04-06T14:29:43.493Z</time></trkpt><trkpt lat="43.6754335" lon="11.3039426"><ele>155.0</ele><time>2026-04-06T14:29:45.491Z</time></trkpt><trkpt lat="43.6754089" lon="11.3038427"><ele>157.0</ele><time>2026-04-06T14:29:46.493Z</time></trkpt><trkpt lat="43.6753573" lon="11.3036814"><ele>159.0</ele><time>2026-04-06T14:29:48.487Z</time></trkpt><trkpt lat="43.67534" lon="11.3035669"><ele>161.0</ele><time>2026-04-06T14:29:49.487Z</time></trkpt><trkpt lat="43.675325" lon="11.3034374"><ele>163.0</ele><time>2026-04-06T14:29:50.486Z</time></trkpt><trkpt lat="43.6753181" lon="11.3033004"><ele>163.0</ele><time>2026-04-06T14:29:51.481Z</time></trkpt><trkpt lat="43.6753131" lon="11.3032025"><ele>163.0</ele><time>2026-04-06T14:29:52.478Z</time></trkpt><trkpt lat="43.6752373" lon="11.3030917"><ele>163.0</ele><time>2026-04-06T14:29:54.483Z</time></trkpt><trkpt lat="43.6751626" lon="11.3030494"><ele>163.0</ele><time>2026-04-06T14:29:55.487Z</time></trkpt><trkpt lat="43.6750902" lon="11.3029925"><ele>163.0</ele><time>2026-04-06T14:29:56.484Z</time></trkpt><trkpt lat="43.6750326" lon="11.3029046"><ele>163.0</ele><time>2026-04-06T14:29:57.488Z</time></trkpt><trkpt lat="43.6749731" lon="11.3028199"><ele>166.83333333333334</ele><time>2026-04-06T14:29:58.487Z</time></trkpt><trkpt lat="43.6749017" lon="11.3027291"><ele>170.66666666666669</ele><time>2026-04-06T14:29:59.501Z</time></trkpt><trkpt lat="43.6748333" lon="11.3026559"><ele>174.5</ele><time>2026-04-06T14:30:00.5Z</time></trkpt><trkpt lat="43.6747738" lon="11.3025842"><ele>178.33333333333334</ele><time>2026-04-06T14:30:01.5Z</time></trkpt><trkpt lat="43.6747136" lon="11.3025229"><ele>182.16666666666666</ele><time>2026-04-06T14:30:02.493Z</time></trkpt><trkpt lat="43.6746602" lon="11.3024547"><ele>186.0</ele><time>2026-04-06T14:30:03.492Z</time></trkpt><trkpt lat="43.6746123" lon="11.3023727"><ele>186.0</ele><time>2026-04-06T14:30:04.494Z</time></trkpt><trkpt lat="43.6745709" lon="11.3022862"><ele>186.0</ele><time>2026-04-06T14:30:05.495Z</time></trkpt><trkpt lat="43.6745509" lon="11.302177"><ele>186.0</ele><time>2026-04-06T14:30:06.5Z</time></trkpt><trkpt lat="43.6745439" lon="11.3020592"><ele>186.0</ele><time>2026-04-06T14:30:07.496Z</time></trkpt><trkpt lat="43.6745631" lon="11.3019373"><ele>186.0</ele><time>2026-04-06T14:30:08.49Z</time></trkpt><trkpt lat="43.6745891" lon="11.3018042"><ele>186.0</ele><time>2026-04-06T14:30:09.491Z</time></trkpt><trkpt lat="43.6746112" lon="11.3016487"><ele>187.8</ele><time>2026-04-06T14:30:10.486Z</time></trkpt><trkpt lat="43.6746359" lon="11.3015227"><ele>189.60000000000002</ele><time>2026-04-06T14:30:11.484Z</time></trkpt><trkpt lat="43.6746445" lon="11.3014101"><ele>191.4</ele><time>2026-04-06T14:30:12.498Z</time></trkpt><trkpt lat="43.6746395" lon="11.3012881"><ele>193.2</ele><time>2026-04-06T14:30:13.498Z</time></trkpt><trkpt lat="43.6746125" lon="11.3011561"><ele>195.0</ele><time>2026-04-06T14:30:14.496Z</time></trkpt><trkpt lat="43.6745721" lon="11.3010205"><ele>196.4</ele><time>2026-04-06T14:30:15.502Z</time></trkpt><trkpt lat="43.6745186" lon="11.3008982"><ele>197.8</ele><time>2026-04-06T14:30:16.496Z</time></trkpt><trkpt lat="43.6744347" lon="11.3008045"><ele>199.2</ele><time>2026-04-06T14:30:17.493Z</time></trkpt><trkpt lat="43.6743535" lon="11.3007387"><ele>200.6</ele><time>2026-04-06T14:30:18.496Z</time></trkpt><trkpt lat="43.6742545" lon="11.3006951"><ele>202.0</ele><time>2026-04-06T14:30:19.49Z</time></trkpt><trkpt lat="43.6741552" lon="11.3006608"><ele>202.39999999999998</ele><time>2026-04-06T14:30:20.499Z</time></trkpt><trkpt lat="43.6740878" lon="11.3006336"><ele>202.79999999999998</ele><time>2026-04-06T14:30:21.486Z</time></trkpt><trkpt lat="43.6740249" lon="11.3005533"><ele>203.2</ele><time>2026-04-06T14:30:23.499Z</time></trkpt><trkpt lat="43.6740326" lon="11.3004268"><ele>203.6</ele><time>2026-04-06T14:30:25.504Z</time></trkpt><trkpt lat="43.6740901" lon="11.3003619"><ele>204.0</ele><time>2026-04-06T14:30:27.497Z</time></trkpt><trkpt lat="43.674168" lon="11.3002012"><ele>205.5</ele><time>2026-04-06T14:30:29.497Z</time></trkpt><trkpt lat="43.6742168" lon="11.3001109"><ele>207.0</ele><time>2026-04-06T14:30:30.505Z</time></trkpt><trkpt lat="43.6742699" lon="11.300023"><ele>208.5</ele><time>2026-04-06T14:30:31.503Z</time></trkpt><trkpt lat="43.6743191" lon="11.2999317"><ele>210.0</ele><time>2026-04-06T14:30:32.507Z</time></trkpt><trkpt lat="43.67436" lon="11.2998275"><ele>211.5</ele><time>2026-04-06T14:30:33.498Z</time></trkpt><trkpt lat="43.6743795" lon="11.2997328"><ele>213.0</ele><time>2026-04-06T14:30:34.504Z</time></trkpt><trkpt lat="43.674395" lon="11.2996035"><ele>214.4</ele><time>2026-04-06T14:30:35.496Z</time></trkpt><trkpt lat="43.6744029" lon="11.2994522"><ele>215.8</ele><time>2026-04-06T14:30:36.491Z</time></trkpt><trkpt lat="43.6744031" lon="11.2993323"><ele>217.2</ele><time>2026-04-06T14:30:37.494Z</time></trkpt><trkpt lat="43.6743858" lon="11.2992355"><ele>218.6</ele><time>2026-04-06T14:30:38.495Z</time></trkpt><trkpt lat="43.6743578" lon="11.2991188"><ele>220.0</ele><time>2026-04-06T14:30:39.494Z</time></trkpt><trkpt lat="43.6743154" lon="11.2989875"><ele>221.2</ele><time>2026-04-06T14:30:40.498Z</time></trkpt><trkpt lat="43.6742804" lon="11.298881"><ele>222.4</ele><time>2026-04-06T14:30:41.496Z</time></trkpt><trkpt lat="43.6742549" lon="11.2987821"><ele>223.60000000000002</ele><time>2026-04-06T14:30:42.498Z</time></trkpt><trkpt lat="43.674237" lon="11.2986615"><ele>224.8</ele><time>2026-04-06T14:30:43.503Z</time></trkpt><trkpt lat="43.6742131" lon="11.2985263"><ele>226.0</ele><time>2026-04-06T14:30:44.484Z</time></trkpt><trkpt lat="43.674189" lon="11.298358"><ele>226.0</ele><time>2026-04-06T14:30:45.499Z</time></trkpt><trkpt lat="43.6741697" lon="11.2981681"><ele>226.0</ele><time>2026-04-06T14:30:46.501Z</time></trkpt><trkpt lat="43.6741428" lon="11.2979836"><ele>226.0</ele><time>2026-04-06T14:30:47.502Z</time></trkpt><trkpt lat="43.674117" lon="11.2978196"><ele>226.0</ele><time>2026-04-06T14:30:48.5Z</time></trkpt><trkpt lat="43.6740882" lon="11.2976619"><ele>227.4</ele><time>2026-04-06T14:30:49.501Z</time></trkpt><trkpt lat="43.6740708" lon="11.2975107"><ele>228.8</ele><time>2026-04-06T14:30:50.495Z</time></trkpt><trkpt lat="43.674053" lon="11.2974001"><ele>230.20000000000002</ele><time>2026-04-06T14:30:51.487Z</time></trkpt><trkpt lat="43.6740436" lon="11.2973037"><ele>231.60000000000002</ele><time>2026-04-06T14:30:52.488Z</time></trkpt><trkpt lat="43.6740689" lon="11.2971556"><ele>233.0</ele><time>2026-04-06T14:30:54.483Z</time></trkpt><trkpt lat="43.6740819" lon="11.297037"><ele>234.60000000000002</ele><time>2026-04-06T14:30:56.487Z</time></trkpt><trkpt lat="43.6740628" lon="11.2969297"><ele>236.20000000000002</ele><time>2026-04-06T14:31:12.518Z</time></trkpt><trkpt lat="43.6740325" lon="11.296807"><ele>237.8</ele><time>2026-04-06T14:31:15.515Z</time></trkpt><trkpt lat="43.673942" lon="11.2966856"><ele>239.4</ele><time>2026-04-06T14:31:17.506Z</time></trkpt><trkpt lat="43.6738891" lon="11.2965949"><ele>241.0</ele><time>2026-04-06T14:31:18.502Z</time></trkpt><trkpt lat="43.6738417" lon="11.2965106"><ele>241.0</ele><time>2026-04-06T14:31:19.511Z</time></trkpt><trkpt lat="43.6738077" lon="11.2964266"><ele>241.00000000000003</ele><time>2026-04-06T14:31:20.487Z</time></trkpt><trkpt lat="43.6737494" lon="11.2962932"><ele>241.00000000000003</ele><time>2026-04-06T14:31:22.502Z</time></trkpt><trkpt lat="43.6737326" lon="11.2961721"><ele>241.0</ele><time>2026-04-06T14:31:24.494Z</time></trkpt><trkpt lat="43.6737509" lon="11.2960335"><ele>241.0</ele><time>2026-04-06T14:31:26.502Z</time></trkpt><trkpt lat="43.6737606" lon="11.2959168"><ele>241.42857142857144</ele><time>2026-04-06T14:31:28.513Z</time></trkpt><trkpt lat="43.6737843" lon="11.2958261"><ele>241.8571428571429</ele><time>2026-04-06T14:31:30.511Z</time></trkpt><trkpt lat="43.6737645" lon="11.295723"><ele>242.28571428571428</ele><time>2026-04-06T14:31:32.506Z</time></trkpt><trkpt lat="43.6737371" lon="11.2956332"><ele>242.71428571428572</ele><time>2026-04-06T14:31:34.447Z</time></trkpt><trkpt lat="43.6737087" lon="11.2955535"><ele>243.14285714285714</ele><time>2026-04-06T14:31:37.515Z</time></trkpt><trkpt lat="43.6737248" lon="11.2956439"><ele>243.57142857142856</ele><time>2026-04-06T14:31:58.511Z</time></trkpt><trkpt lat="43.6737659" lon="11.2957355"><ele>243.99999999999997</ele><time>2026-04-06T14:32:01.502Z</time></trkpt><trkpt lat="43.6737506" lon="11.2958361"><ele>243.99999999999997</ele><time>2026-04-06T14:32:12.509Z</time></trkpt><trkpt lat="43.6737386" lon="11.2959235"><ele>244.0</ele><time>2026-04-06T14:32:15.506Z</time></trkpt><trkpt lat="43.6737292" lon="11.2960143"><ele>244.0</ele><time>2026-04-06T14:32:17.499Z</time></trkpt><trkpt lat="43.6737127" lon="11.2961455"><ele>244.0</ele><time>2026-04-06T14:32:19.505Z</time></trkpt><trkpt lat="43.673734" lon="11.2962614"><ele>243.99999999999997</ele><time>2026-04-06T14:32:21.504Z</time></trkpt><trkpt lat="43.6737783" lon="11.2963534"><ele>244.0</ele><time>2026-04-06T14:32:23.507Z</time></trkpt><trkpt lat="43.6738158" lon="11.2964416"><ele>243.49999999999997</ele><time>2026-04-06T14:32:25.5Z</time></trkpt><trkpt lat="43.673859" lon="11.2965312"><ele>243.0</ele><time>2026-04-06T14:32:27.506Z</time></trkpt><trkpt lat="43.6739079" lon="11.2966257"><ele>242.5</ele><time>2026-04-06T14:32:29.506Z</time></trkpt><trkpt lat="43.6739608" lon="11.2967005"><ele>242.0</ele><time>2026-04-06T14:32:31.503Z</time></trkpt><trkpt lat="43.6740038" lon="11.2967655"><ele>241.49999999999997</ele><time>2026-04-06T14:32:33.505Z</time></trkpt><trkpt lat="43.6740483" lon="11.2968446"><ele>241.0</ele><time>2026-04-06T14:32:36.508Z</time></trkpt><trkpt lat="43.6740569" lon="11.2969501"><ele>240.99999999999997</ele><time>2026-04-06T14:32:39.509Z</time></trkpt><trkpt lat="43.6740928" lon="11.2970268"><ele>241.0</ele><time>2026-04-06T14:32:42.505Z</time></trkpt><trkpt lat="43.6741591" lon="11.2969874"><ele>241.0</ele><time>2026-04-06T14:32:46.503Z</time></trkpt><trkpt lat="43.6742074" lon="11.2968735"><ele>241.0</ele><time>2026-04-06T14:32:49.497Z</time></trkpt><trkpt lat="43.674248" lon="11.2967382"><ele>240.99999999999997</ele><time>2026-04-06T14:32:51.508Z</time></trkpt><trkpt lat="43.6742692" lon="11.2966454"><ele>241.0</ele><time>2026-04-06T14:32:52.495Z</time></trkpt><trkpt lat="43.6742792" lon="11.2965511"><ele>241.0</ele><time>2026-04-06T14:32:53.492Z</time></trkpt><trkpt lat="43.6742839" lon="11.2964636"><ele>241.00000000000003</ele><time>2026-04-06T14:32:54.489Z</time></trkpt><trkpt lat="43.6743015" lon="11.2963731"><ele>241.0</ele><time>2026-04-06T14:32:55.496Z</time></trkpt><trkpt lat="43.6743169" lon="11.2962698"><ele>241.0</ele><time>2026-04-06T14:32:56.489Z</time></trkpt><trkpt lat="43.6743307" lon="11.2961508"><ele>241.00000000000003</ele><time>2026-04-06T14:32:57.491Z</time></trkpt><trkpt lat="43.674348" lon="11.2960392"><ele>241.0</ele><time>2026-04-06T14:32:58.491Z</time></trkpt><trkpt lat="43.6743607" lon="11.295946"><ele>241.0</ele><time>2026-04-06T14:32:59.491Z</time></trkpt><trkpt lat="43.6743939" lon="11.2957988"><ele>240.33333333333331</ele><time>2026-04-06T14:33:01.487Z</time></trkpt><trkpt lat="43.6744495" lon="11.2957307"><ele>239.66666666666666</ele><time>2026-04-06T14:33:03.498Z</time></trkpt><trkpt lat="43.6745246" lon="11.2956564"><ele>239.0</ele><time>2026-04-06T14:33:05.496Z</time></trkpt><trkpt lat="43.6745717" lon="11.2955951"><ele>238.33333333333331</ele><time>2026-04-06T14:33:06.489Z</time></trkpt><trkpt lat="43.6746392" lon="11.295504"><ele>237.66666666666666</ele><time>2026-04-06T14:33:08.486Z</time></trkpt><trkpt lat="43.6746709" lon="11.2954271"><ele>237.0</ele><time>2026-04-06T14:33:40.517Z</time></trkpt><trkpt lat="43.674739" lon="11.2953554"><ele>236.99999999999997</ele><time>2026-04-06T14:33:43.499Z</time></trkpt><trkpt lat="43.6747936" lon="11.2953017"><ele>237.0</ele><time>2026-04-06T14:33:45.5Z</time></trkpt><trkpt lat="43.6748521" lon="11.2952625"><ele>236.99999999999997</ele><time>2026-04-06T14:33:47.5Z</time></trkpt><trkpt lat="43.6749317" lon="11.2953079"><ele>236.99999999999997</ele><time>2026-04-06T14:33:50.503Z</time></trkpt><trkpt lat="43.6749971" lon="11.2953137"><ele>237.0</ele><time>2026-04-06T14:33:52.502Z</time></trkpt><trkpt lat="43.6750608" lon="11.2953573"><ele>236.99999999999997</ele><time>2026-04-06T14:34:22.507Z</time></trkpt><trkpt lat="43.6750124" lon="11.2954245"><ele>236.99999999999997</ele><time>2026-04-06T14:34:31.502Z</time></trkpt><trkpt lat="43.6749603" lon="11.2954788"><ele>237.0</ele><time>2026-04-06T14:34:35.506Z</time></trkpt><trkpt lat="43.6749999" lon="11.2954015"><ele>237.0</ele><time>2026-04-06T14:35:09.508Z</time></trkpt><trkpt lat="43.674963" lon="11.2953137"><ele>237.0</ele><time>2026-04-06T14:35:11.497Z</time></trkpt><trkpt lat="43.6748803" lon="11.2952609"><ele>237.0</ele><time>2026-04-06T14:35:13.501Z</time></trkpt><trkpt lat="43.6747869" lon="11.2952908"><ele>237.0</ele><time>2026-04-06T14:35:16.494Z</time></trkpt><trkpt lat="43.6747272" lon="11.2953751"><ele>237.0</ele><time>2026-04-06T14:35:18.489Z</time></trkpt><trkpt lat="43.6747114" lon="11.2952652"><ele>237.0</ele><time>2026-04-06T14:35:53.497Z</time></trkpt><trkpt lat="43.6747829" lon="11.2951548"><ele>237.0</ele><time>2026-04-06T14:35:55.491Z</time></trkpt><trkpt lat="43.6748741" lon="11.2951276"><ele>237.0</ele><time>2026-04-06T14:35:57.494Z</time></trkpt><trkpt lat="43.6749366" lon="11.2951097"><ele>237.0</ele><time>2026-04-06T14:35:59.508Z</time></trkpt><trkpt lat="43.6749556" lon="11.2950062"><ele>237.0</ele><time>2026-04-06T14:36:03.505Z</time></trkpt><trkpt lat="43.6749342" lon="11.2949003"><ele>237.0</ele><time>2026-04-06T14:36:05.507Z</time></trkpt><trkpt lat="43.6749028" lon="11.2947657"><ele>238.28571428571425</ele><time>2026-04-06T14:36:07.509Z</time></trkpt><trkpt lat="43.674895" lon="11.294662"><ele>239.57142857142856</ele><time>2026-04-06T14:36:09.504Z</time></trkpt><trkpt lat="43.6748604" lon="11.2945819"><ele>240.85714285714286</ele><time>2026-04-06T14:36:12.503Z</time></trkpt><trkpt lat="43.6748127" lon="11.2944953"><ele>242.14285714285714</ele><time>2026-04-06T14:36:14.508Z</time></trkpt><trkpt lat="43.6747758" lon="11.2944111"><ele>243.42857142857144</ele><time>2026-04-06T14:36:16.5Z</time></trkpt><trkpt lat="43.674739" lon="11.2943145"><ele>244.71428571428575</ele><time>2026-04-06T14:36:18.474Z</time></trkpt><trkpt lat="43.6746906" lon="11.2942438"><ele>246.00000000000003</ele><time>2026-04-06T14:36:20.502Z</time></trkpt><trkpt lat="43.6746875" lon="11.2941412"><ele>246.00000000000003</ele><time>2026-04-06T14:36:22.504Z</time></trkpt><trkpt lat="43.6746479" lon="11.2940715"><ele>246.0</ele><time>2026-04-06T14:36:25.506Z</time></trkpt><trkpt lat="43.674687" lon="11.2941401"><ele>246.00000000000003</ele><time>2026-04-06T14:36:36.5Z</time></trkpt><trkpt lat="43.674682" lon="11.2940241"><ele>246.00000000000003</ele><time>2026-04-06T14:36:41.503Z</time></trkpt><trkpt lat="43.674613" lon="11.2940378"><ele>246.0</ele><time>2026-04-06T14:36:43.506Z</time></trkpt><trkpt lat="43.6745365" lon="11.2940046"><ele>246.00000000000003</ele><time>2026-04-06T14:36:47.497Z</time></trkpt><trkpt lat="43.6744867" lon="11.2939475"><ele>246.00000000000003</ele><time>2026-04-06T14:36:50.503Z</time></trkpt><trkpt lat="43.6744248" lon="11.2938648"><ele>249.60000000000002</ele><time>2026-04-06T14:36:52.502Z</time></trkpt><trkpt lat="43.6742992" lon="11.293824"><ele>253.20000000000002</ele><time>2026-04-06T14:36:54.495Z</time></trkpt><trkpt lat="43.674212" lon="11.2937853"><ele>256.79999999999995</ele><time>2026-04-06T14:36:56.498Z</time></trkpt><trkpt lat="43.6741562" lon="11.2937104"><ele>260.4</ele><time>2026-04-06T14:36:58.501Z</time></trkpt><trkpt lat="43.6741578" lon="11.2935996"><ele>264.0</ele><time>2026-04-06T14:37:00.508Z</time></trkpt><trkpt lat="43.6741917" lon="11.293475"><ele>264.0</ele><time>2026-04-06T14:37:02.505Z</time></trkpt><trkpt lat="43.6742417" lon="11.2933601"><ele>264.0</ele><time>2026-04-06T14:37:04.498Z</time></trkpt><trkpt lat="43.6742242" lon="11.29327"><ele>264.0</ele><time>2026-04-06T14:37:17.512Z</time></trkpt><trkpt lat="43.6741523" lon="11.2932525"><ele>264.0</ele><time>2026-04-06T14:37:19.506Z</time></trkpt><trkpt lat="43.6740596" lon="11.2932747"><ele>264.0</ele><time>2026-04-06T14:37:21.51Z</time></trkpt><trkpt lat="43.6739638" lon="11.2932894"><ele>264.0</ele><time>2026-04-06T14:37:23.508Z</time></trkpt><trkpt lat="43.6738784" lon="11.2932875"><ele>264.0</ele><time>2026-04-06T14:37:25.514Z</time></trkpt><trkpt lat="43.6738025" lon="11.2932819"><ele>264.0</ele><time>2026-04-06T14:37:27.512Z</time></trkpt><trkpt lat="43.6737247" lon="11.2933344"><ele>264.0</ele><time>2026-04-06T14:37:30.507Z</time></trkpt><trkpt lat="43.6736523" lon="11.29335"><ele>264.0</ele><time>2026-04-06T14:37:37.513Z</time></trkpt><trkpt lat="43.6737352" lon="11.2933073"><ele>264.0</ele><time>2026-04-06T14:38:01.509Z</time></trkpt><trkpt lat="43.6738287" lon="11.2932534"><ele>264.0</ele><time>2026-04-06T14:38:03.501Z</time></trkpt><trkpt lat="43.6738922" lon="11.2932469"><ele>264.0</ele><time>2026-04-06T14:38:04.496Z</time></trkpt><trkpt lat="43.6739584" lon="11.2932511"><ele>264.0</ele><time>2026-04-06T14:38:05.496Z</time></trkpt><trkpt lat="43.6740814" lon="11.2932535"><ele>264.0</ele><time>2026-04-06T14:38:07.49Z</time></trkpt><trkpt lat="43.6741526" lon="11.2932548"><ele>264.0</ele><time>2026-04-06T14:38:08.502Z</time></trkpt><trkpt lat="43.6742276" lon="11.2932734"><ele>264.0</ele><time>2026-04-06T14:38:09.497Z</time></trkpt><trkpt lat="43.674301" lon="11.2932949"><ele>264.0</ele><time>2026-04-06T14:38:10.488Z</time></trkpt><trkpt lat="43.674385" lon="11.2932996"><ele>262.4</ele><time>2026-04-06T14:38:11.493Z</time></trkpt><trkpt lat="43.6744756" lon="11.2932888"><ele>260.79999999999995</ele><time>2026-04-06T14:38:12.495Z</time></trkpt><trkpt lat="43.6745628" lon="11.293279"><ele>259.20000000000005</ele><time>2026-04-06T14:38:13.495Z</time></trkpt><trkpt lat="43.6746561" lon="11.293277"><ele>257.6</ele><time>2026-04-06T14:38:14.499Z</time></trkpt><trkpt lat="43.6747416" lon="11.2932756"><ele>256.0</ele><time>2026-04-06T14:38:15.491Z</time></trkpt><trkpt lat="43.6748378" lon="11.2932725"><ele>255.99999999999997</ele><time>2026-04-06T14:38:16.499Z</time></trkpt><trkpt lat="43.6749323" lon="11.2932652"><ele>256.0</ele><time>2026-04-06T14:38:17.498Z</time></trkpt><trkpt lat="43.6750198" lon="11.293261"><ele>256.0</ele><time>2026-04-06T14:38:18.494Z</time></trkpt><trkpt lat="43.6751" lon="11.293249"><ele>256.0</ele><time>2026-04-06T14:38:19.499Z</time></trkpt><trkpt lat="43.675186" lon="11.2932455"><ele>255.99999999999997</ele><time>2026-04-06T14:38:20.497Z</time></trkpt><trkpt lat="43.6752672" lon="11.2932341"><ele>256.0</ele><time>2026-04-06T14:38:21.493Z</time></trkpt><trkpt lat="43.6753494" lon="11.2932298"><ele>254.8</ele><time>2026-04-06T14:38:22.498Z</time></trkpt><trkpt lat="43.6754356" lon="11.2932314"><ele>253.60000000000002</ele><time>2026-04-06T14:38:23.495Z</time></trkpt><trkpt lat="43.6755228" lon="11.2932287"><ele>252.4</ele><time>2026-04-06T14:38:24.495Z</time></trkpt><trkpt lat="43.675614" lon="11.293226"><ele>251.2</ele><time>2026-04-06T14:38:25.493Z</time></trkpt><trkpt lat="43.6757103" lon="11.29322"><ele>250.0</ele><time>2026-04-06T14:38:26.494Z</time></trkpt><trkpt lat="43.6758016" lon="11.2932177"><ele>249.99999999999997</ele><time>2026-04-06T14:38:27.5Z</time></trkpt><trkpt lat="43.6758898" lon="11.2932128"><ele>250.0</ele><time>2026-04-06T14:38:28.502Z</time></trkpt><trkpt lat="43.6759759" lon="11.2932058"><ele>250.0</ele><time>2026-04-06T14:38:29.501Z</time></trkpt><trkpt lat="43.6760577" lon="11.2932036"><ele>250.0</ele><time>2026-04-06T14:38:30.499Z</time></trkpt><trkpt lat="43.6761385" lon="11.2931913"><ele>249.99999999999997</ele><time>2026-04-06T14:38:31.499Z</time></trkpt><trkpt lat="43.6762223" lon="11.2931846"><ele>250.0</ele><time>2026-04-06T14:38:32.497Z</time></trkpt><trkpt lat="43.6763047" lon="11.2931793"><ele>249.42857142857142</ele><time>2026-04-06T14:38:33.5Z</time></trkpt><trkpt lat="43.6763906" lon="11.2931751"><ele>248.8571428571429</ele><time>2026-04-06T14:38:34.498Z</time></trkpt><trkpt lat="43.6764694" lon="11.2931771"><ele>248.2857142857143</ele><time>2026-04-06T14:38:35.496Z</time></trkpt><trkpt lat="43.6765467" lon="11.293172"><ele>247.71428571428572</ele><time>2026-04-06T14:38:36.503Z</time></trkpt><trkpt lat="43.6766197" lon="11.2931641"><ele>247.14285714285717</ele><time>2026-04-06T14:38:37.498Z</time></trkpt><trkpt lat="43.6766879" lon="11.2931572"><ele>246.5714285714286</ele><time>2026-04-06T14:38:38.501Z</time></trkpt><trkpt lat="43.6767528" lon="11.29316"><ele>246.00000000000003</ele><time>2026-04-06T14:38:39.496Z</time></trkpt><trkpt lat="43.6768318" lon="11.2931674"><ele>246.0</ele><time>2026-04-06T14:38:41.491Z</time></trkpt><trkpt lat="43.6767586" lon="11.2931653"><ele>246.0</ele><time>2026-04-06T14:41:30.516Z</time></trkpt><trkpt lat="43.6766885" lon="11.2931641"><ele>246.0</ele><time>2026-04-06T14:41:32.495Z</time></trkpt><trkpt lat="43.6766225" lon="11.2931553"><ele>246.0</ele><time>2026-04-06T14:41:33.493Z</time></trkpt><trkpt lat="43.6765495" lon="11.2931501"><ele>246.0</ele><time>2026-04-06T14:41:34.508Z</time></trkpt><trkpt lat="43.67648" lon="11.2931545"><ele>246.0</ele><time>2026-04-06T14:41:35.499Z</time></trkpt><trkpt lat="43.6763725" lon="11.2931656"><ele>246.0</ele><time>2026-04-06T14:41:37.501Z</time></trkpt><trkpt lat="43.6763043" lon="11.2931694"><ele>246.0</ele><time>2026-04-06T14:41:38.501Z</time></trkpt><trkpt lat="43.6762311" lon="11.2931789"><ele>246.0</ele><time>2026-04-06T14:41:39.506Z</time></trkpt><trkpt lat="43.6761588" lon="11.2931861"><ele>246.0</ele><time>2026-04-06T14:41:40.508Z</time></trkpt><trkpt lat="43.6760838" lon="11.2931919"><ele>246.0</ele><time>2026-04-06T14:41:41.505Z</time></trkpt><trkpt lat="43.6759989" lon="11.2931998"><ele>246.0</ele><time>2026-04-06T14:41:42.501Z</time></trkpt><trkpt lat="43.6759171" lon="11.293202"><ele>246.66666666666666</ele><time>2026-04-06T14:41:43.502Z</time></trkpt><trkpt lat="43.6758311" lon="11.2932023"><ele>247.33333333333331</ele><time>2026-04-06T14:41:44.505Z</time></trkpt><trkpt lat="43.67575" lon="11.2932086"><ele>248.0</ele><time>2026-04-06T14:41:45.507Z</time></trkpt><trkpt lat="43.675678" lon="11.2932179"><ele>248.66666666666666</ele><time>2026-04-06T14:41:46.505Z</time></trkpt><trkpt lat="43.6756013" lon="11.2932236"><ele>249.33333333333331</ele><time>2026-04-06T14:41:47.505Z</time></trkpt><trkpt lat="43.6755217" lon="11.2932226"><ele>250.0</ele><time>2026-04-06T14:41:48.505Z</time></trkpt><trkpt lat="43.675442" lon="11.2932244"><ele>249.99999999999997</ele><time>2026-04-06T14:41:49.506Z</time></trkpt><trkpt lat="43.6753674" lon="11.2932278"><ele>250.0</ele><time>2026-04-06T14:41:50.507Z</time></trkpt><trkpt lat="43.6752886" lon="11.2932302"><ele>250.0</ele><time>2026-04-06T14:41:51.502Z</time></trkpt><trkpt lat="43.6752086" lon="11.2932344"><ele>250.0</ele><time>2026-04-06T14:41:52.502Z</time></trkpt><trkpt lat="43.6751335" lon="11.2932414"><ele>249.99999999999997</ele><time>2026-04-06T14:41:53.502Z</time></trkpt><trkpt lat="43.6750549" lon="11.2932442"><ele>250.0</ele><time>2026-04-06T14:41:54.503Z</time></trkpt><trkpt lat="43.6749764" lon="11.2932494"><ele>251.2</ele><time>2026-04-06T14:41:55.494Z</time></trkpt><trkpt lat="43.6748844" lon="11.2932517"><ele>252.4</ele><time>2026-04-06T14:41:56.501Z</time></trkpt><trkpt lat="43.6747961" lon="11.2932534"><ele>253.60000000000002</ele><time>2026-04-06T14:41:57.497Z</time></trkpt><trkpt lat="43.6747049" lon="11.293262"><ele>254.8</ele><time>2026-04-06T14:41:58.501Z</time></trkpt><trkpt lat="43.6746143" lon="11.2932717"><ele>256.0</ele><time>2026-04-06T14:41:59.501Z</time></trkpt><trkpt lat="43.6745231" lon="11.293277"><ele>257.3333333333333</ele><time>2026-04-06T14:42:00.502Z</time></trkpt><trkpt lat="43.6744378" lon="11.29328"><ele>258.66666666666663</ele><time>2026-04-06T14:42:01.5Z</time></trkpt><trkpt lat="43.6743678" lon="11.2932805"><ele>260.0</ele><time>2026-04-06T14:42:02.498Z</time></trkpt><trkpt lat="43.6742641" lon="11.2932878"><ele>261.3333333333333</ele><time>2026-04-06T14:42:04.499Z</time></trkpt><trkpt lat="43.6741783" lon="11.2932739"><ele>262.6666666666667</ele><time>2026-04-06T14:42:06.502Z</time></trkpt><trkpt lat="43.6740859" lon="11.2932567"><ele>264.0</ele><time>2026-04-06T14:42:08.509Z</time></trkpt><trkpt lat="43.6739787" lon="11.2932692"><ele>264.0</ele><time>2026-04-06T14:42:10.502Z</time></trkpt><trkpt lat="43.6738765" lon="11.2932798"><ele>264.0</ele><time>2026-04-06T14:42:12.489Z</time></trkpt><trkpt lat="43.6737949" lon="11.2932789"><ele>264.0</ele><time>2026-04-06T14:42:14.511Z</time></trkpt><trkpt lat="43.6737261" lon="11.2933192"><ele>264.0</ele><time>2026-04-06T14:42:16.513Z</time></trkpt><trkpt lat="43.6736542" lon="11.2933519"><ele>264.0</ele><time>2026-04-06T14:42:18.502Z</time></trkpt><trkpt lat="43.6736269" lon="11.2932595"><ele>264.0</ele><time>2026-04-06T14:42:21.506Z</time></trkpt><trkpt lat="43.6736659" lon="11.2931692"><ele>263.0</ele><time>2026-04-06T14:42:23.505Z</time></trkpt><trkpt lat="43.6737246" lon="11.2930755"><ele>262.0</ele><time>2026-04-06T14:42:25.498Z</time></trkpt><trkpt lat="43.6737786" lon="11.2929882"><ele>261.0</ele><time>2026-04-06T14:42:27.5Z</time></trkpt><trkpt lat="43.6738332" lon="11.2929097"><ele>260.0</ele><time>2026-04-06T14:42:29.51Z</time></trkpt><trkpt lat="43.6738729" lon="11.2928267"><ele>259.0</ele><time>2026-04-06T14:42:46.517Z</time></trkpt><trkpt lat="43.6738334" lon="11.2929036"><ele>258.0</ele><time>2026-04-06T14:43:13.506Z</time></trkpt><trkpt lat="43.6737743" lon="11.2929795"><ele>258.0</ele><time>2026-04-06T14:43:15.505Z</time></trkpt><trkpt lat="43.6737132" lon="11.2930785"><ele>258.0</ele><time>2026-04-06T14:43:17.5Z</time></trkpt><trkpt lat="43.67366" lon="11.2931793"><ele>258.0</ele><time>2026-04-06T14:43:19.517Z</time></trkpt><trkpt lat="43.673617" lon="11.2932703"><ele>258.0</ele><time>2026-04-06T14:43:21.505Z</time></trkpt><trkpt lat="43.6736667" lon="11.2933527"><ele>258.0</ele><time>2026-04-06T14:43:24.502Z</time></trkpt><trkpt lat="43.6737265" lon="11.2933245"><ele>258.0</ele><time>2026-04-06T14:43:26.509Z</time></trkpt><trkpt lat="43.6738087" lon="11.2932675"><ele>259.0</ele><time>2026-04-06T14:43:29.511Z</time></trkpt><trkpt lat="43.6738804" lon="11.2932585"><ele>260.0</ele><time>2026-04-06T14:43:31.51Z</time></trkpt><trkpt lat="43.6739827" lon="11.293259"><ele>261.0</ele><time>2026-04-06T14:43:34.503Z</time></trkpt><trkpt lat="43.6740633" lon="11.2932722"><ele>262.0</ele><time>2026-04-06T14:43:36.502Z</time></trkpt><trkpt lat="43.6741473" lon="11.2932674"><ele>263.0</ele><time>2026-04-06T14:43:39.501Z</time></trkpt><trkpt lat="43.6742221" lon="11.2932895"><ele>264.0</ele><time>2026-04-06T14:43:42.506Z</time></trkpt><trkpt lat="43.67422" lon="11.293382"><ele>264.0</ele><time>2026-04-06T14:43:45.511Z</time></trkpt><trkpt lat="43.6741835" lon="11.2934934"><ele>264.0</ele><time>2026-04-06T14:43:48.518Z</time></trkpt><trkpt lat="43.6741803" lon="11.2935907"><ele>264.0</ele><time>2026-04-06T14:43:50.51Z</time></trkpt><trkpt lat="43.6741995" lon="11.2936966"><ele>264.0</ele><time>2026-04-06T14:43:52.507Z</time></trkpt><trkpt lat="43.674231" lon="11.2937826"><ele>264.0</ele><time>2026-04-06T14:43:54.504Z</time></trkpt><trkpt lat="43.6742884" lon="11.2938338"><ele>264.0</ele><time>2026-04-06T14:43:56.505Z</time></trkpt><trkpt lat="43.6743823" lon="11.2938527"><ele>262.85714285714283</ele><time>2026-04-06T14:43:59.507Z</time></trkpt><trkpt lat="43.6744618" lon="11.2938819"><ele>261.7142857142857</ele><time>2026-04-06T14:44:01.505Z</time></trkpt><trkpt lat="43.6745129" lon="11.2939344"><ele>260.57142857142856</ele><time>2026-04-06T14:44:03.499Z</time></trkpt><trkpt lat="43.6745579" lon="11.2940017"><ele>259.42857142857144</ele><time>2026-04-06T14:44:05.504Z</time></trkpt><trkpt lat="43.6746207" lon="11.294048"><ele>258.2857142857143</ele><time>2026-04-06T14:44:07.502Z</time></trkpt><trkpt lat="43.6746664" lon="11.2941151"><ele>257.1428571428571</ele><time>2026-04-06T14:44:09.505Z</time></trkpt><trkpt lat="43.674697" lon="11.2942166"><ele>256.0</ele><time>2026-04-06T14:44:11.511Z</time></trkpt><trkpt lat="43.6747049" lon="11.2943179"><ele>254.33333333333331</ele><time>2026-04-06T14:44:13.508Z</time></trkpt><trkpt lat="43.6747724" lon="11.2944081"><ele>252.66666666666666</ele><time>2026-04-06T14:44:16.509Z</time></trkpt><trkpt lat="43.6748074" lon="11.2944943"><ele>251.0</ele><time>2026-04-06T14:44:18.508Z</time></trkpt><trkpt lat="43.674844" lon="11.2945848"><ele>249.33333333333331</ele><time>2026-04-06T14:44:20.504Z</time></trkpt><trkpt lat="43.67488" lon="11.2946602"><ele>247.66666666666666</ele><time>2026-04-06T14:44:22.506Z</time></trkpt><trkpt lat="43.6749013" lon="11.2947717"><ele>246.0</ele><time>2026-04-06T14:44:26.503Z</time></trkpt><trkpt lat="43.6749161" lon="11.2948747"><ele>244.5</ele><time>2026-04-06T14:44:29.51Z</time></trkpt><trkpt lat="43.6749401" lon="11.294963"><ele>243.0</ele><time>2026-04-06T14:44:31.508Z</time></trkpt><trkpt lat="43.6749321" lon="11.29505"><ele>241.5</ele><time>2026-04-06T14:44:33.501Z</time></trkpt><trkpt lat="43.6748826" lon="11.2951088"><ele>240.0</ele><time>2026-04-06T14:44:35.502Z</time></trkpt><trkpt lat="43.6748034" lon="11.2951188"><ele>238.5</ele><time>2026-04-06T14:44:37.507Z</time></trkpt><trkpt lat="43.6747148" lon="11.2951446"><ele>237.0</ele><time>2026-04-06T14:44:39.489Z</time></trkpt><trkpt lat="43.6746646" lon="11.2952406"><ele>237.0</ele><time>2026-04-06T14:44:41.498Z</time></trkpt><trkpt lat="43.6746534" lon="11.2953399"><ele>237.0</ele><time>2026-04-06T14:44:43.5Z</time></trkpt><trkpt lat="43.6746349" lon="11.2954563"><ele>237.0</ele><time>2026-04-06T14:44:49.497Z</time></trkpt><trkpt lat="43.6745687" lon="11.2955499"><ele>237.0</ele><time>2026-04-06T14:44:52.497Z</time></trkpt><trkpt lat="43.6744977" lon="11.2956504"><ele>237.0</ele><time>2026-04-06T14:44:54.501Z</time></trkpt><trkpt lat="43.6744126" lon="11.2957563"><ele>237.8</ele><time>2026-04-06T14:44:56.487Z</time></trkpt><trkpt lat="43.674367" lon="11.2958881"><ele>238.6</ele><time>2026-04-06T14:44:58.491Z</time></trkpt><trkpt lat="43.67434" lon="11.2960434"><ele>239.40000000000003</ele><time>2026-04-06T14:45:00.497Z</time></trkpt><trkpt lat="43.6743209" lon="11.29619"><ele>240.20000000000002</ele><time>2026-04-06T14:45:02.498Z</time></trkpt><trkpt lat="43.674297" lon="11.2963442"><ele>241.0</ele><time>2026-04-06T14:45:04.482Z</time></trkpt><trkpt lat="43.6742717" lon="11.2965132"><ele>240.99999999999997</ele><time>2026-04-06T14:45:06.488Z</time></trkpt><trkpt lat="43.674271" lon="11.2966108"><ele>241.0</ele><time>2026-04-06T14:45:07.486Z</time></trkpt><trkpt lat="43.6742554" lon="11.2967099"><ele>241.0</ele><time>2026-04-06T14:45:08.486Z</time></trkpt><trkpt lat="43.6742147" lon="11.2968453"><ele>241.0</ele><time>2026-04-06T14:45:10.489Z</time></trkpt><trkpt lat="43.674158" lon="11.2969666"><ele>240.99999999999997</ele><time>2026-04-06T14:45:12.49Z</time></trkpt><trkpt lat="43.6741039" lon="11.297023"><ele>241.0</ele><time>2026-04-06T14:45:16.5Z</time></trkpt><trkpt lat="43.6740289" lon="11.2969948"><ele>241.0</ele><time>2026-04-06T14:45:35.498Z</time></trkpt><trkpt lat="43.6739522" lon="11.2969077"><ele>241.00000000000003</ele><time>2026-04-06T14:45:37.505Z</time></trkpt><trkpt lat="43.6738891" lon="11.296841"><ele>241.00000000000003</ele><time>2026-04-06T14:45:38.493Z</time></trkpt><trkpt lat="43.6738082" lon="11.2967653"><ele>241.0</ele><time>2026-04-06T14:45:39.49Z</time></trkpt><trkpt lat="43.6737479" lon="11.2966819"><ele>241.0</ele><time>2026-04-06T14:45:40.485Z</time></trkpt><trkpt lat="43.6736958" lon="11.2965771"><ele>241.0</ele><time>2026-04-06T14:45:41.484Z</time></trkpt><trkpt lat="43.6736415" lon="11.296456"><ele>241.00000000000003</ele><time>2026-04-06T14:45:42.491Z</time></trkpt><trkpt lat="43.6735694" lon="11.2963306"><ele>241.00000000000003</ele><time>2026-04-06T14:45:43.486Z</time></trkpt><trkpt lat="43.6735077" lon="11.2962215"><ele>241.0</ele><time>2026-04-06T14:45:44.484Z</time></trkpt><trkpt lat="43.6734564" lon="11.2961127"><ele>241.0</ele><time>2026-04-06T14:45:45.488Z</time></trkpt><trkpt lat="43.673429" lon="11.2959767"><ele>241.75</ele><time>2026-04-06T14:45:46.489Z</time></trkpt><trkpt lat="43.6733929" lon="11.2958416"><ele>242.5</ele><time>2026-04-06T14:45:47.489Z</time></trkpt><trkpt lat="43.6733415" lon="11.2957179"><ele>243.25</ele><time>2026-04-06T14:45:48.486Z</time></trkpt><trkpt lat="43.6732917" lon="11.2955788"><ele>244.0</ele><time>2026-04-06T14:45:49.474Z</time></trkpt><trkpt lat="43.6732245" lon="11.2954092"><ele>246.25</ele><time>2026-04-06T14:45:50.477Z</time></trkpt><trkpt lat="43.6731557" lon="11.2952423"><ele>248.5</ele><time>2026-04-06T14:45:51.479Z</time></trkpt><trkpt lat="43.6731116" lon="11.2951003"><ele>250.75</ele><time>2026-04-06T14:45:52.479Z</time></trkpt><trkpt lat="43.6730681" lon="11.2949623"><ele>253.0</ele><time>2026-04-06T14:45:53.479Z</time></trkpt><trkpt lat="43.6730369" lon="11.2948351"><ele>253.0</ele><time>2026-04-06T14:45:54.477Z</time></trkpt><trkpt lat="43.673007" lon="11.2947092"><ele>253.0</ele><time>2026-04-06T14:45:55.477Z</time></trkpt><trkpt lat="43.6729609" lon="11.2945913"><ele>253.0</ele><time>2026-04-06T14:45:56.473Z</time></trkpt><trkpt lat="43.6729088" lon="11.2944795"><ele>253.0</ele><time>2026-04-06T14:45:57.475Z</time></trkpt><trkpt lat="43.6728334" lon="11.294368"><ele>253.0</ele><time>2026-04-06T14:45:58.469Z</time></trkpt><trkpt lat="43.6727435" lon="11.2942323"><ele>253.0</ele><time>2026-04-06T14:45:59.481Z</time></trkpt><trkpt lat="43.6726579" lon="11.2941002"><ele>253.0</ele><time>2026-04-06T14:46:00.475Z</time></trkpt><trkpt lat="43.6725781" lon="11.2939775"><ele>253.0</ele><time>2026-04-06T14:46:01.473Z</time></trkpt><trkpt lat="43.672497" lon="11.2938482"><ele>253.0</ele><time>2026-04-06T14:46:02.482Z</time></trkpt><trkpt lat="43.6724065" lon="11.2936986"><ele>254.0</ele><time>2026-04-06T14:46:03.483Z</time></trkpt><trkpt lat="43.6723173" lon="11.2935608"><ele>255.0</ele><time>2026-04-06T14:46:04.486Z</time></trkpt><trkpt lat="43.6722376" lon="11.2934436"><ele>256.0</ele><time>2026-04-06T14:46:05.472Z</time></trkpt><trkpt lat="43.6721795" lon="11.2933488"><ele>257.0</ele><time>2026-04-06T14:46:06.474Z</time></trkpt><trkpt lat="43.6721266" lon="11.293248"><ele>258.0</ele><time>2026-04-06T14:46:07.481Z</time></trkpt><trkpt lat="43.6720878" lon="11.2931367"><ele>257.8</ele><time>2026-04-06T14:46:08.483Z</time></trkpt><trkpt lat="43.6720554" lon="11.2929915"><ele>257.6</ele><time>2026-04-06T14:46:09.486Z</time></trkpt><trkpt lat="43.6720259" lon="11.2928637"><ele>257.4</ele><time>2026-04-06T14:46:10.487Z</time></trkpt><trkpt lat="43.672001" lon="11.2927537"><ele>257.2</ele><time>2026-04-06T14:46:11.484Z</time></trkpt><trkpt lat="43.671981" lon="11.2926646"><ele>257.0</ele><time>2026-04-06T14:46:12.484Z</time></trkpt><trkpt lat="43.6719486" lon="11.2925216"><ele>255.39999999999998</ele><time>2026-04-06T14:46:14.484Z</time></trkpt><trkpt lat="43.6719003" lon="11.2924024"><ele>253.79999999999998</ele><time>2026-04-06T14:46:16.477Z</time></trkpt><trkpt lat="43.6718792" lon="11.2922986"><ele>252.2</ele><time>2026-04-06T14:46:18.484Z</time></trkpt><trkpt lat="43.6718327" lon="11.2921914"><ele>250.6</ele><time>2026-04-06T14:46:43.481Z</time></trkpt><trkpt lat="43.6716814" lon="11.2921779"><ele>249.0</ele><time>2026-04-06T14:46:45.477Z</time></trkpt><trkpt lat="43.6715945" lon="11.2921693"><ele>248.79999999999998</ele><time>2026-04-06T14:46:46.475Z</time></trkpt><trkpt lat="43.6713976" lon="11.2921232"><ele>248.59999999999997</ele><time>2026-04-06T14:46:48.485Z</time></trkpt><trkpt lat="43.6713162" lon="11.2921047"><ele>248.4</ele><time>2026-04-06T14:46:49.48Z</time></trkpt><trkpt lat="43.6712387" lon="11.2920876"><ele>248.2</ele><time>2026-04-06T14:46:50.485Z</time></trkpt><trkpt lat="43.6711689" lon="11.2920597"><ele>248.0</ele><time>2026-04-06T14:46:51.485Z</time></trkpt><trkpt lat="43.6710954" lon="11.2920355"><ele>248.5</ele><time>2026-04-06T14:46:52.483Z</time></trkpt><trkpt lat="43.6709964" lon="11.2920274"><ele>249.0</ele><time>2026-04-06T14:46:53.481Z</time></trkpt><trkpt lat="43.6708701" lon="11.2920126"><ele>249.5</ele><time>2026-04-06T14:46:54.487Z</time></trkpt><trkpt lat="43.670748" lon="11.2920114"><ele>250.0</ele><time>2026-04-06T14:46:55.494Z</time></trkpt><trkpt lat="43.6706302" lon="11.2920149"><ele>250.0</ele><time>2026-04-06T14:46:56.488Z</time></trkpt><trkpt lat="43.6705056" lon="11.2920347"><ele>250.0</ele><time>2026-04-06T14:46:57.49Z</time></trkpt><trkpt lat="43.6703788" lon="11.292057"><ele>250.0</ele><time>2026-04-06T14:46:58.491Z</time></trkpt><trkpt lat="43.6702244" lon="11.2920817"><ele>250.0</ele><time>2026-04-06T14:46:59.496Z</time></trkpt><trkpt lat="43.6700567" lon="11.2920999"><ele>250.0</ele><time>2026-04-06T14:47:00.5Z</time></trkpt><trkpt lat="43.6699005" lon="11.2921198"><ele>250.0</ele><time>2026-04-06T14:47:01.494Z</time></trkpt><trkpt lat="43.6697409" lon="11.2921472"><ele>250.0</ele><time>2026-04-06T14:47:02.495Z</time></trkpt><trkpt lat="43.6695604" lon="11.2921898"><ele>247.66666666666666</ele><time>2026-04-06T14:47:03.492Z</time></trkpt><trkpt lat="43.6693852" lon="11.2922439"><ele>245.33333333333331</ele><time>2026-04-06T14:47:04.494Z</time></trkpt><trkpt lat="43.6692252" lon="11.2922853"><ele>243.0</ele><time>2026-04-06T14:47:05.494Z</time></trkpt><trkpt lat="43.6690954" lon="11.2922961"><ele>242.5</ele><time>2026-04-06T14:47:06.496Z</time></trkpt><trkpt lat="43.6689486" lon="11.2923203"><ele>242.0</ele><time>2026-04-06T14:47:07.492Z</time></trkpt><trkpt lat="43.6688056" lon="11.2923562"><ele>241.5</ele><time>2026-04-06T14:47:08.492Z</time></trkpt><trkpt lat="43.6686818" lon="11.292388"><ele>241.0</ele><time>2026-04-06T14:47:09.491Z</time></trkpt><trkpt lat="43.6685608" lon="11.2924056"><ele>240.33333333333331</ele><time>2026-04-06T14:47:10.487Z</time></trkpt><trkpt lat="43.668471" lon="11.2924157"><ele>239.66666666666666</ele><time>2026-04-06T14:47:11.489Z</time></trkpt><trkpt lat="43.668377" lon="11.2924322"><ele>239.0</ele><time>2026-04-06T14:47:12.491Z</time></trkpt><trkpt lat="43.6682982" lon="11.2924519"><ele>238.33333333333331</ele><time>2026-04-06T14:47:13.494Z</time></trkpt><trkpt lat="43.6682313" lon="11.2924606"><ele>237.66666666666666</ele><time>2026-04-06T14:47:14.492Z</time></trkpt><trkpt lat="43.6681632" lon="11.292475"><ele>237.0</ele><time>2026-04-06T14:47:15.494Z</time></trkpt><trkpt lat="43.6680934" lon="11.2924957"><ele>237.0</ele><time>2026-04-06T14:47:16.494Z</time></trkpt><trkpt lat="43.6679947" lon="11.2925382"><ele>237.0</ele><time>2026-04-06T14:47:18.493Z</time></trkpt><trkpt lat="43.6679893" lon="11.2926487"><ele>237.0</ele><time>2026-04-06T14:47:21.491Z</time></trkpt><trkpt lat="43.6680079" lon="11.2927882"><ele>237.0</ele><time>2026-04-06T14:47:23.483Z</time></trkpt><trkpt lat="43.6680262" lon="11.292947"><ele>237.0</ele><time>2026-04-06T14:47:25.477Z</time></trkpt><trkpt lat="43.6680383" lon="11.2930758"><ele>236.0</ele><time>2026-04-06T14:47:27.496Z</time></trkpt><trkpt lat="43.6680166" lon="11.2931994"><ele>235.0</ele><time>2026-04-06T14:47:29.494Z</time></trkpt><trkpt lat="43.6679746" lon="11.2933001"><ele>234.0</ele><time>2026-04-06T14:47:31.499Z</time></trkpt><trkpt lat="43.6679414" lon="11.293443"><ele>233.0</ele><time>2026-04-06T14:47:33.494Z</time></trkpt><trkpt lat="43.6679169" lon="11.2935242"><ele>232.0</ele><time>2026-04-06T14:47:34.493Z</time></trkpt><trkpt lat="43.66789" lon="11.2936232"><ele>231.0</ele><time>2026-04-06T14:47:35.492Z</time></trkpt><trkpt lat="43.6678669" lon="11.2937408"><ele>231.0</ele><time>2026-04-06T14:47:36.477Z</time></trkpt><trkpt lat="43.6678523" lon="11.2938726"><ele>231.00000000000003</ele><time>2026-04-06T14:47:37.485Z</time></trkpt><trkpt lat="43.667857" lon="11.2940008"><ele>231.00000000000003</ele><time>2026-04-06T14:47:38.482Z</time></trkpt><trkpt lat="43.6678859" lon="11.2941203"><ele>231.0</ele><time>2026-04-06T14:47:39.485Z</time></trkpt><trkpt lat="43.6679358" lon="11.2942342"><ele>231.0</ele><time>2026-04-06T14:47:40.491Z</time></trkpt><trkpt lat="43.6679752" lon="11.2943284"><ele>230.16666666666666</ele><time>2026-04-06T14:47:41.491Z</time></trkpt><trkpt lat="43.6680048" lon="11.2944186"><ele>229.33333333333331</ele><time>2026-04-06T14:47:42.492Z</time></trkpt><trkpt lat="43.668028" lon="11.2945679"><ele>228.5</ele><time>2026-04-06T14:47:44.493Z</time></trkpt><trkpt lat="43.6680241" lon="11.2947189"><ele>227.66666666666666</ele><time>2026-04-06T14:47:46.488Z</time></trkpt><trkpt lat="43.668019" lon="11.294808"><ele>226.83333333333331</ele><time>2026-04-06T14:47:47.496Z</time></trkpt><trkpt lat="43.6680262" lon="11.294895"><ele>226.0</ele><time>2026-04-06T14:47:48.49Z</time></trkpt><trkpt lat="43.6680398" lon="11.2949822"><ele>225.83333333333331</ele><time>2026-04-06T14:47:49.489Z</time></trkpt><trkpt lat="43.6680734" lon="11.2950683"><ele>225.66666666666666</ele><time>2026-04-06T14:47:50.492Z</time></trkpt><trkpt lat="43.6681105" lon="11.2951992"><ele>225.5</ele><time>2026-04-06T14:47:52.488Z</time></trkpt><trkpt lat="43.6680837" lon="11.2952905"><ele>225.33333333333331</ele><time>2026-04-06T14:47:54.496Z</time></trkpt><trkpt lat="43.6680249" lon="11.295393"><ele>225.16666666666666</ele><time>2026-04-06T14:47:57.497Z</time></trkpt><trkpt lat="43.6679963" lon="11.2955023"><ele>225.0</ele><time>2026-04-06T14:47:59.497Z</time></trkpt><trkpt lat="43.6679603" lon="11.2956128"><ele>223.83333333333334</ele><time>2026-04-06T14:48:01.494Z</time></trkpt><trkpt lat="43.6679352" lon="11.2957043"><ele>222.66666666666669</ele><time>2026-04-06T14:48:03.489Z</time></trkpt><trkpt lat="43.6678996" lon="11.2957901"><ele>221.5</ele><time>2026-04-06T14:48:05.5Z</time></trkpt><trkpt lat="43.6678697" lon="11.2958837"><ele>220.33333333333334</ele><time>2026-04-06T14:48:07.5Z</time></trkpt><trkpt lat="43.6678512" lon="11.2959944"><ele>219.16666666666669</ele><time>2026-04-06T14:48:09.496Z</time></trkpt><trkpt lat="43.6678818" lon="11.2961142"><ele>218.0</ele><time>2026-04-06T14:48:12.497Z</time></trkpt><trkpt lat="43.6678901" lon="11.2962285"><ele>218.00000000000003</ele><time>2026-04-06T14:48:15.497Z</time></trkpt><trkpt lat="43.6678557" lon="11.2963304"><ele>218.0</ele><time>2026-04-06T14:48:20.496Z</time></trkpt><trkpt lat="43.6677853" lon="11.2963697"><ele>218.0</ele><time>2026-04-06T14:48:23.498Z</time></trkpt><trkpt lat="43.6677138" lon="11.2963614"><ele>218.0</ele><time>2026-04-06T14:48:25.491Z</time></trkpt><trkpt lat="43.6676119" lon="11.2963614"><ele>218.00000000000003</ele><time>2026-04-06T14:48:27.496Z</time></trkpt><trkpt lat="43.6675287" lon="11.2963874"><ele>218.0</ele><time>2026-04-06T14:48:29.503Z</time></trkpt><trkpt lat="43.6675101" lon="11.2965297"><ele>216.00000000000003</ele><time>2026-04-06T14:48:32.483Z</time></trkpt><trkpt lat="43.6675183" lon="11.2966205"><ele>214.0</ele><time>2026-04-06T14:48:33.487Z</time></trkpt><trkpt lat="43.6675272" lon="11.2967244"><ele>212.0</ele><time>2026-04-06T14:48:34.483Z</time></trkpt><trkpt lat="43.6675276" lon="11.2968117"><ele>210.0</ele><time>2026-04-06T14:48:35.483Z</time></trkpt><trkpt lat="43.667495" lon="11.2969688"><ele>208.00000000000003</ele><time>2026-04-06T14:48:37.482Z</time></trkpt><trkpt lat="43.6674596" lon="11.2970691"><ele>206.0</ele><time>2026-04-06T14:48:39.487Z</time></trkpt><trkpt lat="43.6674536" lon="11.2971728"><ele>205.60000000000002</ele><time>2026-04-06T14:48:41.491Z</time></trkpt><trkpt lat="43.6675255" lon="11.2973253"><ele>205.2</ele><time>2026-04-06T14:48:43.477Z</time></trkpt><trkpt lat="43.6675727" lon="11.2974761"><ele>204.8</ele><time>2026-04-06T14:48:45.476Z</time></trkpt><trkpt lat="43.6675862" lon="11.297586"><ele>204.39999999999998</ele><time>2026-04-06T14:48:46.483Z</time></trkpt><trkpt lat="43.667579" lon="11.2977241"><ele>204.0</ele><time>2026-04-06T14:48:47.486Z</time></trkpt><trkpt lat="43.6675728" lon="11.2978417"><ele>204.0</ele><time>2026-04-06T14:48:48.48Z</time></trkpt><trkpt lat="43.6675776" lon="11.297954"><ele>204.0</ele><time>2026-04-06T14:48:49.486Z</time></trkpt><trkpt lat="43.6675826" lon="11.2980541"><ele>204.0</ele><time>2026-04-06T14:48:50.489Z</time></trkpt><trkpt lat="43.6675768" lon="11.2981519"><ele>204.0</ele><time>2026-04-06T14:48:51.488Z</time></trkpt><trkpt lat="43.6675637" lon="11.2982453"><ele>204.0</ele><time>2026-04-06T14:48:52.485Z</time></trkpt><trkpt lat="43.6675215" lon="11.2983957"><ele>204.0</ele><time>2026-04-06T14:48:54.484Z</time></trkpt><trkpt lat="43.6675104" lon="11.2985383"><ele>203.33333333333334</ele><time>2026-04-06T14:48:56.482Z</time></trkpt><trkpt lat="43.6674594" lon="11.2986313"><ele>202.66666666666669</ele><time>2026-04-06T14:49:00.49Z</time></trkpt><trkpt lat="43.6674108" lon="11.2987023"><ele>202.0</ele><time>2026-04-06T14:49:04.497Z</time></trkpt><trkpt lat="43.6673494" lon="11.2987494"><ele>201.33333333333334</ele><time>2026-04-06T14:49:07.499Z</time></trkpt><trkpt lat="43.6672679" lon="11.2987245"><ele>200.66666666666669</ele><time>2026-04-06T14:49:10.499Z</time></trkpt><trkpt lat="43.6671992" lon="11.2986555"><ele>200.0</ele><time>2026-04-06T14:49:12.496Z</time></trkpt><trkpt lat="43.6671165" lon="11.2985983"><ele>200.00000000000003</ele><time>2026-04-06T14:49:14.496Z</time></trkpt><trkpt lat="43.667039" lon="11.2985468"><ele>200.0</ele><time>2026-04-06T14:49:16.496Z</time></trkpt><trkpt lat="43.6669665" lon="11.2984907"><ele>200.0</ele><time>2026-04-06T14:49:18.495Z</time></trkpt><trkpt lat="43.6668894" lon="11.2984612"><ele>200.0</ele><time>2026-04-06T14:49:20.494Z</time></trkpt><trkpt lat="43.6667966" lon="11.2984956"><ele>200.00000000000003</ele><time>2026-04-06T14:49:22.488Z</time></trkpt><trkpt lat="43.6667267" lon="11.2985308"><ele>200.0</ele><time>2026-04-06T14:49:24.492Z</time></trkpt><trkpt lat="43.6666457" lon="11.2985227"><ele>199.33333333333334</ele><time>2026-04-06T14:49:26.487Z</time></trkpt><trkpt lat="43.6665542" lon="11.2985489"><ele>198.66666666666669</ele><time>2026-04-06T14:49:28.494Z</time></trkpt><trkpt lat="43.6664769" lon="11.2985867"><ele>198.0</ele><time>2026-04-06T14:49:30.494Z</time></trkpt><trkpt lat="43.6663884" lon="11.2985949"><ele>197.33333333333331</ele><time>2026-04-06T14:49:32.484Z</time></trkpt><trkpt lat="43.6662885" lon="11.2985607"><ele>196.66666666666666</ele><time>2026-04-06T14:49:34.487Z</time></trkpt><trkpt lat="43.6662072" lon="11.2985474"><ele>196.0</ele><time>2026-04-06T14:49:36.492Z</time></trkpt><trkpt lat="43.6661371" lon="11.298591"><ele>195.66666666666666</ele><time>2026-04-06T14:49:38.488Z</time></trkpt><trkpt lat="43.6661008" lon="11.2986719"><ele>195.33333333333331</ele><time>2026-04-06T14:49:40.488Z</time></trkpt><trkpt lat="43.6660522" lon="11.2987361"><ele>195.0</ele><time>2026-04-06T14:54:38.497Z</time></trkpt><trkpt lat="43.6659788" lon="11.2987692"><ele>194.66666666666669</ele><time>2026-04-06T14:54:51.501Z</time></trkpt><trkpt lat="43.6659044" lon="11.2988435"><ele>194.33333333333334</ele><time>2026-04-06T14:54:54.497Z</time></trkpt><trkpt lat="43.6658409" lon="11.2988989"><ele>194.0</ele><time>2026-04-06T14:54:56.499Z</time></trkpt><trkpt lat="43.6657503" lon="11.2989171"><ele>192.2</ele><time>2026-04-06T14:54:58.495Z</time></trkpt><trkpt lat="43.6656606" lon="11.2989861"><ele>190.39999999999998</ele><time>2026-04-06T14:55:00.5Z</time></trkpt><trkpt lat="43.6655937" lon="11.2990982"><ele>188.6</ele><time>2026-04-06T14:55:02.486Z</time></trkpt><trkpt lat="43.6655485" lon="11.2992026"><ele>186.8</ele><time>2026-04-06T14:55:04.483Z</time></trkpt><trkpt lat="43.6655237" lon="11.2992952"><ele>185.0</ele><time>2026-04-06T14:55:06.498Z</time></trkpt><trkpt lat="43.665461" lon="11.2993967"><ele>185.0</ele><time>2026-04-06T14:55:08.494Z</time></trkpt><trkpt lat="43.6653514" lon="11.2994701"><ele>185.0</ele><time>2026-04-06T14:55:10.49Z</time></trkpt><trkpt lat="43.6652784" lon="11.2995629"><ele>185.0</ele><time>2026-04-06T14:55:12.484Z</time></trkpt><trkpt lat="43.6652321" lon="11.2996514"><ele>185.0</ele><time>2026-04-06T14:55:14.485Z</time></trkpt><trkpt lat="43.6651614" lon="11.2997165"><ele>185.0</ele><time>2026-04-06T14:55:16.483Z</time></trkpt><trkpt lat="43.6650767" lon="11.2997608"><ele>184.2</ele><time>2026-04-06T14:55:18.491Z</time></trkpt><trkpt lat="43.6649853" lon="11.2997581"><ele>183.4</ele><time>2026-04-06T14:55:20.482Z</time></trkpt><trkpt lat="43.6648908" lon="11.2997282"><ele>182.60000000000002</ele><time>2026-04-06T14:55:22.485Z</time></trkpt><trkpt lat="43.6647982" lon="11.2997515"><ele>181.8</ele><time>2026-04-06T14:55:24.478Z</time></trkpt><trkpt lat="43.6646783" lon="11.2998146"><ele>181.0</ele><time>2026-04-06T14:55:26.486Z</time></trkpt><trkpt lat="43.6645728" lon="11.2998455"><ele>181.0</ele><time>2026-04-06T14:55:28.488Z</time></trkpt><trkpt lat="43.6644956" lon="11.2998645"><ele>181.0</ele><time>2026-04-06T14:55:30.493Z</time></trkpt><trkpt lat="43.66441" lon="11.2998488"><ele>181.0</ele><time>2026-04-06T14:55:32.485Z</time></trkpt><trkpt lat="43.6643257" lon="11.2998284"><ele>181.0</ele><time>2026-04-06T14:55:34.477Z</time></trkpt><trkpt lat="43.6642548" lon="11.2997685"><ele>181.0</ele><time>2026-04-06T14:55:36.479Z</time></trkpt><trkpt lat="43.6641897" lon="11.2997122"><ele>181.0</ele><time>2026-04-06T14:55:38.481Z</time></trkpt><trkpt lat="43.6641294" lon="11.2996399"><ele>185.4</ele><time>2026-04-06T14:55:40.484Z</time></trkpt><trkpt lat="43.6640463" lon="11.2995447"><ele>189.8</ele><time>2026-04-06T14:55:42.485Z</time></trkpt><trkpt lat="43.6639827" lon="11.2995223"><ele>194.20000000000002</ele><time>2026-04-06T14:55:43.48Z</time></trkpt><trkpt lat="43.6638687" lon="11.2995154"><ele>198.60000000000002</ele><time>2026-04-06T14:55:45.473Z</time></trkpt><trkpt lat="43.6637777" lon="11.299513"><ele>203.0</ele><time>2026-04-06T14:55:47.478Z</time></trkpt><trkpt lat="43.66369" lon="11.2995009"><ele>202.60000000000002</ele><time>2026-04-06T14:55:49.481Z</time></trkpt><trkpt lat="43.6636113" lon="11.2994315"><ele>202.20000000000002</ele><time>2026-04-06T14:55:52.486Z</time></trkpt><trkpt lat="43.6635443" lon="11.2993331"><ele>201.8</ele><time>2026-04-06T14:55:54.474Z</time></trkpt><trkpt lat="43.663469" lon="11.2991909"><ele>201.4</ele><time>2026-04-06T14:55:56.483Z</time></trkpt><trkpt lat="43.6634143" lon="11.2990963"><ele>201.0</ele><time>2026-04-06T14:55:57.466Z</time></trkpt><trkpt lat="43.6633455" lon="11.2989872"><ele>203.0</ele><time>2026-04-06T14:55:58.469Z</time></trkpt><trkpt lat="43.6632806" lon="11.2988738"><ele>205.0</ele><time>2026-04-06T14:55:59.48Z</time></trkpt><trkpt lat="43.6632218" lon="11.2987538"><ele>207.0</ele><time>2026-04-06T14:56:00.467Z</time></trkpt><trkpt lat="43.6631697" lon="11.29864"><ele>209.0</ele><time>2026-04-06T14:56:01.465Z</time></trkpt><trkpt lat="43.6631252" lon="11.2985346"><ele>211.0</ele><time>2026-04-06T14:56:02.469Z</time></trkpt><trkpt lat="43.6630824" lon="11.2984398"><ele>210.99999999999997</ele><time>2026-04-06T14:56:03.469Z</time></trkpt><trkpt lat="43.6630407" lon="11.2983498"><ele>211.0</ele><time>2026-04-06T14:56:04.469Z</time></trkpt><trkpt lat="43.6630007" lon="11.298263"><ele>211.0</ele><time>2026-04-06T14:56:05.47Z</time></trkpt><trkpt lat="43.6629602" lon="11.2981764"><ele>211.0</ele><time>2026-04-06T14:56:06.468Z</time></trkpt><trkpt lat="43.6629215" lon="11.2980961"><ele>210.99999999999997</ele><time>2026-04-06T14:56:07.476Z</time></trkpt><trkpt lat="43.6628798" lon="11.2980164"><ele>211.0</ele><time>2026-04-06T14:56:08.474Z</time></trkpt><trkpt lat="43.6628186" lon="11.297925"><ele>211.8</ele><time>2026-04-06T14:56:09.468Z</time></trkpt><trkpt lat="43.662753" lon="11.2978201"><ele>212.60000000000002</ele><time>2026-04-06T14:56:10.476Z</time></trkpt><trkpt lat="43.6626967" lon="11.2977143"><ele>213.4</ele><time>2026-04-06T14:56:11.469Z</time></trkpt><trkpt lat="43.6626351" lon="11.2976051"><ele>214.2</ele><time>2026-04-06T14:56:12.47Z</time></trkpt><trkpt lat="43.662576" lon="11.2974956"><ele>215.0</ele><time>2026-04-06T14:56:13.474Z</time></trkpt><trkpt lat="43.6625261" lon="11.297417"><ele>215.00000000000003</ele><time>2026-04-06T14:56:14.467Z</time></trkpt><trkpt lat="43.6624713" lon="11.2973559"><ele>215.0</ele><time>2026-04-06T14:56:15.481Z</time></trkpt><trkpt lat="43.6623979" lon="11.2972929"><ele>215.0</ele><time>2026-04-06T14:56:16.47Z</time></trkpt><trkpt lat="43.6623104" lon="11.2972429"><ele>215.0</ele><time>2026-04-06T14:56:17.482Z</time></trkpt><trkpt lat="43.6622228" lon="11.2972075"><ele>215.00000000000003</ele><time>2026-04-06T14:56:18.47Z</time></trkpt><trkpt lat="43.6621215" lon="11.2971772"><ele>215.0</ele><time>2026-04-06T14:56:19.477Z</time></trkpt><trkpt lat="43.6620135" lon="11.2971598"><ele>216.25</ele><time>2026-04-06T14:56:20.474Z</time></trkpt><trkpt lat="43.6619056" lon="11.297145"><ele>217.5</ele><time>2026-04-06T14:56:21.481Z</time></trkpt><trkpt lat="43.6617947" lon="11.2971282"><ele>218.75</ele><time>2026-04-06T14:56:22.478Z</time></trkpt><trkpt lat="43.6616812" lon="11.297095"><ele>220.0</ele><time>2026-04-06T14:56:23.485Z</time></trkpt><trkpt lat="43.6615629" lon="11.2970559"><ele>220.0</ele><time>2026-04-06T14:56:24.483Z</time></trkpt><trkpt lat="43.6614578" lon="11.297022"><ele>220.0</ele><time>2026-04-06T14:56:25.479Z</time></trkpt><trkpt lat="43.6613716" lon="11.2969934"><ele>220.0</ele><time>2026-04-06T14:56:26.484Z</time></trkpt><trkpt lat="43.6612989" lon="11.2969619"><ele>220.0</ele><time>2026-04-06T14:56:27.485Z</time></trkpt><trkpt lat="43.6611731" lon="11.2969175"><ele>220.0</ele><time>2026-04-06T14:56:29.485Z</time></trkpt><trkpt lat="43.6611002" lon="11.2969103"><ele>221.83333333333331</ele><time>2026-04-06T14:56:30.492Z</time></trkpt><trkpt lat="43.6610136" lon="11.2969039"><ele>223.66666666666666</ele><time>2026-04-06T14:56:31.488Z</time></trkpt><trkpt lat="43.6609283" lon="11.2969002"><ele>225.5</ele><time>2026-04-06T14:56:32.484Z</time></trkpt><trkpt lat="43.6608304" lon="11.2968867"><ele>227.33333333333331</ele><time>2026-04-06T14:56:33.486Z</time></trkpt><trkpt lat="43.6607481" lon="11.2968654"><ele>229.16666666666666</ele><time>2026-04-06T14:56:34.476Z</time></trkpt><trkpt lat="43.6606829" lon="11.296859"><ele>231.0</ele><time>2026-04-06T14:56:35.488Z</time></trkpt><trkpt lat="43.6605619" lon="11.2968794"><ele>231.0</ele><time>2026-04-06T14:56:37.49Z</time></trkpt><trkpt lat="43.660494" lon="11.2969053"><ele>231.0</ele><time>2026-04-06T14:56:38.488Z</time></trkpt><trkpt lat="43.6604223" lon="11.2969384"><ele>231.0</ele><time>2026-04-06T14:56:39.497Z</time></trkpt><trkpt lat="43.6603511" lon="11.2969784"><ele>231.0</ele><time>2026-04-06T14:56:40.494Z</time></trkpt><trkpt lat="43.6602876" lon="11.2970214"><ele>231.0</ele><time>2026-04-06T14:56:41.496Z</time></trkpt><trkpt lat="43.6602202" lon="11.2970592"><ele>231.0</ele><time>2026-04-06T14:56:42.485Z</time></trkpt><trkpt lat="43.6601139" lon="11.2971281"><ele>233.4</ele><time>2026-04-06T14:56:44.487Z</time></trkpt><trkpt lat="43.6600564" lon="11.2971767"><ele>235.8</ele><time>2026-04-06T14:56:47.489Z</time></trkpt><trkpt lat="43.6600143" lon="11.2970999"><ele>238.20000000000002</ele><time>2026-04-06T14:57:15.491Z</time></trkpt><trkpt lat="43.6599639" lon="11.2969365"><ele>240.60000000000002</ele><time>2026-04-06T14:57:17.487Z</time></trkpt><trkpt lat="43.6599281" lon="11.2968544"><ele>243.0</ele><time>2026-04-06T14:57:18.495Z</time></trkpt><trkpt lat="43.6598644" lon="11.2967123"><ele>243.0</ele><time>2026-04-06T14:57:20.488Z</time></trkpt><trkpt lat="43.6598174" lon="11.296566"><ele>243.0</ele><time>2026-04-06T14:57:22.48Z</time></trkpt><trkpt lat="43.6597843" lon="11.2964024"><ele>243.0</ele><time>2026-04-06T14:57:24.485Z</time></trkpt><trkpt lat="43.6597698" lon="11.296316"><ele>243.0</ele><time>2026-04-06T14:57:31.49Z</time></trkpt><trkpt lat="43.6598062" lon="11.2962438"><ele>243.0</ele><time>2026-04-06T14:57:35.486Z</time></trkpt><trkpt lat="43.659881" lon="11.2961925"><ele>242.66666666666666</ele><time>2026-04-06T14:57:37.485Z</time></trkpt><trkpt lat="43.6599387" lon="11.2961146"><ele>242.33333333333331</ele><time>2026-04-06T14:57:38.48Z</time></trkpt><trkpt lat="43.6600015" lon="11.2960352"><ele>242.0</ele><time>2026-04-06T14:57:39.482Z</time></trkpt><trkpt lat="43.6600637" lon="11.2959658"><ele>241.66666666666666</ele><time>2026-04-06T14:57:40.482Z</time></trkpt><trkpt lat="43.6601161" lon="11.2958903"><ele>241.33333333333331</ele><time>2026-04-06T14:57:41.482Z</time></trkpt><trkpt lat="43.6601739" lon="11.2958338"><ele>241.0</ele><time>2026-04-06T14:57:42.481Z</time></trkpt><trkpt lat="43.6602353" lon="11.2957677"><ele>241.16666666666666</ele><time>2026-04-06T14:57:43.481Z</time></trkpt><trkpt lat="43.6603076" lon="11.2956994"><ele>241.33333333333331</ele><time>2026-04-06T14:57:44.489Z</time></trkpt><trkpt lat="43.6603695" lon="11.2956393"><ele>241.5</ele><time>2026-04-06T14:57:45.482Z</time></trkpt><trkpt lat="43.6604356" lon="11.2955977"><ele>241.66666666666669</ele><time>2026-04-06T14:57:46.484Z</time></trkpt><trkpt lat="43.6604944" lon="11.2955479"><ele>241.83333333333334</ele><time>2026-04-06T14:57:47.474Z</time></trkpt><trkpt lat="43.6605473" lon="11.2954006"><ele>242.0</ele><time>2026-04-06T14:57:49.478Z</time></trkpt><trkpt lat="43.6605283" lon="11.2953155"><ele>242.0</ele><time>2026-04-06T14:57:50.479Z</time></trkpt><trkpt lat="43.6604779" lon="11.2952404"><ele>241.99999999999997</ele><time>2026-04-06T14:57:51.485Z</time></trkpt><trkpt lat="43.6604173" lon="11.2951927"><ele>242.0</ele><time>2026-04-06T14:57:52.493Z</time></trkpt><trkpt lat="43.6603631" lon="11.2951454"><ele>242.0</ele><time>2026-04-06T14:57:53.478Z</time></trkpt><trkpt lat="43.6603164" lon="11.2950758"><ele>241.99999999999997</ele><time>2026-04-06T14:57:54.476Z</time></trkpt><trkpt lat="43.6602802" lon="11.2949906"><ele>242.0</ele><time>2026-04-06T14:57:55.48Z</time></trkpt><trkpt lat="43.6602401" lon="11.2948929"><ele>242.0</ele><time>2026-04-06T14:57:56.484Z</time></trkpt><trkpt lat="43.6601838" lon="11.2948"><ele>241.0</ele><time>2026-04-06T14:57:57.478Z</time></trkpt><trkpt lat="43.6601346" lon="11.2947016"><ele>240.0</ele><time>2026-04-06T14:57:58.477Z</time></trkpt><trkpt lat="43.6600934" lon="11.2945936"><ele>239.0</ele><time>2026-04-06T14:57:59.481Z</time></trkpt><trkpt lat="43.6600305" lon="11.2944719"><ele>238.0</ele><time>2026-04-06T14:58:00.481Z</time></trkpt><trkpt lat="43.6599558" lon="11.2943615"><ele>237.0</ele><time>2026-04-06T14:58:01.473Z</time></trkpt><trkpt lat="43.6598794" lon="11.2942621"><ele>237.0</ele><time>2026-04-06T14:58:02.492Z</time></trkpt><trkpt lat="43.6598042" lon="11.2941677"><ele>237.0</ele><time>2026-04-06T14:58:03.483Z</time></trkpt><trkpt lat="43.6597235" lon="11.2940731"><ele>237.0</ele><time>2026-04-06T14:58:04.476Z</time></trkpt><trkpt lat="43.6596476" lon="11.2939699"><ele>237.0</ele><time>2026-04-06T14:58:05.479Z</time></trkpt><trkpt lat="43.659582" lon="11.2938603"><ele>237.0</ele><time>2026-04-06T14:58:06.478Z</time></trkpt><trkpt lat="43.6595329" lon="11.29377"><ele>235.66666666666666</ele><time>2026-04-06T14:58:07.475Z</time></trkpt><trkpt lat="43.6594888" lon="11.293666"><ele>234.33333333333331</ele><time>2026-04-06T14:58:09.478Z</time></trkpt><trkpt lat="43.6594413" lon="11.2935348"><ele>233.0</ele><time>2026-04-06T14:58:23.499Z</time></trkpt><trkpt lat="43.6593994" lon="11.2934605"><ele>231.66666666666666</ele><time>2026-04-06T14:58:24.492Z</time></trkpt><trkpt lat="43.6593456" lon="11.2934114"><ele>230.33333333333331</ele><time>2026-04-06T14:58:25.485Z</time></trkpt><trkpt lat="43.6592863" lon="11.2933771"><ele>229.0</ele><time>2026-04-06T14:58:26.492Z</time></trkpt><trkpt lat="43.6591668" lon="11.2933544"><ele>228.49999999999997</ele><time>2026-04-06T14:58:28.492Z</time></trkpt><trkpt lat="43.6591031" lon="11.2933343"><ele>228.0</ele><time>2026-04-06T14:58:29.486Z</time></trkpt><trkpt lat="43.6589932" lon="11.2932671"><ele>227.5</ele><time>2026-04-06T14:58:31.493Z</time></trkpt><trkpt lat="43.6589294" lon="11.2932396"><ele>227.0</ele><time>2026-04-06T14:58:32.503Z</time></trkpt><trkpt lat="43.658855" lon="11.2932419"><ele>226.49999999999997</ele><time>2026-04-06T14:58:33.484Z</time></trkpt><trkpt lat="43.6587814" lon="11.2932741"><ele>226.0</ele><time>2026-04-06T14:58:34.493Z</time></trkpt><trkpt lat="43.6587051" lon="11.2932923"><ele>225.99999999999997</ele><time>2026-04-06T14:58:35.495Z</time></trkpt><trkpt lat="43.6586213" lon="11.2932751"><ele>226.0</ele><time>2026-04-06T14:58:36.5Z</time></trkpt><trkpt lat="43.6585342" lon="11.2932479"><ele>226.0</ele><time>2026-04-06T14:58:37.492Z</time></trkpt><trkpt lat="43.658453" lon="11.2932224"><ele>226.0</ele><time>2026-04-06T14:58:38.506Z</time></trkpt><trkpt lat="43.6583731" lon="11.2932085"><ele>225.99999999999997</ele><time>2026-04-06T14:58:39.492Z</time></trkpt><trkpt lat="43.6582939" lon="11.293197"><ele>226.0</ele><time>2026-04-06T14:58:40.495Z</time></trkpt><trkpt lat="43.6582172" lon="11.2931773"><ele>226.83333333333331</ele><time>2026-04-06T14:58:41.499Z</time></trkpt><trkpt lat="43.6581427" lon="11.2931583"><ele>227.66666666666666</ele><time>2026-04-06T14:58:42.499Z</time></trkpt><trkpt lat="43.6580739" lon="11.2931428"><ele>228.5</ele><time>2026-04-06T14:58:43.486Z</time></trkpt><trkpt lat="43.6580102" lon="11.293135"><ele>229.33333333333331</ele><time>2026-04-06T14:58:44.491Z</time></trkpt><trkpt lat="43.6578927" lon="11.2931443"><ele>230.16666666666666</ele><time>2026-04-06T14:58:46.484Z</time></trkpt><trkpt lat="43.6577853" lon="11.2931319"><ele>231.0</ele><time>2026-04-06T14:58:48.492Z</time></trkpt><trkpt lat="43.6576605" lon="11.2931564"><ele>231.16666666666666</ele><time>2026-04-06T14:58:50.487Z</time></trkpt><trkpt lat="43.6575677" lon="11.2931587"><ele>231.33333333333331</ele><time>2026-04-06T14:58:52.492Z</time></trkpt><trkpt lat="43.6574782" lon="11.293183"><ele>231.5</ele><time>2026-04-06T14:58:54.51Z</time></trkpt><trkpt lat="43.6574025" lon="11.2931953"><ele>231.66666666666666</ele><time>2026-04-06T14:58:56.506Z</time></trkpt><trkpt lat="43.6573052" lon="11.2931725"><ele>231.83333333333331</ele><time>2026-04-06T14:58:58.495Z</time></trkpt><trkpt lat="43.6572633" lon="11.2930922"><ele>232.0</ele><time>2026-04-06T14:59:00.511Z</time></trkpt><trkpt lat="43.6572666" lon="11.2929803"><ele>231.99999999999997</ele><time>2026-04-06T14:59:02.507Z</time></trkpt><trkpt lat="43.6571921" lon="11.2930436"><ele>232.0</ele><time>2026-04-06T14:59:20.432Z</time></trkpt><trkpt lat="43.6571265" lon="11.2931474"><ele>232.0</ele><time>2026-04-06T14:59:22.506Z</time></trkpt><trkpt lat="43.6570672" lon="11.2932296"><ele>232.0</ele><time>2026-04-06T14:59:24.509Z</time></trkpt><trkpt lat="43.6570247" lon="11.2932965"><ele>231.99999999999997</ele><time>2026-04-06T14:59:26.503Z</time></trkpt><trkpt lat="43.6569607" lon="11.2933626"><ele>232.0</ele><time>2026-04-06T14:59:29.506Z</time></trkpt><trkpt lat="43.6569083" lon="11.293423"><ele>228.99999999999997</ele><time>2026-04-06T14:59:36.507Z</time></trkpt><trkpt lat="43.6568763" lon="11.293313"><ele>226.0</ele><time>2026-04-06T14:59:40.504Z</time></trkpt><trkpt lat="43.6568677" lon="11.2932082"><ele>223.0</ele><time>2026-04-06T14:59:42.505Z</time></trkpt><trkpt lat="43.6568417" lon="11.2930804"><ele>220.0</ele><time>2026-04-06T14:59:44.415Z</time></trkpt><trkpt lat="43.6567832" lon="11.2930294"><ele>216.99999999999997</ele><time>2026-04-06T14:59:45.499Z</time></trkpt><trkpt lat="43.6567681" lon="11.2929163"><ele>214.0</ele><time>2026-04-06T14:59:47.501Z</time></trkpt><trkpt lat="43.6567481" lon="11.2927891"><ele>213.79999999999998</ele><time>2026-04-06T14:59:49.498Z</time></trkpt><trkpt lat="43.656721" lon="11.292669"><ele>213.59999999999997</ele><time>2026-04-06T14:59:51.493Z</time></trkpt><trkpt lat="43.6566833" lon="11.2925617"><ele>213.4</ele><time>2026-04-06T14:59:53.505Z</time></trkpt><trkpt lat="43.6566296" lon="11.292436"><ele>213.2</ele><time>2026-04-06T14:59:55.494Z</time></trkpt><trkpt lat="43.6565714" lon="11.2923157"><ele>213.0</ele><time>2026-04-06T14:59:57.489Z</time></trkpt><trkpt lat="43.6565155" lon="11.2922033"><ele>212.83333333333334</ele><time>2026-04-06T14:59:59.486Z</time></trkpt><trkpt lat="43.6564661" lon="11.2921089"><ele>212.66666666666669</ele><time>2026-04-06T15:00:01.49Z</time></trkpt><trkpt lat="43.6564238" lon="11.2920407"><ele>212.5</ele><time>2026-04-06T15:00:03.489Z</time></trkpt><trkpt lat="43.6563645" lon="11.2919824"><ele>212.33333333333334</ele><time>2026-04-06T15:00:05.49Z</time></trkpt><trkpt lat="43.6562948" lon="11.2918964"><ele>212.16666666666669</ele><time>2026-04-06T15:00:07.487Z</time></trkpt><trkpt lat="43.6562303" lon="11.2918009"><ele>212.0</ele><time>2026-04-06T15:00:09.477Z</time></trkpt><trkpt lat="43.6561779" lon="11.2916902"><ele>212.00000000000003</ele><time>2026-04-06T15:00:11.485Z</time></trkpt><trkpt lat="43.6561341" lon="11.2915718"><ele>212.0</ele><time>2026-04-06T15:00:13.485Z</time></trkpt><trkpt lat="43.6560925" lon="11.2914393"><ele>212.0</ele><time>2026-04-06T15:00:15.481Z</time></trkpt><trkpt lat="43.6560469" lon="11.2913115"><ele>212.0</ele><time>2026-04-06T15:00:17.481Z</time></trkpt><trkpt lat="43.65602" lon="11.2912212"><ele>212.00000000000003</ele><time>2026-04-06T15:00:19.493Z</time></trkpt><trkpt lat="43.6559674" lon="11.2911499"><ele>212.0</ele><time>2026-04-06T15:00:21.486Z</time></trkpt><trkpt lat="43.6559049" lon="11.2911194"><ele>208.66666666666669</ele><time>2026-04-06T15:00:23.486Z</time></trkpt><trkpt lat="43.655867" lon="11.291207"><ele>205.33333333333334</ele><time>2026-04-06T15:00:26.488Z</time></trkpt><trkpt lat="43.6558528" lon="11.2912999"><ele>202.0</ele><time>2026-04-06T15:00:28.479Z</time></trkpt><trkpt lat="43.6558085" lon="11.2913979"><ele>198.66666666666669</ele><time>2026-04-06T15:00:30.487Z</time></trkpt><trkpt lat="43.6557546" lon="11.2914746"><ele>195.33333333333334</ele><time>2026-04-06T15:00:32.483Z</time></trkpt><trkpt lat="43.6556786" lon="11.2916087"><ele>192.0</ele><time>2026-04-06T15:00:34.477Z</time></trkpt><trkpt lat="43.6556143" lon="11.2917391"><ele>192.0</ele><time>2026-04-06T15:00:36.483Z</time></trkpt><trkpt lat="43.6555509" lon="11.291868"><ele>192.0</ele><time>2026-04-06T15:00:38.486Z</time></trkpt><trkpt lat="43.6555147" lon="11.2919662"><ele>192.0</ele><time>2026-04-06T15:00:40.493Z</time></trkpt><trkpt lat="43.6554424" lon="11.2919999"><ele>192.0</ele><time>2026-04-06T15:00:43.488Z</time></trkpt><trkpt lat="43.6553813" lon="11.2919309"><ele>192.0</ele><time>2026-04-06T15:00:45.476Z</time></trkpt><trkpt lat="43.6553272" lon="11.291803"><ele>192.0</ele><time>2026-04-06T15:00:47.478Z</time></trkpt><trkpt lat="43.6552993" lon="11.2917143"><ele>192.0</ele><time>2026-04-06T15:00:48.474Z</time></trkpt><trkpt lat="43.6552374" lon="11.2915776"><ele>192.0</ele><time>2026-04-06T15:00:50.479Z</time></trkpt><trkpt lat="43.655192" lon="11.2914307"><ele>192.0</ele><time>2026-04-06T15:00:52.483Z</time></trkpt><trkpt lat="43.6551661" lon="11.2913297"><ele>192.0</ele><time>2026-04-06T15:00:53.484Z</time></trkpt><trkpt lat="43.6551453" lon="11.2911958"><ele>189.39999999999998</ele><time>2026-04-06T15:00:54.475Z</time></trkpt><trkpt lat="43.6551297" lon="11.2910464"><ele>186.79999999999998</ele><time>2026-04-06T15:00:55.484Z</time></trkpt><trkpt lat="43.6551221" lon="11.2909095"><ele>184.2</ele><time>2026-04-06T15:00:56.476Z</time></trkpt><trkpt lat="43.6551189" lon="11.290791"><ele>181.6</ele><time>2026-04-06T15:00:57.466Z</time></trkpt><trkpt lat="43.6551232" lon="11.290697"><ele>179.0</ele><time>2026-04-06T15:00:58.478Z</time></trkpt><trkpt lat="43.6551368" lon="11.2905473"><ele>178.66666666666666</ele><time>2026-04-06T15:01:00.478Z</time></trkpt><trkpt lat="43.6550945" lon="11.2904341"><ele>178.33333333333331</ele><time>2026-04-06T15:01:02.486Z</time></trkpt><trkpt lat="43.6550348" lon="11.2903725"><ele>178.0</ele><time>2026-04-06T15:01:04.486Z</time></trkpt><trkpt lat="43.6549825" lon="11.2903238"><ele>177.66666666666666</ele><time>2026-04-06T15:01:08.497Z</time></trkpt><trkpt lat="43.6549052" lon="11.2902888"><ele>177.33333333333334</ele><time>2026-04-06T15:05:57.506Z</time></trkpt><trkpt lat="43.654817" lon="11.2902149"><ele>177.0</ele><time>2026-04-06T15:06:00.501Z</time></trkpt><trkpt lat="43.6547377" lon="11.2901348"><ele>177.0</ele><time>2026-04-06T15:06:02.499Z</time></trkpt><trkpt lat="43.6546589" lon="11.2900691"><ele>177.0</ele><time>2026-04-06T15:06:04.502Z</time></trkpt><trkpt lat="43.6545603" lon="11.2900033"><ele>177.0</ele><time>2026-04-06T15:06:06.491Z</time></trkpt><trkpt lat="43.6544768" lon="11.2899438"><ele>177.0</ele><time>2026-04-06T15:06:08.493Z</time></trkpt><trkpt lat="43.6544092" lon="11.289889"><ele>177.0</ele><time>2026-04-06T15:06:10.497Z</time></trkpt><trkpt lat="43.6543648" lon="11.2898121"><ele>177.0</ele><time>2026-04-06T15:06:12.498Z</time></trkpt><trkpt lat="43.6543389" lon="11.2897216"><ele>178.0</ele><time>2026-04-06T15:06:14.501Z</time></trkpt><trkpt lat="43.6543119" lon="11.2896143"><ele>179.0</ele><time>2026-04-06T15:06:16.501Z</time></trkpt><trkpt lat="43.6542723" lon="11.2894936"><ele>180.0</ele><time>2026-04-06T15:06:18.492Z</time></trkpt><trkpt lat="43.6542378" lon="11.2893823"><ele>181.0</ele><time>2026-04-06T15:06:20.499Z</time></trkpt><trkpt lat="43.6542076" lon="11.2892666"><ele>182.0</ele><time>2026-04-06T15:06:22.501Z</time></trkpt><trkpt lat="43.6541784" lon="11.2891591"><ele>183.0</ele><time>2026-04-06T15:06:24.501Z</time></trkpt><trkpt lat="43.654185" lon="11.2890542"><ele>183.0</ele><time>2026-04-06T15:06:27.496Z</time></trkpt><trkpt lat="43.6541738" lon="11.2889645"><ele>183.0</ele><time>2026-04-06T15:06:30.509Z</time></trkpt><trkpt lat="43.6541579" lon="11.2888527"><ele>183.0</ele><time>2026-04-06T15:06:34.499Z</time></trkpt><trkpt lat="43.6541474" lon="11.2887515"><ele>183.0</ele><time>2026-04-06T15:06:37.496Z</time></trkpt><trkpt lat="43.6541409" lon="11.2886596"><ele>183.0</ele><time>2026-04-06T15:06:40.5Z</time></trkpt><trkpt lat="43.6541493" lon="11.2887661"><ele>183.0</ele><time>2026-04-06T15:07:52.498Z</time></trkpt><trkpt lat="43.6541581" lon="11.2889026"><ele>183.0</ele><time>2026-04-06T15:07:54.504Z</time></trkpt><trkpt lat="43.6541769" lon="11.2890204"><ele>183.0</ele><time>2026-04-06T15:07:56.501Z</time></trkpt><trkpt lat="43.6541838" lon="11.2891089"><ele>183.0</ele><time>2026-04-06T15:07:58.502Z</time></trkpt><trkpt lat="43.6542" lon="11.2892205"><ele>183.0</ele><time>2026-04-06T15:08:00.504Z</time></trkpt><trkpt lat="43.6542333" lon="11.2893368"><ele>183.0</ele><time>2026-04-06T15:08:02.503Z</time></trkpt><trkpt lat="43.6542734" lon="11.2894433"><ele>183.0</ele><time>2026-04-06T15:08:04.496Z</time></trkpt><trkpt lat="43.6542999" lon="11.2895575"><ele>183.0</ele><time>2026-04-06T15:08:06.502Z</time></trkpt><trkpt lat="43.6543263" lon="11.2896582"><ele>183.0</ele><time>2026-04-06T15:08:08.498Z</time></trkpt><trkpt lat="43.6543711" lon="11.2897486"><ele>183.0</ele><time>2026-04-06T15:08:10.497Z</time></trkpt><trkpt lat="43.654391" lon="11.2898389"><ele>183.0</ele><time>2026-04-06T15:08:13.5Z</time></trkpt><trkpt lat="43.654443" lon="11.289901"><ele>183.0</ele><time>2026-04-06T15:08:27.497Z</time></trkpt><trkpt lat="43.6545121" lon="11.2899635"><ele>183.0</ele><time>2026-04-06T15:08:29.499Z</time></trkpt><trkpt lat="43.6545941" lon="11.2900142"><ele>182.0</ele><time>2026-04-06T15:08:31.501Z</time></trkpt><trkpt lat="43.6546625" lon="11.2900725"><ele>181.0</ele><time>2026-04-06T15:08:33.495Z</time></trkpt><trkpt lat="43.6547384" lon="11.2901382"><ele>180.0</ele><time>2026-04-06T15:08:36.496Z</time></trkpt><trkpt lat="43.6548008" lon="11.2902154"><ele>179.0</ele><time>2026-04-06T15:08:39.499Z</time></trkpt><trkpt lat="43.6548782" lon="11.2902671"><ele>178.0</ele><time>2026-04-06T15:08:41.497Z</time></trkpt><trkpt lat="43.6549561" lon="11.2903267"><ele>177.0</ele><time>2026-04-06T15:08:43.501Z</time></trkpt><trkpt lat="43.6550351" lon="11.2904019"><ele>177.0</ele><time>2026-04-06T15:08:45.498Z</time></trkpt><trkpt lat="43.6550965" lon="11.2904675"><ele>177.0</ele><time>2026-04-06T15:08:47.5Z</time></trkpt><trkpt lat="43.6551307" lon="11.2905466"><ele>177.0</ele><time>2026-04-06T15:08:49.501Z</time></trkpt><trkpt lat="43.655134" lon="11.2906994"><ele>177.0</ele><time>2026-04-06T15:08:52.497Z</time></trkpt><trkpt lat="43.6551251" lon="11.2908169"><ele>177.0</ele><time>2026-04-06T15:08:54.495Z</time></trkpt><trkpt lat="43.6551159" lon="11.2909604"><ele>177.0</ele><time>2026-04-06T15:08:56.498Z</time></trkpt><trkpt lat="43.655129" lon="11.291085"><ele>177.39999999999998</ele><time>2026-04-06T15:08:58.49Z</time></trkpt><trkpt lat="43.6551373" lon="11.2911975"><ele>177.79999999999998</ele><time>2026-04-06T15:09:00.496Z</time></trkpt><trkpt lat="43.65516" lon="11.2913296"><ele>178.2</ele><time>2026-04-06T15:09:02.496Z</time></trkpt><trkpt lat="43.6551888" lon="11.2914447"><ele>178.6</ele><time>2026-04-06T15:09:04.502Z</time></trkpt><trkpt lat="43.6552439" lon="11.2915885"><ele>179.0</ele><time>2026-04-06T15:09:06.494Z</time></trkpt><trkpt lat="43.6552847" lon="11.2917244"><ele>181.6</ele><time>2026-04-06T15:09:08.494Z</time></trkpt><trkpt lat="43.6553376" lon="11.2918646"><ele>184.2</ele><time>2026-04-06T15:09:10.493Z</time></trkpt><trkpt lat="43.6554048" lon="11.2919786"><ele>186.79999999999998</ele><time>2026-04-06T15:09:12.486Z</time></trkpt><trkpt lat="43.6554607" lon="11.29203"><ele>189.39999999999998</ele><time>2026-04-06T15:09:14.501Z</time></trkpt><trkpt lat="43.6555369" lon="11.2919541"><ele>192.0</ele><time>2026-04-06T15:09:17.499Z</time></trkpt><trkpt lat="43.6555805" lon="11.2918255"><ele>192.0</ele><time>2026-04-06T15:09:19.5Z</time></trkpt><trkpt lat="43.6556282" lon="11.2917127"><ele>192.0</ele><time>2026-04-06T15:09:21.505Z</time></trkpt><trkpt lat="43.6556703" lon="11.2916096"><ele>192.0</ele><time>2026-04-06T15:09:23.5Z</time></trkpt><trkpt lat="43.6557062" lon="11.2915004"><ele>192.0</ele><time>2026-04-06T15:09:25.494Z</time></trkpt><trkpt lat="43.6557637" lon="11.2914028"><ele>192.0</ele><time>2026-04-06T15:09:27.501Z</time></trkpt><trkpt lat="43.6558101" lon="11.2913034"><ele>192.0</ele><time>2026-04-06T15:09:29.505Z</time></trkpt><trkpt lat="43.6558626" lon="11.2912088"><ele>191.5</ele><time>2026-04-06T15:09:31.501Z</time></trkpt><trkpt lat="43.6559404" lon="11.2911334"><ele>191.0</ele><time>2026-04-06T15:09:34.501Z</time></trkpt><trkpt lat="43.6560013" lon="11.2911689"><ele>190.5</ele><time>2026-04-06T15:09:37.497Z</time></trkpt><trkpt lat="43.6560239" lon="11.2912572"><ele>190.0</ele><time>2026-04-06T15:09:39.499Z</time></trkpt><trkpt lat="43.6560699" lon="11.291367"><ele>189.5</ele><time>2026-04-06T15:09:41.5Z</time></trkpt><trkpt lat="43.6561271" lon="11.2914801"><ele>189.0</ele><time>2026-04-06T15:09:43.495Z</time></trkpt><trkpt lat="43.656168" lon="11.291602"><ele>192.83333333333334</ele><time>2026-04-06T15:09:45.5Z</time></trkpt><trkpt lat="43.6561941" lon="11.2917191"><ele>196.66666666666669</ele><time>2026-04-06T15:09:47.493Z</time></trkpt><trkpt lat="43.6562502" lon="11.2918457"><ele>200.5</ele><time>2026-04-06T15:09:49.492Z</time></trkpt><trkpt lat="43.6563076" lon="11.2919468"><ele>204.33333333333334</ele><time>2026-04-06T15:09:51.491Z</time></trkpt><trkpt lat="43.65636" lon="11.2920402"><ele>208.16666666666669</ele><time>2026-04-06T15:09:53.498Z</time></trkpt><trkpt lat="43.656414" lon="11.2920895"><ele>212.0</ele><time>2026-04-06T15:09:55.487Z</time></trkpt><trkpt lat="43.6564847" lon="11.292044"><ele>212.00000000000003</ele><time>2026-04-06T15:09:57.494Z</time></trkpt><trkpt lat="43.6565229" lon="11.2919509"><ele>212.0</ele><time>2026-04-06T15:09:59.499Z</time></trkpt><trkpt lat="43.6565706" lon="11.2918495"><ele>212.0</ele><time>2026-04-06T15:10:01.498Z</time></trkpt><trkpt lat="43.6566304" lon="11.2917963"><ele>212.0</ele><time>2026-04-06T15:10:03.5Z</time></trkpt><trkpt lat="43.6567" lon="11.2917941"><ele>212.00000000000003</ele><time>2026-04-06T15:10:05.491Z</time></trkpt><trkpt lat="43.6567665" lon="11.2918319"><ele>212.0</ele><time>2026-04-06T15:10:07.497Z</time></trkpt><trkpt lat="43.6568343" lon="11.2919137"><ele>212.0</ele><time>2026-04-06T15:10:09.501Z</time></trkpt><trkpt lat="43.6569143" lon="11.2919876"><ele>212.0</ele><time>2026-04-06T15:10:11.488Z</time></trkpt><trkpt lat="43.6569942" lon="11.2920403"><ele>212.0</ele><time>2026-04-06T15:10:13.5Z</time></trkpt><trkpt lat="43.6570783" lon="11.2921209"><ele>212.0</ele><time>2026-04-06T15:10:15.49Z</time></trkpt><trkpt lat="43.6571412" lon="11.2922254"><ele>212.0</ele><time>2026-04-06T15:10:17.484Z</time></trkpt><trkpt lat="43.6571912" lon="11.2923373"><ele>216.39999999999998</ele><time>2026-04-06T15:10:19.488Z</time></trkpt><trkpt lat="43.6572414" lon="11.2924598"><ele>220.79999999999998</ele><time>2026-04-06T15:10:21.487Z</time></trkpt><trkpt lat="43.6572832" lon="11.2925667"><ele>225.2</ele><time>2026-04-06T15:10:23.496Z</time></trkpt><trkpt lat="43.6572976" lon="11.2926938"><ele>229.6</ele><time>2026-04-06T15:10:25.5Z</time></trkpt><trkpt lat="43.6572835" lon="11.2928318"><ele>234.0</ele><time>2026-04-06T15:10:27.48Z</time></trkpt><trkpt lat="43.657266" lon="11.292953"><ele>234.0</ele><time>2026-04-06T15:10:29.48Z</time></trkpt><trkpt lat="43.6572589" lon="11.2930404"><ele>234.0</ele><time>2026-04-06T15:10:32.49Z</time></trkpt><trkpt lat="43.657277" lon="11.2931249"><ele>234.0</ele><time>2026-04-06T15:10:34.495Z</time></trkpt><trkpt lat="43.6573524" lon="11.2931848"><ele>234.0</ele><time>2026-04-06T15:10:36.49Z</time></trkpt><trkpt lat="43.6574353" lon="11.2931707"><ele>234.0</ele><time>2026-04-06T15:10:38.491Z</time></trkpt><trkpt lat="43.6575203" lon="11.2931715"><ele>234.0</ele><time>2026-04-06T15:10:40.486Z</time></trkpt><trkpt lat="43.6576049" lon="11.2931411"><ele>233.79999999999998</ele><time>2026-04-06T15:10:42.486Z</time></trkpt><trkpt lat="43.6576983" lon="11.2931301"><ele>233.59999999999997</ele><time>2026-04-06T15:10:44.488Z</time></trkpt><trkpt lat="43.6578101" lon="11.2931223"><ele>233.4</ele><time>2026-04-06T15:10:46.495Z</time></trkpt><trkpt lat="43.6579147" lon="11.2931125"><ele>233.2</ele><time>2026-04-06T15:10:48.49Z</time></trkpt><trkpt lat="43.6579563" lon="11.2930179"><ele>233.0</ele><time>2026-04-06T15:10:50.493Z</time></trkpt><trkpt lat="43.6579828" lon="11.2928806"><ele>233.0</ele><time>2026-04-06T15:10:52.495Z</time></trkpt><trkpt lat="43.658019" lon="11.2927337"><ele>233.0</ele><time>2026-04-06T15:10:54.493Z</time></trkpt><trkpt lat="43.6580527" lon="11.2925987"><ele>233.0</ele><time>2026-04-06T15:10:56.496Z</time></trkpt><trkpt lat="43.6580945" lon="11.2924825"><ele>233.0</ele><time>2026-04-06T15:11:19.494Z</time></trkpt><trkpt lat="43.6581353" lon="11.2923614"><ele>233.0</ele><time>2026-04-06T15:11:21.496Z</time></trkpt><trkpt lat="43.6581717" lon="11.2922816"><ele>232.66666666666669</ele><time>2026-04-06T15:11:22.49Z</time></trkpt><trkpt lat="43.6582035" lon="11.2921433"><ele>232.33333333333334</ele><time>2026-04-06T15:11:24.494Z</time></trkpt><trkpt lat="43.6582075" lon="11.2920128"><ele>232.0</ele><time>2026-04-06T15:11:26.498Z</time></trkpt><trkpt lat="43.6582074" lon="11.2918632"><ele>231.66666666666669</ele><time>2026-04-06T15:11:28.498Z</time></trkpt><trkpt lat="43.6581853" lon="11.2917812"><ele>231.33333333333334</ele><time>2026-04-06T15:11:29.496Z</time></trkpt><trkpt lat="43.6581531" lon="11.2916884"><ele>231.0</ele><time>2026-04-06T15:11:30.498Z</time></trkpt><trkpt lat="43.6581259" lon="11.291597"><ele>231.0</ele><time>2026-04-06T15:11:31.496Z</time></trkpt><trkpt lat="43.6580932" lon="11.2915037"><ele>231.0</ele><time>2026-04-06T15:11:32.494Z</time></trkpt><trkpt lat="43.6580529" lon="11.291428"><ele>231.0</ele><time>2026-04-06T15:11:33.482Z</time></trkpt><trkpt lat="43.6579833" lon="11.2913363"><ele>231.0</ele><time>2026-04-06T15:11:35.489Z</time></trkpt><trkpt lat="43.6579094" lon="11.2913043"><ele>231.0</ele><time>2026-04-06T15:11:37.498Z</time></trkpt><trkpt lat="43.6578472" lon="11.2912858"><ele>231.0</ele><time>2026-04-06T15:11:38.494Z</time></trkpt><trkpt lat="43.6577302" lon="11.2912958"><ele>231.8</ele><time>2026-04-06T15:11:40.488Z</time></trkpt><trkpt lat="43.6576354" lon="11.291343"><ele>232.60000000000002</ele><time>2026-04-06T15:11:42.493Z</time></trkpt><trkpt lat="43.6575495" lon="11.2914614"><ele>233.4</ele><time>2026-04-06T15:11:44.489Z</time></trkpt><trkpt lat="43.6575035" lon="11.2915568"><ele>234.2</ele><time>2026-04-06T15:11:45.489Z</time></trkpt><trkpt lat="43.6574717" lon="11.291673"><ele>235.0</ele><time>2026-04-06T15:11:46.493Z</time></trkpt><trkpt lat="43.6574487" lon="11.2917703"><ele>234.99999999999997</ele><time>2026-04-06T15:11:47.49Z</time></trkpt><trkpt lat="43.6574799" lon="11.2918552"><ele>235.0</ele><time>2026-04-06T15:11:52.502Z</time></trkpt><trkpt lat="43.6575256" lon="11.2917859"><ele>235.0</ele><time>2026-04-06T15:12:10.487Z</time></trkpt><trkpt lat="43.6575409" lon="11.2916685"><ele>235.0</ele><time>2026-04-06T15:12:12.496Z</time></trkpt><trkpt lat="43.6575644" lon="11.2915727"><ele>234.99999999999997</ele><time>2026-04-06T15:12:13.495Z</time></trkpt><trkpt lat="43.6575856" lon="11.2914829"><ele>235.0</ele><time>2026-04-06T15:12:14.488Z</time></trkpt><trkpt lat="43.6576314" lon="11.2913609"><ele>234.2</ele><time>2026-04-06T15:12:16.494Z</time></trkpt><trkpt lat="43.6577365" lon="11.2913029"><ele>233.4</ele><time>2026-04-06T15:12:18.492Z</time></trkpt><trkpt lat="43.6578023" lon="11.2912953"><ele>232.60000000000002</ele><time>2026-04-06T15:12:19.494Z</time></trkpt><trkpt lat="43.6579178" lon="11.2913129"><ele>231.8</ele><time>2026-04-06T15:12:21.487Z</time></trkpt><trkpt lat="43.6580188" lon="11.2914128"><ele>231.0</ele><time>2026-04-06T15:12:23.49Z</time></trkpt><trkpt lat="43.6580744" lon="11.2915047"><ele>231.0</ele><time>2026-04-06T15:12:24.484Z</time></trkpt><trkpt lat="43.65811" lon="11.291623"><ele>231.0</ele><time>2026-04-06T15:12:25.491Z</time></trkpt><trkpt lat="43.6581466" lon="11.2917425"><ele>231.0</ele><time>2026-04-06T15:12:26.49Z</time></trkpt><trkpt lat="43.6581698" lon="11.2918515"><ele>231.0</ele><time>2026-04-06T15:12:27.489Z</time></trkpt><trkpt lat="43.6581827" lon="11.2919497"><ele>231.0</ele><time>2026-04-06T15:12:28.494Z</time></trkpt><trkpt lat="43.6581925" lon="11.2920474"><ele>231.0</ele><time>2026-04-06T15:12:29.495Z</time></trkpt><trkpt lat="43.6581946" lon="11.2921351"><ele>231.0</ele><time>2026-04-06T15:12:30.495Z</time></trkpt><trkpt lat="43.6581847" lon="11.2922354"><ele>231.0</ele><time>2026-04-06T15:12:31.489Z</time></trkpt><trkpt lat="43.6581607" lon="11.2923354"><ele>231.0</ele><time>2026-04-06T15:12:32.486Z</time></trkpt><trkpt lat="43.6581241" lon="11.2924492"><ele>231.0</ele><time>2026-04-06T15:12:33.489Z</time></trkpt><trkpt lat="43.6580743" lon="11.2925708"><ele>231.0</ele><time>2026-04-06T15:12:34.486Z</time></trkpt><trkpt lat="43.6580411" lon="11.2926685"><ele>231.0</ele><time>2026-04-06T15:12:35.486Z</time></trkpt><trkpt lat="43.6580134" lon="11.2927575"><ele>231.0</ele><time>2026-04-06T15:12:36.49Z</time></trkpt><trkpt lat="43.6579702" lon="11.2929062"><ele>231.00000000000003</ele><time>2026-04-06T15:12:38.483Z</time></trkpt><trkpt lat="43.6579372" lon="11.2930406"><ele>231.00000000000003</ele><time>2026-04-06T15:12:40.475Z</time></trkpt><trkpt lat="43.6579421" lon="11.2931445"><ele>231.0</ele><time>2026-04-06T15:12:44.492Z</time></trkpt><trkpt lat="43.6580079" lon="11.2931382"><ele>231.0</ele><time>2026-04-06T15:12:46.494Z</time></trkpt><trkpt lat="43.6581005" lon="11.2931446"><ele>231.0</ele><time>2026-04-06T15:12:48.491Z</time></trkpt><trkpt lat="43.6582137" lon="11.2931665"><ele>231.00000000000003</ele><time>2026-04-06T15:12:50.493Z</time></trkpt><trkpt lat="43.658335" lon="11.2931949"><ele>231.00000000000003</ele><time>2026-04-06T15:12:52.483Z</time></trkpt><trkpt lat="43.6584511" lon="11.2932203"><ele>231.0</ele><time>2026-04-06T15:12:54.49Z</time></trkpt><trkpt lat="43.6585134" lon="11.2932411"><ele>231.0</ele><time>2026-04-06T15:12:55.486Z</time></trkpt><trkpt lat="43.6586296" lon="11.2932762"><ele>230.16666666666666</ele><time>2026-04-06T15:12:57.487Z</time></trkpt><trkpt lat="43.6586923" lon="11.2932879"><ele>229.33333333333331</ele><time>2026-04-06T15:12:58.491Z</time></trkpt><trkpt lat="43.6587904" lon="11.2932909"><ele>228.5</ele><time>2026-04-06T15:13:00.486Z</time></trkpt><trkpt lat="43.6588676" lon="11.293241"><ele>227.66666666666666</ele><time>2026-04-06T15:13:13.503Z</time></trkpt><trkpt lat="43.658945" lon="11.2932773"><ele>226.83333333333331</ele><time>2026-04-06T15:13:15.497Z</time></trkpt><trkpt lat="43.658999" lon="11.2933351"><ele>226.0</ele><time>2026-04-06T15:13:16.487Z</time></trkpt><trkpt lat="43.6590741" lon="11.2934414"><ele>225.99999999999997</ele><time>2026-04-06T15:13:18.495Z</time></trkpt><trkpt lat="43.6591139" lon="11.2935156"><ele>226.0</ele><time>2026-04-06T15:13:19.485Z</time></trkpt><trkpt lat="43.6591353" lon="11.2936187"><ele>226.0</ele><time>2026-04-06T15:13:20.487Z</time></trkpt><trkpt lat="43.6591284" lon="11.2937408"><ele>226.0</ele><time>2026-04-06T15:13:21.493Z</time></trkpt><trkpt lat="43.6590974" lon="11.2938564"><ele>225.99999999999997</ele><time>2026-04-06T15:13:22.494Z</time></trkpt><trkpt lat="43.6590281" lon="11.2939354"><ele>226.0</ele><time>2026-04-06T15:13:23.486Z</time></trkpt><trkpt lat="43.658945" lon="11.2940092"><ele>227.0</ele><time>2026-04-06T15:13:24.485Z</time></trkpt><trkpt lat="43.6588493" lon="11.2940827"><ele>228.00000000000003</ele><time>2026-04-06T15:13:25.493Z</time></trkpt><trkpt lat="43.6587504" lon="11.2941571"><ele>229.00000000000003</ele><time>2026-04-06T15:13:26.488Z</time></trkpt><trkpt lat="43.6586548" lon="11.2942312"><ele>230.0</ele><time>2026-04-06T15:13:27.491Z</time></trkpt><trkpt lat="43.658563" lon="11.2943037"><ele>231.0</ele><time>2026-04-06T15:13:28.491Z</time></trkpt><trkpt lat="43.6584669" lon="11.2943778"><ele>231.75</ele><time>2026-04-06T15:13:29.491Z</time></trkpt><trkpt lat="43.6583658" lon="11.2944656"><ele>232.5</ele><time>2026-04-06T15:13:30.49Z</time></trkpt><trkpt lat="43.6582613" lon="11.2945444"><ele>233.25</ele><time>2026-04-06T15:13:31.489Z</time></trkpt><trkpt lat="43.6581526" lon="11.2946321"><ele>234.0</ele><time>2026-04-06T15:13:32.486Z</time></trkpt><trkpt lat="43.6580483" lon="11.2947208"><ele>233.75</ele><time>2026-04-06T15:13:33.487Z</time></trkpt><trkpt lat="43.6579387" lon="11.2948123"><ele>233.5</ele><time>2026-04-06T15:13:34.486Z</time></trkpt><trkpt lat="43.6578258" lon="11.2949151"><ele>233.25</ele><time>2026-04-06T15:13:35.488Z</time></trkpt><trkpt lat="43.6577096" lon="11.2950307"><ele>233.0</ele><time>2026-04-06T15:13:36.491Z</time></trkpt><trkpt lat="43.6575907" lon="11.2951692"><ele>233.0</ele><time>2026-04-06T15:13:37.482Z</time></trkpt><trkpt lat="43.6574939" lon="11.2953013"><ele>233.0</ele><time>2026-04-06T15:13:38.488Z</time></trkpt><trkpt lat="43.6573902" lon="11.295437"><ele>233.0</ele><time>2026-04-06T15:13:39.491Z</time></trkpt><trkpt lat="43.6573009" lon="11.2955788"><ele>233.0</ele><time>2026-04-06T15:13:40.493Z</time></trkpt><trkpt lat="43.657212" lon="11.2957346"><ele>233.0</ele><time>2026-04-06T15:13:41.487Z</time></trkpt><trkpt lat="43.6571324" lon="11.2958904"><ele>233.0</ele><time>2026-04-06T15:13:42.492Z</time></trkpt><trkpt lat="43.6570641" lon="11.2960353"><ele>233.0</ele><time>2026-04-06T15:13:43.488Z</time></trkpt><trkpt lat="43.6570159" lon="11.2961525"><ele>233.0</ele><time>2026-04-06T15:13:44.489Z</time></trkpt><trkpt lat="43.6569737" lon="11.2962556"><ele>233.0</ele><time>2026-04-06T15:13:45.492Z</time></trkpt><trkpt lat="43.6569397" lon="11.2963382"><ele>230.8</ele><time>2026-04-06T15:13:46.483Z</time></trkpt><trkpt lat="43.6568468" lon="11.2963917"><ele>228.60000000000002</ele><time>2026-04-06T15:13:48.492Z</time></trkpt><trkpt lat="43.6567255" lon="11.2963425"><ele>226.39999999999998</ele><time>2026-04-06T15:13:50.487Z</time></trkpt><trkpt lat="43.6566313" lon="11.2963056"><ele>224.2</ele><time>2026-04-06T15:13:52.48Z</time></trkpt><trkpt lat="43.65659" lon="11.2962363"><ele>222.0</ele><time>2026-04-06T15:14:19.502Z</time></trkpt><trkpt lat="43.656583" lon="11.2961374"><ele>222.0</ele><time>2026-04-06T15:14:22.504Z</time></trkpt><trkpt lat="43.6565981" lon="11.2962615"><ele>222.0</ele><time>2026-04-06T15:14:33.486Z</time></trkpt><trkpt lat="43.6566508" lon="11.2963171"><ele>222.0</ele><time>2026-04-06T15:14:34.484Z</time></trkpt><trkpt lat="43.6567118" lon="11.2963397"><ele>222.0</ele><time>2026-04-06T15:14:35.481Z</time></trkpt><trkpt lat="43.6568097" lon="11.2963543"><ele>222.0</ele><time>2026-04-06T15:14:37.482Z</time></trkpt><trkpt lat="43.656861" lon="11.2964203"><ele>222.0</ele><time>2026-04-06T15:14:39.49Z</time></trkpt><trkpt lat="43.6568496" lon="11.2965507"><ele>222.0</ele><time>2026-04-06T15:14:42.488Z</time></trkpt><trkpt lat="43.6567942" lon="11.296703"><ele>222.0</ele><time>2026-04-06T15:14:44.481Z</time></trkpt><trkpt lat="43.656758" lon="11.2967922"><ele>222.0</ele><time>2026-04-06T15:14:45.483Z</time></trkpt><trkpt lat="43.6567146" lon="11.2968822"><ele>222.0</ele><time>2026-04-06T15:14:46.481Z</time></trkpt><trkpt lat="43.6566681" lon="11.2969936"><ele>222.0</ele><time>2026-04-06T15:14:47.477Z</time></trkpt><trkpt lat="43.6566206" lon="11.2971192"><ele>222.0</ele><time>2026-04-06T15:14:48.481Z</time></trkpt><trkpt lat="43.6565755" lon="11.2972332"><ele>222.0</ele><time>2026-04-06T15:14:49.485Z</time></trkpt><trkpt lat="43.6565316" lon="11.2973424"><ele>222.0</ele><time>2026-04-06T15:14:50.492Z</time></trkpt><trkpt lat="43.6564885" lon="11.2974642"><ele>222.0</ele><time>2026-04-06T15:14:51.488Z</time></trkpt><trkpt lat="43.6564298" lon="11.2975903"><ele>222.0</ele><time>2026-04-06T15:14:52.487Z</time></trkpt><trkpt lat="43.6563622" lon="11.2977171"><ele>221.8</ele><time>2026-04-06T15:14:53.494Z</time></trkpt><trkpt lat="43.6562909" lon="11.2978389"><ele>221.6</ele><time>2026-04-06T15:14:54.488Z</time></trkpt><trkpt lat="43.6562233" lon="11.297956"><ele>221.40000000000003</ele><time>2026-04-06T15:14:55.484Z</time></trkpt><trkpt lat="43.6561551" lon="11.298067"><ele>221.20000000000002</ele><time>2026-04-06T15:14:56.488Z</time></trkpt><trkpt lat="43.6560838" lon="11.2981787"><ele>221.0</ele><time>2026-04-06T15:14:57.488Z</time></trkpt><trkpt lat="43.6560156" lon="11.2982997"><ele>218.20000000000002</ele><time>2026-04-06T15:14:58.491Z</time></trkpt><trkpt lat="43.6559446" lon="11.2984156"><ele>215.40000000000003</ele><time>2026-04-06T15:14:59.483Z</time></trkpt><trkpt lat="43.6558705" lon="11.2985218"><ele>212.6</ele><time>2026-04-06T15:15:00.492Z</time></trkpt><trkpt lat="43.6557999" lon="11.298629"><ele>209.8</ele><time>2026-04-06T15:15:01.486Z</time></trkpt><trkpt lat="43.6557331" lon="11.2987304"><ele>207.0</ele><time>2026-04-06T15:15:02.488Z</time></trkpt><trkpt lat="43.6556712" lon="11.2988208"><ele>207.0</ele><time>2026-04-06T15:15:03.479Z</time></trkpt><trkpt lat="43.6556053" lon="11.2989019"><ele>207.0</ele><time>2026-04-06T15:15:04.486Z</time></trkpt><trkpt lat="43.6555422" lon="11.2989805"><ele>207.0</ele><time>2026-04-06T15:15:05.487Z</time></trkpt><trkpt lat="43.6554826" lon="11.2990592"><ele>207.0</ele><time>2026-04-06T15:15:06.488Z</time></trkpt><trkpt lat="43.6554178" lon="11.299138"><ele>207.0</ele><time>2026-04-06T15:15:07.489Z</time></trkpt><trkpt lat="43.6553449" lon="11.2992219"><ele>207.0</ele><time>2026-04-06T15:15:08.486Z</time></trkpt><trkpt lat="43.6552744" lon="11.2993103"><ele>207.33333333333334</ele><time>2026-04-06T15:15:09.485Z</time></trkpt><trkpt lat="43.655214" lon="11.2993862"><ele>207.66666666666669</ele><time>2026-04-06T15:15:10.488Z</time></trkpt><trkpt lat="43.655162" lon="11.2994493"><ele>208.0</ele><time>2026-04-06T15:15:11.478Z</time></trkpt><trkpt lat="43.6550985" lon="11.2994616"><ele>208.33333333333334</ele><time>2026-04-06T15:15:13.481Z</time></trkpt><trkpt lat="43.6550759" lon="11.2993453"><ele>208.66666666666669</ele><time>2026-04-06T15:15:16.49Z</time></trkpt><trkpt lat="43.655116" lon="11.2992291"><ele>209.0</ele><time>2026-04-06T15:15:19.49Z</time></trkpt><trkpt lat="43.6551695" lon="11.2991562"><ele>209.0</ele><time>2026-04-06T15:15:21.49Z</time></trkpt><trkpt lat="43.6552385" lon="11.29904"><ele>209.0</ele><time>2026-04-06T15:15:23.482Z</time></trkpt><trkpt lat="43.6553004" lon="11.2989275"><ele>209.0</ele><time>2026-04-06T15:15:25.477Z</time></trkpt><trkpt lat="43.655316" lon="11.298818"><ele>209.0</ele><time>2026-04-06T15:15:27.483Z</time></trkpt><trkpt lat="43.6552952" lon="11.2986983"><ele>209.0</ele><time>2026-04-06T15:15:29.492Z</time></trkpt><trkpt lat="43.6552523" lon="11.2985579"><ele>207.16666666666669</ele><time>2026-04-06T15:15:31.486Z</time></trkpt><trkpt lat="43.6552358" lon="11.2984735"><ele>205.33333333333334</ele><time>2026-04-06T15:15:32.484Z</time></trkpt><trkpt lat="43.6552198" lon="11.2983817"><ele>203.5</ele><time>2026-04-06T15:15:33.49Z</time></trkpt><trkpt lat="43.6552021" lon="11.2982924"><ele>201.66666666666669</ele><time>2026-04-06T15:15:34.483Z</time></trkpt><trkpt lat="43.6551771" lon="11.2982004"><ele>199.83333333333334</ele><time>2026-04-06T15:15:35.482Z</time></trkpt><trkpt lat="43.6551575" lon="11.2981126"><ele>198.0</ele><time>2026-04-06T15:15:36.486Z</time></trkpt><trkpt lat="43.6551259" lon="11.2979575"><ele>196.25</ele><time>2026-04-06T15:15:38.484Z</time></trkpt><trkpt lat="43.6550813" lon="11.2978119"><ele>194.5</ele><time>2026-04-06T15:15:40.484Z</time></trkpt><trkpt lat="43.6550161" lon="11.2977005"><ele>192.75</ele><time>2026-04-06T15:15:42.484Z</time></trkpt><trkpt lat="43.654934" lon="11.2976085"><ele>191.0</ele><time>2026-04-06T15:15:44.479Z</time></trkpt><trkpt lat="43.6548174" lon="11.297532"><ele>191.0</ele><time>2026-04-06T15:15:46.483Z</time></trkpt><trkpt lat="43.6547579" lon="11.2974869"><ele>191.0</ele><time>2026-04-06T15:15:47.485Z</time></trkpt><trkpt lat="43.6546596" lon="11.2974271"><ele>191.0</ele><time>2026-04-06T15:15:49.48Z</time></trkpt><trkpt lat="43.65458" lon="11.2973832"><ele>191.0</ele><time>2026-04-06T15:15:51.49Z</time></trkpt><trkpt lat="43.6545278" lon="11.2973345"><ele>191.0</ele><time>2026-04-06T15:15:53.494Z</time></trkpt><trkpt lat="43.6544556" lon="11.2972635"><ele>191.0</ele><time>2026-04-06T15:15:56.489Z</time></trkpt><trkpt lat="43.6543755" lon="11.2972047"><ele>189.83333333333331</ele><time>2026-04-06T15:15:58.498Z</time></trkpt><trkpt lat="43.6542944" lon="11.2971301"><ele>188.66666666666666</ele><time>2026-04-06T15:16:00.495Z</time></trkpt><trkpt lat="43.6542222" lon="11.2970913"><ele>187.5</ele><time>2026-04-06T15:16:02.492Z</time></trkpt><trkpt lat="43.6541462" lon="11.2970259"><ele>186.33333333333334</ele><time>2026-04-06T15:16:05.494Z</time></trkpt><trkpt lat="43.6540779" lon="11.2969823"><ele>185.16666666666669</ele><time>2026-04-06T15:16:07.494Z</time></trkpt><trkpt lat="43.6539986" lon="11.2969471"><ele>184.0</ele><time>2026-04-06T15:16:09.489Z</time></trkpt><trkpt lat="43.6539172" lon="11.2969538"><ele>184.0</ele><time>2026-04-06T15:16:11.489Z</time></trkpt><trkpt lat="43.6538238" lon="11.2969606"><ele>184.0</ele><time>2026-04-06T15:16:13.492Z</time></trkpt><trkpt lat="43.6537478" lon="11.2969752"><ele>184.0</ele><time>2026-04-06T15:16:15.478Z</time></trkpt><trkpt lat="43.6536618" lon="11.2970319"><ele>184.0</ele><time>2026-04-06T15:16:17.495Z</time></trkpt><trkpt lat="43.653581" lon="11.2970776"><ele>184.0</ele><time>2026-04-06T15:16:19.49Z</time></trkpt><trkpt lat="43.6535114" lon="11.2970718"><ele>184.0</ele><time>2026-04-06T15:16:21.494Z</time></trkpt><trkpt lat="43.6534152" lon="11.2970788"><ele>185.6</ele><time>2026-04-06T15:16:23.495Z</time></trkpt><trkpt lat="43.6533236" lon="11.297081"><ele>187.2</ele><time>2026-04-06T15:16:25.493Z</time></trkpt><trkpt lat="43.6532125" lon="11.2970839"><ele>188.79999999999998</ele><time>2026-04-06T15:16:27.481Z</time></trkpt><trkpt lat="43.6531018" lon="11.2970351"><ele>190.39999999999998</ele><time>2026-04-06T15:16:29.478Z</time></trkpt><trkpt lat="43.6530132" lon="11.2969922"><ele>192.0</ele><time>2026-04-06T15:16:31.483Z</time></trkpt><trkpt lat="43.6529391" lon="11.2969386"><ele>192.0</ele><time>2026-04-06T15:16:33.485Z</time></trkpt><trkpt lat="43.6528628" lon="11.2968761"><ele>192.0</ele><time>2026-04-06T15:16:35.491Z</time></trkpt><trkpt lat="43.6527744" lon="11.2968137"><ele>192.0</ele><time>2026-04-06T15:16:38.173Z</time></trkpt><trkpt lat="43.652717" lon="11.2967625"><ele>192.0</ele><time>2026-04-06T15:16:39.489Z</time></trkpt><trkpt lat="43.6526678" lon="11.2966586"><ele>192.0</ele><time>2026-04-06T15:16:41.485Z</time></trkpt><trkpt lat="43.6525896" lon="11.2965824"><ele>192.0</ele><time>2026-04-06T15:16:43.485Z</time></trkpt><trkpt lat="43.652489" lon="11.2965486"><ele>194.0</ele><time>2026-04-06T15:16:45.486Z</time></trkpt><trkpt lat="43.6523674" lon="11.2965155"><ele>196.0</ele><time>2026-04-06T15:16:47.485Z</time></trkpt><trkpt lat="43.6522531" lon="11.2964803"><ele>198.0</ele><time>2026-04-06T15:16:49.488Z</time></trkpt><trkpt lat="43.6521833" lon="11.2964486"><ele>200.0</ele><time>2026-04-06T15:16:50.487Z</time></trkpt><trkpt lat="43.6521093" lon="11.2964223"><ele>202.0</ele><time>2026-04-06T15:16:51.485Z</time></trkpt><trkpt lat="43.6520054" lon="11.2963741"><ele>201.99999999999997</ele><time>2026-04-06T15:16:53.489Z</time></trkpt><trkpt lat="43.651937" lon="11.296347"><ele>202.0</ele><time>2026-04-06T15:16:56.495Z</time></trkpt><trkpt lat="43.6520102" lon="11.2963843"><ele>202.0</ele><time>2026-04-06T15:17:18.495Z</time></trkpt><trkpt lat="43.6520784" lon="11.2964037"><ele>202.0</ele><time>2026-04-06T15:17:20.487Z</time></trkpt><trkpt lat="43.6521961" lon="11.2964346"><ele>201.99999999999997</ele><time>2026-04-06T15:17:22.48Z</time></trkpt><trkpt lat="43.6522568" lon="11.2964638"><ele>202.0</ele><time>2026-04-06T15:17:23.485Z</time></trkpt><trkpt lat="43.6523179" lon="11.2964928"><ele>201.99999999999997</ele><time>2026-04-06T15:17:24.482Z</time></trkpt><trkpt lat="43.6523802" lon="11.2965093"><ele>202.0</ele><time>2026-04-06T15:17:25.483Z</time></trkpt><trkpt lat="43.6524433" lon="11.2965217"><ele>202.0</ele><time>2026-04-06T15:17:26.481Z</time></trkpt><trkpt lat="43.652542" lon="11.2965617"><ele>202.0</ele><time>2026-04-06T15:17:28.494Z</time></trkpt><trkpt lat="43.6526279" lon="11.2966063"><ele>201.99999999999997</ele><time>2026-04-06T15:17:30.488Z</time></trkpt><trkpt lat="43.6526782" lon="11.2966622"><ele>202.0</ele><time>2026-04-06T15:17:32.485Z</time></trkpt><trkpt lat="43.6527292" lon="11.2967607"><ele>201.99999999999997</ele><time>2026-04-06T15:17:35.487Z</time></trkpt><trkpt lat="43.6527742" lon="11.2968222"><ele>202.0</ele><time>2026-04-06T15:17:37.485Z</time></trkpt><trkpt lat="43.6528346" lon="11.2968734"><ele>202.0</ele><time>2026-04-06T15:17:39.488Z</time></trkpt><trkpt lat="43.6529255" lon="11.2969287"><ele>202.0</ele><time>2026-04-06T15:17:42.484Z</time></trkpt><trkpt lat="43.6530021" lon="11.296971"><ele>201.99999999999997</ele><time>2026-04-06T15:17:44.489Z</time></trkpt><trkpt lat="43.6530802" lon="11.2970082"><ele>202.0</ele><time>2026-04-06T15:17:46.49Z</time></trkpt><trkpt lat="43.6531292" lon="11.297077"><ele>200.33333333333331</ele><time>2026-04-06T15:17:50.494Z</time></trkpt><trkpt lat="43.6531582" lon="11.297194"><ele>198.66666666666666</ele><time>2026-04-06T15:17:53.489Z</time></trkpt><trkpt lat="43.6531694" lon="11.2972808"><ele>197.0</ele><time>2026-04-06T15:17:55.493Z</time></trkpt><trkpt lat="43.6531632" lon="11.2973977"><ele>195.33333333333331</ele><time>2026-04-06T15:17:58.498Z</time></trkpt><trkpt lat="43.6531617" lon="11.2974957"><ele>193.66666666666666</ele><time>2026-04-06T15:18:01.485Z</time></trkpt><trkpt lat="43.6531666" lon="11.2976051"><ele>192.0</ele><time>2026-04-06T15:18:04.485Z</time></trkpt><trkpt lat="43.653174" lon="11.2977083"><ele>191.28571428571428</ele><time>2026-04-06T15:18:07.488Z</time></trkpt><trkpt lat="43.6531801" lon="11.2977978"><ele>190.57142857142856</ele><time>2026-04-06T15:18:11.491Z</time></trkpt><trkpt lat="43.6531445" lon="11.2978708"><ele>189.85714285714283</ele><time>2026-04-06T15:18:35.498Z</time></trkpt><trkpt lat="43.6530851" lon="11.297922"><ele>189.14285714285714</ele><time>2026-04-06T15:18:38.488Z</time></trkpt><trkpt lat="43.6530128" lon="11.297968"><ele>188.42857142857144</ele><time>2026-04-06T15:18:41.491Z</time></trkpt><trkpt lat="43.6529522" lon="11.2979342"><ele>187.7142857142857</ele><time>2026-04-06T15:18:48.504Z</time></trkpt><trkpt lat="43.6530371" lon="11.29792"><ele>187.0</ele><time>2026-04-06T15:18:57.488Z</time></trkpt><trkpt lat="43.6531168" lon="11.297923"><ele>187.0</ele><time>2026-04-06T15:19:00.494Z</time></trkpt><trkpt lat="43.6531982" lon="11.2978738"><ele>187.0</ele><time>2026-04-06T15:19:03.493Z</time></trkpt><trkpt lat="43.6532596" lon="11.2978286"><ele>187.0</ele><time>2026-04-06T15:19:06.494Z</time></trkpt><trkpt lat="43.65331" lon="11.2977685"><ele>187.0</ele><time>2026-04-06T15:19:09.495Z</time></trkpt><trkpt lat="43.6533467" lon="11.2976912"><ele>187.0</ele><time>2026-04-06T15:19:12.487Z</time></trkpt><trkpt lat="43.6533851" lon="11.2976114"><ele>187.0</ele><time>2026-04-06T15:19:14.491Z</time></trkpt><trkpt lat="43.6534378" lon="11.2975323"><ele>187.0</ele><time>2026-04-06T15:19:17.497Z</time></trkpt><trkpt lat="43.6535019" lon="11.2974492"><ele>187.0</ele><time>2026-04-06T15:19:20.495Z</time></trkpt><trkpt lat="43.6535398" lon="11.2973777"><ele>187.0</ele><time>2026-04-06T15:19:22.497Z</time></trkpt><trkpt lat="43.6535819" lon="11.2972847"><ele>187.0</ele><time>2026-04-06T15:19:24.494Z</time></trkpt><trkpt lat="43.6536149" lon="11.2971794"><ele>187.0</ele><time>2026-04-06T15:19:26.494Z</time></trkpt><trkpt lat="43.6535738" lon="11.2971023"><ele>187.0</ele><time>2026-04-06T15:21:30.504Z</time></trkpt><trkpt lat="43.6534875" lon="11.2971075"><ele>187.0</ele><time>2026-04-06T15:21:32.494Z</time></trkpt><trkpt lat="43.6533806" lon="11.2971084"><ele>188.0</ele><time>2026-04-06T15:21:34.491Z</time></trkpt><trkpt lat="43.6532673" lon="11.2971086"><ele>189.0</ele><time>2026-04-06T15:21:36.485Z</time></trkpt><trkpt lat="43.6531618" lon="11.2970809"><ele>190.0</ele><time>2026-04-06T15:21:38.493Z</time></trkpt><trkpt lat="43.6530634" lon="11.2970221"><ele>191.0</ele><time>2026-04-06T15:21:40.488Z</time></trkpt><trkpt lat="43.6529713" lon="11.2969695"><ele>192.0</ele><time>2026-04-06T15:21:42.491Z</time></trkpt><trkpt lat="43.6528707" lon="11.2969091"><ele>193.66666666666666</ele><time>2026-04-06T15:21:44.487Z</time></trkpt><trkpt lat="43.6527758" lon="11.2968204"><ele>195.33333333333331</ele><time>2026-04-06T15:21:46.489Z</time></trkpt><trkpt lat="43.6527187" lon="11.2967299"><ele>197.0</ele><time>2026-04-06T15:21:48.49Z</time></trkpt><trkpt lat="43.6526647" lon="11.2966254"><ele>198.66666666666666</ele><time>2026-04-06T15:21:50.485Z</time></trkpt><trkpt lat="43.652592" lon="11.2965773"><ele>200.33333333333331</ele><time>2026-04-06T15:21:52.489Z</time></trkpt><trkpt lat="43.6525297" lon="11.2965581"><ele>202.0</ele><time>2026-04-06T15:21:53.488Z</time></trkpt><trkpt lat="43.6524679" lon="11.296539"><ele>202.0</ele><time>2026-04-06T15:21:54.483Z</time></trkpt><trkpt lat="43.6523561" lon="11.2964989"><ele>202.0</ele><time>2026-04-06T15:21:56.487Z</time></trkpt><trkpt lat="43.6522403" lon="11.2964614"><ele>202.0</ele><time>2026-04-06T15:21:58.492Z</time></trkpt><trkpt lat="43.6521311" lon="11.2964293"><ele>202.0</ele><time>2026-04-06T15:22:00.488Z</time></trkpt><trkpt lat="43.65205" lon="11.296385"><ele>202.0</ele><time>2026-04-06T15:22:02.488Z</time></trkpt><trkpt lat="43.6519761" lon="11.2963597"><ele>204.66666666666666</ele><time>2026-04-06T15:22:04.493Z</time></trkpt><trkpt lat="43.6519075" lon="11.2963676"><ele>207.33333333333331</ele><time>2026-04-06T15:22:07.415Z</time></trkpt><trkpt lat="43.651827" lon="11.2963251"><ele>210.0</ele><time>2026-04-06T15:24:40.498Z</time></trkpt><trkpt lat="43.6517427" lon="11.2962973"><ele>212.66666666666669</ele><time>2026-04-06T15:24:42.495Z</time></trkpt><trkpt lat="43.6516638" lon="11.2962834"><ele>215.33333333333334</ele><time>2026-04-06T15:24:44.509Z</time></trkpt><trkpt lat="43.6515855" lon="11.2962703"><ele>218.0</ele><time>2026-04-06T15:24:46.494Z</time></trkpt><trkpt lat="43.6515233" lon="11.2962303"><ele>218.00000000000003</ele><time>2026-04-06T15:24:48.496Z</time></trkpt><trkpt lat="43.6514642" lon="11.2961822"><ele>218.0</ele><time>2026-04-06T15:24:50.488Z</time></trkpt><trkpt lat="43.6513948" lon="11.2961737"><ele>218.0</ele><time>2026-04-06T15:24:52.489Z</time></trkpt><trkpt lat="43.651314" lon="11.2961386"><ele>218.0</ele><time>2026-04-06T15:24:54.502Z</time></trkpt><trkpt lat="43.6512231" lon="11.2961083"><ele>218.00000000000003</ele><time>2026-04-06T15:24:56.495Z</time></trkpt><trkpt lat="43.6511317" lon="11.2960822"><ele>218.0</ele><time>2026-04-06T15:24:58.491Z</time></trkpt><trkpt lat="43.6510615" lon="11.2960473"><ele>219.0</ele><time>2026-04-06T15:25:00.498Z</time></trkpt><trkpt lat="43.6509706" lon="11.2960282"><ele>220.0</ele><time>2026-04-06T15:25:02.494Z</time></trkpt><trkpt lat="43.6508719" lon="11.2959845"><ele>221.0</ele><time>2026-04-06T15:25:04.489Z</time></trkpt><trkpt lat="43.6507751" lon="11.2959491"><ele>222.0</ele><time>2026-04-06T15:25:06.486Z</time></trkpt><trkpt lat="43.6506765" lon="11.2959129"><ele>223.0</ele><time>2026-04-06T15:25:08.489Z</time></trkpt><trkpt lat="43.6505818" lon="11.295874"><ele>223.0</ele><time>2026-04-06T15:25:10.484Z</time></trkpt><trkpt lat="43.6504824" lon="11.2958478"><ele>223.0</ele><time>2026-04-06T15:25:12.482Z</time></trkpt><trkpt lat="43.6503792" lon="11.2958227"><ele>223.0</ele><time>2026-04-06T15:25:14.483Z</time></trkpt><trkpt lat="43.6502744" lon="11.2957879"><ele>223.0</ele><time>2026-04-06T15:25:16.483Z</time></trkpt><trkpt lat="43.6501763" lon="11.2957501"><ele>223.0</ele><time>2026-04-06T15:25:18.486Z</time></trkpt><trkpt lat="43.6500793" lon="11.2957268"><ele>224.8</ele><time>2026-04-06T15:25:20.489Z</time></trkpt><trkpt lat="43.6499787" lon="11.2956947"><ele>226.60000000000002</ele><time>2026-04-06T15:25:22.485Z</time></trkpt><trkpt lat="43.6498696" lon="11.2956657"><ele>228.39999999999998</ele><time>2026-04-06T15:25:24.489Z</time></trkpt><trkpt lat="43.6497597" lon="11.2956229"><ele>230.2</ele><time>2026-04-06T15:25:26.491Z</time></trkpt><trkpt lat="43.6496626" lon="11.2955698"><ele>232.0</ele><time>2026-04-06T15:25:28.491Z</time></trkpt><trkpt lat="43.6495348" lon="11.2955305"><ele>233.14285714285717</ele><time>2026-04-06T15:25:30.489Z</time></trkpt><trkpt lat="43.6494681" lon="11.2955045"><ele>234.28571428571428</ele><time>2026-04-06T15:25:31.485Z</time></trkpt><trkpt lat="43.6494019" lon="11.2954759"><ele>235.42857142857144</ele><time>2026-04-06T15:25:32.486Z</time></trkpt><trkpt lat="43.6493343" lon="11.2954479"><ele>236.57142857142858</ele><time>2026-04-06T15:25:33.483Z</time></trkpt><trkpt lat="43.649268" lon="11.2954261"><ele>237.71428571428572</ele><time>2026-04-06T15:25:34.489Z</time></trkpt><trkpt lat="43.6492001" lon="11.2954055"><ele>238.85714285714286</ele><time>2026-04-06T15:25:35.49Z</time></trkpt><trkpt lat="43.6491315" lon="11.295379"><ele>240.0</ele><time>2026-04-06T15:25:36.483Z</time></trkpt><trkpt lat="43.649062" lon="11.2953617"><ele>240.85714285714286</ele><time>2026-04-06T15:25:37.486Z</time></trkpt><trkpt lat="43.6489945" lon="11.2953413"><ele>241.71428571428572</ele><time>2026-04-06T15:25:38.487Z</time></trkpt><trkpt lat="43.6489261" lon="11.2953236"><ele>242.57142857142858</ele><time>2026-04-06T15:25:39.486Z</time></trkpt><trkpt lat="43.6488531" lon="11.2952974"><ele>243.42857142857144</ele><time>2026-04-06T15:25:40.484Z</time></trkpt><trkpt lat="43.6487818" lon="11.2952637"><ele>244.28571428571428</ele><time>2026-04-06T15:25:41.487Z</time></trkpt><trkpt lat="43.6487164" lon="11.2952318"><ele>245.14285714285717</ele><time>2026-04-06T15:25:42.49Z</time></trkpt><trkpt lat="43.6486427" lon="11.2952075"><ele>246.00000000000003</ele><time>2026-04-06T15:25:43.488Z</time></trkpt><trkpt lat="43.6485726" lon="11.2951783"><ele>247.66666666666666</ele><time>2026-04-06T15:25:44.489Z</time></trkpt><trkpt lat="43.6485045" lon="11.2951536"><ele>249.33333333333331</ele><time>2026-04-06T15:25:45.486Z</time></trkpt><trkpt lat="43.6483786" lon="11.2951278"><ele>251.0</ele><time>2026-04-06T15:25:47.488Z</time></trkpt><trkpt lat="43.6483143" lon="11.2951047"><ele>252.66666666666666</ele><time>2026-04-06T15:25:48.49Z</time></trkpt><trkpt lat="43.6482495" lon="11.2950847"><ele>254.33333333333331</ele><time>2026-04-06T15:25:49.486Z</time></trkpt><trkpt lat="43.6481859" lon="11.2950671"><ele>256.0</ele><time>2026-04-06T15:25:50.491Z</time></trkpt><trkpt lat="43.6481242" lon="11.2950473"><ele>255.99999999999997</ele><time>2026-04-06T15:25:51.492Z</time></trkpt><trkpt lat="43.6480028" lon="11.2950053"><ele>256.0</ele><time>2026-04-06T15:25:53.489Z</time></trkpt><trkpt lat="43.647934" lon="11.2949836"><ele>256.0</ele><time>2026-04-06T15:25:54.483Z</time></trkpt><trkpt lat="43.6478506" lon="11.2949508"><ele>256.0</ele><time>2026-04-06T15:25:56.484Z</time></trkpt><trkpt lat="43.6478231" lon="11.2948389"><ele>255.99999999999997</ele><time>2026-04-06T15:26:11.492Z</time></trkpt><trkpt lat="43.6478457" lon="11.2947395"><ele>256.0</ele><time>2026-04-06T15:26:13.499Z</time></trkpt><trkpt lat="43.6478624" lon="11.2946196"><ele>257.8333333333333</ele><time>2026-04-06T15:26:15.487Z</time></trkpt><trkpt lat="43.6478625" lon="11.2944999"><ele>259.66666666666663</ele><time>2026-04-06T15:26:17.488Z</time></trkpt><trkpt lat="43.647842" lon="11.2944124"><ele>261.5</ele><time>2026-04-06T15:26:19.485Z</time></trkpt><trkpt lat="43.6477521" lon="11.2943612"><ele>263.3333333333333</ele><time>2026-04-06T15:26:22.489Z</time></trkpt><trkpt lat="43.6476646" lon="11.2943524"><ele>265.1666666666667</ele><time>2026-04-06T15:26:24.491Z</time></trkpt><trkpt lat="43.6475749" lon="11.2943483"><ele>267.0</ele><time>2026-04-06T15:26:26.493Z</time></trkpt><trkpt lat="43.6474681" lon="11.2943446"><ele>267.3333333333333</ele><time>2026-04-06T15:26:28.488Z</time></trkpt><trkpt lat="43.6473613" lon="11.2943345"><ele>267.6666666666667</ele><time>2026-04-06T15:26:30.487Z</time></trkpt><trkpt lat="43.6472776" lon="11.294341"><ele>268.0</ele><time>2026-04-06T15:26:32.49Z</time></trkpt><trkpt lat="43.6472079" lon="11.2943909"><ele>268.33333333333337</ele><time>2026-04-06T15:26:35.495Z</time></trkpt><trkpt lat="43.6471546" lon="11.294472"><ele>268.6666666666667</ele><time>2026-04-06T15:26:54.491Z</time></trkpt><trkpt lat="43.6471236" lon="11.2945814"><ele>269.0</ele><time>2026-04-06T15:26:56.495Z</time></trkpt><trkpt lat="43.6471054" lon="11.294703"><ele>269.8</ele><time>2026-04-06T15:26:58.502Z</time></trkpt><trkpt lat="43.6470768" lon="11.2948154"><ele>270.59999999999997</ele><time>2026-04-06T15:27:00.499Z</time></trkpt><trkpt lat="43.6470358" lon="11.2949261"><ele>271.4</ele><time>2026-04-06T15:27:02.494Z</time></trkpt><trkpt lat="43.6469756" lon="11.2950411"><ele>272.2</ele><time>2026-04-06T15:27:04.493Z</time></trkpt><trkpt lat="43.6469234" lon="11.2951817"><ele>273.0</ele><time>2026-04-06T15:27:06.493Z</time></trkpt><trkpt lat="43.6468873" lon="11.295315"><ele>273.0</ele><time>2026-04-06T15:27:08.484Z</time></trkpt><trkpt lat="43.6468562" lon="11.2953967"><ele>273.0</ele><time>2026-04-06T15:27:09.492Z</time></trkpt><trkpt lat="43.6468275" lon="11.2954887"><ele>273.0</ele><time>2026-04-06T15:27:10.485Z</time></trkpt><trkpt lat="43.6468004" lon="11.2955783"><ele>273.0</ele><time>2026-04-06T15:27:11.487Z</time></trkpt><trkpt lat="43.6467814" lon="11.2956618"><ele>273.0</ele><time>2026-04-06T15:27:12.494Z</time></trkpt><trkpt lat="43.6467458" lon="11.2958425"><ele>273.0</ele><time>2026-04-06T15:27:14.494Z</time></trkpt><trkpt lat="43.6467289" lon="11.2959291"><ele>273.3333333333333</ele><time>2026-04-06T15:27:15.489Z</time></trkpt><trkpt lat="43.6466813" lon="11.2960817"><ele>273.6666666666667</ele><time>2026-04-06T15:27:17.49Z</time></trkpt><trkpt lat="43.6466497" lon="11.29617"><ele>274.0</ele><time>2026-04-06T15:27:18.49Z</time></trkpt><trkpt lat="43.6466219" lon="11.2962616"><ele>274.33333333333337</ele><time>2026-04-06T15:27:19.481Z</time></trkpt><trkpt lat="43.6465869" lon="11.2963485"><ele>274.6666666666667</ele><time>2026-04-06T15:27:20.481Z</time></trkpt><trkpt lat="43.6465496" lon="11.2964258"><ele>275.0</ele><time>2026-04-06T15:27:21.494Z</time></trkpt><trkpt lat="43.6465123" lon="11.2964997"><ele>275.0</ele><time>2026-04-06T15:27:22.478Z</time></trkpt><trkpt lat="43.6464574" lon="11.296569"><ele>275.0</ele><time>2026-04-06T15:27:23.485Z</time></trkpt><trkpt lat="43.6463805" lon="11.2966342"><ele>275.0</ele><time>2026-04-06T15:27:24.479Z</time></trkpt><trkpt lat="43.646301" lon="11.2967074"><ele>275.0</ele><time>2026-04-06T15:27:25.48Z</time></trkpt><trkpt lat="43.6462206" lon="11.2967763"><ele>275.0</ele><time>2026-04-06T15:27:26.475Z</time></trkpt><trkpt lat="43.6461488" lon="11.2968318"><ele>275.0</ele><time>2026-04-06T15:27:27.48Z</time></trkpt><trkpt lat="43.6460656" lon="11.2969122"><ele>275.0</ele><time>2026-04-06T15:27:28.486Z</time></trkpt><trkpt lat="43.6459884" lon="11.2970028"><ele>275.0</ele><time>2026-04-06T15:27:29.477Z</time></trkpt><trkpt lat="43.6459181" lon="11.297112"><ele>275.0</ele><time>2026-04-06T15:27:30.487Z</time></trkpt><trkpt lat="43.6458623" lon="11.2972325"><ele>275.0</ele><time>2026-04-06T15:27:31.474Z</time></trkpt><trkpt lat="43.6458122" lon="11.2973422"><ele>275.0</ele><time>2026-04-06T15:27:32.479Z</time></trkpt><trkpt lat="43.6457667" lon="11.2974608"><ele>275.0</ele><time>2026-04-06T15:27:33.481Z</time></trkpt><trkpt lat="43.6457165" lon="11.2975761"><ele>275.0</ele><time>2026-04-06T15:27:34.478Z</time></trkpt><trkpt lat="43.6456683" lon="11.297698"><ele>275.0</ele><time>2026-04-06T15:27:35.485Z</time></trkpt><trkpt lat="43.6456154" lon="11.2978166"><ele>275.0</ele><time>2026-04-06T15:27:36.481Z</time></trkpt><trkpt lat="43.6455616" lon="11.2979352"><ele>275.0</ele><time>2026-04-06T15:27:37.484Z</time></trkpt><trkpt lat="43.6455071" lon="11.2980635"><ele>275.2</ele><time>2026-04-06T15:27:38.483Z</time></trkpt><trkpt lat="43.6454565" lon="11.2981855"><ele>275.4</ele><time>2026-04-06T15:27:39.485Z</time></trkpt><trkpt lat="43.6454055" lon="11.2982967"><ele>275.6</ele><time>2026-04-06T15:27:40.485Z</time></trkpt><trkpt lat="43.6453506" lon="11.2984154"><ele>275.8</ele><time>2026-04-06T15:27:41.486Z</time></trkpt><trkpt lat="43.6452987" lon="11.2985308"><ele>276.0</ele><time>2026-04-06T15:27:42.487Z</time></trkpt><trkpt lat="43.6452512" lon="11.2986343"><ele>276.0</ele><time>2026-04-06T15:27:43.487Z</time></trkpt><trkpt lat="43.6452126" lon="11.2987309"><ele>276.0</ele><time>2026-04-06T15:27:44.486Z</time></trkpt><trkpt lat="43.6451795" lon="11.2988382"><ele>276.0</ele><time>2026-04-06T15:27:45.486Z</time></trkpt><trkpt lat="43.6451455" lon="11.298936"><ele>276.0</ele><time>2026-04-06T15:27:46.489Z</time></trkpt><trkpt lat="43.6451108" lon="11.2990109"><ele>276.0</ele><time>2026-04-06T15:27:47.483Z</time></trkpt><trkpt lat="43.6450679" lon="11.2991172"><ele>276.0</ele><time>2026-04-06T15:27:49.475Z</time></trkpt><trkpt lat="43.6450387" lon="11.2992011"><ele>276.0</ele><time>2026-04-06T15:28:12.483Z</time></trkpt><trkpt lat="43.6450269" lon="11.299345"><ele>276.0</ele><time>2026-04-06T15:28:14.481Z</time></trkpt><trkpt lat="43.6450337" lon="11.2994939"><ele>276.0</ele><time>2026-04-06T15:28:16.483Z</time></trkpt><trkpt lat="43.6450818" lon="11.2996468"><ele>276.0</ele><time>2026-04-06T15:28:18.487Z</time></trkpt><trkpt lat="43.6451273" lon="11.299811"><ele>276.0</ele><time>2026-04-06T15:28:20.48Z</time></trkpt><trkpt lat="43.6451531" lon="11.2998978"><ele>276.0</ele><time>2026-04-06T15:28:21.491Z</time></trkpt><trkpt lat="43.645179" lon="11.2999902"><ele>276.0</ele><time>2026-04-06T15:28:22.474Z</time></trkpt><trkpt lat="43.6452212" lon="11.3000775"><ele>276.0</ele><time>2026-04-06T15:28:23.474Z</time></trkpt><trkpt lat="43.6452723" lon="11.3001636"><ele>276.0</ele><time>2026-04-06T15:28:24.479Z</time></trkpt><trkpt lat="43.6453219" lon="11.3002415"><ele>276.0</ele><time>2026-04-06T15:28:25.481Z</time></trkpt><trkpt lat="43.6453669" lon="11.3003216"><ele>276.0</ele><time>2026-04-06T15:28:26.479Z</time></trkpt><trkpt lat="43.6454011" lon="11.3003965"><ele>275.0</ele><time>2026-04-06T15:28:27.483Z</time></trkpt><trkpt lat="43.6454383" lon="11.3004807"><ele>274.0</ele><time>2026-04-06T15:28:28.49Z</time></trkpt><trkpt lat="43.6454891" lon="11.3005585"><ele>273.0</ele><time>2026-04-06T15:28:29.481Z</time></trkpt><trkpt lat="43.6455267" lon="11.3006431"><ele>272.0</ele><time>2026-04-06T15:28:30.487Z</time></trkpt><trkpt lat="43.645569" lon="11.3007327"><ele>271.0</ele><time>2026-04-06T15:28:31.487Z</time></trkpt><trkpt lat="43.6456034" lon="11.3008187"><ele>270.0</ele><time>2026-04-06T15:28:32.485Z</time></trkpt><trkpt lat="43.6456445" lon="11.3009049"><ele>269.0</ele><time>2026-04-06T15:28:33.486Z</time></trkpt><trkpt lat="43.6456848" lon="11.3009926"><ele>269.0</ele><time>2026-04-06T15:28:34.488Z</time></trkpt><trkpt lat="43.6457163" lon="11.3010853"><ele>269.0</ele><time>2026-04-06T15:28:35.487Z</time></trkpt><trkpt lat="43.6457441" lon="11.3011887"><ele>269.0</ele><time>2026-04-06T15:28:36.479Z</time></trkpt><trkpt lat="43.6457608" lon="11.3013061"><ele>269.0</ele><time>2026-04-06T15:28:37.473Z</time></trkpt><trkpt lat="43.6457648" lon="11.3014374"><ele>269.0</ele><time>2026-04-06T15:28:38.477Z</time></trkpt><trkpt lat="43.6457822" lon="11.3015627"><ele>269.0</ele><time>2026-04-06T15:28:39.478Z</time></trkpt><trkpt lat="43.6458053" lon="11.3016941"><ele>268.59999999999997</ele><time>2026-04-06T15:28:40.488Z</time></trkpt><trkpt lat="43.6458274" lon="11.3018277"><ele>268.2</ele><time>2026-04-06T15:28:41.482Z</time></trkpt><trkpt lat="43.6458413" lon="11.3019673"><ele>267.79999999999995</ele><time>2026-04-06T15:28:42.482Z</time></trkpt><trkpt lat="43.6458577" lon="11.3021124"><ele>267.4</ele><time>2026-04-06T15:28:43.482Z</time></trkpt><trkpt lat="43.6458701" lon="11.3022386"><ele>267.0</ele><time>2026-04-06T15:28:44.478Z</time></trkpt><trkpt lat="43.6458829" lon="11.3023487"><ele>266.5</ele><time>2026-04-06T15:28:45.483Z</time></trkpt><trkpt lat="43.6458959" lon="11.302453"><ele>266.0</ele><time>2026-04-06T15:28:46.486Z</time></trkpt><trkpt lat="43.6458917" lon="11.3025604"><ele>265.5</ele><time>2026-04-06T15:28:47.487Z</time></trkpt><trkpt lat="43.6458892" lon="11.3026801"><ele>265.0</ele><time>2026-04-06T15:28:48.479Z</time></trkpt><trkpt lat="43.6458926" lon="11.3028034"><ele>264.5</ele><time>2026-04-06T15:28:49.477Z</time></trkpt><trkpt lat="43.6458922" lon="11.3029312"><ele>264.0</ele><time>2026-04-06T15:28:50.477Z</time></trkpt><trkpt lat="43.6458907" lon="11.3030551"><ele>263.0</ele><time>2026-04-06T15:28:51.484Z</time></trkpt><trkpt lat="43.6458981" lon="11.3031654"><ele>262.0</ele><time>2026-04-06T15:28:52.477Z</time></trkpt><trkpt lat="43.6458949" lon="11.3032674"><ele>261.0</ele><time>2026-04-06T15:28:53.478Z</time></trkpt><trkpt lat="43.6459" lon="11.3033742"><ele>260.0</ele><time>2026-04-06T15:28:54.476Z</time></trkpt><trkpt lat="43.6458985" lon="11.3035063"><ele>259.0</ele><time>2026-04-06T15:28:55.479Z</time></trkpt><trkpt lat="43.6459014" lon="11.30365"><ele>258.0</ele><time>2026-04-06T15:28:56.476Z</time></trkpt><trkpt lat="43.6458963" lon="11.3037928"><ele>257.8</ele><time>2026-04-06T15:28:57.474Z</time></trkpt><trkpt lat="43.6458846" lon="11.3039325"><ele>257.6</ele><time>2026-04-06T15:28:58.479Z</time></trkpt><trkpt lat="43.645874" lon="11.3040785"><ele>257.4</ele><time>2026-04-06T15:28:59.482Z</time></trkpt><trkpt lat="43.6458815" lon="11.3042199"><ele>257.2</ele><time>2026-04-06T15:29:00.48Z</time></trkpt><trkpt lat="43.6458938" lon="11.3043594"><ele>257.0</ele><time>2026-04-06T15:29:01.476Z</time></trkpt><trkpt lat="43.6458889" lon="11.3045015"><ele>257.0</ele><time>2026-04-06T15:29:02.477Z</time></trkpt><trkpt lat="43.6458869" lon="11.304638"><ele>257.0</ele><time>2026-04-06T15:29:03.485Z</time></trkpt><trkpt lat="43.6458889" lon="11.3047729"><ele>257.0</ele><time>2026-04-06T15:29:04.483Z</time></trkpt><trkpt lat="43.6458954" lon="11.3049066"><ele>257.0</ele><time>2026-04-06T15:29:05.484Z</time></trkpt><trkpt lat="43.6458987" lon="11.3050486"><ele>257.0</ele><time>2026-04-06T15:29:06.488Z</time></trkpt><trkpt lat="43.6459007" lon="11.3051764"><ele>257.6666666666667</ele><time>2026-04-06T15:29:07.488Z</time></trkpt><trkpt lat="43.6459037" lon="11.3052917"><ele>258.33333333333337</ele><time>2026-04-06T15:29:08.485Z</time></trkpt><trkpt lat="43.6459014" lon="11.3054061"><ele>259.0</ele><time>2026-04-06T15:29:09.48Z</time></trkpt><trkpt lat="43.6459057" lon="11.3055133"><ele>259.6666666666667</ele><time>2026-04-06T15:29:10.487Z</time></trkpt><trkpt lat="43.6459128" lon="11.3056189"><ele>260.3333333333333</ele><time>2026-04-06T15:29:11.489Z</time></trkpt><trkpt lat="43.6459198" lon="11.3057299"><ele>261.0</ele><time>2026-04-06T15:29:12.482Z</time></trkpt><trkpt lat="43.6459231" lon="11.3058318"><ele>261.3333333333333</ele><time>2026-04-06T15:29:13.483Z</time></trkpt><trkpt lat="43.645931" lon="11.305972"><ele>261.6666666666667</ele><time>2026-04-06T15:29:15.476Z</time></trkpt><trkpt lat="43.6459297" lon="11.3060895"><ele>262.0</ele><time>2026-04-06T15:29:27.481Z</time></trkpt><trkpt lat="43.645925" lon="11.3062432"><ele>262.33333333333337</ele><time>2026-04-06T15:29:29.475Z</time></trkpt><trkpt lat="43.6459178" lon="11.3063455"><ele>262.6666666666667</ele><time>2026-04-06T15:29:30.479Z</time></trkpt><trkpt lat="43.6459036" lon="11.3064468"><ele>263.0</ele><time>2026-04-06T15:29:31.476Z</time></trkpt><trkpt lat="43.6458771" lon="11.3065502"><ele>263.2</ele><time>2026-04-06T15:29:32.469Z</time></trkpt><trkpt lat="43.6458246" lon="11.3066654"><ele>263.4</ele><time>2026-04-06T15:29:33.475Z</time></trkpt><trkpt lat="43.6457552" lon="11.3067831"><ele>263.59999999999997</ele><time>2026-04-06T15:29:34.469Z</time></trkpt><trkpt lat="43.6456751" lon="11.3068973"><ele>263.8</ele><time>2026-04-06T15:29:35.477Z</time></trkpt><trkpt lat="43.6455983" lon="11.3070047"><ele>264.0</ele><time>2026-04-06T15:29:36.484Z</time></trkpt><trkpt lat="43.6455238" lon="11.3071117"><ele>264.0</ele><time>2026-04-06T15:29:37.478Z</time></trkpt><trkpt lat="43.6454567" lon="11.307216"><ele>264.0</ele><time>2026-04-06T15:29:38.478Z</time></trkpt><trkpt lat="43.6453735" lon="11.3073266"><ele>264.0</ele><time>2026-04-06T15:29:39.483Z</time></trkpt><trkpt lat="43.6452928" lon="11.3074337"><ele>264.0</ele><time>2026-04-06T15:29:40.478Z</time></trkpt><trkpt lat="43.6452208" lon="11.3075426"><ele>264.0</ele><time>2026-04-06T15:29:41.485Z</time></trkpt><trkpt lat="43.6451528" lon="11.3076403"><ele>262.59999999999997</ele><time>2026-04-06T15:29:42.482Z</time></trkpt><trkpt lat="43.6450825" lon="11.3077436"><ele>261.2</ele><time>2026-04-06T15:29:43.485Z</time></trkpt><trkpt lat="43.6450122" lon="11.3078442"><ele>259.79999999999995</ele><time>2026-04-06T15:29:44.479Z</time></trkpt><trkpt lat="43.6449371" lon="11.3079526"><ele>258.4</ele><time>2026-04-06T15:29:45.481Z</time></trkpt><trkpt lat="43.6448634" lon="11.3080551"><ele>257.0</ele><time>2026-04-06T15:29:46.479Z</time></trkpt><trkpt lat="43.6447968" lon="11.3081584"><ele>256.6</ele><time>2026-04-06T15:29:47.487Z</time></trkpt><trkpt lat="43.6447271" lon="11.3082567"><ele>256.2</ele><time>2026-04-06T15:29:48.481Z</time></trkpt><trkpt lat="43.644658" lon="11.3083588"><ele>255.8</ele><time>2026-04-06T15:29:49.482Z</time></trkpt><trkpt lat="43.6445943" lon="11.308461"><ele>255.4</ele><time>2026-04-06T15:29:50.479Z</time></trkpt><trkpt lat="43.6445285" lon="11.3085547"><ele>255.0</ele><time>2026-04-06T15:29:51.487Z</time></trkpt><trkpt lat="43.6444639" lon="11.308649"><ele>253.8</ele><time>2026-04-06T15:29:52.482Z</time></trkpt><trkpt lat="43.6443926" lon="11.3087538"><ele>252.6</ele><time>2026-04-06T15:29:53.483Z</time></trkpt><trkpt lat="43.6443124" lon="11.3088605"><ele>251.39999999999998</ele><time>2026-04-06T15:29:54.479Z</time></trkpt><trkpt lat="43.6442289" lon="11.3089696"><ele>250.2</ele><time>2026-04-06T15:29:55.48Z</time></trkpt><trkpt lat="43.644152" lon="11.3090869"><ele>249.0</ele><time>2026-04-06T15:29:56.483Z</time></trkpt><trkpt lat="43.644073" lon="11.3092027"><ele>249.0</ele><time>2026-04-06T15:29:57.477Z</time></trkpt><trkpt lat="43.6439914" lon="11.309318"><ele>248.99999999999997</ele><time>2026-04-06T15:29:58.483Z</time></trkpt><trkpt lat="43.6439117" lon="11.3094282"><ele>248.99999999999997</ele><time>2026-04-06T15:29:59.478Z</time></trkpt><trkpt lat="43.6438417" lon="11.3095248"><ele>249.0</ele><time>2026-04-06T15:30:00.481Z</time></trkpt><trkpt lat="43.643782" lon="11.3096071"><ele>249.0</ele><time>2026-04-06T15:30:01.478Z</time></trkpt><trkpt lat="43.6437183" lon="11.3096892"><ele>249.0</ele><time>2026-04-06T15:30:02.479Z</time></trkpt><trkpt lat="43.6436605" lon="11.3097734"><ele>249.0</ele><time>2026-04-06T15:30:03.48Z</time></trkpt><trkpt lat="43.6436051" lon="11.3098629"><ele>249.0</ele><time>2026-04-06T15:30:04.486Z</time></trkpt><trkpt lat="43.6435535" lon="11.3099504"><ele>249.0</ele><time>2026-04-06T15:30:05.478Z</time></trkpt><trkpt lat="43.6434922" lon="11.3100347"><ele>249.0</ele><time>2026-04-06T15:30:06.48Z</time></trkpt><trkpt lat="43.6434222" lon="11.3101262"><ele>249.0</ele><time>2026-04-06T15:30:07.476Z</time></trkpt><trkpt lat="43.6433386" lon="11.3102339"><ele>249.6</ele><time>2026-04-06T15:30:08.478Z</time></trkpt><trkpt lat="43.6432687" lon="11.3103468"><ele>250.2</ele><time>2026-04-06T15:30:09.474Z</time></trkpt><trkpt lat="43.6432059" lon="11.31044"><ele>250.79999999999998</ele><time>2026-04-06T15:30:10.478Z</time></trkpt><trkpt lat="43.6431494" lon="11.3105275"><ele>251.39999999999998</ele><time>2026-04-06T15:30:11.474Z</time></trkpt><trkpt lat="43.6430956" lon="11.3106202"><ele>252.0</ele><time>2026-04-06T15:30:12.486Z</time></trkpt><trkpt lat="43.6430305" lon="11.3107179"><ele>253.25</ele><time>2026-04-06T15:30:13.48Z</time></trkpt><trkpt lat="43.6429547" lon="11.3108212"><ele>254.5</ele><time>2026-04-06T15:30:14.483Z</time></trkpt><trkpt lat="43.6428696" lon="11.3109306"><ele>255.75</ele><time>2026-04-06T15:30:15.482Z</time></trkpt><trkpt lat="43.6427845" lon="11.311047"><ele>257.0</ele><time>2026-04-06T15:30:16.478Z</time></trkpt><trkpt lat="43.6427049" lon="11.3111572"><ele>257.0</ele><time>2026-04-06T15:30:17.479Z</time></trkpt><trkpt lat="43.6426414" lon="11.3112441"><ele>257.0</ele><time>2026-04-06T15:30:18.478Z</time></trkpt><trkpt lat="43.6425838" lon="11.3113343"><ele>257.0</ele><time>2026-04-06T15:30:19.469Z</time></trkpt><trkpt lat="43.6425322" lon="11.3114173"><ele>257.0</ele><time>2026-04-06T15:30:20.48Z</time></trkpt><trkpt lat="43.6424833" lon="11.311486"><ele>257.0</ele><time>2026-04-06T15:30:21.474Z</time></trkpt><trkpt lat="43.6424361" lon="11.3115465"><ele>257.0</ele><time>2026-04-06T15:30:22.474Z</time></trkpt><trkpt lat="43.6423569" lon="11.3116482"><ele>257.33333333333337</ele><time>2026-04-06T15:30:24.476Z</time></trkpt><trkpt lat="43.642294" lon="11.3117415"><ele>257.6666666666667</ele><time>2026-04-06T15:30:26.475Z</time></trkpt><trkpt lat="43.6422415" lon="11.3118293"><ele>258.0</ele><time>2026-04-06T15:30:29.483Z</time></trkpt><trkpt lat="43.6422102" lon="11.311921"><ele>258.3333333333333</ele><time>2026-04-06T15:30:31.484Z</time></trkpt><trkpt lat="43.6421924" lon="11.3120405"><ele>258.66666666666663</ele><time>2026-04-06T15:30:33.49Z</time></trkpt><trkpt lat="43.6422006" lon="11.3121297"><ele>259.0</ele><time>2026-04-06T15:30:34.478Z</time></trkpt><trkpt lat="43.6422116" lon="11.3122906"><ele>259.0</ele><time>2026-04-06T15:30:36.479Z</time></trkpt><trkpt lat="43.6422172" lon="11.3123891"><ele>259.0</ele><time>2026-04-06T15:30:37.475Z</time></trkpt><trkpt lat="43.6422173" lon="11.3124809"><ele>259.0</ele><time>2026-04-06T15:30:38.477Z</time></trkpt><trkpt lat="43.6421949" lon="11.3125673"><ele>259.0</ele><time>2026-04-06T15:30:39.472Z</time></trkpt><trkpt lat="43.6421473" lon="11.3126537"><ele>259.0</ele><time>2026-04-06T15:30:41.471Z</time></trkpt><trkpt lat="43.6420821" lon="11.3126944"><ele>259.0</ele><time>2026-04-06T15:31:04.469Z</time></trkpt><trkpt lat="43.6419632" lon="11.31271"><ele>260.75</ele><time>2026-04-06T15:31:06.458Z</time></trkpt><trkpt lat="43.6418611" lon="11.3127387"><ele>262.5</ele><time>2026-04-06T15:31:07.463Z</time></trkpt><trkpt lat="43.6417635" lon="11.3127716"><ele>264.25</ele><time>2026-04-06T15:31:08.475Z</time></trkpt><trkpt lat="43.6416472" lon="11.3128045"><ele>266.0</ele><time>2026-04-06T15:31:09.466Z</time></trkpt><trkpt lat="43.6415151" lon="11.3128279"><ele>266.0</ele><time>2026-04-06T15:31:10.474Z</time></trkpt><trkpt lat="43.6413852" lon="11.312851"><ele>266.0</ele><time>2026-04-06T15:31:11.469Z</time></trkpt><trkpt lat="43.641286" lon="11.3128712"><ele>266.0</ele><time>2026-04-06T15:31:12.47Z</time></trkpt><trkpt lat="43.6411881" lon="11.3128928"><ele>266.0</ele><time>2026-04-06T15:31:13.476Z</time></trkpt><trkpt lat="43.6410863" lon="11.3129379"><ele>266.0</ele><time>2026-04-06T15:31:14.474Z</time></trkpt><trkpt lat="43.6409723" lon="11.3130108"><ele>267.33333333333337</ele><time>2026-04-06T15:31:15.47Z</time></trkpt><trkpt lat="43.6408492" lon="11.3131001"><ele>268.6666666666667</ele><time>2026-04-06T15:31:16.469Z</time></trkpt><trkpt lat="43.6407045" lon="11.3131895"><ele>270.0</ele><time>2026-04-06T15:31:17.467Z</time></trkpt><trkpt lat="43.6405383" lon="11.3132701"><ele>270.0</ele><time>2026-04-06T15:31:18.471Z</time></trkpt><trkpt lat="43.6403709" lon="11.3133217"><ele>270.0</ele><time>2026-04-06T15:31:19.473Z</time></trkpt><trkpt lat="43.6402246" lon="11.3133372"><ele>270.0</ele><time>2026-04-06T15:31:20.476Z</time></trkpt><trkpt lat="43.6400634" lon="11.3133452"><ele>272.6666666666667</ele><time>2026-04-06T15:31:21.479Z</time></trkpt><trkpt lat="43.6399015" lon="11.3133754"><ele>275.33333333333337</ele><time>2026-04-06T15:31:22.479Z</time></trkpt><trkpt lat="43.6397267" lon="11.3133859"><ele>278.0</ele><time>2026-04-06T15:31:23.481Z</time></trkpt><trkpt lat="43.6395588" lon="11.3134021"><ele>277.6666666666667</ele><time>2026-04-06T15:31:24.474Z</time></trkpt><trkpt lat="43.6393824" lon="11.3134406"><ele>277.3333333333333</ele><time>2026-04-06T15:31:25.476Z</time></trkpt><trkpt lat="43.6392234" lon="11.3134893"><ele>277.0</ele><time>2026-04-06T15:31:26.485Z</time></trkpt><trkpt lat="43.6390673" lon="11.3135351"><ele>277.0</ele><time>2026-04-06T15:31:27.486Z</time></trkpt><trkpt lat="43.6389154" lon="11.3136187"><ele>277.0</ele><time>2026-04-06T15:31:28.484Z</time></trkpt><trkpt lat="43.6387658" lon="11.3136944"><ele>277.0</ele><time>2026-04-06T15:31:29.48Z</time></trkpt><trkpt lat="43.6386329" lon="11.3137675"><ele>275.75</ele><time>2026-04-06T15:31:30.487Z</time></trkpt><trkpt lat="43.6384998" lon="11.3138378"><ele>274.5</ele><time>2026-04-06T15:31:31.482Z</time></trkpt><trkpt lat="43.6383804" lon="11.3138957"><ele>273.25</ele><time>2026-04-06T15:31:32.478Z</time></trkpt><trkpt lat="43.6382692" lon="11.3139353"><ele>272.0</ele><time>2026-04-06T15:31:33.473Z</time></trkpt><trkpt lat="43.6381722" lon="11.3139522"><ele>272.0</ele><time>2026-04-06T15:31:34.486Z</time></trkpt><trkpt lat="43.6381061" lon="11.3139473"><ele>272.0</ele><time>2026-04-06T15:31:35.468Z</time></trkpt><trkpt lat="43.6380323" lon="11.313897"><ele>272.0</ele><time>2026-04-06T15:31:37.48Z</time></trkpt><trkpt lat="43.6379804" lon="11.3138015"><ele>272.0</ele><time>2026-04-06T15:31:39.476Z</time></trkpt><trkpt lat="43.6379211" lon="11.3137505"><ele>272.0</ele><time>2026-04-06T15:31:40.478Z</time></trkpt><trkpt lat="43.6378421" lon="11.3136925"><ele>272.0</ele><time>2026-04-06T15:31:41.473Z</time></trkpt><trkpt lat="43.6377702" lon="11.3136306"><ele>273.33333333333337</ele><time>2026-04-06T15:31:42.48Z</time></trkpt><trkpt lat="43.6377044" lon="11.3135803"><ele>274.6666666666667</ele><time>2026-04-06T15:31:43.477Z</time></trkpt><trkpt lat="43.6376473" lon="11.3135193"><ele>276.0</ele><time>2026-04-06T15:31:44.494Z</time></trkpt><trkpt lat="43.6375932" lon="11.3134578"><ele>277.3333333333333</ele><time>2026-04-06T15:31:45.486Z</time></trkpt><trkpt lat="43.637535" lon="11.3133091"><ele>278.66666666666663</ele><time>2026-04-06T15:31:47.483Z</time></trkpt><trkpt lat="43.6375144" lon="11.3132107"><ele>280.0</ele><time>2026-04-06T15:31:48.486Z</time></trkpt><trkpt lat="43.6375002" lon="11.3130892"><ele>278.8</ele><time>2026-04-06T15:31:49.475Z</time></trkpt><trkpt lat="43.6375015" lon="11.3129477"><ele>277.6</ele><time>2026-04-06T15:31:50.489Z</time></trkpt><trkpt lat="43.6375063" lon="11.3128317"><ele>276.4</ele><time>2026-04-06T15:31:51.486Z</time></trkpt><trkpt lat="43.637494" lon="11.3127418"><ele>275.2</ele><time>2026-04-06T15:31:52.478Z</time></trkpt><trkpt lat="43.6374444" lon="11.3125761"><ele>274.0</ele><time>2026-04-06T15:31:54.481Z</time></trkpt><trkpt lat="43.6374042" lon="11.3124603"><ele>274.0</ele><time>2026-04-06T15:31:55.484Z</time></trkpt><trkpt lat="43.6373542" lon="11.3123343"><ele>274.0</ele><time>2026-04-06T15:31:56.483Z</time></trkpt><trkpt lat="43.6372911" lon="11.3122015"><ele>274.0</ele><time>2026-04-06T15:31:57.483Z</time></trkpt><trkpt lat="43.6372307" lon="11.3120751"><ele>274.0</ele><time>2026-04-06T15:31:58.493Z</time></trkpt><trkpt lat="43.6371728" lon="11.3119498"><ele>274.0</ele><time>2026-04-06T15:31:59.48Z</time></trkpt><trkpt lat="43.6371001" lon="11.3118069"><ele>274.4</ele><time>2026-04-06T15:32:00.487Z</time></trkpt><trkpt lat="43.6370284" lon="11.3116786"><ele>274.79999999999995</ele><time>2026-04-06T15:32:01.482Z</time></trkpt><trkpt lat="43.6369651" lon="11.311561"><ele>275.20000000000005</ele><time>2026-04-06T15:32:02.488Z</time></trkpt><trkpt lat="43.6369051" lon="11.311452"><ele>275.6</ele><time>2026-04-06T15:32:03.489Z</time></trkpt><trkpt lat="43.6368462" lon="11.3113523"><ele>276.0</ele><time>2026-04-06T15:32:04.489Z</time></trkpt><trkpt lat="43.6367858" lon="11.3112558"><ele>273.40000000000003</ele><time>2026-04-06T15:32:05.481Z</time></trkpt><trkpt lat="43.6367127" lon="11.311177"><ele>270.8</ele><time>2026-04-06T15:32:06.484Z</time></trkpt><trkpt lat="43.6366294" lon="11.3110902"><ele>268.20000000000005</ele><time>2026-04-06T15:32:07.481Z</time></trkpt><trkpt lat="43.6365273" lon="11.3110114"><ele>265.6</ele><time>2026-04-06T15:32:08.494Z</time></trkpt><trkpt lat="43.6364415" lon="11.3109493"><ele>263.0</ele><time>2026-04-06T15:32:09.485Z</time></trkpt><trkpt lat="43.6363746" lon="11.3109008"><ele>263.0</ele><time>2026-04-06T15:32:10.487Z</time></trkpt><trkpt lat="43.6362924" lon="11.310771"><ele>263.0</ele><time>2026-04-06T15:32:12.482Z</time></trkpt><trkpt lat="43.63627" lon="11.3106822"><ele>263.0</ele><time>2026-04-06T15:32:13.479Z</time></trkpt><trkpt lat="43.6362741" lon="11.3105848"><ele>263.0</ele><time>2026-04-06T15:32:14.488Z</time></trkpt><trkpt lat="43.636291" lon="11.3104938"><ele>263.0</ele><time>2026-04-06T15:32:15.487Z</time></trkpt><trkpt lat="43.6362905" lon="11.3104048"><ele>263.0</ele><time>2026-04-06T15:32:16.483Z</time></trkpt><trkpt lat="43.6362565" lon="11.3102477"><ele>261.83333333333337</ele><time>2026-04-06T15:32:18.488Z</time></trkpt><trkpt lat="43.6362018" lon="11.3101209"><ele>260.6666666666667</ele><time>2026-04-06T15:32:20.481Z</time></trkpt><trkpt lat="43.6361404" lon="11.3100445"><ele>259.5</ele><time>2026-04-06T15:32:23.493Z</time></trkpt><trkpt lat="43.6360805" lon="11.3099816"><ele>258.3333333333333</ele><time>2026-04-06T15:32:25.5Z</time></trkpt><trkpt lat="43.6360113" lon="11.3099435"><ele>257.16666666666663</ele><time>2026-04-06T15:32:27.502Z</time></trkpt><trkpt lat="43.6359313" lon="11.3099205"><ele>256.0</ele><time>2026-04-06T15:32:29.499Z</time></trkpt><trkpt lat="43.6358605" lon="11.3099194"><ele>255.99999999999997</ele><time>2026-04-06T15:32:31.502Z</time></trkpt><trkpt lat="43.6357898" lon="11.3099316"><ele>256.0</ele><time>2026-04-06T15:32:33.497Z</time></trkpt><trkpt lat="43.6357256" lon="11.3099302"><ele>256.0</ele><time>2026-04-06T15:32:35.493Z</time></trkpt><trkpt lat="43.635635" lon="11.3099193"><ele>256.0</ele><time>2026-04-06T15:32:38.493Z</time></trkpt><trkpt lat="43.6355398" lon="11.3099642"><ele>255.99999999999997</ele><time>2026-04-06T15:32:40.486Z</time></trkpt><trkpt lat="43.6354494" lon="11.3100117"><ele>256.0</ele><time>2026-04-06T15:32:42.488Z</time></trkpt><trkpt lat="43.635379" lon="11.310006"><ele>256.0</ele><time>2026-04-06T15:32:44.492Z</time></trkpt><trkpt lat="43.6353085" lon="11.3099692"><ele>255.99999999999997</ele><time>2026-04-06T15:33:57.496Z</time></trkpt><trkpt lat="43.6352304" lon="11.3099219"><ele>256.0</ele><time>2026-04-06T15:34:00.495Z</time></trkpt><trkpt lat="43.6351662" lon="11.3098954"><ele>256.0</ele><time>2026-04-06T15:34:02.495Z</time></trkpt><trkpt lat="43.6351005" lon="11.3098661"><ele>255.99999999999997</ele><time>2026-04-06T15:34:04.494Z</time></trkpt><trkpt lat="43.6350412" lon="11.3098174"><ele>256.0</ele><time>2026-04-06T15:34:06.499Z</time></trkpt><trkpt lat="43.6349899" lon="11.3097444"><ele>256.0</ele><time>2026-04-06T15:34:08.493Z</time></trkpt><trkpt lat="43.6349165" lon="11.3096602"><ele>255.66666666666666</ele><time>2026-04-06T15:34:10.497Z</time></trkpt><trkpt lat="43.6348463" lon="11.3096182"><ele>255.33333333333331</ele><time>2026-04-06T15:34:12.489Z</time></trkpt><trkpt lat="43.6347754" lon="11.3096339"><ele>255.0</ele><time>2026-04-06T15:34:14.493Z</time></trkpt><trkpt lat="43.634712" lon="11.3096764"><ele>254.66666666666669</ele><time>2026-04-06T15:34:16.492Z</time></trkpt><trkpt lat="43.634659" lon="11.3097983"><ele>254.33333333333334</ele><time>2026-04-06T15:34:18.495Z</time></trkpt><trkpt lat="43.6345966" lon="11.3098803"><ele>254.0</ele><time>2026-04-06T15:34:20.477Z</time></trkpt><trkpt lat="43.6345286" lon="11.3098806"><ele>254.2</ele><time>2026-04-06T15:34:22.496Z</time></trkpt><trkpt lat="43.6344568" lon="11.3098085"><ele>254.39999999999998</ele><time>2026-04-06T15:34:24.497Z</time></trkpt><trkpt lat="43.6343544" lon="11.3097347"><ele>254.6</ele><time>2026-04-06T15:34:26.482Z</time></trkpt><trkpt lat="43.634259" lon="11.3096623"><ele>254.8</ele><time>2026-04-06T15:34:28.491Z</time></trkpt><trkpt lat="43.6341733" lon="11.3096152"><ele>255.0</ele><time>2026-04-06T15:34:30.487Z</time></trkpt><trkpt lat="43.6340845" lon="11.3096122"><ele>253.33333333333334</ele><time>2026-04-06T15:34:32.494Z</time></trkpt><trkpt lat="43.6339947" lon="11.3095701"><ele>251.66666666666669</ele><time>2026-04-06T15:34:34.493Z</time></trkpt><trkpt lat="43.6339321" lon="11.3095156"><ele>250.0</ele><time>2026-04-06T15:34:36.494Z</time></trkpt><trkpt lat="43.6338658" lon="11.3094748"><ele>248.33333333333334</ele><time>2026-04-06T15:34:38.5Z</time></trkpt><trkpt lat="43.6338007" lon="11.3094511"><ele>246.66666666666669</ele><time>2026-04-06T15:34:40.494Z</time></trkpt><trkpt lat="43.6337224" lon="11.309391"><ele>245.0</ele><time>2026-04-06T15:34:43.489Z</time></trkpt><trkpt lat="43.6336605" lon="11.309319"><ele>245.50000000000003</ele><time>2026-04-06T15:34:45.489Z</time></trkpt><trkpt lat="43.6335692" lon="11.3092602"><ele>246.0</ele><time>2026-04-06T15:34:47.486Z</time></trkpt><trkpt lat="43.6334845" lon="11.3092249"><ele>246.5</ele><time>2026-04-06T15:34:49.492Z</time></trkpt><trkpt lat="43.633398" lon="11.3092161"><ele>247.0</ele><time>2026-04-06T15:34:52.493Z</time></trkpt><trkpt lat="43.6333327" lon="11.3092396"><ele>247.50000000000003</ele><time>2026-04-06T15:34:54.487Z</time></trkpt><trkpt lat="43.633242" lon="11.309298"><ele>248.0</ele><time>2026-04-06T15:34:56.482Z</time></trkpt><trkpt lat="43.6331866" lon="11.3093428"><ele>248.0</ele><time>2026-04-06T15:34:57.476Z</time></trkpt><trkpt lat="43.633071" lon="11.3094244"><ele>248.0</ele><time>2026-04-06T15:34:59.486Z</time></trkpt><trkpt lat="43.6329459" lon="11.3094384"><ele>248.0</ele><time>2026-04-06T15:35:01.481Z</time></trkpt><trkpt lat="43.6328563" lon="11.3094184"><ele>248.0</ele><time>2026-04-06T15:35:03.481Z</time></trkpt><trkpt lat="43.6328018" lon="11.3093627"><ele>248.0</ele><time>2026-04-06T15:35:05.491Z</time></trkpt><trkpt lat="43.6327592" lon="11.3092424"><ele>246.4</ele><time>2026-04-06T15:35:07.491Z</time></trkpt><trkpt lat="43.6327877" lon="11.3091139"><ele>244.8</ele><time>2026-04-06T15:35:09.492Z</time></trkpt><trkpt lat="43.6328051" lon="11.3089951"><ele>243.2</ele><time>2026-04-06T15:35:11.479Z</time></trkpt><trkpt lat="43.6328422" lon="11.3088692"><ele>241.6</ele><time>2026-04-06T15:35:13.482Z</time></trkpt><trkpt lat="43.6328756" lon="11.3087038"><ele>240.0</ele><time>2026-04-06T15:35:15.49Z</time></trkpt><trkpt lat="43.6328985" lon="11.3086225"><ele>240.0</ele><time>2026-04-06T15:35:16.483Z</time></trkpt><trkpt lat="43.6329216" lon="11.308532"><ele>240.0</ele><time>2026-04-06T15:35:17.492Z</time></trkpt><trkpt lat="43.632939" lon="11.3084341"><ele>240.0</ele><time>2026-04-06T15:35:18.492Z</time></trkpt><trkpt lat="43.6329571" lon="11.3083278"><ele>240.0</ele><time>2026-04-06T15:35:19.489Z</time></trkpt><trkpt lat="43.6329563" lon="11.3082107"><ele>240.0</ele><time>2026-04-06T15:35:20.494Z</time></trkpt><trkpt lat="43.6329581" lon="11.3080799"><ele>240.0</ele><time>2026-04-06T15:35:21.49Z</time></trkpt><trkpt lat="43.6329617" lon="11.3079658"><ele>239.83333333333334</ele><time>2026-04-06T15:35:22.484Z</time></trkpt><trkpt lat="43.6329567" lon="11.3078577"><ele>239.66666666666669</ele><time>2026-04-06T15:35:23.488Z</time></trkpt><trkpt lat="43.6329327" lon="11.3077345"><ele>239.5</ele><time>2026-04-06T15:35:24.485Z</time></trkpt><trkpt lat="43.6329039" lon="11.3076188"><ele>239.33333333333334</ele><time>2026-04-06T15:35:25.488Z</time></trkpt><trkpt lat="43.6328735" lon="11.3075154"><ele>239.16666666666669</ele><time>2026-04-06T15:35:26.484Z</time></trkpt><trkpt lat="43.6328629" lon="11.3074139"><ele>239.0</ele><time>2026-04-06T15:35:27.484Z</time></trkpt><trkpt lat="43.6328368" lon="11.3073088"><ele>241.66666666666669</ele><time>2026-04-06T15:35:28.487Z</time></trkpt><trkpt lat="43.6327951" lon="11.3071956"><ele>244.33333333333334</ele><time>2026-04-06T15:35:29.481Z</time></trkpt><trkpt lat="43.6327599" lon="11.3071056"><ele>247.0</ele><time>2026-04-06T15:35:30.494Z</time></trkpt><trkpt lat="43.6327462" lon="11.3070055"><ele>249.66666666666669</ele><time>2026-04-06T15:35:31.484Z</time></trkpt><trkpt lat="43.6327505" lon="11.3068727"><ele>252.33333333333334</ele><time>2026-04-06T15:35:32.486Z</time></trkpt><trkpt lat="43.6327477" lon="11.3067415"><ele>255.0</ele><time>2026-04-06T15:35:33.48Z</time></trkpt><trkpt lat="43.6327304" lon="11.3066301"><ele>255.0</ele><time>2026-04-06T15:35:34.485Z</time></trkpt><trkpt lat="43.6327034" lon="11.306514"><ele>255.0</ele><time>2026-04-06T15:35:35.485Z</time></trkpt><trkpt lat="43.6326694" lon="11.306399"><ele>255.0</ele><time>2026-04-06T15:35:36.486Z</time></trkpt><trkpt lat="43.6326338" lon="11.3063027"><ele>255.0</ele><time>2026-04-06T15:35:37.487Z</time></trkpt><trkpt lat="43.6326032" lon="11.3061955"><ele>255.0</ele><time>2026-04-06T15:35:38.489Z</time></trkpt><trkpt lat="43.6325705" lon="11.3060939"><ele>255.0</ele><time>2026-04-06T15:35:39.493Z</time></trkpt><trkpt lat="43.6325359" lon="11.3060007"><ele>253.8</ele><time>2026-04-06T15:35:40.49Z</time></trkpt><trkpt lat="43.632495" lon="11.3058991"><ele>252.6</ele><time>2026-04-06T15:35:41.483Z</time></trkpt><trkpt lat="43.6324589" lon="11.3057842"><ele>251.39999999999998</ele><time>2026-04-06T15:35:42.485Z</time></trkpt><trkpt lat="43.6324252" lon="11.3056936"><ele>250.2</ele><time>2026-04-06T15:35:43.488Z</time></trkpt><trkpt lat="43.6323715" lon="11.3055795"><ele>249.0</ele><time>2026-04-06T15:35:45.488Z</time></trkpt><trkpt lat="43.6322855" lon="11.3054873"><ele>248.79999999999998</ele><time>2026-04-06T15:35:47.482Z</time></trkpt><trkpt lat="43.6322422" lon="11.3053398"><ele>248.59999999999997</ele><time>2026-04-06T15:35:49.475Z</time></trkpt><trkpt lat="43.6322746" lon="11.3051902"><ele>248.4</ele><time>2026-04-06T15:35:51.487Z</time></trkpt><trkpt lat="43.6323056" lon="11.3051099"><ele>248.2</ele><time>2026-04-06T15:35:52.484Z</time></trkpt><trkpt lat="43.6323428" lon="11.3050384"><ele>248.0</ele><time>2026-04-06T15:35:53.48Z</time></trkpt><trkpt lat="43.6323661" lon="11.3048785"><ele>248.00000000000003</ele><time>2026-04-06T15:35:55.48Z</time></trkpt><trkpt lat="43.6323591" lon="11.3047829"><ele>248.0</ele><time>2026-04-06T15:35:56.475Z</time></trkpt><trkpt lat="43.6323328" lon="11.3046915"><ele>248.0</ele><time>2026-04-06T15:35:57.479Z</time></trkpt><trkpt lat="43.6322961" lon="11.304606"><ele>248.0</ele><time>2026-04-06T15:35:58.488Z</time></trkpt><trkpt lat="43.6322714" lon="11.304496"><ele>248.00000000000003</ele><time>2026-04-06T15:35:59.476Z</time></trkpt><trkpt lat="43.6322591" lon="11.3043734"><ele>248.0</ele><time>2026-04-06T15:36:00.479Z</time></trkpt><trkpt lat="43.6322562" lon="11.3042406"><ele>247.8</ele><time>2026-04-06T15:36:01.485Z</time></trkpt><trkpt lat="43.6322554" lon="11.3041367"><ele>247.60000000000002</ele><time>2026-04-06T15:36:02.482Z</time></trkpt><trkpt lat="43.632256" lon="11.304044"><ele>247.39999999999998</ele><time>2026-04-06T15:36:03.479Z</time></trkpt><trkpt lat="43.6322284" lon="11.3038874"><ele>247.2</ele><time>2026-04-06T15:36:05.477Z</time></trkpt><trkpt lat="43.632179" lon="11.3037541"><ele>247.0</ele><time>2026-04-06T15:36:07.481Z</time></trkpt><trkpt lat="43.6321967" lon="11.3036342"><ele>246.99999999999997</ele><time>2026-04-06T15:36:09.478Z</time></trkpt><trkpt lat="43.6322568" lon="11.3035424"><ele>247.0</ele><time>2026-04-06T15:36:11.488Z</time></trkpt><trkpt lat="43.6322903" lon="11.3034648"><ele>247.0</ele><time>2026-04-06T15:36:12.483Z</time></trkpt><trkpt lat="43.6323133" lon="11.303352"><ele>247.0</ele><time>2026-04-06T15:36:13.477Z</time></trkpt><trkpt lat="43.6323382" lon="11.3032266"><ele>246.99999999999997</ele><time>2026-04-06T15:36:14.473Z</time></trkpt><trkpt lat="43.632364" lon="11.3031115"><ele>247.0</ele><time>2026-04-06T15:36:15.478Z</time></trkpt><trkpt lat="43.6323829" lon="11.3030203"><ele>247.39999999999998</ele><time>2026-04-06T15:36:16.481Z</time></trkpt><trkpt lat="43.6324213" lon="11.3028498"><ele>247.79999999999998</ele><time>2026-04-06T15:36:18.488Z</time></trkpt><trkpt lat="43.6324341" lon="11.3026709"><ele>248.2</ele><time>2026-04-06T15:36:20.475Z</time></trkpt><trkpt lat="43.6324048" lon="11.3025692"><ele>248.6</ele><time>2026-04-06T15:36:21.481Z</time></trkpt><trkpt lat="43.632366" lon="11.3024875"><ele>249.0</ele><time>2026-04-06T15:36:22.477Z</time></trkpt><trkpt lat="43.6323265" lon="11.3024112"><ele>249.0</ele><time>2026-04-06T15:36:23.477Z</time></trkpt><trkpt lat="43.6322877" lon="11.3023271"><ele>249.0</ele><time>2026-04-06T15:36:24.478Z</time></trkpt><trkpt lat="43.6322599" lon="11.3022402"><ele>249.0</ele><time>2026-04-06T15:36:25.477Z</time></trkpt><trkpt lat="43.6322396" lon="11.302154"><ele>249.0</ele><time>2026-04-06T15:36:26.474Z</time></trkpt><trkpt lat="43.6322292" lon="11.3020444"><ele>249.0</ele><time>2026-04-06T15:36:27.473Z</time></trkpt><trkpt lat="43.6322073" lon="11.3018997"><ele>249.0</ele><time>2026-04-06T15:36:28.48Z</time></trkpt><trkpt lat="43.6321837" lon="11.3017389"><ele>249.2</ele><time>2026-04-06T15:36:29.477Z</time></trkpt><trkpt lat="43.6321588" lon="11.301592"><ele>249.39999999999998</ele><time>2026-04-06T15:36:30.486Z</time></trkpt><trkpt lat="43.6321421" lon="11.3014906"><ele>249.6</ele><time>2026-04-06T15:36:31.481Z</time></trkpt><trkpt lat="43.6321072" lon="11.3013955"><ele>249.8</ele><time>2026-04-06T15:36:33.481Z</time></trkpt><trkpt lat="43.6320224" lon="11.3014226"><ele>250.0</ele><time>2026-04-06T15:37:00.496Z</time></trkpt><trkpt lat="43.631913" lon="11.3015172"><ele>251.83333333333331</ele><time>2026-04-06T15:37:02.477Z</time></trkpt><trkpt lat="43.6318553" lon="11.3015904"><ele>253.66666666666666</ele><time>2026-04-06T15:37:03.481Z</time></trkpt><trkpt lat="43.6317909" lon="11.301679"><ele>255.5</ele><time>2026-04-06T15:37:04.487Z</time></trkpt><trkpt lat="43.6317101" lon="11.3017556"><ele>257.3333333333333</ele><time>2026-04-06T15:37:05.477Z</time></trkpt><trkpt lat="43.6316284" lon="11.3018031"><ele>259.1666666666667</ele><time>2026-04-06T15:37:06.49Z</time></trkpt><trkpt lat="43.6315423" lon="11.3018172"><ele>261.0</ele><time>2026-04-06T15:37:07.482Z</time></trkpt><trkpt lat="43.631442" lon="11.3018231"><ele>261.0</ele><time>2026-04-06T15:37:08.483Z</time></trkpt><trkpt lat="43.6313343" lon="11.3018272"><ele>261.0</ele><time>2026-04-06T15:37:09.48Z</time></trkpt><trkpt lat="43.6312064" lon="11.3018513"><ele>261.0</ele><time>2026-04-06T15:37:10.484Z</time></trkpt><trkpt lat="43.6310856" lon="11.3018872"><ele>261.0</ele><time>2026-04-06T15:37:11.478Z</time></trkpt><trkpt lat="43.6309907" lon="11.3019098"><ele>261.75</ele><time>2026-04-06T15:37:12.488Z</time></trkpt><trkpt lat="43.6308993" lon="11.3019601"><ele>262.5</ele><time>2026-04-06T15:37:13.486Z</time></trkpt><trkpt lat="43.630791" lon="11.3020201"><ele>263.25</ele><time>2026-04-06T15:37:14.487Z</time></trkpt><trkpt lat="43.6306725" lon="11.3020857"><ele>264.0</ele><time>2026-04-06T15:37:15.487Z</time></trkpt><trkpt lat="43.6305488" lon="11.3021629"><ele>267.75</ele><time>2026-04-06T15:37:16.489Z</time></trkpt><trkpt lat="43.6304372" lon="11.3022549"><ele>271.5</ele><time>2026-04-06T15:37:17.491Z</time></trkpt><trkpt lat="43.6303072" lon="11.3023704"><ele>275.25</ele><time>2026-04-06T15:37:18.492Z</time></trkpt><trkpt lat="43.6301845" lon="11.3024753"><ele>279.0</ele><time>2026-04-06T15:37:19.483Z</time></trkpt><trkpt lat="43.6300898" lon="11.3025444"><ele>279.5</ele><time>2026-04-06T15:37:20.491Z</time></trkpt><trkpt lat="43.6299986" lon="11.302603"><ele>280.0</ele><time>2026-04-06T15:37:21.482Z</time></trkpt><trkpt lat="43.6299033" lon="11.3026108"><ele>280.5</ele><time>2026-04-06T15:37:22.476Z</time></trkpt><trkpt lat="43.6297829" lon="11.3025823"><ele>281.0</ele><time>2026-04-06T15:37:23.478Z</time></trkpt><trkpt lat="43.62965" lon="11.302553"><ele>281.0</ele><time>2026-04-06T15:37:24.478Z</time></trkpt><trkpt lat="43.6294999" lon="11.3025103"><ele>281.0</ele><time>2026-04-06T15:37:25.475Z</time></trkpt><trkpt lat="43.6293522" lon="11.3024853"><ele>281.0</ele><time>2026-04-06T15:37:26.478Z</time></trkpt><trkpt lat="43.6292291" lon="11.3024822"><ele>281.0</ele><time>2026-04-06T15:37:27.482Z</time></trkpt><trkpt lat="43.6291063" lon="11.3024885"><ele>281.25</ele><time>2026-04-06T15:37:28.481Z</time></trkpt><trkpt lat="43.6289869" lon="11.3024935"><ele>281.5</ele><time>2026-04-06T15:37:29.478Z</time></trkpt><trkpt lat="43.6288678" lon="11.3025321"><ele>281.75</ele><time>2026-04-06T15:37:30.485Z</time></trkpt><trkpt lat="43.6287472" lon="11.3025674"><ele>282.0</ele><time>2026-04-06T15:37:31.476Z</time></trkpt><trkpt lat="43.6286613" lon="11.3025637"><ele>282.8</ele><time>2026-04-06T15:37:32.474Z</time></trkpt><trkpt lat="43.6285916" lon="11.3025412"><ele>283.6</ele><time>2026-04-06T15:37:33.482Z</time></trkpt><trkpt lat="43.6285028" lon="11.3025053"><ele>284.40000000000003</ele><time>2026-04-06T15:37:34.475Z</time></trkpt><trkpt lat="43.6283973" lon="11.3024591"><ele>285.2</ele><time>2026-04-06T15:37:35.473Z</time></trkpt><trkpt lat="43.6282834" lon="11.3023686"><ele>286.0</ele><time>2026-04-06T15:37:36.491Z</time></trkpt><trkpt lat="43.6281653" lon="11.3022339"><ele>286.0</ele><time>2026-04-06T15:37:37.477Z</time></trkpt><trkpt lat="43.6280575" lon="11.3020674"><ele>286.0</ele><time>2026-04-06T15:37:38.486Z</time></trkpt><trkpt lat="43.6279574" lon="11.3018937"><ele>286.0</ele><time>2026-04-06T15:37:39.49Z</time></trkpt><trkpt lat="43.6278798" lon="11.30177"><ele>286.0</ele><time>2026-04-06T15:37:40.478Z</time></trkpt><trkpt lat="43.6278127" lon="11.3016496"><ele>285.75</ele><time>2026-04-06T15:37:41.472Z</time></trkpt><trkpt lat="43.6277732" lon="11.301519"><ele>285.5</ele><time>2026-04-06T15:37:42.477Z</time></trkpt><trkpt lat="43.6277296" lon="11.3013646"><ele>285.25</ele><time>2026-04-06T15:37:43.484Z</time></trkpt><trkpt lat="43.6276885" lon="11.301181"><ele>285.0</ele><time>2026-04-06T15:37:44.483Z</time></trkpt><trkpt lat="43.6276275" lon="11.3010044"><ele>284.75</ele><time>2026-04-06T15:37:45.486Z</time></trkpt><trkpt lat="43.62757" lon="11.3008403"><ele>284.5</ele><time>2026-04-06T15:37:46.481Z</time></trkpt><trkpt lat="43.6275343" lon="11.3006779"><ele>284.25</ele><time>2026-04-06T15:37:47.484Z</time></trkpt><trkpt lat="43.6275092" lon="11.3005157"><ele>284.0</ele><time>2026-04-06T15:37:48.487Z</time></trkpt><trkpt lat="43.6275023" lon="11.3003554"><ele>284.0</ele><time>2026-04-06T15:37:49.489Z</time></trkpt><trkpt lat="43.627479" lon="11.3001794"><ele>284.0</ele><time>2026-04-06T15:37:50.479Z</time></trkpt><trkpt lat="43.6274335" lon="11.299982"><ele>284.0</ele><time>2026-04-06T15:37:51.484Z</time></trkpt><trkpt lat="43.6273853" lon="11.2997462"><ele>283.33333333333337</ele><time>2026-04-06T15:37:52.488Z</time></trkpt><trkpt lat="43.6273296" lon="11.2995138"><ele>282.6666666666667</ele><time>2026-04-06T15:37:53.486Z</time></trkpt><trkpt lat="43.6272692" lon="11.2992612"><ele>282.0</ele><time>2026-04-06T15:37:54.486Z</time></trkpt><trkpt lat="43.627216" lon="11.2990353"><ele>281.25</ele><time>2026-04-06T15:37:55.484Z</time></trkpt><trkpt lat="43.6271694" lon="11.2988237"><ele>280.5</ele><time>2026-04-06T15:37:56.478Z</time></trkpt><trkpt lat="43.6271434" lon="11.2986544"><ele>279.75</ele><time>2026-04-06T15:37:57.485Z</time></trkpt><trkpt lat="43.627109" lon="11.2984982"><ele>279.0</ele><time>2026-04-06T15:37:58.487Z</time></trkpt><trkpt lat="43.6270825" lon="11.2983633"><ele>279.0</ele><time>2026-04-06T15:37:59.483Z</time></trkpt><trkpt lat="43.6270572" lon="11.2982385"><ele>279.0</ele><time>2026-04-06T15:38:00.484Z</time></trkpt><trkpt lat="43.6270563" lon="11.2981059"><ele>279.0</ele><time>2026-04-06T15:38:01.471Z</time></trkpt><trkpt lat="43.6270824" lon="11.297961"><ele>279.0</ele><time>2026-04-06T15:38:02.482Z</time></trkpt><trkpt lat="43.627126" lon="11.2977957"><ele>279.0</ele><time>2026-04-06T15:38:03.472Z</time></trkpt><trkpt lat="43.6271695" lon="11.297617"><ele>278.75</ele><time>2026-04-06T15:38:04.484Z</time></trkpt><trkpt lat="43.627213" lon="11.2974355"><ele>278.5</ele><time>2026-04-06T15:38:05.473Z</time></trkpt><trkpt lat="43.6272529" lon="11.2972812"><ele>278.25</ele><time>2026-04-06T15:38:06.477Z</time></trkpt><trkpt lat="43.6272915" lon="11.2971374"><ele>278.0</ele><time>2026-04-06T15:38:07.478Z</time></trkpt><trkpt lat="43.6273336" lon="11.2969924"><ele>278.0</ele><time>2026-04-06T15:38:08.481Z</time></trkpt><trkpt lat="43.6273742" lon="11.2968358"><ele>278.0</ele><time>2026-04-06T15:38:09.477Z</time></trkpt><trkpt lat="43.6274211" lon="11.2966698"><ele>278.0</ele><time>2026-04-06T15:38:10.48Z</time></trkpt><trkpt lat="43.6274695" lon="11.2965107"><ele>278.0</ele><time>2026-04-06T15:38:11.478Z</time></trkpt><trkpt lat="43.62752" lon="11.296368"><ele>277.5</ele><time>2026-04-06T15:38:12.483Z</time></trkpt><trkpt lat="43.6275584" lon="11.2962202"><ele>277.0</ele><time>2026-04-06T15:38:13.483Z</time></trkpt><trkpt lat="43.6275999" lon="11.2960498"><ele>276.5</ele><time>2026-04-06T15:38:14.485Z</time></trkpt><trkpt lat="43.6276357" lon="11.2958839"><ele>276.0</ele><time>2026-04-06T15:38:15.48Z</time></trkpt><trkpt lat="43.6276717" lon="11.2957491"><ele>276.0</ele><time>2026-04-06T15:38:16.475Z</time></trkpt><trkpt lat="43.6276925" lon="11.2956513"><ele>276.0</ele><time>2026-04-06T15:38:17.481Z</time></trkpt><trkpt lat="43.6277078" lon="11.2955579"><ele>276.0</ele><time>2026-04-06T15:38:18.484Z</time></trkpt><trkpt lat="43.6277211" lon="11.2954628"><ele>276.0</ele><time>2026-04-06T15:38:19.478Z</time></trkpt><trkpt lat="43.6277492" lon="11.2953678"><ele>276.0</ele><time>2026-04-06T15:38:20.477Z</time></trkpt><trkpt lat="43.6277857" lon="11.2952609"><ele>276.0</ele><time>2026-04-06T15:38:21.489Z</time></trkpt><trkpt lat="43.6278322" lon="11.2951321"><ele>273.5</ele><time>2026-04-06T15:38:22.473Z</time></trkpt><trkpt lat="43.6278861" lon="11.2949733"><ele>271.0</ele><time>2026-04-06T15:38:23.478Z</time></trkpt><trkpt lat="43.6279573" lon="11.2947942"><ele>268.5</ele><time>2026-04-06T15:38:24.48Z</time></trkpt><trkpt lat="43.6280178" lon="11.2946227"><ele>266.0</ele><time>2026-04-06T15:38:25.475Z</time></trkpt><trkpt lat="43.6280708" lon="11.2944751"><ele>265.2</ele><time>2026-04-06T15:38:26.483Z</time></trkpt><trkpt lat="43.6281105" lon="11.2943487"><ele>264.40000000000003</ele><time>2026-04-06T15:38:27.478Z</time></trkpt><trkpt lat="43.6281572" lon="11.2942292"><ele>263.6</ele><time>2026-04-06T15:38:28.492Z</time></trkpt><trkpt lat="43.6282152" lon="11.294108"><ele>262.8</ele><time>2026-04-06T15:38:29.481Z</time></trkpt><trkpt lat="43.6282554" lon="11.293992"><ele>262.0</ele><time>2026-04-06T15:38:30.482Z</time></trkpt><trkpt lat="43.6282927" lon="11.2939173"><ele>262.0</ele><time>2026-04-06T15:38:31.479Z</time></trkpt><trkpt lat="43.6284008" lon="11.2938483"><ele>262.0</ele><time>2026-04-06T15:38:33.477Z</time></trkpt><trkpt lat="43.6284689" lon="11.2938551"><ele>262.0</ele><time>2026-04-06T15:38:34.473Z</time></trkpt><trkpt lat="43.6285433" lon="11.2938863"><ele>262.0</ele><time>2026-04-06T15:38:35.481Z</time></trkpt><trkpt lat="43.6286031" lon="11.2939317"><ele>262.0</ele><time>2026-04-06T15:38:36.473Z</time></trkpt><trkpt lat="43.6286488" lon="11.2940025"><ele>262.0</ele><time>2026-04-06T15:38:37.48Z</time></trkpt><trkpt lat="43.6287383" lon="11.2940588"><ele>260.0</ele><time>2026-04-06T15:38:39.485Z</time></trkpt><trkpt lat="43.6288125" lon="11.2939378"><ele>258.0</ele><time>2026-04-06T15:38:41.485Z</time></trkpt><trkpt lat="43.628824" lon="11.2938106"><ele>256.0</ele><time>2026-04-06T15:38:42.477Z</time></trkpt><trkpt lat="43.6288087" lon="11.2936706"><ele>254.0</ele><time>2026-04-06T15:38:43.491Z</time></trkpt><trkpt lat="43.628783" lon="11.2935165"><ele>252.0</ele><time>2026-04-06T15:38:44.48Z</time></trkpt><trkpt lat="43.6287745" lon="11.293374"><ele>251.16666666666666</ele><time>2026-04-06T15:38:45.482Z</time></trkpt><trkpt lat="43.6287858" lon="11.2932539"><ele>250.33333333333331</ele><time>2026-04-06T15:38:46.488Z</time></trkpt><trkpt lat="43.6287792" lon="11.293145"><ele>249.5</ele><time>2026-04-06T15:38:47.475Z</time></trkpt><trkpt lat="43.6287506" lon="11.2930565"><ele>248.66666666666666</ele><time>2026-04-06T15:38:48.489Z</time></trkpt><trkpt lat="43.6286929" lon="11.292984"><ele>247.83333333333331</ele><time>2026-04-06T15:38:49.482Z</time></trkpt><trkpt lat="43.6286138" lon="11.2929402"><ele>247.0</ele><time>2026-04-06T15:38:50.484Z</time></trkpt><trkpt lat="43.6285447" lon="11.2929071"><ele>246.2</ele><time>2026-04-06T15:38:51.482Z</time></trkpt><trkpt lat="43.6284821" lon="11.292776"><ele>245.39999999999998</ele><time>2026-04-06T15:38:53.48Z</time></trkpt><trkpt lat="43.6285071" lon="11.2926207"><ele>244.60000000000002</ele><time>2026-04-06T15:38:55.486Z</time></trkpt><trkpt lat="43.6285463" lon="11.2925326"><ele>243.8</ele><time>2026-04-06T15:38:56.482Z</time></trkpt><trkpt lat="43.6286128" lon="11.2924459"><ele>243.0</ele><time>2026-04-06T15:38:57.492Z</time></trkpt><trkpt lat="43.6286959" lon="11.2923533"><ele>242.66666666666666</ele><time>2026-04-06T15:38:58.492Z</time></trkpt><trkpt lat="43.6287599" lon="11.2922848"><ele>242.33333333333331</ele><time>2026-04-06T15:38:59.498Z</time></trkpt><trkpt lat="43.6288212" lon="11.292248"><ele>242.0</ele><time>2026-04-06T15:39:00.485Z</time></trkpt><trkpt lat="43.6288977" lon="11.2922357"><ele>241.66666666666666</ele><time>2026-04-06T15:39:01.49Z</time></trkpt><trkpt lat="43.629011" lon="11.2922496"><ele>241.33333333333331</ele><time>2026-04-06T15:39:02.487Z</time></trkpt><trkpt lat="43.6291142" lon="11.2922739"><ele>241.0</ele><time>2026-04-06T15:39:03.486Z</time></trkpt><trkpt lat="43.629202" lon="11.2923001"><ele>240.99999999999997</ele><time>2026-04-06T15:39:04.48Z</time></trkpt><trkpt lat="43.6292698" lon="11.2923142"><ele>241.0</ele><time>2026-04-06T15:39:05.481Z</time></trkpt><trkpt lat="43.6293709" lon="11.292226"><ele>241.0</ele><time>2026-04-06T15:39:07.482Z</time></trkpt><trkpt lat="43.629399" lon="11.2921297"><ele>241.0</ele><time>2026-04-06T15:39:08.486Z</time></trkpt><trkpt lat="43.6294065" lon="11.292033"><ele>240.99999999999997</ele><time>2026-04-06T15:39:09.482Z</time></trkpt><trkpt lat="43.6294003" lon="11.2919307"><ele>241.0</ele><time>2026-04-06T15:39:10.487Z</time></trkpt><trkpt lat="43.629398" lon="11.2918176"><ele>239.60000000000002</ele><time>2026-04-06T15:39:11.486Z</time></trkpt><trkpt lat="43.6293941" lon="11.291667"><ele>238.20000000000002</ele><time>2026-04-06T15:39:12.482Z</time></trkpt><trkpt lat="43.629385" lon="11.2915375"><ele>236.79999999999998</ele><time>2026-04-06T15:39:13.49Z</time></trkpt><trkpt lat="43.629377" lon="11.2914125"><ele>235.39999999999998</ele><time>2026-04-06T15:39:14.485Z</time></trkpt><trkpt lat="43.6293762" lon="11.2912997"><ele>234.0</ele><time>2026-04-06T15:39:15.488Z</time></trkpt><trkpt lat="43.6293797" lon="11.2911812"><ele>233.33333333333334</ele><time>2026-04-06T15:39:16.496Z</time></trkpt><trkpt lat="43.6293679" lon="11.2910555"><ele>232.66666666666669</ele><time>2026-04-06T15:39:17.487Z</time></trkpt><trkpt lat="43.6293501" lon="11.2909537"><ele>232.0</ele><time>2026-04-06T15:39:18.491Z</time></trkpt><trkpt lat="43.6293213" lon="11.2908568"><ele>231.33333333333334</ele><time>2026-04-06T15:39:19.483Z</time></trkpt><trkpt lat="43.6292765" lon="11.2907744"><ele>230.66666666666669</ele><time>2026-04-06T15:39:20.489Z</time></trkpt><trkpt lat="43.6292121" lon="11.2907007"><ele>230.0</ele><time>2026-04-06T15:39:21.491Z</time></trkpt><trkpt lat="43.6291237" lon="11.2906284"><ele>228.0</ele><time>2026-04-06T15:39:22.486Z</time></trkpt><trkpt lat="43.6290185" lon="11.2905588"><ele>226.0</ele><time>2026-04-06T15:39:23.487Z</time></trkpt><trkpt lat="43.6289048" lon="11.2904865"><ele>224.0</ele><time>2026-04-06T15:39:24.492Z</time></trkpt><trkpt lat="43.628796" lon="11.2904178"><ele>222.0</ele><time>2026-04-06T15:39:25.488Z</time></trkpt><trkpt lat="43.6286894" lon="11.2903408"><ele>222.0</ele><time>2026-04-06T15:39:26.483Z</time></trkpt><trkpt lat="43.628602" lon="11.290272"><ele>222.0</ele><time>2026-04-06T15:39:27.481Z</time></trkpt><trkpt lat="43.6285297" lon="11.2901997"><ele>222.0</ele><time>2026-04-06T15:39:28.498Z</time></trkpt><trkpt lat="43.6284731" lon="11.2901248"><ele>222.0</ele><time>2026-04-06T15:39:29.482Z</time></trkpt><trkpt lat="43.6284391" lon="11.2900214"><ele>222.0</ele><time>2026-04-06T15:39:30.496Z</time></trkpt><trkpt lat="43.6284017" lon="11.2898681"><ele>221.25</ele><time>2026-04-06T15:39:31.481Z</time></trkpt><trkpt lat="43.6283693" lon="11.2896876"><ele>220.5</ele><time>2026-04-06T15:39:32.482Z</time></trkpt><trkpt lat="43.6283504" lon="11.2895359"><ele>219.75</ele><time>2026-04-06T15:39:33.482Z</time></trkpt><trkpt lat="43.6283469" lon="11.2893684"><ele>219.0</ele><time>2026-04-06T15:39:34.475Z</time></trkpt><trkpt lat="43.6283453" lon="11.2891839"><ele>219.0</ele><time>2026-04-06T15:39:35.482Z</time></trkpt><trkpt lat="43.6283363" lon="11.2889926"><ele>219.0</ele><time>2026-04-06T15:39:36.485Z</time></trkpt><trkpt lat="43.6283246" lon="11.288824"><ele>219.0</ele><time>2026-04-06T15:39:37.49Z</time></trkpt><trkpt lat="43.6283038" lon="11.28867"><ele>219.0</ele><time>2026-04-06T15:39:38.49Z</time></trkpt><trkpt lat="43.6282833" lon="11.2885274"><ele>218.25</ele><time>2026-04-06T15:39:39.489Z</time></trkpt><trkpt lat="43.6282717" lon="11.2883832"><ele>217.5</ele><time>2026-04-06T15:39:40.491Z</time></trkpt><trkpt lat="43.6282538" lon="11.2882264"><ele>216.75</ele><time>2026-04-06T15:39:41.493Z</time></trkpt><trkpt lat="43.6282309" lon="11.2880698"><ele>216.0</ele><time>2026-04-06T15:39:42.485Z</time></trkpt><trkpt lat="43.6282137" lon="11.2879094"><ele>215.20000000000002</ele><time>2026-04-06T15:39:43.489Z</time></trkpt><trkpt lat="43.6281969" lon="11.2877404"><ele>214.40000000000003</ele><time>2026-04-06T15:39:44.491Z</time></trkpt><trkpt lat="43.6281824" lon="11.2875842"><ele>213.6</ele><time>2026-04-06T15:39:45.484Z</time></trkpt><trkpt lat="43.6281603" lon="11.2874475"><ele>212.8</ele><time>2026-04-06T15:39:46.492Z</time></trkpt><trkpt lat="43.6281442" lon="11.2873288"><ele>212.0</ele><time>2026-04-06T15:39:47.482Z</time></trkpt><trkpt lat="43.6281364" lon="11.2872331"><ele>210.8</ele><time>2026-04-06T15:39:48.483Z</time></trkpt><trkpt lat="43.6281788" lon="11.2871122"><ele>209.6</ele><time>2026-04-06T15:39:50.478Z</time></trkpt><trkpt lat="43.6283067" lon="11.287087"><ele>208.4</ele><time>2026-04-06T15:39:52.479Z</time></trkpt><trkpt lat="43.6283788" lon="11.2871286"><ele>207.20000000000002</ele><time>2026-04-06T15:39:53.493Z</time></trkpt><trkpt lat="43.6284439" lon="11.2871657"><ele>206.0</ele><time>2026-04-06T15:39:54.486Z</time></trkpt><trkpt lat="43.6285497" lon="11.2871137"><ele>206.00000000000003</ele><time>2026-04-06T15:39:56.488Z</time></trkpt><trkpt lat="43.6285554" lon="11.2870165"><ele>206.0</ele><time>2026-04-06T15:39:59.497Z</time></trkpt><trkpt lat="43.6285215" lon="11.2869363"><ele>206.0</ele><time>2026-04-06T15:40:01.494Z</time></trkpt><trkpt lat="43.6284354" lon="11.2868424"><ele>206.0</ele><time>2026-04-06T15:40:04.488Z</time></trkpt><trkpt lat="43.6283874" lon="11.2867689"><ele>206.00000000000003</ele><time>2026-04-06T15:40:05.481Z</time></trkpt><trkpt lat="43.6283398" lon="11.2866792"><ele>206.0</ele><time>2026-04-06T15:40:06.487Z</time></trkpt><trkpt lat="43.6282913" lon="11.2866029"><ele>206.0</ele><time>2026-04-06T15:40:07.485Z</time></trkpt><trkpt lat="43.6282277" lon="11.2865192"><ele>206.0</ele><time>2026-04-06T15:40:08.486Z</time></trkpt><trkpt lat="43.6281529" lon="11.2864095"><ele>206.0</ele><time>2026-04-06T15:40:09.484Z</time></trkpt><trkpt lat="43.6280862" lon="11.2862887"><ele>206.0</ele><time>2026-04-06T15:40:10.483Z</time></trkpt><trkpt lat="43.6280215" lon="11.2861859"><ele>206.0</ele><time>2026-04-06T15:40:11.487Z</time></trkpt><trkpt lat="43.6279631" lon="11.2860885"><ele>205.0</ele><time>2026-04-06T15:40:12.488Z</time></trkpt><trkpt lat="43.6279172" lon="11.2860031"><ele>204.0</ele><time>2026-04-06T15:40:13.488Z</time></trkpt><trkpt lat="43.6278438" lon="11.2858855"><ele>203.0</ele><time>2026-04-06T15:40:15.484Z</time></trkpt><trkpt lat="43.6278326" lon="11.2857413"><ele>202.0</ele><time>2026-04-06T15:40:17.49Z</time></trkpt><trkpt lat="43.6278286" lon="11.2855632"><ele>201.0</ele><time>2026-04-06T15:40:19.487Z</time></trkpt><trkpt lat="43.6278231" lon="11.2854644"><ele>200.5</ele><time>2026-04-06T15:40:20.489Z</time></trkpt><trkpt lat="43.6278336" lon="11.2853722"><ele>200.0</ele><time>2026-04-06T15:40:21.489Z</time></trkpt><trkpt lat="43.6278435" lon="11.2852807"><ele>199.5</ele><time>2026-04-06T15:40:22.482Z</time></trkpt><trkpt lat="43.6278327" lon="11.2851721"><ele>199.0</ele><time>2026-04-06T15:40:23.477Z</time></trkpt><trkpt lat="43.6277988" lon="11.2850515"><ele>198.5</ele><time>2026-04-06T15:40:24.485Z</time></trkpt><trkpt lat="43.6277525" lon="11.284938"><ele>198.0</ele><time>2026-04-06T15:40:25.489Z</time></trkpt><trkpt lat="43.6276913" lon="11.2848177"><ele>196.5</ele><time>2026-04-06T15:40:26.48Z</time></trkpt><trkpt lat="43.6276106" lon="11.2846968"><ele>195.0</ele><time>2026-04-06T15:40:27.471Z</time></trkpt><trkpt lat="43.6275205" lon="11.2845943"><ele>193.5</ele><time>2026-04-06T15:40:28.491Z</time></trkpt><trkpt lat="43.6274436" lon="11.2844952"><ele>192.0</ele><time>2026-04-06T15:40:29.482Z</time></trkpt><trkpt lat="43.6273665" lon="11.2843856"><ele>192.0</ele><time>2026-04-06T15:40:30.489Z</time></trkpt><trkpt lat="43.6272773" lon="11.2842681"><ele>192.0</ele><time>2026-04-06T15:40:31.476Z</time></trkpt><trkpt lat="43.6271757" lon="11.2841364"><ele>192.0</ele><time>2026-04-06T15:40:32.486Z</time></trkpt><trkpt lat="43.6270821" lon="11.2840061"><ele>192.0</ele><time>2026-04-06T15:40:33.483Z</time></trkpt><trkpt lat="43.6269895" lon="11.2838831"><ele>189.75</ele><time>2026-04-06T15:40:34.485Z</time></trkpt><trkpt lat="43.6268994" lon="11.2837682"><ele>187.5</ele><time>2026-04-06T15:40:35.489Z</time></trkpt><trkpt lat="43.6268144" lon="11.2836525"><ele>185.25</ele><time>2026-04-06T15:40:36.483Z</time></trkpt><trkpt lat="43.6267329" lon="11.2835439"><ele>183.0</ele><time>2026-04-06T15:40:37.49Z</time></trkpt><trkpt lat="43.626649" lon="11.283433"><ele>183.0</ele><time>2026-04-06T15:40:38.484Z</time></trkpt><trkpt lat="43.6265677" lon="11.2833217"><ele>183.0</ele><time>2026-04-06T15:40:39.486Z</time></trkpt><trkpt lat="43.6264868" lon="11.2831818"><ele>183.0</ele><time>2026-04-06T15:40:40.478Z</time></trkpt><trkpt lat="43.6264103" lon="11.2830237"><ele>183.0</ele><time>2026-04-06T15:40:41.485Z</time></trkpt><trkpt lat="43.6263504" lon="11.2828604"><ele>181.4</ele><time>2026-04-06T15:40:42.48Z</time></trkpt><trkpt lat="43.6263054" lon="11.2827077"><ele>179.8</ele><time>2026-04-06T15:40:43.476Z</time></trkpt><trkpt lat="43.6262541" lon="11.2825837"><ele>178.2</ele><time>2026-04-06T15:40:44.483Z</time></trkpt><trkpt lat="43.6262066" lon="11.2824868"><ele>176.6</ele><time>2026-04-06T15:40:45.479Z</time></trkpt><trkpt lat="43.6261697" lon="11.2824136"><ele>175.0</ele><time>2026-04-06T15:40:46.487Z</time></trkpt><trkpt lat="43.6260474" lon="11.2823956"><ele>174.4</ele><time>2026-04-06T15:40:48.491Z</time></trkpt><trkpt lat="43.6259714" lon="11.2824437"><ele>173.8</ele><time>2026-04-06T15:40:49.483Z</time></trkpt><trkpt lat="43.6259051" lon="11.2825409"><ele>173.2</ele><time>2026-04-06T15:40:50.487Z</time></trkpt><trkpt lat="43.6258495" lon="11.2826862"><ele>172.6</ele><time>2026-04-06T15:40:51.493Z</time></trkpt><trkpt lat="43.6257938" lon="11.2828119"><ele>172.0</ele><time>2026-04-06T15:40:52.481Z</time></trkpt><trkpt lat="43.6257442" lon="11.2829064"><ele>172.0</ele><time>2026-04-06T15:40:53.479Z</time></trkpt><trkpt lat="43.6256893" lon="11.2829719"><ele>172.0</ele><time>2026-04-06T15:40:54.487Z</time></trkpt><trkpt lat="43.6256247" lon="11.2830054"><ele>172.0</ele><time>2026-04-06T15:40:55.479Z</time></trkpt><trkpt lat="43.6255513" lon="11.2829919"><ele>172.0</ele><time>2026-04-06T15:40:56.472Z</time></trkpt><trkpt lat="43.6254799" lon="11.2829516"><ele>172.0</ele><time>2026-04-06T15:40:57.485Z</time></trkpt><trkpt lat="43.6253981" lon="11.2828542"><ele>172.0</ele><time>2026-04-06T15:40:58.483Z</time></trkpt><trkpt lat="43.6253091" lon="11.2827426"><ele>171.0</ele><time>2026-04-06T15:40:59.484Z</time></trkpt><trkpt lat="43.6252312" lon="11.2826446"><ele>170.0</ele><time>2026-04-06T15:41:00.479Z</time></trkpt><trkpt lat="43.6251572" lon="11.282552"><ele>169.0</ele><time>2026-04-06T15:41:01.476Z</time></trkpt><trkpt lat="43.6250826" lon="11.2824831"><ele>168.0</ele><time>2026-04-06T15:41:02.479Z</time></trkpt><trkpt lat="43.6250216" lon="11.282428"><ele>167.0</ele><time>2026-04-06T15:41:03.473Z</time></trkpt><trkpt lat="43.6249544" lon="11.2823808"><ele>166.0</ele><time>2026-04-06T15:41:05.47Z</time></trkpt><trkpt lat="43.6249132" lon="11.2823091"><ele>165.60000000000002</ele><time>2026-04-06T15:42:17.499Z</time></trkpt><trkpt lat="43.6248471" lon="11.2821818"><ele>165.2</ele><time>2026-04-06T15:42:19.483Z</time></trkpt><trkpt lat="43.6248044" lon="11.2820971"><ele>164.8</ele><time>2026-04-06T15:42:20.483Z</time></trkpt><trkpt lat="43.6247579" lon="11.2819847"><ele>164.39999999999998</ele><time>2026-04-06T15:42:21.487Z</time></trkpt><trkpt lat="43.6246861" lon="11.2818395"><ele>164.0</ele><time>2026-04-06T15:42:22.49Z</time></trkpt><trkpt lat="43.6246042" lon="11.2817179"><ele>164.0</ele><time>2026-04-06T15:42:23.483Z</time></trkpt><trkpt lat="43.6245422" lon="11.2816135"><ele>164.0</ele><time>2026-04-06T15:42:24.487Z</time></trkpt><trkpt lat="43.6244897" lon="11.2815165"><ele>164.0</ele><time>2026-04-06T15:42:25.488Z</time></trkpt><trkpt lat="43.62444" lon="11.2814254"><ele>164.0</ele><time>2026-04-06T15:42:26.487Z</time></trkpt><trkpt lat="43.6243933" lon="11.2813408"><ele>164.0</ele><time>2026-04-06T15:42:27.488Z</time></trkpt><trkpt lat="43.6243554" lon="11.2812664"><ele>164.0</ele><time>2026-04-06T15:42:28.489Z</time></trkpt><trkpt lat="43.6243179" lon="11.2811959"><ele>163.25</ele><time>2026-04-06T15:42:29.483Z</time></trkpt><trkpt lat="43.6242608" lon="11.2810512"><ele>162.5</ele><time>2026-04-06T15:42:31.478Z</time></trkpt><trkpt lat="43.6242696" lon="11.2808875"><ele>161.75</ele><time>2026-04-06T15:42:33.5Z</time></trkpt><trkpt lat="43.6243193" lon="11.2807643"><ele>161.0</ele><time>2026-04-06T15:42:35.491Z</time></trkpt><trkpt lat="43.6242716" lon="11.280907"><ele>161.0</ele><time>2026-04-06T15:42:48.494Z</time></trkpt><trkpt lat="43.6242565" lon="11.2809975"><ele>161.0</ele><time>2026-04-06T15:42:49.48Z</time></trkpt><trkpt lat="43.6243012" lon="11.2811643"><ele>161.0</ele><time>2026-04-06T15:42:51.483Z</time></trkpt><trkpt lat="43.6243631" lon="11.2812798"><ele>161.0</ele><time>2026-04-06T15:42:52.486Z</time></trkpt><trkpt lat="43.6244365" lon="11.281405"><ele>161.0</ele><time>2026-04-06T15:42:53.484Z</time></trkpt><trkpt lat="43.6245" lon="11.2815255"><ele>161.60000000000002</ele><time>2026-04-06T15:42:54.487Z</time></trkpt><trkpt lat="43.6245569" lon="11.2816329"><ele>162.2</ele><time>2026-04-06T15:42:55.487Z</time></trkpt><trkpt lat="43.6246178" lon="11.2817403"><ele>162.8</ele><time>2026-04-06T15:42:56.484Z</time></trkpt><trkpt lat="43.6246931" lon="11.2818584"><ele>163.39999999999998</ele><time>2026-04-06T15:42:57.488Z</time></trkpt><trkpt lat="43.6247613" lon="11.2819702"><ele>164.0</ele><time>2026-04-06T15:42:58.486Z</time></trkpt><trkpt lat="43.6248151" lon="11.282067"><ele>164.0</ele><time>2026-04-06T15:42:59.486Z</time></trkpt><trkpt lat="43.6248581" lon="11.2821498"><ele>164.0</ele><time>2026-04-06T15:43:00.491Z</time></trkpt><trkpt lat="43.6248991" lon="11.2822161"><ele>164.0</ele><time>2026-04-06T15:43:01.488Z</time></trkpt><trkpt lat="43.6249292" lon="11.2823229"><ele>164.0</ele><time>2026-04-06T15:43:03.476Z</time></trkpt><trkpt lat="43.6248765" lon="11.2824403"><ele>164.0</ele><time>2026-04-06T15:43:06.491Z</time></trkpt><trkpt lat="43.6248312" lon="11.2825181"><ele>164.0</ele><time>2026-04-06T15:43:07.483Z</time></trkpt><trkpt lat="43.6247767" lon="11.282622"><ele>164.39999999999998</ele><time>2026-04-06T15:43:08.489Z</time></trkpt><trkpt lat="43.6247271" lon="11.2827233"><ele>164.8</ele><time>2026-04-06T15:43:09.478Z</time></trkpt><trkpt lat="43.6246758" lon="11.2828393"><ele>165.2</ele><time>2026-04-06T15:43:10.473Z</time></trkpt><trkpt lat="43.6246192" lon="11.2829736"><ele>165.60000000000002</ele><time>2026-04-06T15:43:11.487Z</time></trkpt><trkpt lat="43.6245592" lon="11.2831138"><ele>166.0</ele><time>2026-04-06T15:43:12.49Z</time></trkpt><trkpt lat="43.6245037" lon="11.2832442"><ele>166.5</ele><time>2026-04-06T15:43:13.489Z</time></trkpt><trkpt lat="43.6244442" lon="11.2833683"><ele>167.0</ele><time>2026-04-06T15:43:14.493Z</time></trkpt><trkpt lat="43.6243779" lon="11.2834958"><ele>167.5</ele><time>2026-04-06T15:43:15.487Z</time></trkpt><trkpt lat="43.624313" lon="11.2836348"><ele>168.0</ele><time>2026-04-06T15:43:16.487Z</time></trkpt><trkpt lat="43.6242484" lon="11.2837742"><ele>168.0</ele><time>2026-04-06T15:43:17.485Z</time></trkpt><trkpt lat="43.6241777" lon="11.2839188"><ele>168.0</ele><time>2026-04-06T15:43:18.489Z</time></trkpt><trkpt lat="43.624113" lon="11.2840728"><ele>168.0</ele><time>2026-04-06T15:43:19.489Z</time></trkpt><trkpt lat="43.6240462" lon="11.2842169"><ele>168.0</ele><time>2026-04-06T15:43:20.492Z</time></trkpt><trkpt lat="43.6239729" lon="11.2843393"><ele>168.25</ele><time>2026-04-06T15:43:21.493Z</time></trkpt><trkpt lat="43.6238912" lon="11.2844466"><ele>168.5</ele><time>2026-04-06T15:43:22.486Z</time></trkpt><trkpt lat="43.6238001" lon="11.2845428"><ele>168.75</ele><time>2026-04-06T15:43:23.496Z</time></trkpt><trkpt lat="43.6236965" lon="11.2846055"><ele>169.0</ele><time>2026-04-06T15:43:24.491Z</time></trkpt><trkpt lat="43.6235809" lon="11.2846576"><ele>169.0</ele><time>2026-04-06T15:43:25.496Z</time></trkpt><trkpt lat="43.6234659" lon="11.2847082"><ele>169.0</ele><time>2026-04-06T15:43:26.495Z</time></trkpt><trkpt lat="43.6233472" lon="11.2847707"><ele>169.0</ele><time>2026-04-06T15:43:27.491Z</time></trkpt><trkpt lat="43.6232284" lon="11.2848607"><ele>169.0</ele><time>2026-04-06T15:43:28.488Z</time></trkpt><trkpt lat="43.6231064" lon="11.2849724"><ele>168.66666666666669</ele><time>2026-04-06T15:43:29.48Z</time></trkpt><trkpt lat="43.622986" lon="11.2851139"><ele>168.33333333333334</ele><time>2026-04-06T15:43:30.491Z</time></trkpt><trkpt lat="43.6228727" lon="11.2852591"><ele>168.0</ele><time>2026-04-06T15:43:31.492Z</time></trkpt><trkpt lat="43.6227517" lon="11.2853933"><ele>168.0</ele><time>2026-04-06T15:43:32.494Z</time></trkpt><trkpt lat="43.6226389" lon="11.2855275"><ele>168.0</ele><time>2026-04-06T15:43:33.495Z</time></trkpt><trkpt lat="43.6225253" lon="11.2856485"><ele>168.0</ele><time>2026-04-06T15:43:34.497Z</time></trkpt><trkpt lat="43.6224107" lon="11.2857608"><ele>168.0</ele><time>2026-04-06T15:43:35.498Z</time></trkpt><trkpt lat="43.6222902" lon="11.2858727"><ele>168.75</ele><time>2026-04-06T15:43:36.487Z</time></trkpt><trkpt lat="43.6221565" lon="11.2859566"><ele>169.5</ele><time>2026-04-06T15:43:37.497Z</time></trkpt><trkpt lat="43.622016" lon="11.2860048"><ele>170.25</ele><time>2026-04-06T15:43:38.495Z</time></trkpt><trkpt lat="43.6218704" lon="11.286031"><ele>171.0</ele><time>2026-04-06T15:43:39.49Z</time></trkpt><trkpt lat="43.6217322" lon="11.2860408"><ele>171.0</ele><time>2026-04-06T15:43:40.5Z</time></trkpt><trkpt lat="43.6215982" lon="11.2860379"><ele>171.0</ele><time>2026-04-06T15:43:41.496Z</time></trkpt><trkpt lat="43.6214585" lon="11.2860371"><ele>171.0</ele><time>2026-04-06T15:43:42.496Z</time></trkpt><trkpt lat="43.6213325" lon="11.2860456"><ele>171.0</ele><time>2026-04-06T15:43:43.491Z</time></trkpt><trkpt lat="43.6212114" lon="11.2860583"><ele>171.25</ele><time>2026-04-06T15:43:44.502Z</time></trkpt><trkpt lat="43.6210909" lon="11.2860731"><ele>171.5</ele><time>2026-04-06T15:43:45.494Z</time></trkpt><trkpt lat="43.6209637" lon="11.2860824"><ele>171.75</ele><time>2026-04-06T15:43:46.498Z</time></trkpt><trkpt lat="43.62083" lon="11.2860921"><ele>172.0</ele><time>2026-04-06T15:43:47.491Z</time></trkpt><trkpt lat="43.6206914" lon="11.2860997"><ele>172.0</ele><time>2026-04-06T15:43:48.49Z</time></trkpt><trkpt lat="43.6205561" lon="11.2861073"><ele>172.0</ele><time>2026-04-06T15:43:49.483Z</time></trkpt><trkpt lat="43.6204155" lon="11.286127"><ele>172.0</ele><time>2026-04-06T15:43:50.489Z</time></trkpt><trkpt lat="43.6202768" lon="11.2861557"><ele>172.0</ele><time>2026-04-06T15:43:51.498Z</time></trkpt><trkpt lat="43.6201517" lon="11.2861723"><ele>171.5</ele><time>2026-04-06T15:43:52.492Z</time></trkpt><trkpt lat="43.6200356" lon="11.2861965"><ele>171.0</ele><time>2026-04-06T15:43:53.497Z</time></trkpt><trkpt lat="43.6199172" lon="11.2862141"><ele>170.5</ele><time>2026-04-06T15:43:54.496Z</time></trkpt><trkpt lat="43.6198069" lon="11.2862324"><ele>170.0</ele><time>2026-04-06T15:43:55.49Z</time></trkpt><trkpt lat="43.6196999" lon="11.2862464"><ele>170.0</ele><time>2026-04-06T15:43:56.49Z</time></trkpt><trkpt lat="43.6196056" lon="11.2862539"><ele>170.0</ele><time>2026-04-06T15:43:57.495Z</time></trkpt><trkpt lat="43.6195219" lon="11.2862535"><ele>170.0</ele><time>2026-04-06T15:43:58.5Z</time></trkpt><trkpt lat="43.619447" lon="11.2862439"><ele>170.0</ele><time>2026-04-06T15:43:59.486Z</time></trkpt><trkpt lat="43.6193724" lon="11.2862417"><ele>170.0</ele><time>2026-04-06T15:44:00.488Z</time></trkpt><trkpt lat="43.619306" lon="11.2862462"><ele>170.0</ele><time>2026-04-06T15:44:01.486Z</time></trkpt><trkpt lat="43.6191961" lon="11.2862511"><ele>170.0</ele><time>2026-04-06T15:44:03.486Z</time></trkpt><trkpt lat="43.6191049" lon="11.2862581"><ele>170.0</ele><time>2026-04-06T15:44:51.481Z</time></trkpt><trkpt lat="43.6189748" lon="11.2862939"><ele>170.0</ele><time>2026-04-06T15:44:53.474Z</time></trkpt><trkpt lat="43.6188821" lon="11.2863185"><ele>170.0</ele><time>2026-04-06T15:44:54.48Z</time></trkpt><trkpt lat="43.6187904" lon="11.2863356"><ele>170.0</ele><time>2026-04-06T15:44:55.48Z</time></trkpt><trkpt lat="43.6186695" lon="11.2863485"><ele>170.5</ele><time>2026-04-06T15:44:56.485Z</time></trkpt><trkpt lat="43.6185275" lon="11.2863681"><ele>171.0</ele><time>2026-04-06T15:44:57.476Z</time></trkpt><trkpt lat="43.6184008" lon="11.2863759"><ele>171.5</ele><time>2026-04-06T15:44:58.486Z</time></trkpt><trkpt lat="43.6182846" lon="11.2863813"><ele>172.0</ele><time>2026-04-06T15:44:59.48Z</time></trkpt><trkpt lat="43.6181597" lon="11.2863735"><ele>172.0</ele><time>2026-04-06T15:45:00.486Z</time></trkpt><trkpt lat="43.6180332" lon="11.2863304"><ele>172.0</ele><time>2026-04-06T15:45:01.478Z</time></trkpt><trkpt lat="43.6179101" lon="11.286244"><ele>172.0</ele><time>2026-04-06T15:45:02.48Z</time></trkpt><trkpt lat="43.6177921" lon="11.2861311"><ele>172.0</ele><time>2026-04-06T15:45:03.474Z</time></trkpt><trkpt lat="43.6176717" lon="11.2860169"><ele>173.25</ele><time>2026-04-06T15:45:04.476Z</time></trkpt><trkpt lat="43.6175531" lon="11.2859121"><ele>174.5</ele><time>2026-04-06T15:45:05.477Z</time></trkpt><trkpt lat="43.6174223" lon="11.2858213"><ele>175.75</ele><time>2026-04-06T15:45:06.469Z</time></trkpt><trkpt lat="43.6172913" lon="11.2857319"><ele>177.0</ele><time>2026-04-06T15:45:07.478Z</time></trkpt><trkpt lat="43.617181" lon="11.2856364"><ele>176.33333333333334</ele><time>2026-04-06T15:45:08.471Z</time></trkpt><trkpt lat="43.6170514" lon="11.2855229"><ele>175.66666666666669</ele><time>2026-04-06T15:45:09.477Z</time></trkpt><trkpt lat="43.6169163" lon="11.2854037"><ele>175.0</ele><time>2026-04-06T15:45:10.472Z</time></trkpt><trkpt lat="43.6167723" lon="11.2852772"><ele>175.0</ele><time>2026-04-06T15:45:11.472Z</time></trkpt><trkpt lat="43.6166352" lon="11.2851713"><ele>175.0</ele><time>2026-04-06T15:45:12.476Z</time></trkpt><trkpt lat="43.616494" lon="11.2850581"><ele>175.0</ele><time>2026-04-06T15:45:13.477Z</time></trkpt><trkpt lat="43.6163222" lon="11.2850026"><ele>176.66666666666669</ele><time>2026-04-06T15:45:14.472Z</time></trkpt><trkpt lat="43.6161421" lon="11.2849871"><ele>178.33333333333334</ele><time>2026-04-06T15:45:15.467Z</time></trkpt><trkpt lat="43.6159632" lon="11.2849777"><ele>180.0</ele><time>2026-04-06T15:45:16.466Z</time></trkpt><trkpt lat="43.6157788" lon="11.2849973"><ele>180.0</ele><time>2026-04-06T15:45:17.475Z</time></trkpt><trkpt lat="43.6155969" lon="11.2850285"><ele>180.0</ele><time>2026-04-06T15:45:18.469Z</time></trkpt><trkpt lat="43.6154208" lon="11.2850819"><ele>180.0</ele><time>2026-04-06T15:45:19.465Z</time></trkpt><trkpt lat="43.6152541" lon="11.2851386"><ele>181.0</ele><time>2026-04-06T15:45:20.468Z</time></trkpt><trkpt lat="43.6150757" lon="11.2851673"><ele>182.0</ele><time>2026-04-06T15:45:21.467Z</time></trkpt><trkpt lat="43.6148973" lon="11.2851617"><ele>183.0</ele><time>2026-04-06T15:45:22.458Z</time></trkpt><trkpt lat="43.6147232" lon="11.285148"><ele>183.0</ele><time>2026-04-06T15:45:23.462Z</time></trkpt><trkpt lat="43.6145551" lon="11.2851365"><ele>183.0</ele><time>2026-04-06T15:45:24.457Z</time></trkpt><trkpt lat="43.6143963" lon="11.2850921"><ele>183.0</ele><time>2026-04-06T15:45:25.459Z</time></trkpt><trkpt lat="43.6142563" lon="11.2850163"><ele>184.0</ele><time>2026-04-06T15:45:26.461Z</time></trkpt><trkpt lat="43.6141014" lon="11.2849482"><ele>185.0</ele><time>2026-04-06T15:45:27.454Z</time></trkpt><trkpt lat="43.6139558" lon="11.2848555"><ele>186.0</ele><time>2026-04-06T15:45:28.464Z</time></trkpt><trkpt lat="43.6138169" lon="11.2847452"><ele>185.33333333333334</ele><time>2026-04-06T15:45:29.463Z</time></trkpt><trkpt lat="43.6136962" lon="11.2846235"><ele>184.66666666666669</ele><time>2026-04-06T15:45:30.459Z</time></trkpt><trkpt lat="43.6135765" lon="11.2844972"><ele>184.0</ele><time>2026-04-06T15:45:31.463Z</time></trkpt><trkpt lat="43.6134367" lon="11.2843528"><ele>184.0</ele><time>2026-04-06T15:45:32.465Z</time></trkpt><trkpt lat="43.6133057" lon="11.2841888"><ele>184.0</ele><time>2026-04-06T15:45:33.468Z</time></trkpt><trkpt lat="43.6131639" lon="11.2840568"><ele>184.0</ele><time>2026-04-06T15:45:34.463Z</time></trkpt><trkpt lat="43.6130248" lon="11.2839209"><ele>185.0</ele><time>2026-04-06T15:45:35.465Z</time></trkpt><trkpt lat="43.6128975" lon="11.2837948"><ele>186.0</ele><time>2026-04-06T15:45:36.472Z</time></trkpt><trkpt lat="43.6127724" lon="11.2836829"><ele>187.0</ele><time>2026-04-06T15:45:37.465Z</time></trkpt><trkpt lat="43.6126547" lon="11.2835789"><ele>188.0</ele><time>2026-04-06T15:45:38.474Z</time></trkpt><trkpt lat="43.612539" lon="11.2834828"><ele>188.0</ele><time>2026-04-06T15:45:39.467Z</time></trkpt><trkpt lat="43.6124427" lon="11.2834007"><ele>188.0</ele><time>2026-04-06T15:45:40.467Z</time></trkpt><trkpt lat="43.6123567" lon="11.2833101"><ele>188.0</ele><time>2026-04-06T15:45:41.459Z</time></trkpt><trkpt lat="43.6122791" lon="11.2832284"><ele>188.0</ele><time>2026-04-06T15:45:42.456Z</time></trkpt><trkpt lat="43.6122686" lon="11.2830885"><ele>188.0</ele><time>2026-04-06T15:45:44.459Z</time></trkpt><trkpt lat="43.6123062" lon="11.2829578"><ele>187.16666666666666</ele><time>2026-04-06T15:45:46.462Z</time></trkpt><trkpt lat="43.6123713" lon="11.2829154"><ele>186.33333333333331</ele><time>2026-04-06T15:45:48.48Z</time></trkpt><trkpt lat="43.6124401" lon="11.2828992"><ele>185.5</ele><time>2026-04-06T15:45:50.476Z</time></trkpt><trkpt lat="43.6125027" lon="11.2828761"><ele>184.66666666666666</ele><time>2026-04-06T15:45:52.479Z</time></trkpt><trkpt lat="43.6124436" lon="11.2828242"><ele>183.83333333333334</ele><time>2026-04-06T15:45:59.482Z</time></trkpt><trkpt lat="43.6123723" lon="11.2828472"><ele>183.0</ele><time>2026-04-06T15:46:01.477Z</time></trkpt><trkpt lat="43.6122462" lon="11.2828743"><ele>183.0</ele><time>2026-04-06T15:46:03.472Z</time></trkpt><trkpt lat="43.6121777" lon="11.2828931"><ele>183.0</ele><time>2026-04-06T15:46:04.472Z</time></trkpt><trkpt lat="43.6121107" lon="11.2829035"><ele>183.0</ele><time>2026-04-06T15:46:05.472Z</time></trkpt><trkpt lat="43.6120386" lon="11.2829004"><ele>183.0</ele><time>2026-04-06T15:46:06.47Z</time></trkpt><trkpt lat="43.6119546" lon="11.282909"><ele>183.0</ele><time>2026-04-06T15:46:07.473Z</time></trkpt><trkpt lat="43.6118742" lon="11.2828919"><ele>183.0</ele><time>2026-04-06T15:46:08.47Z</time></trkpt><trkpt lat="43.6117974" lon="11.282863"><ele>184.2</ele><time>2026-04-06T15:46:09.475Z</time></trkpt><trkpt lat="43.6117178" lon="11.2828338"><ele>185.4</ele><time>2026-04-06T15:46:10.463Z</time></trkpt><trkpt lat="43.6116328" lon="11.2827817"><ele>186.6</ele><time>2026-04-06T15:46:11.466Z</time></trkpt><trkpt lat="43.6115459" lon="11.2827086"><ele>187.79999999999998</ele><time>2026-04-06T15:46:12.463Z</time></trkpt><trkpt lat="43.6114521" lon="11.2826119"><ele>189.0</ele><time>2026-04-06T15:46:13.471Z</time></trkpt><trkpt lat="43.6113631" lon="11.2825301"><ele>189.0</ele><time>2026-04-06T15:46:14.463Z</time></trkpt><trkpt lat="43.6112782" lon="11.2824443"><ele>189.0</ele><time>2026-04-06T15:46:15.468Z</time></trkpt><trkpt lat="43.6111839" lon="11.2823468"><ele>189.0</ele><time>2026-04-06T15:46:16.467Z</time></trkpt><trkpt lat="43.6110777" lon="11.2822414"><ele>189.0</ele><time>2026-04-06T15:46:17.458Z</time></trkpt><trkpt lat="43.6109671" lon="11.2821356"><ele>188.5</ele><time>2026-04-06T15:46:18.472Z</time></trkpt><trkpt lat="43.6108574" lon="11.2820329"><ele>188.0</ele><time>2026-04-06T15:46:19.461Z</time></trkpt><trkpt lat="43.6107492" lon="11.2819304"><ele>187.5</ele><time>2026-04-06T15:46:20.457Z</time></trkpt><trkpt lat="43.6106331" lon="11.2818269"><ele>187.0</ele><time>2026-04-06T15:46:21.467Z</time></trkpt><trkpt lat="43.6105145" lon="11.2817227"><ele>187.0</ele><time>2026-04-06T15:46:22.461Z</time></trkpt><trkpt lat="43.6103964" lon="11.2816202"><ele>187.0</ele><time>2026-04-06T15:46:23.459Z</time></trkpt><trkpt lat="43.6102901" lon="11.2815356"><ele>187.0</ele><time>2026-04-06T15:46:24.464Z</time></trkpt><trkpt lat="43.6101862" lon="11.281441"><ele>187.0</ele><time>2026-04-06T15:46:25.469Z</time></trkpt><trkpt lat="43.6100646" lon="11.2813575"><ele>188.33333333333334</ele><time>2026-04-06T15:46:26.465Z</time></trkpt><trkpt lat="43.6099389" lon="11.2812504"><ele>189.66666666666666</ele><time>2026-04-06T15:46:27.464Z</time></trkpt><trkpt lat="43.609823" lon="11.2811075"><ele>191.0</ele><time>2026-04-06T15:46:28.468Z</time></trkpt><trkpt lat="43.6097004" lon="11.2809813"><ele>191.0</ele><time>2026-04-06T15:46:29.464Z</time></trkpt><trkpt lat="43.6095723" lon="11.2808667"><ele>191.0</ele><time>2026-04-06T15:46:30.468Z</time></trkpt><trkpt lat="43.6094355" lon="11.2807489"><ele>191.0</ele><time>2026-04-06T15:46:31.46Z</time></trkpt><trkpt lat="43.6093025" lon="11.2806385"><ele>191.0</ele><time>2026-04-06T15:46:32.465Z</time></trkpt><trkpt lat="43.6091869" lon="11.2805245"><ele>191.0</ele><time>2026-04-06T15:46:33.459Z</time></trkpt><trkpt lat="43.6090911" lon="11.2804303"><ele>191.0</ele><time>2026-04-06T15:46:34.461Z</time></trkpt><trkpt lat="43.6089983" lon="11.2803355"><ele>191.0</ele><time>2026-04-06T15:46:35.464Z</time></trkpt><trkpt lat="43.6088875" lon="11.2802231"><ele>191.0</ele><time>2026-04-06T15:46:36.467Z</time></trkpt><trkpt lat="43.6087737" lon="11.2801381"><ele>191.0</ele><time>2026-04-06T15:46:37.463Z</time></trkpt><trkpt lat="43.6086439" lon="11.2800724"><ele>191.0</ele><time>2026-04-06T15:46:38.458Z</time></trkpt><trkpt lat="43.6085091" lon="11.280033"><ele>191.0</ele><time>2026-04-06T15:46:39.459Z</time></trkpt><trkpt lat="43.6083874" lon="11.2800013"><ele>191.5</ele><time>2026-04-06T15:46:40.458Z</time></trkpt><trkpt lat="43.6082759" lon="11.2800135"><ele>192.0</ele><time>2026-04-06T15:46:41.463Z</time></trkpt><trkpt lat="43.6081653" lon="11.2800653"><ele>192.5</ele><time>2026-04-06T15:46:42.457Z</time></trkpt><trkpt lat="43.6080543" lon="11.2801358"><ele>193.0</ele><time>2026-04-06T15:46:43.458Z</time></trkpt><trkpt lat="43.6079329" lon="11.2802157"><ele>193.0</ele><time>2026-04-06T15:46:44.462Z</time></trkpt><trkpt lat="43.6078155" lon="11.2803115"><ele>193.0</ele><time>2026-04-06T15:46:45.455Z</time></trkpt><trkpt lat="43.6076944" lon="11.2804082"><ele>193.0</ele><time>2026-04-06T15:46:46.456Z</time></trkpt><trkpt lat="43.6075613" lon="11.2804947"><ele>193.0</ele><time>2026-04-06T15:46:47.461Z</time></trkpt><trkpt lat="43.6074525" lon="11.2805569"><ele>193.5</ele><time>2026-04-06T15:46:48.464Z</time></trkpt><trkpt lat="43.60734" lon="11.2806264"><ele>194.0</ele><time>2026-04-06T15:46:49.463Z</time></trkpt><trkpt lat="43.6072314" lon="11.2806869"><ele>194.5</ele><time>2026-04-06T15:46:50.461Z</time></trkpt><trkpt lat="43.6071063" lon="11.2807339"><ele>195.0</ele><time>2026-04-06T15:46:51.465Z</time></trkpt><trkpt lat="43.6069927" lon="11.2807963"><ele>195.0</ele><time>2026-04-06T15:46:52.463Z</time></trkpt><trkpt lat="43.6068731" lon="11.2808596"><ele>195.0</ele><time>2026-04-06T15:46:53.467Z</time></trkpt><trkpt lat="43.6067572" lon="11.2809187"><ele>195.0</ele><time>2026-04-06T15:46:54.465Z</time></trkpt><trkpt lat="43.6066441" lon="11.2809714"><ele>195.0</ele><time>2026-04-06T15:46:55.464Z</time></trkpt><trkpt lat="43.6065203" lon="11.2810041"><ele>195.0</ele><time>2026-04-06T15:46:56.456Z</time></trkpt><trkpt lat="43.6063923" lon="11.281032"><ele>195.0</ele><time>2026-04-06T15:46:57.457Z</time></trkpt><trkpt lat="43.6062719" lon="11.281046"><ele>195.0</ele><time>2026-04-06T15:46:58.462Z</time></trkpt><trkpt lat="43.6061581" lon="11.2810635"><ele>195.0</ele><time>2026-04-06T15:46:59.459Z</time></trkpt><trkpt lat="43.6060401" lon="11.2810755"><ele>194.5</ele><time>2026-04-06T15:47:00.459Z</time></trkpt><trkpt lat="43.6059172" lon="11.2810935"><ele>194.0</ele><time>2026-04-06T15:47:01.467Z</time></trkpt><trkpt lat="43.605797" lon="11.2811225"><ele>193.5</ele><time>2026-04-06T15:47:02.461Z</time></trkpt><trkpt lat="43.6056713" lon="11.2811368"><ele>193.0</ele><time>2026-04-06T15:47:03.467Z</time></trkpt><trkpt lat="43.605542" lon="11.2811495"><ele>193.0</ele><time>2026-04-06T15:47:04.47Z</time></trkpt><trkpt lat="43.6054215" lon="11.2811613"><ele>193.0</ele><time>2026-04-06T15:47:05.471Z</time></trkpt><trkpt lat="43.6053086" lon="11.2811777"><ele>193.0</ele><time>2026-04-06T15:47:06.48Z</time></trkpt><trkpt lat="43.6051982" lon="11.281194"><ele>193.0</ele><time>2026-04-06T15:47:07.484Z</time></trkpt><trkpt lat="43.6050972" lon="11.2812213"><ele>193.0</ele><time>2026-04-06T15:47:08.482Z</time></trkpt><trkpt lat="43.6050118" lon="11.2812563"><ele>192.83333333333331</ele><time>2026-04-06T15:47:09.486Z</time></trkpt><trkpt lat="43.6049413" lon="11.2812917"><ele>192.66666666666666</ele><time>2026-04-06T15:47:10.483Z</time></trkpt><trkpt lat="43.6048782" lon="11.2813448"><ele>192.5</ele><time>2026-04-06T15:47:11.478Z</time></trkpt><trkpt lat="43.6048218" lon="11.2814063"><ele>192.33333333333331</ele><time>2026-04-06T15:47:12.473Z</time></trkpt><trkpt lat="43.6047597" lon="11.2814844"><ele>192.16666666666666</ele><time>2026-04-06T15:47:13.478Z</time></trkpt><trkpt lat="43.6046966" lon="11.2815853"><ele>192.0</ele><time>2026-04-06T15:47:14.471Z</time></trkpt><trkpt lat="43.6046332" lon="11.2817153"><ele>193.5</ele><time>2026-04-06T15:47:15.475Z</time></trkpt><trkpt lat="43.604573" lon="11.281861"><ele>195.0</ele><time>2026-04-06T15:47:16.47Z</time></trkpt><trkpt lat="43.6045252" lon="11.2820127"><ele>196.5</ele><time>2026-04-06T15:47:17.473Z</time></trkpt><trkpt lat="43.6044942" lon="11.2821902"><ele>198.0</ele><time>2026-04-06T15:47:18.471Z</time></trkpt><trkpt lat="43.6044837" lon="11.2823939"><ele>198.0</ele><time>2026-04-06T15:47:19.472Z</time></trkpt><trkpt lat="43.6044872" lon="11.282594"><ele>198.0</ele><time>2026-04-06T15:47:20.482Z</time></trkpt><trkpt lat="43.6045106" lon="11.282756"><ele>198.0</ele><time>2026-04-06T15:47:21.478Z</time></trkpt><trkpt lat="43.6045547" lon="11.2829204"><ele>198.0</ele><time>2026-04-06T15:47:22.47Z</time></trkpt><trkpt lat="43.6046169" lon="11.2830823"><ele>200.33333333333331</ele><time>2026-04-06T15:47:23.469Z</time></trkpt><trkpt lat="43.604707" lon="11.2832323"><ele>202.66666666666666</ele><time>2026-04-06T15:47:24.469Z</time></trkpt><trkpt lat="43.6048173" lon="11.2833721"><ele>205.0</ele><time>2026-04-06T15:47:25.465Z</time></trkpt><trkpt lat="43.6049526" lon="11.2834919"><ele>205.0</ele><time>2026-04-06T15:47:26.47Z</time></trkpt><trkpt lat="43.6050802" lon="11.2836015"><ele>205.0</ele><time>2026-04-06T15:47:27.463Z</time></trkpt><trkpt lat="43.6052137" lon="11.2837113"><ele>205.0</ele><time>2026-04-06T15:47:28.462Z</time></trkpt><trkpt lat="43.6053407" lon="11.2838238"><ele>206.66666666666666</ele><time>2026-04-06T15:47:29.467Z</time></trkpt><trkpt lat="43.6054683" lon="11.2839552"><ele>208.33333333333331</ele><time>2026-04-06T15:47:30.469Z</time></trkpt><trkpt lat="43.6055793" lon="11.2841086"><ele>210.0</ele><time>2026-04-06T15:47:31.462Z</time></trkpt><trkpt lat="43.6056712" lon="11.2842951"><ele>210.0</ele><time>2026-04-06T15:47:32.461Z</time></trkpt><trkpt lat="43.6057431" lon="11.2844874"><ele>210.0</ele><time>2026-04-06T15:47:33.464Z</time></trkpt><trkpt lat="43.6057976" lon="11.2846913"><ele>210.0</ele><time>2026-04-06T15:47:34.472Z</time></trkpt><trkpt lat="43.6058549" lon="11.2849028"><ele>207.0</ele><time>2026-04-06T15:47:35.461Z</time></trkpt><trkpt lat="43.6059225" lon="11.2851063"><ele>204.0</ele><time>2026-04-06T15:47:36.463Z</time></trkpt><trkpt lat="43.6059907" lon="11.2853007"><ele>201.0</ele><time>2026-04-06T15:47:37.469Z</time></trkpt><trkpt lat="43.6060491" lon="11.2855146"><ele>200.66666666666669</ele><time>2026-04-06T15:47:38.474Z</time></trkpt><trkpt lat="43.6061111" lon="11.2857269"><ele>200.33333333333334</ele><time>2026-04-06T15:47:39.485Z</time></trkpt><trkpt lat="43.6061872" lon="11.2859234"><ele>200.0</ele><time>2026-04-06T15:47:40.48Z</time></trkpt><trkpt lat="43.6062498" lon="11.2861529"><ele>204.33333333333334</ele><time>2026-04-06T15:47:41.477Z</time></trkpt><trkpt lat="43.6063205" lon="11.2863859"><ele>208.66666666666669</ele><time>2026-04-06T15:47:42.478Z</time></trkpt><trkpt lat="43.6063874" lon="11.2866338"><ele>213.0</ele><time>2026-04-06T15:47:43.48Z</time></trkpt><trkpt lat="43.6064651" lon="11.2868861"><ele>213.0</ele><time>2026-04-06T15:47:44.475Z</time></trkpt><trkpt lat="43.6065527" lon="11.2871471"><ele>213.0</ele><time>2026-04-06T15:47:45.479Z</time></trkpt><trkpt lat="43.6066242" lon="11.2873906"><ele>213.0</ele><time>2026-04-06T15:47:46.476Z</time></trkpt><trkpt lat="43.6066833" lon="11.2875943"><ele>211.33333333333331</ele><time>2026-04-06T15:47:47.47Z</time></trkpt><trkpt lat="43.6067511" lon="11.287791"><ele>209.66666666666666</ele><time>2026-04-06T15:47:48.476Z</time></trkpt><trkpt lat="43.6068147" lon="11.288021"><ele>208.0</ele><time>2026-04-06T15:47:49.473Z</time></trkpt><trkpt lat="43.6068632" lon="11.288271"><ele>208.0</ele><time>2026-04-06T15:47:50.475Z</time></trkpt><trkpt lat="43.6068876" lon="11.2885416"><ele>208.0</ele><time>2026-04-06T15:47:51.479Z</time></trkpt><trkpt lat="43.6068927" lon="11.2888034"><ele>208.0</ele><time>2026-04-06T15:47:52.48Z</time></trkpt><trkpt lat="43.6069208" lon="11.2890355"><ele>208.0</ele><time>2026-04-06T15:47:53.464Z</time></trkpt><trkpt lat="43.6069835" lon="11.2892304"><ele>208.0</ele><time>2026-04-06T15:47:54.468Z</time></trkpt><trkpt lat="43.607054" lon="11.2894151"><ele>208.0</ele><time>2026-04-06T15:47:55.467Z</time></trkpt><trkpt lat="43.6071634" lon="11.2895925"><ele>206.66666666666666</ele><time>2026-04-06T15:47:56.466Z</time></trkpt><trkpt lat="43.6072991" lon="11.2897483"><ele>205.33333333333331</ele><time>2026-04-06T15:47:57.47Z</time></trkpt><trkpt lat="43.6074614" lon="11.2898699"><ele>204.0</ele><time>2026-04-06T15:47:58.473Z</time></trkpt><trkpt lat="43.6076346" lon="11.2899815"><ele>208.66666666666669</ele><time>2026-04-06T15:47:59.467Z</time></trkpt><trkpt lat="43.607835" lon="11.2900581"><ele>213.33333333333334</ele><time>2026-04-06T15:48:00.466Z</time></trkpt><trkpt lat="43.6080224" lon="11.2901401"><ele>218.0</ele><time>2026-04-06T15:48:01.468Z</time></trkpt><trkpt lat="43.6081589" lon="11.2902239"><ele>218.0</ele><time>2026-04-06T15:48:02.478Z</time></trkpt><trkpt lat="43.6082541" lon="11.2903358"><ele>218.0</ele><time>2026-04-06T15:48:03.469Z</time></trkpt><trkpt lat="43.6083479" lon="11.2905001"><ele>218.0</ele><time>2026-04-06T15:48:04.472Z</time></trkpt><trkpt lat="43.6084043" lon="11.2907117"><ele>218.0</ele><time>2026-04-06T15:48:05.47Z</time></trkpt><trkpt lat="43.6084448" lon="11.2909355"><ele>214.0</ele><time>2026-04-06T15:48:06.473Z</time></trkpt><trkpt lat="43.6084618" lon="11.2911455"><ele>210.0</ele><time>2026-04-06T15:48:07.464Z</time></trkpt><trkpt lat="43.6084143" lon="11.2913907"><ele>206.0</ele><time>2026-04-06T15:48:08.475Z</time></trkpt><trkpt lat="43.6083442" lon="11.2916054"><ele>206.0</ele><time>2026-04-06T15:48:09.475Z</time></trkpt><trkpt lat="43.608258" lon="11.2918287"><ele>206.0</ele><time>2026-04-06T15:48:10.472Z</time></trkpt><trkpt lat="43.6081715" lon="11.2920585"><ele>206.0</ele><time>2026-04-06T15:48:11.474Z</time></trkpt><trkpt lat="43.6081007" lon="11.2922818"><ele>208.66666666666669</ele><time>2026-04-06T15:48:12.463Z</time></trkpt><trkpt lat="43.6080129" lon="11.2925144"><ele>211.33333333333331</ele><time>2026-04-06T15:48:13.479Z</time></trkpt><trkpt lat="43.6079384" lon="11.2927384"><ele>214.0</ele><time>2026-04-06T15:48:14.47Z</time></trkpt><trkpt lat="43.6078467" lon="11.292973"><ele>210.0</ele><time>2026-04-06T15:48:15.471Z</time></trkpt><trkpt lat="43.6077686" lon="11.2931979"><ele>206.0</ele><time>2026-04-06T15:48:16.47Z</time></trkpt><trkpt lat="43.6076907" lon="11.293428"><ele>202.0</ele><time>2026-04-06T15:48:17.474Z</time></trkpt><trkpt lat="43.607616" lon="11.2936548"><ele>202.0</ele><time>2026-04-06T15:48:18.483Z</time></trkpt><trkpt lat="43.6075314" lon="11.293868"><ele>202.0</ele><time>2026-04-06T15:48:19.47Z</time></trkpt><trkpt lat="43.6074634" lon="11.294111"><ele>202.0</ele><time>2026-04-06T15:48:20.478Z</time></trkpt><trkpt lat="43.6073928" lon="11.294345"><ele>203.0</ele><time>2026-04-06T15:48:21.486Z</time></trkpt><trkpt lat="43.6073055" lon="11.29457"><ele>204.0</ele><time>2026-04-06T15:48:22.481Z</time></trkpt><trkpt lat="43.6072167" lon="11.2947963"><ele>205.0</ele><time>2026-04-06T15:48:23.481Z</time></trkpt><trkpt lat="43.6071342" lon="11.2950377"><ele>205.33333333333331</ele><time>2026-04-06T15:48:24.484Z</time></trkpt><trkpt lat="43.6070373" lon="11.2952659"><ele>205.66666666666669</ele><time>2026-04-06T15:48:25.472Z</time></trkpt><trkpt lat="43.6069748" lon="11.2954891"><ele>206.0</ele><time>2026-04-06T15:48:26.478Z</time></trkpt><trkpt lat="43.6069204" lon="11.2957079"><ele>205.0</ele><time>2026-04-06T15:48:27.472Z</time></trkpt><trkpt lat="43.6069076" lon="11.2959418"><ele>204.0</ele><time>2026-04-06T15:48:28.477Z</time></trkpt><trkpt lat="43.6069496" lon="11.296152"><ele>203.0</ele><time>2026-04-06T15:48:29.473Z</time></trkpt><trkpt lat="43.6070113" lon="11.2963447"><ele>205.66666666666669</ele><time>2026-04-06T15:48:30.473Z</time></trkpt><trkpt lat="43.6071009" lon="11.2965221"><ele>208.33333333333331</ele><time>2026-04-06T15:48:31.469Z</time></trkpt><trkpt lat="43.6072059" lon="11.2967008"><ele>211.0</ele><time>2026-04-06T15:48:32.474Z</time></trkpt><trkpt lat="43.6073296" lon="11.2968633"><ele>211.0</ele><time>2026-04-06T15:48:33.473Z</time></trkpt><trkpt lat="43.6074872" lon="11.2970201"><ele>211.0</ele><time>2026-04-06T15:48:34.47Z</time></trkpt><trkpt lat="43.6076505" lon="11.2971567"><ele>211.0</ele><time>2026-04-06T15:48:35.474Z</time></trkpt><trkpt lat="43.6078032" lon="11.2972896"><ele>212.66666666666666</ele><time>2026-04-06T15:48:36.475Z</time></trkpt><trkpt lat="43.6079538" lon="11.2974068"><ele>214.33333333333331</ele><time>2026-04-06T15:48:37.472Z</time></trkpt><trkpt lat="43.6080894" lon="11.2975076"><ele>216.0</ele><time>2026-04-06T15:48:38.469Z</time></trkpt><trkpt lat="43.6082084" lon="11.29762"><ele>216.0</ele><time>2026-04-06T15:48:39.476Z</time></trkpt><trkpt lat="43.6083063" lon="11.2977614"><ele>216.0</ele><time>2026-04-06T15:48:40.48Z</time></trkpt><trkpt lat="43.6084107" lon="11.2979137"><ele>216.0</ele><time>2026-04-06T15:48:41.472Z</time></trkpt><trkpt lat="43.6085037" lon="11.2980845"><ele>216.0</ele><time>2026-04-06T15:48:42.462Z</time></trkpt><trkpt lat="43.6085736" lon="11.2982774"><ele>215.66666666666669</ele><time>2026-04-06T15:48:43.467Z</time></trkpt><trkpt lat="43.6086266" lon="11.2984961"><ele>215.33333333333334</ele><time>2026-04-06T15:48:44.476Z</time></trkpt><trkpt lat="43.608661" lon="11.2987216"><ele>215.0</ele><time>2026-04-06T15:48:45.475Z</time></trkpt><trkpt lat="43.6086683" lon="11.2989674"><ele>215.0</ele><time>2026-04-06T15:48:46.476Z</time></trkpt><trkpt lat="43.6086871" lon="11.2991793"><ele>215.0</ele><time>2026-04-06T15:48:47.479Z</time></trkpt><trkpt lat="43.6087023" lon="11.2993852"><ele>215.0</ele><time>2026-04-06T15:48:48.468Z</time></trkpt><trkpt lat="43.6087109" lon="11.2995362"><ele>215.0</ele><time>2026-04-06T15:48:49.475Z</time></trkpt><trkpt lat="43.6087143" lon="11.2996532"><ele>215.00000000000003</ele><time>2026-04-06T15:48:50.472Z</time></trkpt><trkpt lat="43.6087189" lon="11.299744"><ele>215.0</ele><time>2026-04-06T15:48:51.481Z</time></trkpt><trkpt lat="43.6086943" lon="11.2998544"><ele>215.0</ele><time>2026-04-06T15:48:54.493Z</time></trkpt><trkpt lat="43.6086536" lon="11.2999402"><ele>215.0</ele><time>2026-04-06T15:48:56.487Z</time></trkpt><trkpt lat="43.6085879" lon="11.300078"><ele>215.00000000000003</ele><time>2026-04-06T15:48:58.488Z</time></trkpt><trkpt lat="43.6085413" lon="11.3001763"><ele>215.0</ele><time>2026-04-06T15:48:59.481Z</time></trkpt><trkpt lat="43.608498" lon="11.3002735"><ele>213.6</ele><time>2026-04-06T15:49:00.487Z</time></trkpt><trkpt lat="43.6084474" lon="11.3003697"><ele>212.2</ele><time>2026-04-06T15:49:01.483Z</time></trkpt><trkpt lat="43.6083857" lon="11.3004788"><ele>210.8</ele><time>2026-04-06T15:49:02.478Z</time></trkpt><trkpt lat="43.6083162" lon="11.3006076"><ele>209.4</ele><time>2026-04-06T15:49:03.487Z</time></trkpt><trkpt lat="43.6082543" lon="11.3007337"><ele>208.0</ele><time>2026-04-06T15:49:04.488Z</time></trkpt><trkpt lat="43.6082001" lon="11.3008515"><ele>208.0</ele><time>2026-04-06T15:49:05.485Z</time></trkpt><trkpt lat="43.6081523" lon="11.3009594"><ele>208.0</ele><time>2026-04-06T15:49:06.474Z</time></trkpt><trkpt lat="43.6081033" lon="11.3010591"><ele>208.0</ele><time>2026-04-06T15:49:07.477Z</time></trkpt><trkpt lat="43.608015" lon="11.3010827"><ele>208.0</ele><time>2026-04-06T15:49:09.482Z</time></trkpt><trkpt lat="43.607904" lon="11.3009581"><ele>208.0</ele><time>2026-04-06T15:49:11.495Z</time></trkpt><trkpt lat="43.6078234" lon="11.3008983"><ele>207.49999999999997</ele><time>2026-04-06T15:49:12.492Z</time></trkpt><trkpt lat="43.6077552" lon="11.300853"><ele>207.0</ele><time>2026-04-06T15:49:13.489Z</time></trkpt><trkpt lat="43.6076426" lon="11.3007788"><ele>206.5</ele><time>2026-04-06T15:49:15.499Z</time></trkpt><trkpt lat="43.60759" lon="11.3007271"><ele>206.0</ele><time>2026-04-06T15:49:16.497Z</time></trkpt><trkpt lat="43.6075339" lon="11.3006679"><ele>205.49999999999997</ele><time>2026-04-06T15:49:17.506Z</time></trkpt><trkpt lat="43.6074883" lon="11.3006043"><ele>205.0</ele><time>2026-04-06T15:49:18.501Z</time></trkpt><trkpt lat="43.6074435" lon="11.3005424"><ele>205.0</ele><time>2026-04-06T15:49:19.498Z</time></trkpt><trkpt lat="43.607355" lon="11.3004724"><ele>205.0</ele><time>2026-04-06T15:49:21.502Z</time></trkpt><trkpt lat="43.6072461" lon="11.3005154"><ele>205.0</ele><time>2026-04-06T15:49:23.483Z</time></trkpt><trkpt lat="43.6071824" lon="11.3005622"><ele>205.0</ele><time>2026-04-06T15:49:24.5Z</time></trkpt><trkpt lat="43.6070966" lon="11.3006143"><ele>205.0</ele><time>2026-04-06T15:49:25.494Z</time></trkpt><trkpt lat="43.607007" lon="11.3006773"><ele>205.4</ele><time>2026-04-06T15:49:26.498Z</time></trkpt><trkpt lat="43.6069175" lon="11.3007557"><ele>205.8</ele><time>2026-04-06T15:49:27.488Z</time></trkpt><trkpt lat="43.6068222" lon="11.3008462"><ele>206.2</ele><time>2026-04-06T15:49:28.501Z</time></trkpt><trkpt lat="43.606734" lon="11.3009393"><ele>206.6</ele><time>2026-04-06T15:49:29.501Z</time></trkpt><trkpt lat="43.6066505" lon="11.3010415"><ele>207.0</ele><time>2026-04-06T15:49:30.503Z</time></trkpt><trkpt lat="43.6065764" lon="11.3011441"><ele>207.0</ele><time>2026-04-06T15:49:31.489Z</time></trkpt><trkpt lat="43.6065181" lon="11.3012623"><ele>207.0</ele><time>2026-04-06T15:49:32.49Z</time></trkpt><trkpt lat="43.6064644" lon="11.3013958"><ele>207.0</ele><time>2026-04-06T15:49:33.494Z</time></trkpt><trkpt lat="43.6064015" lon="11.3015062"><ele>207.0</ele><time>2026-04-06T15:49:34.487Z</time></trkpt><trkpt lat="43.6063312" lon="11.3015954"><ele>207.0</ele><time>2026-04-06T15:49:35.488Z</time></trkpt><trkpt lat="43.6062445" lon="11.3016743"><ele>207.39999999999998</ele><time>2026-04-06T15:49:36.486Z</time></trkpt><trkpt lat="43.6061355" lon="11.3017494"><ele>207.79999999999998</ele><time>2026-04-06T15:49:37.486Z</time></trkpt><trkpt lat="43.6060307" lon="11.3018233"><ele>208.2</ele><time>2026-04-06T15:49:38.487Z</time></trkpt><trkpt lat="43.6059498" lon="11.3018894"><ele>208.6</ele><time>2026-04-06T15:49:39.485Z</time></trkpt><trkpt lat="43.6058774" lon="11.3019364"><ele>209.0</ele><time>2026-04-06T15:49:40.494Z</time></trkpt><trkpt lat="43.6057995" lon="11.3019936"><ele>209.0</ele><time>2026-04-06T15:49:41.486Z</time></trkpt><trkpt lat="43.6057062" lon="11.3020584"><ele>209.0</ele><time>2026-04-06T15:49:42.49Z</time></trkpt><trkpt lat="43.605613" lon="11.3021229"><ele>209.0</ele><time>2026-04-06T15:49:43.486Z</time></trkpt><trkpt lat="43.6055196" lon="11.302191"><ele>209.0</ele><time>2026-04-06T15:49:44.493Z</time></trkpt><trkpt lat="43.6054248" lon="11.3022645"><ele>209.0</ele><time>2026-04-06T15:49:45.49Z</time></trkpt><trkpt lat="43.6053296" lon="11.3023341"><ele>208.83333333333334</ele><time>2026-04-06T15:49:46.483Z</time></trkpt><trkpt lat="43.6052445" lon="11.302393"><ele>208.66666666666669</ele><time>2026-04-06T15:49:47.49Z</time></trkpt><trkpt lat="43.6051665" lon="11.3024514"><ele>208.5</ele><time>2026-04-06T15:49:48.491Z</time></trkpt><trkpt lat="43.6050905" lon="11.3025062"><ele>208.33333333333331</ele><time>2026-04-06T15:49:49.479Z</time></trkpt><trkpt lat="43.6050202" lon="11.3025699"><ele>208.16666666666666</ele><time>2026-04-06T15:49:50.478Z</time></trkpt><trkpt lat="43.6049426" lon="11.3026316"><ele>208.0</ele><time>2026-04-06T15:49:51.493Z</time></trkpt><trkpt lat="43.6048451" lon="11.3027058"><ele>208.0</ele><time>2026-04-06T15:49:52.487Z</time></trkpt><trkpt lat="43.6047414" lon="11.3027781"><ele>208.0</ele><time>2026-04-06T15:49:53.481Z</time></trkpt><trkpt lat="43.6046313" lon="11.3028686"><ele>208.0</ele><time>2026-04-06T15:49:54.488Z</time></trkpt><trkpt lat="43.6045111" lon="11.3029651"><ele>208.0</ele><time>2026-04-06T15:49:55.483Z</time></trkpt><trkpt lat="43.6044018" lon="11.3030498"><ele>207.60000000000002</ele><time>2026-04-06T15:49:56.478Z</time></trkpt><trkpt lat="43.6043168" lon="11.3031247"><ele>207.20000000000002</ele><time>2026-04-06T15:49:57.483Z</time></trkpt><trkpt lat="43.6042509" lon="11.3032137"><ele>206.8</ele><time>2026-04-06T15:49:58.479Z</time></trkpt><trkpt lat="43.6041981" lon="11.3033135"><ele>206.4</ele><time>2026-04-06T15:49:59.485Z</time></trkpt><trkpt lat="43.6041517" lon="11.3033978"><ele>206.0</ele><time>2026-04-06T15:50:00.476Z</time></trkpt><trkpt lat="43.6040695" lon="11.303521"><ele>206.00000000000003</ele><time>2026-04-06T15:50:02.481Z</time></trkpt><trkpt lat="43.6040049" lon="11.3036276"><ele>206.0</ele><time>2026-04-06T15:50:04.474Z</time></trkpt><trkpt lat="43.6039274" lon="11.3036872"><ele>206.0</ele><time>2026-04-06T15:50:06.48Z</time></trkpt><trkpt lat="43.6038509" lon="11.303766"><ele>206.0</ele><time>2026-04-06T15:50:08.485Z</time></trkpt><trkpt lat="43.6038049" lon="11.3038316"><ele>206.00000000000003</ele><time>2026-04-06T15:50:09.482Z</time></trkpt><trkpt lat="43.6037602" lon="11.3038936"><ele>206.0</ele><time>2026-04-06T15:50:10.485Z</time></trkpt><trkpt lat="43.6037016" lon="11.3039523"><ele>206.20000000000002</ele><time>2026-04-06T15:50:11.484Z</time></trkpt><trkpt lat="43.6036282" lon="11.3040216"><ele>206.4</ele><time>2026-04-06T15:50:12.482Z</time></trkpt><trkpt lat="43.603545" lon="11.304108"><ele>206.6</ele><time>2026-04-06T15:50:13.482Z</time></trkpt><trkpt lat="43.6034659" lon="11.3041925"><ele>206.8</ele><time>2026-04-06T15:50:14.493Z</time></trkpt><trkpt lat="43.6033913" lon="11.3042742"><ele>207.0</ele><time>2026-04-06T15:50:15.484Z</time></trkpt><trkpt lat="43.6033085" lon="11.304363"><ele>207.0</ele><time>2026-04-06T15:50:16.494Z</time></trkpt><trkpt lat="43.6032248" lon="11.3044439"><ele>207.0</ele><time>2026-04-06T15:50:17.49Z</time></trkpt><trkpt lat="43.6031314" lon="11.3045334"><ele>207.0</ele><time>2026-04-06T15:50:18.495Z</time></trkpt><trkpt lat="43.60304" lon="11.3046284"><ele>207.0</ele><time>2026-04-06T15:50:19.492Z</time></trkpt><trkpt lat="43.6029558" lon="11.3047206"><ele>207.0</ele><time>2026-04-06T15:50:20.491Z</time></trkpt><trkpt lat="43.6028839" lon="11.304793"><ele>207.6</ele><time>2026-04-06T15:50:21.492Z</time></trkpt><trkpt lat="43.6028279" lon="11.3048476"><ele>208.2</ele><time>2026-04-06T15:50:22.483Z</time></trkpt><trkpt lat="43.6027137" lon="11.3049613"><ele>208.8</ele><time>2026-04-06T15:50:24.493Z</time></trkpt><trkpt lat="43.6026301" lon="11.3050461"><ele>209.4</ele><time>2026-04-06T15:50:25.487Z</time></trkpt><trkpt lat="43.6025432" lon="11.3051356"><ele>210.0</ele><time>2026-04-06T15:50:26.496Z</time></trkpt><trkpt lat="43.6024506" lon="11.3052337"><ele>210.0</ele><time>2026-04-06T15:50:27.494Z</time></trkpt><trkpt lat="43.6023523" lon="11.3053366"><ele>210.0</ele><time>2026-04-06T15:50:28.502Z</time></trkpt><trkpt lat="43.6022576" lon="11.3054341"><ele>210.0</ele><time>2026-04-06T15:50:29.495Z</time></trkpt><trkpt lat="43.6021744" lon="11.3055191"><ele>210.0</ele><time>2026-04-06T15:50:30.49Z</time></trkpt><trkpt lat="43.6020963" lon="11.3055953"><ele>210.0</ele><time>2026-04-06T15:50:31.497Z</time></trkpt><trkpt lat="43.6020064" lon="11.3056735"><ele>211.0</ele><time>2026-04-06T15:50:32.489Z</time></trkpt><trkpt lat="43.6019138" lon="11.30576"><ele>212.0</ele><time>2026-04-06T15:50:33.492Z</time></trkpt><trkpt lat="43.6018221" lon="11.3058484"><ele>213.0</ele><time>2026-04-06T15:50:34.486Z</time></trkpt><trkpt lat="43.6017526" lon="11.3059238"><ele>214.0</ele><time>2026-04-06T15:50:35.488Z</time></trkpt><trkpt lat="43.6016886" lon="11.3059738"><ele>215.0</ele><time>2026-04-06T15:50:36.488Z</time></trkpt><trkpt lat="43.6016209" lon="11.3060069"><ele>215.0</ele><time>2026-04-06T15:50:37.488Z</time></trkpt><trkpt lat="43.6015351" lon="11.3060138"><ele>215.0</ele><time>2026-04-06T15:50:38.49Z</time></trkpt><trkpt lat="43.6014361" lon="11.3060028"><ele>215.0</ele><time>2026-04-06T15:50:39.484Z</time></trkpt><trkpt lat="43.6013304" lon="11.305999"><ele>215.0</ele><time>2026-04-06T15:50:40.479Z</time></trkpt><trkpt lat="43.601204" lon="11.3060107"><ele>215.0</ele><time>2026-04-06T15:50:41.483Z</time></trkpt><trkpt lat="43.601077" lon="11.3060167"><ele>217.75</ele><time>2026-04-06T15:50:42.474Z</time></trkpt><trkpt lat="43.6009389" lon="11.3060244"><ele>220.5</ele><time>2026-04-06T15:50:43.488Z</time></trkpt><trkpt lat="43.6007977" lon="11.3060244"><ele>223.25</ele><time>2026-04-06T15:50:44.488Z</time></trkpt><trkpt lat="43.600655" lon="11.3060172"><ele>226.0</ele><time>2026-04-06T15:50:45.483Z</time></trkpt><trkpt lat="43.6005118" lon="11.306006"><ele>226.0</ele><time>2026-04-06T15:50:46.494Z</time></trkpt><trkpt lat="43.6003526" lon="11.3059808"><ele>226.0</ele><time>2026-04-06T15:50:47.499Z</time></trkpt><trkpt lat="43.6002089" lon="11.3059819"><ele>226.0</ele><time>2026-04-06T15:50:48.482Z</time></trkpt><trkpt lat="43.6000952" lon="11.3059788"><ele>226.0</ele><time>2026-04-06T15:50:49.484Z</time></trkpt><trkpt lat="43.6000085" lon="11.3059623"><ele>227.33333333333331</ele><time>2026-04-06T15:50:50.479Z</time></trkpt><trkpt lat="43.5999382" lon="11.3059699"><ele>228.66666666666666</ele><time>2026-04-06T15:50:51.492Z</time></trkpt><trkpt lat="43.5998773" lon="11.3059922"><ele>230.0</ele><time>2026-04-06T15:50:52.485Z</time></trkpt><trkpt lat="43.5998163" lon="11.3061238"><ele>231.33333333333331</ele><time>2026-04-06T15:50:54.486Z</time></trkpt><trkpt lat="43.5998186" lon="11.3062848"><ele>232.66666666666666</ele><time>2026-04-06T15:50:56.486Z</time></trkpt><trkpt lat="43.599839" lon="11.3063675"><ele>234.0</ele><time>2026-04-06T15:50:57.495Z</time></trkpt><trkpt lat="43.5998234" lon="11.3064877"><ele>234.5</ele><time>2026-04-06T15:50:59.489Z</time></trkpt><trkpt lat="43.5997534" lon="11.3065281"><ele>235.0</ele><time>2026-04-06T15:51:01.491Z</time></trkpt><trkpt lat="43.5996882" lon="11.306559"><ele>235.5</ele><time>2026-04-06T15:51:02.487Z</time></trkpt><trkpt lat="43.5996079" lon="11.3065751"><ele>236.0</ele><time>2026-04-06T15:51:03.489Z</time></trkpt><trkpt lat="43.5995226" lon="11.3065877"><ele>236.5</ele><time>2026-04-06T15:51:04.488Z</time></trkpt><trkpt lat="43.5994348" lon="11.3066004"><ele>237.0</ele><time>2026-04-06T15:51:05.494Z</time></trkpt><trkpt lat="43.599341" lon="11.3066026"><ele>237.16666666666666</ele><time>2026-04-06T15:51:06.489Z</time></trkpt><trkpt lat="43.599248" lon="11.3065914"><ele>237.33333333333331</ele><time>2026-04-06T15:51:07.49Z</time></trkpt><trkpt lat="43.5991547" lon="11.3065865"><ele>237.5</ele><time>2026-04-06T15:51:08.495Z</time></trkpt><trkpt lat="43.5990778" lon="11.3065902"><ele>237.66666666666666</ele><time>2026-04-06T15:51:09.492Z</time></trkpt><trkpt lat="43.599007" lon="11.3066097"><ele>237.83333333333331</ele><time>2026-04-06T15:51:10.495Z</time></trkpt><trkpt lat="43.5989533" lon="11.3066635"><ele>238.0</ele><time>2026-04-06T15:51:11.485Z</time></trkpt><trkpt lat="43.5988956" lon="11.306723"><ele>238.0</ele><time>2026-04-06T15:51:12.493Z</time></trkpt><trkpt lat="43.5988318" lon="11.3067742"><ele>238.0</ele><time>2026-04-06T15:51:13.495Z</time></trkpt><trkpt lat="43.5987322" lon="11.3068611"><ele>238.0</ele><time>2026-04-06T15:51:15.49Z</time></trkpt><trkpt lat="43.5986924" lon="11.3070131"><ele>238.0</ele><time>2026-04-06T15:51:17.491Z</time></trkpt><trkpt lat="43.5986957" lon="11.3071198"><ele>238.0</ele><time>2026-04-06T15:51:18.496Z</time></trkpt><trkpt lat="43.5987021" lon="11.3072388"><ele>240.2</ele><time>2026-04-06T15:51:19.498Z</time></trkpt><trkpt lat="43.5986911" lon="11.3073256"><ele>242.4</ele><time>2026-04-06T15:51:20.484Z</time></trkpt><trkpt lat="43.5986432" lon="11.3074481"><ele>244.59999999999997</ele><time>2026-04-06T15:51:22.492Z</time></trkpt><trkpt lat="43.5985464" lon="11.3075515"><ele>246.79999999999998</ele><time>2026-04-06T15:51:24.489Z</time></trkpt><trkpt lat="43.5984921" lon="11.3075966"><ele>249.0</ele><time>2026-04-06T15:51:25.493Z</time></trkpt><trkpt lat="43.5983898" lon="11.3076882"><ele>249.83333333333334</ele><time>2026-04-06T15:51:27.49Z</time></trkpt><trkpt lat="43.5982845" lon="11.3077698"><ele>250.66666666666669</ele><time>2026-04-06T15:51:29.494Z</time></trkpt><trkpt lat="43.5982183" lon="11.3077874"><ele>251.5</ele><time>2026-04-06T15:51:30.491Z</time></trkpt><trkpt lat="43.5981382" lon="11.3077932"><ele>252.33333333333334</ele><time>2026-04-06T15:51:31.496Z</time></trkpt><trkpt lat="43.598053" lon="11.3077962"><ele>253.16666666666669</ele><time>2026-04-06T15:51:32.504Z</time></trkpt><trkpt lat="43.5979727" lon="11.3078123"><ele>254.0</ele><time>2026-04-06T15:51:33.502Z</time></trkpt><trkpt lat="43.5978914" lon="11.3078241"><ele>254.71428571428572</ele><time>2026-04-06T15:51:34.497Z</time></trkpt><trkpt lat="43.5978069" lon="11.3078479"><ele>255.42857142857142</ele><time>2026-04-06T15:51:35.494Z</time></trkpt><trkpt lat="43.5977314" lon="11.3078827"><ele>256.1428571428571</ele><time>2026-04-06T15:51:36.503Z</time></trkpt><trkpt lat="43.5976627" lon="11.3079116"><ele>256.8571428571429</ele><time>2026-04-06T15:51:37.498Z</time></trkpt><trkpt lat="43.5975968" lon="11.3079374"><ele>257.57142857142856</ele><time>2026-04-06T15:51:38.496Z</time></trkpt><trkpt lat="43.5975275" lon="11.30796"><ele>258.2857142857143</ele><time>2026-04-06T15:51:39.493Z</time></trkpt><trkpt lat="43.5974587" lon="11.3079811"><ele>259.0</ele><time>2026-04-06T15:51:40.499Z</time></trkpt><trkpt lat="43.59739" lon="11.3079935"><ele>259.0</ele><time>2026-04-06T15:51:41.492Z</time></trkpt><trkpt lat="43.5973115" lon="11.3079982"><ele>259.0</ele><time>2026-04-06T15:51:42.499Z</time></trkpt><trkpt lat="43.5972288" lon="11.3080185"><ele>259.0</ele><time>2026-04-06T15:51:43.501Z</time></trkpt><trkpt lat="43.5971398" lon="11.3080433"><ele>259.0</ele><time>2026-04-06T15:51:44.49Z</time></trkpt><trkpt lat="43.5970524" lon="11.3080678"><ele>259.0</ele><time>2026-04-06T15:51:45.5Z</time></trkpt><trkpt lat="43.5969669" lon="11.3080899"><ele>259.0</ele><time>2026-04-06T15:51:46.497Z</time></trkpt><trkpt lat="43.5968876" lon="11.3080888"><ele>260.2</ele><time>2026-04-06T15:51:47.502Z</time></trkpt><trkpt lat="43.5968049" lon="11.3080879"><ele>261.4</ele><time>2026-04-06T15:51:48.492Z</time></trkpt><trkpt lat="43.5967107" lon="11.3081227"><ele>262.6</ele><time>2026-04-06T15:51:49.495Z</time></trkpt><trkpt lat="43.5966115" lon="11.3081465"><ele>263.8</ele><time>2026-04-06T15:51:50.496Z</time></trkpt><trkpt lat="43.5965079" lon="11.308169"><ele>265.0</ele><time>2026-04-06T15:51:51.504Z</time></trkpt><trkpt lat="43.5964184" lon="11.3082059"><ele>265.0</ele><time>2026-04-06T15:51:52.501Z</time></trkpt><trkpt lat="43.5963413" lon="11.3082424"><ele>265.0</ele><time>2026-04-06T15:51:53.486Z</time></trkpt><trkpt lat="43.5962304" lon="11.3082318"><ele>265.0</ele><time>2026-04-06T15:51:55.501Z</time></trkpt><trkpt lat="43.5961907" lon="11.30813"><ele>265.0</ele><time>2026-04-06T15:51:57.493Z</time></trkpt><trkpt lat="43.5962341" lon="11.3080031"><ele>265.0</ele><time>2026-04-06T15:51:59.498Z</time></trkpt><trkpt lat="43.5962687" lon="11.3078741"><ele>264.6</ele><time>2026-04-06T15:52:01.482Z</time></trkpt><trkpt lat="43.5961939" lon="11.307795"><ele>264.2</ele><time>2026-04-06T15:52:03.489Z</time></trkpt><trkpt lat="43.5960802" lon="11.3078027"><ele>263.8</ele><time>2026-04-06T15:52:05.497Z</time></trkpt><trkpt lat="43.5960056" lon="11.3078358"><ele>263.4</ele><time>2026-04-06T15:52:06.492Z</time></trkpt><trkpt lat="43.5959178" lon="11.3078684"><ele>263.0</ele><time>2026-04-06T15:52:07.498Z</time></trkpt><trkpt lat="43.5958195" lon="11.3078989"><ele>264.4</ele><time>2026-04-06T15:52:08.49Z</time></trkpt><trkpt lat="43.5957177" lon="11.3079126"><ele>265.8</ele><time>2026-04-06T15:52:09.493Z</time></trkpt><trkpt lat="43.5956256" lon="11.3079339"><ele>267.2</ele><time>2026-04-06T15:52:10.495Z</time></trkpt><trkpt lat="43.5955346" lon="11.3079645"><ele>268.6</ele><time>2026-04-06T15:52:11.502Z</time></trkpt><trkpt lat="43.5954426" lon="11.3079768"><ele>270.0</ele><time>2026-04-06T15:52:12.493Z</time></trkpt><trkpt lat="43.5953442" lon="11.3079956"><ele>270.1666666666667</ele><time>2026-04-06T15:52:13.501Z</time></trkpt><trkpt lat="43.5952589" lon="11.3080172"><ele>270.3333333333333</ele><time>2026-04-06T15:52:14.493Z</time></trkpt><trkpt lat="43.5951936" lon="11.3080532"><ele>270.5</ele><time>2026-04-06T15:52:15.484Z</time></trkpt><trkpt lat="43.5951336" lon="11.3081924"><ele>270.66666666666663</ele><time>2026-04-06T15:52:17.49Z</time></trkpt><trkpt lat="43.5951318" lon="11.3082974"><ele>270.8333333333333</ele><time>2026-04-06T15:52:18.494Z</time></trkpt><trkpt lat="43.5951481" lon="11.308399"><ele>271.0</ele><time>2026-04-06T15:52:19.493Z</time></trkpt><trkpt lat="43.5951582" lon="11.3085178"><ele>270.5</ele><time>2026-04-06T15:52:21.495Z</time></trkpt><trkpt lat="43.5950967" lon="11.3085865"><ele>270.0</ele><time>2026-04-06T15:52:24.494Z</time></trkpt><trkpt lat="43.5950312" lon="11.3085862"><ele>269.5</ele><time>2026-04-06T15:52:26.494Z</time></trkpt><trkpt lat="43.5949324" lon="11.3085996"><ele>269.0</ele><time>2026-04-06T15:52:28.511Z</time></trkpt><trkpt lat="43.5948172" lon="11.3086297"><ele>268.5</ele><time>2026-04-06T15:52:30.5Z</time></trkpt><trkpt lat="43.5947537" lon="11.3086474"><ele>268.0</ele><time>2026-04-06T15:52:31.498Z</time></trkpt><trkpt lat="43.5946884" lon="11.3086699"><ele>268.0</ele><time>2026-04-06T15:52:32.493Z</time></trkpt><trkpt lat="43.5946208" lon="11.308682"><ele>268.0</ele><time>2026-04-06T15:52:33.497Z</time></trkpt><trkpt lat="43.5945555" lon="11.3086867"><ele>268.0</ele><time>2026-04-06T15:52:34.501Z</time></trkpt><trkpt lat="43.5944385" lon="11.3087293"><ele>268.0</ele><time>2026-04-06T15:52:36.5Z</time></trkpt><trkpt lat="43.5943346" lon="11.3087568"><ele>268.0</ele><time>2026-04-06T15:52:38.5Z</time></trkpt><trkpt lat="43.5942672" lon="11.3087644"><ele>268.0</ele><time>2026-04-06T15:52:46.512Z</time></trkpt><trkpt lat="43.5942656" lon="11.3086399"><ele>267.25</ele><time>2026-04-06T15:53:14.503Z</time></trkpt><trkpt lat="43.5942873" lon="11.3084102"><ele>266.5</ele><time>2026-04-06T15:53:16.504Z</time></trkpt><trkpt lat="43.5942962" lon="11.3082821"><ele>265.75</ele><time>2026-04-06T15:53:17.501Z</time></trkpt><trkpt lat="43.5943075" lon="11.308163"><ele>265.0</ele><time>2026-04-06T15:53:18.502Z</time></trkpt><trkpt lat="43.5943216" lon="11.307998"><ele>265.0</ele><time>2026-04-06T15:53:19.495Z</time></trkpt><trkpt lat="43.5943394" lon="11.3078155"><ele>265.0</ele><time>2026-04-06T15:53:20.506Z</time></trkpt><trkpt lat="43.5943617" lon="11.307646"><ele>265.0</ele><time>2026-04-06T15:53:21.51Z</time></trkpt><trkpt lat="43.5943763" lon="11.3074757"><ele>265.0</ele><time>2026-04-06T15:53:22.509Z</time></trkpt><trkpt lat="43.5943917" lon="11.3072826"><ele>266.3333333333333</ele><time>2026-04-06T15:53:23.507Z</time></trkpt><trkpt lat="43.5944118" lon="11.3070809"><ele>267.6666666666667</ele><time>2026-04-06T15:53:24.503Z</time></trkpt><trkpt lat="43.5944394" lon="11.3068617"><ele>269.0</ele><time>2026-04-06T15:53:25.51Z</time></trkpt><trkpt lat="43.5944599" lon="11.3066482"><ele>269.0</ele><time>2026-04-06T15:53:26.498Z</time></trkpt><trkpt lat="43.594481" lon="11.3064647"><ele>269.0</ele><time>2026-04-06T15:53:27.498Z</time></trkpt><trkpt lat="43.5945024" lon="11.3062898"><ele>269.0</ele><time>2026-04-06T15:53:28.513Z</time></trkpt><trkpt lat="43.5945195" lon="11.3061144"><ele>269.0</ele><time>2026-04-06T15:53:29.512Z</time></trkpt><trkpt lat="43.5945277" lon="11.305907"><ele>270.33333333333337</ele><time>2026-04-06T15:53:30.497Z</time></trkpt><trkpt lat="43.594516" lon="11.3056806"><ele>271.6666666666667</ele><time>2026-04-06T15:53:31.503Z</time></trkpt><trkpt lat="43.5945092" lon="11.3054451"><ele>273.0</ele><time>2026-04-06T15:53:32.501Z</time></trkpt><trkpt lat="43.5945012" lon="11.3052442"><ele>273.0</ele><time>2026-04-06T15:53:33.5Z</time></trkpt><trkpt lat="43.5944926" lon="11.3050752"><ele>273.0</ele><time>2026-04-06T15:53:34.508Z</time></trkpt><trkpt lat="43.5944864" lon="11.3049265"><ele>273.0</ele><time>2026-04-06T15:53:35.502Z</time></trkpt><trkpt lat="43.594484" lon="11.3047783"><ele>273.0</ele><time>2026-04-06T15:53:36.511Z</time></trkpt><trkpt lat="43.5944861" lon="11.3046236"><ele>274.4</ele><time>2026-04-06T15:53:37.507Z</time></trkpt><trkpt lat="43.5944816" lon="11.3044853"><ele>275.8</ele><time>2026-04-06T15:53:38.508Z</time></trkpt><trkpt lat="43.5944754" lon="11.304364"><ele>277.2</ele><time>2026-04-06T15:53:39.503Z</time></trkpt><trkpt lat="43.5944686" lon="11.3042743"><ele>278.6</ele><time>2026-04-06T15:53:40.503Z</time></trkpt><trkpt lat="43.5944548" lon="11.3041889"><ele>280.0</ele><time>2026-04-06T15:53:41.504Z</time></trkpt><trkpt lat="43.594364" lon="11.3040424"><ele>280.0</ele><time>2026-04-06T15:53:43.503Z</time></trkpt><trkpt lat="43.5942975" lon="11.3039451"><ele>280.0</ele><time>2026-04-06T15:53:44.499Z</time></trkpt><trkpt lat="43.594233" lon="11.3038407"><ele>280.0</ele><time>2026-04-06T15:53:45.504Z</time></trkpt><trkpt lat="43.5941766" lon="11.3037521"><ele>280.0</ele><time>2026-04-06T15:53:46.509Z</time></trkpt><trkpt lat="43.5941205" lon="11.3036672"><ele>280.0</ele><time>2026-04-06T15:53:47.503Z</time></trkpt><trkpt lat="43.5940697" lon="11.3035841"><ele>280.0</ele><time>2026-04-06T15:53:48.504Z</time></trkpt><trkpt lat="43.5940099" lon="11.3034998"><ele>281.16666666666663</ele><time>2026-04-06T15:53:49.501Z</time></trkpt><trkpt lat="43.5939571" lon="11.3034156"><ele>282.3333333333333</ele><time>2026-04-06T15:53:50.503Z</time></trkpt><trkpt lat="43.5939053" lon="11.3033237"><ele>283.5</ele><time>2026-04-06T15:53:51.504Z</time></trkpt><trkpt lat="43.5938522" lon="11.3032435"><ele>284.6666666666667</ele><time>2026-04-06T15:53:52.505Z</time></trkpt><trkpt lat="43.5937959" lon="11.3031527"><ele>285.83333333333337</ele><time>2026-04-06T15:53:53.502Z</time></trkpt><trkpt lat="43.5937424" lon="11.3030557"><ele>287.0</ele><time>2026-04-06T15:53:54.503Z</time></trkpt><trkpt lat="43.5936842" lon="11.3029768"><ele>286.83333333333337</ele><time>2026-04-06T15:53:55.49Z</time></trkpt><trkpt lat="43.593609" lon="11.3029136"><ele>286.6666666666667</ele><time>2026-04-06T15:53:56.487Z</time></trkpt><trkpt lat="43.5935277" lon="11.3028735"><ele>286.5</ele><time>2026-04-06T15:53:57.489Z</time></trkpt><trkpt lat="43.5934583" lon="11.3028356"><ele>286.3333333333333</ele><time>2026-04-06T15:53:58.495Z</time></trkpt><trkpt lat="43.5933942" lon="11.3027798"><ele>286.16666666666663</ele><time>2026-04-06T15:53:59.494Z</time></trkpt><trkpt lat="43.5933385" lon="11.3027095"><ele>286.0</ele><time>2026-04-06T15:54:00.488Z</time></trkpt><trkpt lat="43.5932836" lon="11.3026402"><ele>286.0</ele><time>2026-04-06T15:54:01.499Z</time></trkpt><trkpt lat="43.5932316" lon="11.3025905"><ele>286.0</ele><time>2026-04-06T15:54:02.494Z</time></trkpt><trkpt lat="43.5931788" lon="11.3025137"><ele>286.0</ele><time>2026-04-06T15:54:03.495Z</time></trkpt><trkpt lat="43.5931245" lon="11.302434"><ele>286.0</ele><time>2026-04-06T15:54:04.492Z</time></trkpt><trkpt lat="43.5930677" lon="11.3023578"><ele>286.0</ele><time>2026-04-06T15:54:05.495Z</time></trkpt><trkpt lat="43.5930051" lon="11.3022843"><ele>286.0</ele><time>2026-04-06T15:54:06.492Z</time></trkpt><trkpt lat="43.5929445" lon="11.3021924"><ele>286.3333333333333</ele><time>2026-04-06T15:54:07.492Z</time></trkpt><trkpt lat="43.5928845" lon="11.3021162"><ele>286.66666666666663</ele><time>2026-04-06T15:54:08.489Z</time></trkpt><trkpt lat="43.5928269" lon="11.3020446"><ele>287.0</ele><time>2026-04-06T15:54:09.496Z</time></trkpt><trkpt lat="43.5927673" lon="11.3019646"><ele>287.3333333333333</ele><time>2026-04-06T15:54:10.49Z</time></trkpt><trkpt lat="43.5927151" lon="11.3018755"><ele>287.6666666666667</ele><time>2026-04-06T15:54:11.484Z</time></trkpt><trkpt lat="43.5926617" lon="11.3017754"><ele>288.0</ele><time>2026-04-06T15:54:12.498Z</time></trkpt><trkpt lat="43.5926174" lon="11.3016747"><ele>288.0</ele><time>2026-04-06T15:54:13.489Z</time></trkpt><trkpt lat="43.5925856" lon="11.3015722"><ele>288.0</ele><time>2026-04-06T15:54:14.494Z</time></trkpt><trkpt lat="43.592557" lon="11.3014643"><ele>288.0</ele><time>2026-04-06T15:54:15.487Z</time></trkpt><trkpt lat="43.5925219" lon="11.3013769"><ele>288.0</ele><time>2026-04-06T15:54:16.484Z</time></trkpt><trkpt lat="43.5924778" lon="11.301291"><ele>288.0</ele><time>2026-04-06T15:54:17.491Z</time></trkpt><trkpt lat="43.5924261" lon="11.3012259"><ele>288.0</ele><time>2026-04-06T15:54:18.491Z</time></trkpt><trkpt lat="43.5923621" lon="11.3011557"><ele>290.0</ele><time>2026-04-06T15:54:19.482Z</time></trkpt><trkpt lat="43.5923055" lon="11.3010678"><ele>292.0</ele><time>2026-04-06T15:54:20.475Z</time></trkpt><trkpt lat="43.5922518" lon="11.3009831"><ele>294.0</ele><time>2026-04-06T15:54:21.493Z</time></trkpt><trkpt lat="43.5922057" lon="11.3008891"><ele>296.0</ele><time>2026-04-06T15:54:22.481Z</time></trkpt><trkpt lat="43.5921662" lon="11.3007788"><ele>298.0</ele><time>2026-04-06T15:54:23.478Z</time></trkpt><trkpt lat="43.5921282" lon="11.3006734"><ele>300.0</ele><time>2026-04-06T15:54:24.487Z</time></trkpt><trkpt lat="43.5920865" lon="11.3005747"><ele>297.85714285714283</ele><time>2026-04-06T15:54:25.486Z</time></trkpt><trkpt lat="43.5920465" lon="11.3004783"><ele>295.7142857142857</ele><time>2026-04-06T15:54:26.487Z</time></trkpt><trkpt lat="43.5920135" lon="11.3003858"><ele>293.57142857142856</ele><time>2026-04-06T15:54:27.479Z</time></trkpt><trkpt lat="43.591981" lon="11.3003104"><ele>291.42857142857144</ele><time>2026-04-06T15:54:28.489Z</time></trkpt><trkpt lat="43.5919689" lon="11.3002201"><ele>289.2857142857143</ele><time>2026-04-06T15:54:29.485Z</time></trkpt><trkpt lat="43.5919652" lon="11.3001243"><ele>287.1428571428571</ele><time>2026-04-06T15:54:30.478Z</time></trkpt><trkpt lat="43.5919507" lon="11.300021"><ele>285.0</ele><time>2026-04-06T15:54:31.483Z</time></trkpt><trkpt lat="43.5919161" lon="11.2999214"><ele>285.0</ele><time>2026-04-06T15:54:32.486Z</time></trkpt><trkpt lat="43.591874" lon="11.2998353"><ele>285.0</ele><time>2026-04-06T15:54:33.483Z</time></trkpt><trkpt lat="43.5918351" lon="11.2997398"><ele>285.0</ele><time>2026-04-06T15:54:34.484Z</time></trkpt><trkpt lat="43.5918019" lon="11.2996306"><ele>285.0</ele><time>2026-04-06T15:54:35.481Z</time></trkpt><trkpt lat="43.5917648" lon="11.2995257"><ele>285.0</ele><time>2026-04-06T15:54:36.488Z</time></trkpt><trkpt lat="43.5917302" lon="11.2994344"><ele>285.0</ele><time>2026-04-06T15:54:37.486Z</time></trkpt><trkpt lat="43.5917074" lon="11.2993408"><ele>286.3333333333333</ele><time>2026-04-06T15:54:38.491Z</time></trkpt><trkpt lat="43.5917007" lon="11.2992491"><ele>287.6666666666667</ele><time>2026-04-06T15:54:39.496Z</time></trkpt><trkpt lat="43.5916934" lon="11.2991068"><ele>289.0</ele><time>2026-04-06T15:54:41.493Z</time></trkpt><trkpt lat="43.5916716" lon="11.2989831"><ele>290.33333333333337</ele><time>2026-04-06T15:54:44.503Z</time></trkpt><trkpt lat="43.591658" lon="11.2988933"><ele>291.6666666666667</ele><time>2026-04-06T15:54:46.501Z</time></trkpt><trkpt lat="43.5916325" lon="11.2987578"><ele>293.0</ele><time>2026-04-06T15:54:48.486Z</time></trkpt><trkpt lat="43.5915984" lon="11.298624"><ele>293.5</ele><time>2026-04-06T15:54:50.483Z</time></trkpt><trkpt lat="43.5915653" lon="11.2984899"><ele>294.0</ele><time>2026-04-06T15:54:52.484Z</time></trkpt><trkpt lat="43.5915603" lon="11.2983856"><ele>294.5</ele><time>2026-04-06T15:54:54.49Z</time></trkpt><trkpt lat="43.5915543" lon="11.2984734"><ele>295.0</ele><time>2026-04-06T15:55:11.498Z</time></trkpt><trkpt lat="43.5915757" lon="11.2986076"><ele>295.5</ele><time>2026-04-06T15:55:13.498Z</time></trkpt><trkpt lat="43.5915963" lon="11.2986936"><ele>296.0</ele><time>2026-04-06T15:55:14.501Z</time></trkpt><trkpt lat="43.5916206" lon="11.2987863"><ele>296.0</ele><time>2026-04-06T15:55:15.498Z</time></trkpt><trkpt lat="43.5916495" lon="11.2988754"><ele>296.0</ele><time>2026-04-06T15:55:16.498Z</time></trkpt><trkpt lat="43.591687" lon="11.2989985"><ele>296.0</ele><time>2026-04-06T15:55:18.486Z</time></trkpt><trkpt lat="43.5916285" lon="11.2988833"><ele>296.0</ele><time>2026-04-06T15:55:28.511Z</time></trkpt><trkpt lat="43.5915929" lon="11.2988086"><ele>296.0</ele><time>2026-04-06T15:55:29.491Z</time></trkpt><trkpt lat="43.5915545" lon="11.298732"><ele>296.0</ele><time>2026-04-06T15:55:30.494Z</time></trkpt><trkpt lat="43.5915174" lon="11.2986411"><ele>296.0</ele><time>2026-04-06T15:55:31.491Z</time></trkpt><trkpt lat="43.591475" lon="11.2985414"><ele>296.0</ele><time>2026-04-06T15:55:32.494Z</time></trkpt><trkpt lat="43.5914365" lon="11.2984502"><ele>296.0</ele><time>2026-04-06T15:55:33.489Z</time></trkpt><trkpt lat="43.591391" lon="11.2983643"><ele>296.0</ele><time>2026-04-06T15:55:34.494Z</time></trkpt><trkpt lat="43.5913568" lon="11.2982638"><ele>296.0</ele><time>2026-04-06T15:55:35.5Z</time></trkpt><trkpt lat="43.5913369" lon="11.2981494"><ele>296.0</ele><time>2026-04-06T15:55:36.488Z</time></trkpt><trkpt lat="43.5913252" lon="11.2980422"><ele>295.1666666666667</ele><time>2026-04-06T15:55:37.49Z</time></trkpt><trkpt lat="43.5913118" lon="11.2979344"><ele>294.33333333333337</ele><time>2026-04-06T15:55:38.485Z</time></trkpt><trkpt lat="43.5912895" lon="11.2978201"><ele>293.5</ele><time>2026-04-06T15:55:39.479Z</time></trkpt><trkpt lat="43.5912874" lon="11.29771"><ele>292.6666666666667</ele><time>2026-04-06T15:55:40.492Z</time></trkpt><trkpt lat="43.5912933" lon="11.2975884"><ele>291.8333333333333</ele><time>2026-04-06T15:55:41.494Z</time></trkpt><trkpt lat="43.5913106" lon="11.2974723"><ele>291.0</ele><time>2026-04-06T15:55:42.489Z</time></trkpt><trkpt lat="43.59132" lon="11.2973674"><ele>291.0</ele><time>2026-04-06T15:55:43.485Z</time></trkpt><trkpt lat="43.5913301" lon="11.2972525"><ele>291.0</ele><time>2026-04-06T15:55:44.499Z</time></trkpt><trkpt lat="43.5913444" lon="11.2971532"><ele>291.0</ele><time>2026-04-06T15:55:45.485Z</time></trkpt><trkpt lat="43.5913504" lon="11.2970541"><ele>291.0</ele><time>2026-04-06T15:55:46.493Z</time></trkpt><trkpt lat="43.5913383" lon="11.2969446"><ele>291.0</ele><time>2026-04-06T15:55:47.494Z</time></trkpt><trkpt lat="43.5913125" lon="11.2968244"><ele>291.0</ele><time>2026-04-06T15:55:48.484Z</time></trkpt><trkpt lat="43.5912779" lon="11.2967155"><ele>290.1666666666667</ele><time>2026-04-06T15:55:49.483Z</time></trkpt><trkpt lat="43.5912419" lon="11.2966186"><ele>289.3333333333333</ele><time>2026-04-06T15:55:50.485Z</time></trkpt><trkpt lat="43.5912134" lon="11.2965065"><ele>288.5</ele><time>2026-04-06T15:55:51.486Z</time></trkpt><trkpt lat="43.5911796" lon="11.2963702"><ele>287.66666666666663</ele><time>2026-04-06T15:55:52.486Z</time></trkpt><trkpt lat="43.5911523" lon="11.2962599"><ele>286.8333333333333</ele><time>2026-04-06T15:55:53.489Z</time></trkpt><trkpt lat="43.5911163" lon="11.2961594"><ele>286.0</ele><time>2026-04-06T15:55:54.477Z</time></trkpt><trkpt lat="43.5910647" lon="11.2960611"><ele>286.0</ele><time>2026-04-06T15:55:55.478Z</time></trkpt><trkpt lat="43.59101" lon="11.2959904"><ele>286.0</ele><time>2026-04-06T15:55:56.476Z</time></trkpt><trkpt lat="43.5909974" lon="11.2958933"><ele>286.0</ele><time>2026-04-06T15:55:58.485Z</time></trkpt><trkpt lat="43.5910687" lon="11.2958599"><ele>286.0</ele><time>2026-04-06T15:56:01.498Z</time></trkpt><trkpt lat="43.5911798" lon="11.2958229"><ele>286.0</ele><time>2026-04-06T15:56:03.486Z</time></trkpt><trkpt lat="43.5912874" lon="11.2957191"><ele>285.66666666666663</ele><time>2026-04-06T15:56:05.494Z</time></trkpt><trkpt lat="43.5913425" lon="11.2956542"><ele>285.3333333333333</ele><time>2026-04-06T15:56:06.488Z</time></trkpt><trkpt lat="43.5914344" lon="11.2955815"><ele>285.0</ele><time>2026-04-06T15:56:08.485Z</time></trkpt><trkpt lat="43.5913889" lon="11.2955096"><ele>284.6666666666667</ele><time>2026-04-06T15:56:16.492Z</time></trkpt><trkpt lat="43.5913233" lon="11.2955463"><ele>284.33333333333337</ele><time>2026-04-06T15:56:44.491Z</time></trkpt><trkpt lat="43.5912265" lon="11.2954725"><ele>284.0</ele><time>2026-04-06T15:56:46.496Z</time></trkpt><trkpt lat="43.5911886" lon="11.2953807"><ele>287.1666666666667</ele><time>2026-04-06T15:56:47.499Z</time></trkpt><trkpt lat="43.5911491" lon="11.2953018"><ele>290.33333333333337</ele><time>2026-04-06T15:56:48.502Z</time></trkpt><trkpt lat="43.5911043" lon="11.2952271"><ele>293.5</ele><time>2026-04-06T15:56:49.486Z</time></trkpt><trkpt lat="43.5910562" lon="11.2951642"><ele>296.6666666666667</ele><time>2026-04-06T15:56:50.489Z</time></trkpt><trkpt lat="43.5909629" lon="11.295096"><ele>299.8333333333333</ele><time>2026-04-06T15:56:52.485Z</time></trkpt><trkpt lat="43.5908734" lon="11.2950385"><ele>303.0</ele><time>2026-04-06T15:56:54.486Z</time></trkpt><trkpt lat="43.5908072" lon="11.2949857"><ele>303.0</ele><time>2026-04-06T15:57:18.53Z</time></trkpt><trkpt lat="43.5907409" lon="11.2949123"><ele>303.0</ele><time>2026-04-06T15:57:22.506Z</time></trkpt><trkpt lat="43.5906857" lon="11.2948295"><ele>303.0</ele><time>2026-04-06T15:57:24.512Z</time></trkpt><trkpt lat="43.5906527" lon="11.2947464"><ele>303.0</ele><time>2026-04-06T15:57:26.519Z</time></trkpt><trkpt lat="43.5905762" lon="11.2947051"><ele>303.0</ele><time>2026-04-06T15:58:12.515Z</time></trkpt><trkpt lat="43.5905015" lon="11.2946872"><ele>303.0</ele><time>2026-04-06T15:58:14.519Z</time></trkpt><trkpt lat="43.5904391" lon="11.2947091"><ele>303.0</ele><time>2026-04-06T15:58:16.513Z</time></trkpt><trkpt lat="43.590402" lon="11.2948002"><ele>303.0</ele><time>2026-04-06T15:58:18.526Z</time></trkpt><trkpt lat="43.5903834" lon="11.2949077"><ele>303.0</ele><time>2026-04-06T15:58:20.527Z</time></trkpt><trkpt lat="43.5903256" lon="11.2949709"><ele>303.0</ele><time>2026-04-06T15:58:22.514Z</time></trkpt><trkpt lat="43.5902283" lon="11.2949817"><ele>303.0</ele><time>2026-04-06T15:58:24.526Z</time></trkpt><trkpt lat="43.5901309" lon="11.2949738"><ele>303.0</ele><time>2026-04-06T15:58:26.515Z</time></trkpt><trkpt lat="43.5900503" lon="11.2949528"><ele>302.6</ele><time>2026-04-06T15:58:28.526Z</time></trkpt><trkpt lat="43.5899386" lon="11.2949445"><ele>302.20000000000005</ele><time>2026-04-06T15:58:30.521Z</time></trkpt><trkpt lat="43.5898366" lon="11.2949291"><ele>301.8</ele><time>2026-04-06T15:58:32.501Z</time></trkpt><trkpt lat="43.5897556" lon="11.2948706"><ele>301.40000000000003</ele><time>2026-04-06T15:58:34.508Z</time></trkpt><trkpt lat="43.5896898" lon="11.2948015"><ele>301.0</ele><time>2026-04-06T15:58:36.526Z</time></trkpt><trkpt lat="43.589632" lon="11.2947585"><ele>302.66666666666663</ele><time>2026-04-06T15:58:38.518Z</time></trkpt><trkpt lat="43.5895697" lon="11.2947179"><ele>304.3333333333333</ele><time>2026-04-06T15:58:40.509Z</time></trkpt><trkpt lat="43.5894805" lon="11.294659"><ele>306.0</ele><time>2026-04-06T15:58:42.495Z</time></trkpt><trkpt lat="43.5893848" lon="11.2945855"><ele>307.6666666666667</ele><time>2026-04-06T15:58:44.497Z</time></trkpt><trkpt lat="43.5893367" lon="11.2945254"><ele>309.33333333333337</ele><time>2026-04-06T15:58:45.506Z</time></trkpt><trkpt lat="43.5893024" lon="11.294446"><ele>311.0</ele><time>2026-04-06T15:58:46.493Z</time></trkpt><trkpt lat="43.5892434" lon="11.2943086"><ele>311.0</ele><time>2026-04-06T15:58:48.495Z</time></trkpt><trkpt lat="43.5891653" lon="11.294159"><ele>311.0</ele><time>2026-04-06T15:58:50.489Z</time></trkpt><trkpt lat="43.5891136" lon="11.2940768"><ele>311.0</ele><time>2026-04-06T15:58:51.489Z</time></trkpt><trkpt lat="43.5890663" lon="11.2939948"><ele>311.0</ele><time>2026-04-06T15:58:52.491Z</time></trkpt><trkpt lat="43.5889945" lon="11.2938762"><ele>311.0</ele><time>2026-04-06T15:58:54.492Z</time></trkpt><trkpt lat="43.5889215" lon="11.2937721"><ele>311.0</ele><time>2026-04-06T15:58:56.486Z</time></trkpt><trkpt lat="43.5888584" lon="11.2937074"><ele>311.0</ele><time>2026-04-06T15:58:59.499Z</time></trkpt><trkpt lat="43.5889081" lon="11.2937758"><ele>311.0</ele><time>2026-04-06T15:59:25.493Z</time></trkpt><trkpt lat="43.5889629" lon="11.2938473"><ele>311.0</ele><time>2026-04-06T15:59:28.502Z</time></trkpt><trkpt lat="43.5890261" lon="11.2939518"><ele>311.0</ele><time>2026-04-06T15:59:30.493Z</time></trkpt><trkpt lat="43.5890621" lon="11.2940313"><ele>311.0</ele><time>2026-04-06T15:59:31.482Z</time></trkpt><trkpt lat="43.5891523" lon="11.2941518"><ele>311.0</ele><time>2026-04-06T15:59:33.493Z</time></trkpt><trkpt lat="43.5892263" lon="11.2942752"><ele>311.0</ele><time>2026-04-06T15:59:35.482Z</time></trkpt><trkpt lat="43.5892659" lon="11.2943563"><ele>311.0</ele><time>2026-04-06T15:59:36.492Z</time></trkpt><trkpt lat="43.5892981" lon="11.294444"><ele>311.0</ele><time>2026-04-06T15:59:37.487Z</time></trkpt><trkpt lat="43.5893284" lon="11.2945203"><ele>311.0</ele><time>2026-04-06T15:59:38.485Z</time></trkpt><trkpt lat="43.58937" lon="11.2945917"><ele>311.0</ele><time>2026-04-06T15:59:39.488Z</time></trkpt><trkpt lat="43.589439" lon="11.2946523"><ele>311.0</ele><time>2026-04-06T15:59:40.472Z</time></trkpt><trkpt lat="43.5895238" lon="11.2946996"><ele>311.0</ele><time>2026-04-06T15:59:41.497Z</time></trkpt><trkpt lat="43.5895886" lon="11.2947227"><ele>311.0</ele><time>2026-04-06T15:59:42.5Z</time></trkpt><trkpt lat="43.5896755" lon="11.2947944"><ele>311.0</ele><time>2026-04-06T15:59:44.501Z</time></trkpt><trkpt lat="43.5897262" lon="11.2948553"><ele>311.0</ele><time>2026-04-06T15:59:45.503Z</time></trkpt><trkpt lat="43.5898437" lon="11.2949374"><ele>309.85714285714283</ele><time>2026-04-06T15:59:47.508Z</time></trkpt><trkpt lat="43.5899094" lon="11.2949548"><ele>308.7142857142857</ele><time>2026-04-06T15:59:48.511Z</time></trkpt><trkpt lat="43.5899802" lon="11.2949654"><ele>307.57142857142856</ele><time>2026-04-06T15:59:49.499Z</time></trkpt><trkpt lat="43.5900486" lon="11.294959"><ele>306.42857142857144</ele><time>2026-04-06T15:59:50.502Z</time></trkpt><trkpt lat="43.5901161" lon="11.2949611"><ele>305.2857142857143</ele><time>2026-04-06T15:59:51.512Z</time></trkpt><trkpt lat="43.5901801" lon="11.2949662"><ele>304.14285714285717</ele><time>2026-04-06T15:59:52.502Z</time></trkpt><trkpt lat="43.5902865" lon="11.2949589"><ele>303.0</ele><time>2026-04-06T15:59:54.501Z</time></trkpt><trkpt lat="43.5904076" lon="11.2949126"><ele>303.0</ele><time>2026-04-06T15:59:56.49Z</time></trkpt><trkpt lat="43.5904758" lon="11.2948909"><ele>303.0</ele><time>2026-04-06T15:59:57.502Z</time></trkpt><trkpt lat="43.5905412" lon="11.2948972"><ele>303.0</ele><time>2026-04-06T15:59:58.49Z</time></trkpt><trkpt lat="43.5906001" lon="11.2949285"><ele>303.0</ele><time>2026-04-06T15:59:59.497Z</time></trkpt><trkpt lat="43.5907293" lon="11.2949676"><ele>303.0</ele><time>2026-04-06T16:00:01.506Z</time></trkpt><trkpt lat="43.5908298" lon="11.2950034"><ele>303.0</ele><time>2026-04-06T16:00:03.488Z</time></trkpt><trkpt lat="43.5909105" lon="11.295048"><ele>303.0</ele><time>2026-04-06T16:00:05.513Z</time></trkpt><trkpt lat="43.5909918" lon="11.295106"><ele>303.0</ele><time>2026-04-06T16:00:07.501Z</time></trkpt><trkpt lat="43.5910608" lon="11.2951762"><ele>303.0</ele><time>2026-04-06T16:00:09.51Z</time></trkpt><trkpt lat="43.5911134" lon="11.2952582"><ele>303.0</ele><time>2026-04-06T16:00:11.5Z</time></trkpt><trkpt lat="43.5911636" lon="11.2953166"><ele>303.0</ele><time>2026-04-06T16:00:13.502Z</time></trkpt><trkpt lat="43.5912175" lon="11.2953769"><ele>303.0</ele><time>2026-04-06T16:00:15.513Z</time></trkpt><trkpt lat="43.5912709" lon="11.2954373"><ele>302.5</ele><time>2026-04-06T16:00:17.517Z</time></trkpt><trkpt lat="43.5913461" lon="11.2954616"><ele>302.0</ele><time>2026-04-06T16:00:19.518Z</time></trkpt><trkpt lat="43.5914191" lon="11.2954672"><ele>301.5</ele><time>2026-04-06T16:00:21.512Z</time></trkpt><trkpt lat="43.5914107" lon="11.2955619"><ele>301.0</ele><time>2026-04-06T16:00:25.505Z</time></trkpt><trkpt lat="43.5913372" lon="11.2956341"><ele>300.5</ele><time>2026-04-06T16:00:27.501Z</time></trkpt><trkpt lat="43.5912592" lon="11.2957312"><ele>300.0</ele><time>2026-04-06T16:00:29.497Z</time></trkpt><trkpt lat="43.5911836" lon="11.2958184"><ele>297.6666666666667</ele><time>2026-04-06T16:00:31.5Z</time></trkpt><trkpt lat="43.5911047" lon="11.2958511"><ele>295.3333333333333</ele><time>2026-04-06T16:00:33.501Z</time></trkpt><trkpt lat="43.5910296" lon="11.2958728"><ele>293.0</ele><time>2026-04-06T16:00:35.501Z</time></trkpt><trkpt lat="43.590955" lon="11.295819"><ele>290.66666666666663</ele><time>2026-04-06T16:00:38.502Z</time></trkpt><trkpt lat="43.5909089" lon="11.2957433"><ele>288.3333333333333</ele><time>2026-04-06T16:00:40.517Z</time></trkpt><trkpt lat="43.5908342" lon="11.2956789"><ele>286.0</ele><time>2026-04-06T16:00:42.5Z</time></trkpt><trkpt lat="43.5907275" lon="11.2956424"><ele>286.0</ele><time>2026-04-06T16:00:44.5Z</time></trkpt><trkpt lat="43.5906344" lon="11.2956052"><ele>286.0</ele><time>2026-04-06T16:00:46.5Z</time></trkpt><trkpt lat="43.5905801" lon="11.295541"><ele>286.0</ele><time>2026-04-06T16:00:48.522Z</time></trkpt><trkpt lat="43.5905168" lon="11.2955355"><ele>286.0</ele><time>2026-04-06T16:00:50.514Z</time></trkpt><trkpt lat="43.5904495" lon="11.2955482"><ele>286.0</ele><time>2026-04-06T16:01:07.521Z</time></trkpt><trkpt lat="43.5905271" lon="11.2955781"><ele>286.0</ele><time>2026-04-06T16:01:24.503Z</time></trkpt><trkpt lat="43.5906158" lon="11.2956137"><ele>286.0</ele><time>2026-04-06T16:01:27.513Z</time></trkpt><trkpt lat="43.5906914" lon="11.2956599"><ele>286.0</ele><time>2026-04-06T16:01:29.519Z</time></trkpt><trkpt lat="43.590787" lon="11.2956836"><ele>286.0</ele><time>2026-04-06T16:01:31.507Z</time></trkpt><trkpt lat="43.5908703" lon="11.2957271"><ele>286.0</ele><time>2026-04-06T16:01:33.507Z</time></trkpt><trkpt lat="43.5909322" lon="11.2957771"><ele>286.0</ele><time>2026-04-06T16:01:35.51Z</time></trkpt><trkpt lat="43.5909784" lon="11.2958918"><ele>286.0</ele><time>2026-04-06T16:01:38.511Z</time></trkpt><trkpt lat="43.5909884" lon="11.2959885"><ele>286.0</ele><time>2026-04-06T16:01:40.518Z</time></trkpt><trkpt lat="43.5910208" lon="11.2960764"><ele>286.0</ele><time>2026-04-06T16:01:49.5Z</time></trkpt><trkpt lat="43.5910624" lon="11.2961458"><ele>286.0</ele><time>2026-04-06T16:01:51.518Z</time></trkpt><trkpt lat="43.5911131" lon="11.2962623"><ele>286.0</ele><time>2026-04-06T16:01:53.502Z</time></trkpt><trkpt lat="43.5911579" lon="11.296368"><ele>286.0</ele><time>2026-04-06T16:01:55.51Z</time></trkpt><trkpt lat="43.5911947" lon="11.2964668"><ele>286.0</ele><time>2026-04-06T16:01:57.505Z</time></trkpt><trkpt lat="43.5912396" lon="11.2965818"><ele>285.40000000000003</ele><time>2026-04-06T16:01:59.509Z</time></trkpt><trkpt lat="43.5912645" lon="11.2966876"><ele>284.8</ele><time>2026-04-06T16:02:01.513Z</time></trkpt><trkpt lat="43.5913033" lon="11.2968093"><ele>284.20000000000005</ele><time>2026-04-06T16:02:03.502Z</time></trkpt><trkpt lat="43.5913397" lon="11.2969583"><ele>283.6</ele><time>2026-04-06T16:02:05.499Z</time></trkpt><trkpt lat="43.5913453" lon="11.297106"><ele>283.0</ele><time>2026-04-06T16:02:07.505Z</time></trkpt><trkpt lat="43.5913302" lon="11.2971977"><ele>284.14285714285717</ele><time>2026-04-06T16:02:08.5Z</time></trkpt><trkpt lat="43.5913161" lon="11.2972953"><ele>285.28571428571433</ele><time>2026-04-06T16:02:09.51Z</time></trkpt><trkpt lat="43.5913057" lon="11.2973929"><ele>286.42857142857144</ele><time>2026-04-06T16:02:10.502Z</time></trkpt><trkpt lat="43.5912991" lon="11.2974991"><ele>287.57142857142856</ele><time>2026-04-06T16:02:11.506Z</time></trkpt><trkpt lat="43.5912912" lon="11.2976041"><ele>288.71428571428567</ele><time>2026-04-06T16:02:12.494Z</time></trkpt><trkpt lat="43.5912778" lon="11.2976985"><ele>289.85714285714283</ele><time>2026-04-06T16:02:13.501Z</time></trkpt><trkpt lat="43.5912787" lon="11.2977875"><ele>291.0</ele><time>2026-04-06T16:02:14.5Z</time></trkpt><trkpt lat="43.5912859" lon="11.297887"><ele>291.0</ele><time>2026-04-06T16:02:15.499Z</time></trkpt><trkpt lat="43.5912966" lon="11.2979916"><ele>291.0</ele><time>2026-04-06T16:02:16.511Z</time></trkpt><trkpt lat="43.5913138" lon="11.2980884"><ele>291.0</ele><time>2026-04-06T16:02:17.49Z</time></trkpt><trkpt lat="43.5913331" lon="11.2981794"><ele>291.0</ele><time>2026-04-06T16:02:18.502Z</time></trkpt><trkpt lat="43.591346" lon="11.298276"><ele>291.0</ele><time>2026-04-06T16:02:19.502Z</time></trkpt><trkpt lat="43.5913699" lon="11.2983604"><ele>291.0</ele><time>2026-04-06T16:02:20.493Z</time></trkpt><trkpt lat="43.5914357" lon="11.2985166"><ele>291.3333333333333</ele><time>2026-04-06T16:02:22.498Z</time></trkpt><trkpt lat="43.5914685" lon="11.298601"><ele>291.6666666666667</ele><time>2026-04-06T16:02:23.495Z</time></trkpt><trkpt lat="43.5915084" lon="11.2986891"><ele>292.0</ele><time>2026-04-06T16:02:24.503Z</time></trkpt><trkpt lat="43.5915443" lon="11.2987697"><ele>292.33333333333337</ele><time>2026-04-06T16:02:25.486Z</time></trkpt><trkpt lat="43.591604" lon="11.2989272"><ele>292.6666666666667</ele><time>2026-04-06T16:02:27.494Z</time></trkpt><trkpt lat="43.5916361" lon="11.2990069"><ele>293.0</ele><time>2026-04-06T16:02:28.495Z</time></trkpt><trkpt lat="43.591692" lon="11.2991396"><ele>293.0</ele><time>2026-04-06T16:02:30.506Z</time></trkpt><trkpt lat="43.5917187" lon="11.2993133"><ele>293.0</ele><time>2026-04-06T16:02:32.502Z</time></trkpt><trkpt lat="43.5917292" lon="11.299425"><ele>293.0</ele><time>2026-04-06T16:02:33.498Z</time></trkpt><trkpt lat="43.5917555" lon="11.2995192"><ele>293.0</ele><time>2026-04-06T16:02:34.494Z</time></trkpt><trkpt lat="43.591792" lon="11.2996299"><ele>293.0</ele><time>2026-04-06T16:02:35.5Z</time></trkpt><trkpt lat="43.5918204" lon="11.2997213"><ele>293.0</ele><time>2026-04-06T16:02:36.495Z</time></trkpt><trkpt lat="43.5918429" lon="11.2998145"><ele>291.6666666666667</ele><time>2026-04-06T16:02:37.487Z</time></trkpt><trkpt lat="43.5918732" lon="11.2999007"><ele>290.33333333333337</ele><time>2026-04-06T16:02:38.488Z</time></trkpt><trkpt lat="43.5919115" lon="11.2999742"><ele>289.0</ele><time>2026-04-06T16:02:39.499Z</time></trkpt><trkpt lat="43.5919504" lon="11.3000501"><ele>287.6666666666667</ele><time>2026-04-06T16:02:40.501Z</time></trkpt><trkpt lat="43.5919821" lon="11.3001286"><ele>286.3333333333333</ele><time>2026-04-06T16:02:41.5Z</time></trkpt><trkpt lat="43.5920113" lon="11.3003108"><ele>285.0</ele><time>2026-04-06T16:02:43.501Z</time></trkpt><trkpt lat="43.5920279" lon="11.3004063"><ele>287.5</ele><time>2026-04-06T16:02:44.506Z</time></trkpt><trkpt lat="43.5920653" lon="11.3005201"><ele>290.0</ele><time>2026-04-06T16:02:45.497Z</time></trkpt><trkpt lat="43.5921063" lon="11.3006307"><ele>292.5</ele><time>2026-04-06T16:02:46.505Z</time></trkpt><trkpt lat="43.5921455" lon="11.3007338"><ele>295.0</ele><time>2026-04-06T16:02:47.497Z</time></trkpt><trkpt lat="43.5921841" lon="11.3008232"><ele>297.5</ele><time>2026-04-06T16:02:48.508Z</time></trkpt><trkpt lat="43.5922156" lon="11.300914"><ele>300.0</ele><time>2026-04-06T16:02:49.487Z</time></trkpt><trkpt lat="43.5922534" lon="11.301015"><ele>300.0</ele><time>2026-04-06T16:02:50.5Z</time></trkpt><trkpt lat="43.5923047" lon="11.3011054"><ele>300.0</ele><time>2026-04-06T16:02:51.498Z</time></trkpt><trkpt lat="43.5923599" lon="11.30119"><ele>300.0</ele><time>2026-04-06T16:02:52.497Z</time></trkpt><trkpt lat="43.5924155" lon="11.3012669"><ele>300.0</ele><time>2026-04-06T16:02:53.492Z</time></trkpt><trkpt lat="43.5925051" lon="11.3013832"><ele>300.0</ele><time>2026-04-06T16:02:55.513Z</time></trkpt><trkpt lat="43.5925462" lon="11.3014695"><ele>300.0</ele><time>2026-04-06T16:02:56.503Z</time></trkpt><trkpt lat="43.5925786" lon="11.3015716"><ele>300.3333333333333</ele><time>2026-04-06T16:02:57.504Z</time></trkpt><trkpt lat="43.5926081" lon="11.3016705"><ele>300.6666666666667</ele><time>2026-04-06T16:02:58.499Z</time></trkpt><trkpt lat="43.5926439" lon="11.3017569"><ele>301.0</ele><time>2026-04-06T16:02:59.504Z</time></trkpt><trkpt lat="43.5926821" lon="11.3018522"><ele>301.33333333333337</ele><time>2026-04-06T16:03:00.506Z</time></trkpt><trkpt lat="43.5927312" lon="11.3019506"><ele>301.6666666666667</ele><time>2026-04-06T16:03:01.492Z</time></trkpt><trkpt lat="43.5927913" lon="11.3020399"><ele>302.0</ele><time>2026-04-06T16:03:02.5Z</time></trkpt><trkpt lat="43.5928516" lon="11.3021188"><ele>302.0</ele><time>2026-04-06T16:03:03.506Z</time></trkpt><trkpt lat="43.5929047" lon="11.302181"><ele>302.0</ele><time>2026-04-06T16:03:04.501Z</time></trkpt><trkpt lat="43.5929599" lon="11.302237"><ele>302.0</ele><time>2026-04-06T16:03:05.504Z</time></trkpt><trkpt lat="43.5930343" lon="11.3023189"><ele>302.0</ele><time>2026-04-06T16:03:06.501Z</time></trkpt><trkpt lat="43.5931086" lon="11.3024127"><ele>302.0</ele><time>2026-04-06T16:03:07.508Z</time></trkpt><trkpt lat="43.5931722" lon="11.3024971"><ele>302.0</ele><time>2026-04-06T16:03:08.515Z</time></trkpt><trkpt lat="43.5932268" lon="11.302569"><ele>299.7142857142857</ele><time>2026-04-06T16:03:09.514Z</time></trkpt><trkpt lat="43.5932765" lon="11.302629"><ele>297.42857142857144</ele><time>2026-04-06T16:03:10.51Z</time></trkpt><trkpt lat="43.5933316" lon="11.3026943"><ele>295.1428571428571</ele><time>2026-04-06T16:03:11.511Z</time></trkpt><trkpt lat="43.593391" lon="11.3027599"><ele>292.8571428571429</ele><time>2026-04-06T16:03:12.512Z</time></trkpt><trkpt lat="43.5934456" lon="11.3028207"><ele>290.57142857142856</ele><time>2026-04-06T16:03:13.51Z</time></trkpt><trkpt lat="43.5935138" lon="11.3028763"><ele>288.2857142857143</ele><time>2026-04-06T16:03:14.512Z</time></trkpt><trkpt lat="43.5935809" lon="11.3029122"><ele>286.0</ele><time>2026-04-06T16:03:15.494Z</time></trkpt><trkpt lat="43.5936561" lon="11.302956"><ele>286.16666666666663</ele><time>2026-04-06T16:03:17.511Z</time></trkpt><trkpt lat="43.5937042" lon="11.3030157"><ele>286.3333333333333</ele><time>2026-04-06T16:03:20.521Z</time></trkpt><trkpt lat="43.5937676" lon="11.3030972"><ele>286.5</ele><time>2026-04-06T16:03:22.522Z</time></trkpt><trkpt lat="43.5938304" lon="11.303233"><ele>286.6666666666667</ele><time>2026-04-06T16:03:24.514Z</time></trkpt><trkpt lat="43.5939073" lon="11.3033389"><ele>286.83333333333337</ele><time>2026-04-06T16:03:26.512Z</time></trkpt><trkpt lat="43.5939527" lon="11.3034005"><ele>287.0</ele><time>2026-04-06T16:03:27.513Z</time></trkpt><trkpt lat="43.5939947" lon="11.303475"><ele>287.0</ele><time>2026-04-06T16:03:28.513Z</time></trkpt><trkpt lat="43.5940384" lon="11.303546"><ele>287.0</ele><time>2026-04-06T16:03:29.523Z</time></trkpt><trkpt lat="43.594122" lon="11.3036778"><ele>287.0</ele><time>2026-04-06T16:03:31.516Z</time></trkpt><trkpt lat="43.5941691" lon="11.3037476"><ele>287.0</ele><time>2026-04-06T16:03:32.514Z</time></trkpt><trkpt lat="43.5942208" lon="11.303832"><ele>287.0</ele><time>2026-04-06T16:03:33.52Z</time></trkpt><trkpt lat="43.5942739" lon="11.3039086"><ele>287.0</ele><time>2026-04-06T16:03:34.517Z</time></trkpt><trkpt lat="43.5943282" lon="11.3039966"><ele>285.83333333333337</ele><time>2026-04-06T16:03:35.512Z</time></trkpt><trkpt lat="43.5943771" lon="11.3040796"><ele>284.6666666666667</ele><time>2026-04-06T16:03:36.511Z</time></trkpt><trkpt lat="43.5944359" lon="11.30419"><ele>283.5</ele><time>2026-04-06T16:03:38.516Z</time></trkpt><trkpt lat="43.5944605" lon="11.3043146"><ele>282.3333333333333</ele><time>2026-04-06T16:03:40.509Z</time></trkpt><trkpt lat="43.5944696" lon="11.3044109"><ele>281.16666666666663</ele><time>2026-04-06T16:03:41.511Z</time></trkpt><trkpt lat="43.5944747" lon="11.3045257"><ele>280.0</ele><time>2026-04-06T16:03:42.513Z</time></trkpt><trkpt lat="43.5944822" lon="11.3046478"><ele>278.6</ele><time>2026-04-06T16:03:43.514Z</time></trkpt><trkpt lat="43.5944852" lon="11.3047689"><ele>277.2</ele><time>2026-04-06T16:03:44.514Z</time></trkpt><trkpt lat="43.5944883" lon="11.3048939"><ele>275.8</ele><time>2026-04-06T16:03:45.515Z</time></trkpt><trkpt lat="43.5944916" lon="11.3050224"><ele>274.4</ele><time>2026-04-06T16:03:46.515Z</time></trkpt><trkpt lat="43.5944973" lon="11.3051615"><ele>273.0</ele><time>2026-04-06T16:03:47.517Z</time></trkpt><trkpt lat="43.5945021" lon="11.3053017"><ele>273.0</ele><time>2026-04-06T16:03:48.522Z</time></trkpt><trkpt lat="43.5945021" lon="11.305438"><ele>273.0</ele><time>2026-04-06T16:03:49.514Z</time></trkpt><trkpt lat="43.5945036" lon="11.3055779"><ele>273.0</ele><time>2026-04-06T16:03:50.516Z</time></trkpt><trkpt lat="43.5945089" lon="11.3057181"><ele>273.0</ele><time>2026-04-06T16:03:51.514Z</time></trkpt><trkpt lat="43.594511" lon="11.3058541"><ele>273.0</ele><time>2026-04-06T16:03:52.525Z</time></trkpt><trkpt lat="43.5945117" lon="11.3059871"><ele>273.2</ele><time>2026-04-06T16:03:53.523Z</time></trkpt><trkpt lat="43.5945085" lon="11.306128"><ele>273.4</ele><time>2026-04-06T16:03:54.518Z</time></trkpt><trkpt lat="43.5945007" lon="11.3062672"><ele>273.59999999999997</ele><time>2026-04-06T16:03:55.521Z</time></trkpt><trkpt lat="43.5944873" lon="11.3064061"><ele>273.8</ele><time>2026-04-06T16:03:56.525Z</time></trkpt><trkpt lat="43.5944749" lon="11.3065504"><ele>274.0</ele><time>2026-04-06T16:03:57.527Z</time></trkpt><trkpt lat="43.5944601" lon="11.3066887"><ele>273.0</ele><time>2026-04-06T16:03:58.521Z</time></trkpt><trkpt lat="43.5944407" lon="11.3068314"><ele>272.0</ele><time>2026-04-06T16:03:59.521Z</time></trkpt><trkpt lat="43.5944251" lon="11.306964"><ele>271.0</ele><time>2026-04-06T16:04:00.53Z</time></trkpt><trkpt lat="43.5944051" lon="11.3071073"><ele>270.0</ele><time>2026-04-06T16:04:01.522Z</time></trkpt><trkpt lat="43.5943971" lon="11.307249"><ele>269.0</ele><time>2026-04-06T16:04:02.524Z</time></trkpt><trkpt lat="43.5943863" lon="11.3073778"><ele>268.2</ele><time>2026-04-06T16:04:03.523Z</time></trkpt><trkpt lat="43.5943717" lon="11.3075021"><ele>267.4</ele><time>2026-04-06T16:04:04.516Z</time></trkpt><trkpt lat="43.5943586" lon="11.3076354"><ele>266.6</ele><time>2026-04-06T16:04:05.518Z</time></trkpt><trkpt lat="43.5943418" lon="11.3077753"><ele>265.8</ele><time>2026-04-06T16:04:06.523Z</time></trkpt><trkpt lat="43.5943343" lon="11.3079108"><ele>265.0</ele><time>2026-04-06T16:04:07.523Z</time></trkpt><trkpt lat="43.5943164" lon="11.3080463"><ele>264.4</ele><time>2026-04-06T16:04:08.525Z</time></trkpt><trkpt lat="43.5943017" lon="11.3081729"><ele>263.8</ele><time>2026-04-06T16:04:09.53Z</time></trkpt><trkpt lat="43.5942797" lon="11.3082989"><ele>263.2</ele><time>2026-04-06T16:04:10.526Z</time></trkpt><trkpt lat="43.5942709" lon="11.3084231"><ele>262.6</ele><time>2026-04-06T16:04:11.527Z</time></trkpt><trkpt lat="43.5942527" lon="11.308544"><ele>262.0</ele><time>2026-04-06T16:04:12.526Z</time></trkpt><trkpt lat="43.5942306" lon="11.3086638"><ele>262.0</ele><time>2026-04-06T16:04:13.521Z</time></trkpt><trkpt lat="43.59422" lon="11.3087922"><ele>262.0</ele><time>2026-04-06T16:04:14.528Z</time></trkpt><trkpt lat="43.5942063" lon="11.3089112"><ele>262.0</ele><time>2026-04-06T16:04:15.527Z</time></trkpt><trkpt lat="43.5941767" lon="11.3090338"><ele>262.0</ele><time>2026-04-06T16:04:16.523Z</time></trkpt><trkpt lat="43.5941439" lon="11.309156"><ele>262.0</ele><time>2026-04-06T16:04:17.529Z</time></trkpt><trkpt lat="43.5941036" lon="11.3092938"><ele>261.8</ele><time>2026-04-06T16:04:18.529Z</time></trkpt><trkpt lat="43.5940709" lon="11.3094278"><ele>261.6</ele><time>2026-04-06T16:04:19.525Z</time></trkpt><trkpt lat="43.5940425" lon="11.3095678"><ele>261.40000000000003</ele><time>2026-04-06T16:04:20.525Z</time></trkpt><trkpt lat="43.5940113" lon="11.3097081"><ele>261.2</ele><time>2026-04-06T16:04:21.531Z</time></trkpt><trkpt lat="43.5939814" lon="11.3098419"><ele>261.0</ele><time>2026-04-06T16:04:22.528Z</time></trkpt><trkpt lat="43.5939465" lon="11.3099665"><ele>260.6</ele><time>2026-04-06T16:04:23.535Z</time></trkpt><trkpt lat="43.5939045" lon="11.3100796"><ele>260.20000000000005</ele><time>2026-04-06T16:04:24.521Z</time></trkpt><trkpt lat="43.5938447" lon="11.3101735"><ele>259.79999999999995</ele><time>2026-04-06T16:04:25.522Z</time></trkpt><trkpt lat="43.5937736" lon="11.3102516"><ele>259.4</ele><time>2026-04-06T16:04:26.526Z</time></trkpt><trkpt lat="43.5936813" lon="11.3103182"><ele>259.0</ele><time>2026-04-06T16:04:27.526Z</time></trkpt><trkpt lat="43.5935879" lon="11.3103667"><ele>257.59999999999997</ele><time>2026-04-06T16:04:28.532Z</time></trkpt><trkpt lat="43.5934914" lon="11.3104101"><ele>256.2</ele><time>2026-04-06T16:04:29.527Z</time></trkpt><trkpt lat="43.5933959" lon="11.3104568"><ele>254.79999999999998</ele><time>2026-04-06T16:04:30.53Z</time></trkpt><trkpt lat="43.5932935" lon="11.3105095"><ele>253.39999999999998</ele><time>2026-04-06T16:04:31.528Z</time></trkpt><trkpt lat="43.5931976" lon="11.3105593"><ele>252.0</ele><time>2026-04-06T16:04:32.522Z</time></trkpt><trkpt lat="43.5931083" lon="11.3106113"><ele>252.0</ele><time>2026-04-06T16:04:33.524Z</time></trkpt><trkpt lat="43.5930242" lon="11.3106576"><ele>252.0</ele><time>2026-04-06T16:04:34.515Z</time></trkpt><trkpt lat="43.5929429" lon="11.3107065"><ele>252.0</ele><time>2026-04-06T16:04:35.519Z</time></trkpt><trkpt lat="43.5928582" lon="11.3107478"><ele>252.0</ele><time>2026-04-06T16:04:36.521Z</time></trkpt><trkpt lat="43.5927732" lon="11.3107853"><ele>252.0</ele><time>2026-04-06T16:04:37.526Z</time></trkpt><trkpt lat="43.5926871" lon="11.3108244"><ele>252.0</ele><time>2026-04-06T16:04:38.529Z</time></trkpt><trkpt lat="43.5925911" lon="11.3108517"><ele>250.8</ele><time>2026-04-06T16:04:39.524Z</time></trkpt><trkpt lat="43.5924976" lon="11.3108682"><ele>249.6</ele><time>2026-04-06T16:04:40.519Z</time></trkpt><trkpt lat="43.5924011" lon="11.3108697"><ele>248.40000000000003</ele><time>2026-04-06T16:04:41.518Z</time></trkpt><trkpt lat="43.5923015" lon="11.3108551"><ele>247.20000000000002</ele><time>2026-04-06T16:04:42.514Z</time></trkpt><trkpt lat="43.5921967" lon="11.3108468"><ele>246.0</ele><time>2026-04-06T16:04:43.515Z</time></trkpt><trkpt lat="43.5920882" lon="11.310837"><ele>242.75</ele><time>2026-04-06T16:04:44.52Z</time></trkpt><trkpt lat="43.5919759" lon="11.3108363"><ele>239.5</ele><time>2026-04-06T16:04:45.519Z</time></trkpt><trkpt lat="43.591864" lon="11.3108461"><ele>236.25</ele><time>2026-04-06T16:04:46.506Z</time></trkpt><trkpt lat="43.5917539" lon="11.3108452"><ele>233.0</ele><time>2026-04-06T16:04:47.515Z</time></trkpt><trkpt lat="43.5916381" lon="11.3108385"><ele>233.0</ele><time>2026-04-06T16:04:48.515Z</time></trkpt><trkpt lat="43.5915269" lon="11.3108279"><ele>233.0</ele><time>2026-04-06T16:04:49.513Z</time></trkpt><trkpt lat="43.5914175" lon="11.3108295"><ele>233.0</ele><time>2026-04-06T16:04:50.511Z</time></trkpt><trkpt lat="43.5913052" lon="11.3108277"><ele>233.0</ele><time>2026-04-06T16:04:51.521Z</time></trkpt><trkpt lat="43.5911911" lon="11.3108256"><ele>233.0</ele><time>2026-04-06T16:04:52.516Z</time></trkpt><trkpt lat="43.5910729" lon="11.3108246"><ele>231.4</ele><time>2026-04-06T16:04:53.515Z</time></trkpt><trkpt lat="43.5909597" lon="11.3108425"><ele>229.8</ele><time>2026-04-06T16:04:54.508Z</time></trkpt><trkpt lat="43.5908545" lon="11.3108853"><ele>228.2</ele><time>2026-04-06T16:04:55.512Z</time></trkpt><trkpt lat="43.5907593" lon="11.3109652"><ele>226.6</ele><time>2026-04-06T16:04:56.512Z</time></trkpt><trkpt lat="43.5906753" lon="11.311062"><ele>225.0</ele><time>2026-04-06T16:04:57.514Z</time></trkpt><trkpt lat="43.5906042" lon="11.3111625"><ele>225.0</ele><time>2026-04-06T16:04:58.506Z</time></trkpt><trkpt lat="43.5905396" lon="11.3112645"><ele>225.0</ele><time>2026-04-06T16:04:59.51Z</time></trkpt><trkpt lat="43.5904873" lon="11.3113469"><ele>225.0</ele><time>2026-04-06T16:05:00.509Z</time></trkpt><trkpt lat="43.5904476" lon="11.3114196"><ele>225.0</ele><time>2026-04-06T16:05:01.512Z</time></trkpt><trkpt lat="43.5903973" lon="11.3114756"><ele>225.0</ele><time>2026-04-06T16:05:03.505Z</time></trkpt><trkpt lat="43.5903489" lon="11.3114168"><ele>225.0</ele><time>2026-04-06T16:05:05.522Z</time></trkpt><trkpt lat="43.5903641" lon="11.3113069"><ele>225.0</ele><time>2026-04-06T16:05:08.521Z</time></trkpt><trkpt lat="43.59039" lon="11.3112178"><ele>225.0</ele><time>2026-04-06T16:05:10.518Z</time></trkpt><trkpt lat="43.5904112" lon="11.3111081"><ele>225.0</ele><time>2026-04-06T16:05:12.515Z</time></trkpt><trkpt lat="43.5904251" lon="11.3109728"><ele>225.0</ele><time>2026-04-06T16:05:14.519Z</time></trkpt><trkpt lat="43.5904357" lon="11.3108809"><ele>225.0</ele><time>2026-04-06T16:05:15.508Z</time></trkpt><trkpt lat="43.5904536" lon="11.3107795"><ele>225.0</ele><time>2026-04-06T16:05:16.508Z</time></trkpt><trkpt lat="43.5904728" lon="11.310674"><ele>225.8</ele><time>2026-04-06T16:05:17.51Z</time></trkpt><trkpt lat="43.5904893" lon="11.3105567"><ele>226.6</ele><time>2026-04-06T16:05:18.507Z</time></trkpt><trkpt lat="43.5905184" lon="11.3104209"><ele>227.39999999999998</ele><time>2026-04-06T16:05:19.511Z</time></trkpt><trkpt lat="43.590546" lon="11.3102777"><ele>228.2</ele><time>2026-04-06T16:05:20.499Z</time></trkpt><trkpt lat="43.5905712" lon="11.3101681"><ele>229.0</ele><time>2026-04-06T16:05:21.502Z</time></trkpt><trkpt lat="43.5905814" lon="11.3100691"><ele>229.0</ele><time>2026-04-06T16:05:22.512Z</time></trkpt><trkpt lat="43.5905989" lon="11.3099724"><ele>228.99999999999997</ele><time>2026-04-06T16:05:23.521Z</time></trkpt><trkpt lat="43.5906324" lon="11.3098735"><ele>228.99999999999997</ele><time>2026-04-06T16:05:24.511Z</time></trkpt><trkpt lat="43.5906872" lon="11.30975"><ele>229.0</ele><time>2026-04-06T16:05:25.503Z</time></trkpt><trkpt lat="43.5907567" lon="11.3096223"><ele>229.0</ele><time>2026-04-06T16:05:26.505Z</time></trkpt><trkpt lat="43.5908429" lon="11.3094883"><ele>229.5</ele><time>2026-04-06T16:05:27.513Z</time></trkpt><trkpt lat="43.5909287" lon="11.3093531"><ele>230.0</ele><time>2026-04-06T16:05:28.507Z</time></trkpt><trkpt lat="43.5910256" lon="11.3092069"><ele>230.5</ele><time>2026-04-06T16:05:29.504Z</time></trkpt><trkpt lat="43.5911198" lon="11.3090587"><ele>231.0</ele><time>2026-04-06T16:05:30.504Z</time></trkpt><trkpt lat="43.591201" lon="11.3089488"><ele>231.4</ele><time>2026-04-06T16:05:31.496Z</time></trkpt><trkpt lat="43.591257" lon="11.3088493"><ele>231.8</ele><time>2026-04-06T16:05:32.51Z</time></trkpt><trkpt lat="43.59133" lon="11.3087612"><ele>232.20000000000002</ele><time>2026-04-06T16:05:33.505Z</time></trkpt><trkpt lat="43.5913983" lon="11.3086899"><ele>232.60000000000002</ele><time>2026-04-06T16:05:34.503Z</time></trkpt><trkpt lat="43.5914541" lon="11.3086299"><ele>233.0</ele><time>2026-04-06T16:05:35.503Z</time></trkpt><trkpt lat="43.5915392" lon="11.3085428"><ele>233.0</ele><time>2026-04-06T16:05:37.506Z</time></trkpt><trkpt lat="43.5916231" lon="11.3084897"><ele>233.0</ele><time>2026-04-06T16:05:39.525Z</time></trkpt><trkpt lat="43.5917008" lon="11.3084227"><ele>233.0</ele><time>2026-04-06T16:05:41.517Z</time></trkpt><trkpt lat="43.591812" lon="11.3083374"><ele>233.0</ele><time>2026-04-06T16:05:43.513Z</time></trkpt><trkpt lat="43.5918747" lon="11.3082919"><ele>233.0</ele><time>2026-04-06T16:05:44.514Z</time></trkpt><trkpt lat="43.5919363" lon="11.3082349"><ele>233.00000000000003</ele><time>2026-04-06T16:05:45.51Z</time></trkpt><trkpt lat="43.5919981" lon="11.3081743"><ele>233.0</ele><time>2026-04-06T16:05:46.514Z</time></trkpt><trkpt lat="43.5920585" lon="11.3081143"><ele>233.0</ele><time>2026-04-06T16:05:47.506Z</time></trkpt><trkpt lat="43.5921471" lon="11.3080322"><ele>233.0</ele><time>2026-04-06T16:05:49.506Z</time></trkpt><trkpt lat="43.5922079" lon="11.3079689"><ele>233.00000000000003</ele><time>2026-04-06T16:05:51.514Z</time></trkpt><trkpt lat="43.5922466" lon="11.3078886"><ele>233.0</ele><time>2026-04-06T16:05:54.517Z</time></trkpt><trkpt lat="43.5922764" lon="11.3077801"><ele>234.33333333333334</ele><time>2026-04-06T16:05:57.517Z</time></trkpt><trkpt lat="43.5923364" lon="11.3077155"><ele>235.66666666666669</ele><time>2026-04-06T16:05:59.512Z</time></trkpt><trkpt lat="43.5924045" lon="11.3076867"><ele>237.0</ele><time>2026-04-06T16:06:01.515Z</time></trkpt><trkpt lat="43.5924496" lon="11.3076205"><ele>238.33333333333331</ele><time>2026-04-06T16:06:03.51Z</time></trkpt><trkpt lat="43.5924909" lon="11.3074943"><ele>239.66666666666666</ele><time>2026-04-06T16:06:05.501Z</time></trkpt><trkpt lat="43.5925368" lon="11.3073391"><ele>241.0</ele><time>2026-04-06T16:06:07.494Z</time></trkpt><trkpt lat="43.5925643" lon="11.3071867"><ele>240.99999999999997</ele><time>2026-04-06T16:06:09.497Z</time></trkpt><trkpt lat="43.5925675" lon="11.3070986"><ele>241.0</ele><time>2026-04-06T16:06:10.489Z</time></trkpt><trkpt lat="43.5925613" lon="11.3069973"><ele>241.0</ele><time>2026-04-06T16:06:11.5Z</time></trkpt><trkpt lat="43.5925695" lon="11.3068793"><ele>241.0</ele><time>2026-04-06T16:06:12.5Z</time></trkpt><trkpt lat="43.5925797" lon="11.3067454"><ele>240.99999999999997</ele><time>2026-04-06T16:06:13.496Z</time></trkpt><trkpt lat="43.5925587" lon="11.3065981"><ele>241.0</ele><time>2026-04-06T16:06:15.504Z</time></trkpt><trkpt lat="43.5925511" lon="11.3064446"><ele>241.60000000000002</ele><time>2026-04-06T16:06:17.506Z</time></trkpt><trkpt lat="43.5925591" lon="11.3062816"><ele>242.20000000000002</ele><time>2026-04-06T16:06:19.497Z</time></trkpt><trkpt lat="43.5925848" lon="11.3061623"><ele>242.79999999999998</ele><time>2026-04-06T16:06:21.499Z</time></trkpt><trkpt lat="43.5926149" lon="11.306068"><ele>243.39999999999998</ele><time>2026-04-06T16:06:25.511Z</time></trkpt><trkpt lat="43.5927033" lon="11.3060478"><ele>244.0</ele><time>2026-04-06T16:06:35.503Z</time></trkpt><trkpt lat="43.5928016" lon="11.306048"><ele>245.49999999999997</ele><time>2026-04-06T16:06:37.506Z</time></trkpt><trkpt lat="43.5928989" lon="11.3060182"><ele>247.0</ele><time>2026-04-06T16:06:39.513Z</time></trkpt><trkpt lat="43.5929696" lon="11.3060231"><ele>248.5</ele><time>2026-04-06T16:07:00.513Z</time></trkpt><trkpt lat="43.5930372" lon="11.3060201"><ele>250.0</ele><time>2026-04-06T16:07:03.514Z</time></trkpt><trkpt lat="43.5931091" lon="11.3060407"><ele>251.49999999999997</ele><time>2026-04-06T16:07:08.512Z</time></trkpt><trkpt lat="43.5931831" lon="11.3060413"><ele>253.0</ele><time>2026-04-06T16:07:10.516Z</time></trkpt><trkpt lat="43.5932741" lon="11.306013"><ele>252.99999999999997</ele><time>2026-04-06T16:07:12.519Z</time></trkpt><trkpt lat="43.5931978" lon="11.3060025"><ele>253.0</ele><time>2026-04-06T16:08:14.522Z</time></trkpt><trkpt lat="43.5931125" lon="11.3059977"><ele>253.0</ele><time>2026-04-06T16:08:16.515Z</time></trkpt><trkpt lat="43.5930341" lon="11.3060106"><ele>253.0</ele><time>2026-04-06T16:08:18.513Z</time></trkpt><trkpt lat="43.5929612" lon="11.3060272"><ele>252.99999999999997</ele><time>2026-04-06T16:08:20.513Z</time></trkpt><trkpt lat="43.5928845" lon="11.3060453"><ele>253.0</ele><time>2026-04-06T16:08:22.515Z</time></trkpt><trkpt lat="43.592814" lon="11.306041"><ele>251.49999999999997</ele><time>2026-04-06T16:08:24.51Z</time></trkpt><trkpt lat="43.5927341" lon="11.306052"><ele>250.0</ele><time>2026-04-06T16:08:26.508Z</time></trkpt><trkpt lat="43.5926604" lon="11.3060898"><ele>248.5</ele><time>2026-04-06T16:08:29.508Z</time></trkpt><trkpt lat="43.5926338" lon="11.3059779"><ele>247.0</ele><time>2026-04-06T16:08:36.501Z</time></trkpt><trkpt lat="43.5926371" lon="11.3058867"><ele>245.49999999999997</ele><time>2026-04-06T16:08:38.504Z</time></trkpt><trkpt lat="43.5926121" lon="11.3057948"><ele>244.0</ele><time>2026-04-06T16:08:43.51Z</time></trkpt><trkpt lat="43.592556" lon="11.3057241"><ele>244.0</ele><time>2026-04-06T16:08:48.505Z</time></trkpt><trkpt lat="43.5924819" lon="11.3056984"><ele>243.99999999999997</ele><time>2026-04-06T16:08:55.504Z</time></trkpt><trkpt lat="43.5923993" lon="11.30567"><ele>243.99999999999997</ele><time>2026-04-06T16:08:58.505Z</time></trkpt><trkpt lat="43.5923697" lon="11.3055836"><ele>244.0</ele><time>2026-04-06T16:09:33.516Z</time></trkpt><trkpt lat="43.592385" lon="11.3054769"><ele>244.0</ele><time>2026-04-06T16:09:36.51Z</time></trkpt><trkpt lat="43.592472" lon="11.3076583"><ele>233.0</ele><time>2026-04-06T16:18:52.525Z</time></trkpt><trkpt lat="43.59131" lon="11.3087598"><ele>225.0</ele><time>2026-04-06T16:19:19.52Z</time></trkpt><trkpt lat="43.5903601" lon="11.3112784"><ele>233.0</ele><time>2026-04-06T16:19:42.519Z</time></trkpt><trkpt lat="43.591709" lon="11.3108558"><ele>261.0</ele><time>2026-04-06T16:20:23.533Z</time></trkpt><trkpt lat="43.5941446" lon="11.3091384"><ele>273.0</ele><time>2026-04-06T16:20:46.516Z</time></trkpt><trkpt lat="43.5945011" lon="11.305412"><ele>262.0</ele><time>2026-04-06T16:24:14.531Z</time></trkpt><trkpt lat="43.5942979" lon="11.3082257"><ele>252.0</ele><time>2026-04-06T16:25:26.527Z</time></trkpt><trkpt lat="43.5930937" lon="11.310612"><ele>220.0</ele><time>2026-04-06T16:25:47.528Z</time></trkpt><trkpt lat="43.5904139" lon="11.3114442"><ele>223.0</ele><time>2026-04-06T16:26:12.519Z</time></trkpt><trkpt lat="43.5896862" lon="11.3140624"><ele>230.0</ele><time>2026-04-06T16:26:39.508Z</time></trkpt><trkpt lat="43.5875668" lon="11.3137877"><ele>248.0</ele><time>2026-04-06T16:26:59.511Z</time></trkpt><trkpt lat="43.5865436" lon="11.3172969"><ele>250.0</ele><time>2026-04-06T16:28:29.519Z</time></trkpt><trkpt lat="43.5881053" lon="11.3190815"><ele>246.0</ele><time>2026-04-06T16:28:59.53Z</time></trkpt><trkpt lat="43.5889583" lon="11.320576"><ele>256.0</ele><time>2026-04-06T16:30:09.516Z</time></trkpt><trkpt lat="43.5898591" lon="11.3230768"><ele>258.0</ele><time>2026-04-06T16:30:30.51Z</time></trkpt><trkpt lat="43.5906153" lon="11.3257798"><ele>261.0</ele><time>2026-04-06T16:30:54.521Z</time></trkpt><trkpt lat="43.5892895" lon="11.3236449"><ele>252.0</ele><time>2026-04-06T16:32:58.538Z</time></trkpt><trkpt lat="43.5896569" lon="11.3228169"><ele>258.0</ele><time>2026-04-06T16:33:17.537Z</time></trkpt><trkpt lat="43.5901602" lon="11.3245574"><ele>258.0</ele><time>2026-04-06T16:33:54.536Z</time></trkpt><trkpt lat="43.5906913" lon="11.3262992"><ele>252.0</ele><time>2026-04-06T16:34:38.542Z</time></trkpt><trkpt lat="43.5905315" lon="11.3253182"><ele>256.0</ele><time>2026-04-06T16:35:17.529Z</time></trkpt><trkpt lat="43.5900158" lon="11.3234937"><ele>246.0</ele><time>2026-04-06T16:38:13.525Z</time></trkpt><trkpt lat="43.5891003" lon="11.3209217"><ele>242.0</ele><time>2026-04-06T16:38:33.522Z</time></trkpt><trkpt lat="43.5881508" lon="11.317436"><ele>225.0</ele><time>2026-04-06T16:39:09.518Z</time></trkpt><trkpt lat="43.588742" lon="11.3147319"><ele>222.0</ele><time>2026-04-06T16:39:35.52Z</time></trkpt><trkpt lat="43.5907931" lon="11.3144261"><ele>224.0</ele><time>2026-04-06T16:39:49.529Z</time></trkpt><trkpt lat="43.5932992" lon="11.3158254"><ele>218.0</ele><time>2026-04-06T16:40:17.524Z</time></trkpt><trkpt lat="43.5959628" lon="11.3168392"><ele>216.0</ele><time>2026-04-06T16:40:40.523Z</time></trkpt><trkpt lat="43.5984424" lon="11.3153554"><ele>213.0</ele><time>2026-04-06T16:41:04.531Z</time></trkpt><trkpt lat="43.5997135" lon="11.3130592"><ele>212.0</ele><time>2026-04-06T16:41:19.533Z</time></trkpt><trkpt lat="43.6016938" lon="11.310432"><ele>216.0</ele><time>2026-04-06T16:41:39.527Z</time></trkpt><trkpt lat="43.6040895" lon="11.3087017"><ele>229.0</ele><time>2026-04-06T16:41:59.534Z</time></trkpt><trkpt lat="43.6061456" lon="11.3090892"><ele>263.0</ele><time>2026-04-06T16:42:31.531Z</time></trkpt><trkpt lat="43.6080319" lon="11.3118868"><ele>293.0</ele><time>2026-04-06T16:42:50.52Z</time></trkpt><trkpt lat="43.6102339" lon="11.3143248"><ele>319.0</ele><time>2026-04-06T16:43:12.52Z</time></trkpt><trkpt lat="43.6126718" lon="11.3159417"><ele>358.0</ele><time>2026-04-06T16:43:32.524Z</time></trkpt><trkpt lat="43.6153793" lon="11.3164"><ele>362.0</ele><time>2026-04-06T16:43:49.521Z</time></trkpt><trkpt lat="43.6178197" lon="11.3181975"><ele>359.0</ele><time>2026-04-06T16:44:13.53Z</time></trkpt><trkpt lat="43.6198423" lon="11.3208219"><ele>372.0</ele><time>2026-04-06T16:44:38.515Z</time></trkpt><trkpt lat="43.6208932" lon="11.3242972"><ele>405.0</ele><time>2026-04-06T16:47:00.536Z</time></trkpt><trkpt lat="43.6222939" lon="11.3263134"><ele>424.0</ele><time>2026-04-06T16:47:36.531Z</time></trkpt><trkpt lat="43.6227323" lon="11.3281198"><ele>477.0</ele><time>2026-04-06T16:48:05.532Z</time></trkpt><trkpt lat="43.6241214" lon="11.3282326"><ele>486.0</ele><time>2026-04-06T16:48:41.531Z</time></trkpt><trkpt lat="43.6254025" lon="11.3275545"><ele>483.0</ele><time>2026-04-06T16:49:00.519Z</time></trkpt><trkpt lat="43.6274284" lon="11.3269899"><ele>487.0</ele><time>2026-04-06T16:49:43.513Z</time></trkpt><trkpt lat="43.6286834" lon="11.326218"><ele>451.0</ele><time>2026-04-06T16:50:08.517Z</time></trkpt><trkpt lat="43.6291924" lon="11.3244545"><ele>424.0</ele><time>2026-04-06T16:50:46.518Z</time></trkpt><trkpt lat="43.6293865" lon="11.3226113"><ele>408.0</ele><time>2026-04-06T16:51:16.515Z</time></trkpt><trkpt lat="43.6302762" lon="11.3212073"><ele>402.0</ele><time>2026-04-06T16:52:04.518Z</time></trkpt><trkpt lat="43.6314408" lon="11.3202057"><ele>375.0</ele><time>2026-04-06T16:52:24.523Z</time></trkpt><trkpt lat="43.631459" lon="11.3174049"><ele>365.0</ele><time>2026-04-06T16:53:06.535Z</time></trkpt><trkpt lat="43.6308127" lon="11.3157326"><ele>358.0</ele><time>2026-04-06T16:53:25.522Z</time></trkpt><trkpt lat="43.6288325" lon="11.3131384"><ele>323.0</ele><time>2026-04-06T16:53:57.527Z</time></trkpt><trkpt lat="43.6299661" lon="11.3121187"><ele>303.0</ele><time>2026-04-06T16:54:25.529Z</time></trkpt><trkpt lat="43.6332101" lon="11.3138561"><ele>290.0</ele><time>2026-04-06T16:54:46.541Z</time></trkpt><trkpt lat="43.6366677" lon="11.3138902"><ele>277.0</ele><time>2026-04-06T16:55:09.543Z</time></trkpt><trkpt lat="43.639371" lon="11.3134531"><ele>259.0</ele><time>2026-04-06T16:55:29.537Z</time></trkpt><trkpt lat="43.6421075" lon="11.3126966"><ele>243.0</ele><time>2026-04-06T16:55:47.545Z</time></trkpt><trkpt lat="43.6455424" lon="11.3121039"><ele>226.0</ele><time>2026-04-06T16:56:04.54Z</time></trkpt><trkpt lat="43.6496243" lon="11.3108049"><ele>210.0</ele><time>2026-04-06T16:56:23.543Z</time></trkpt><trkpt lat="43.6526419" lon="11.3068587"><ele>217.0</ele><time>2026-04-06T16:56:44.559Z</time></trkpt><trkpt lat="43.6538033" lon="11.3024016"><ele>221.0</ele><time>2026-04-06T16:57:01.637Z</time></trkpt><trkpt lat="43.6562884" lon="11.2979442"><ele>226.0</ele><time>2026-04-06T16:57:23.545Z</time></trkpt><trkpt lat="43.6591355" lon="11.2938833"><ele>225.0</ele><time>2026-04-06T16:57:51.551Z</time></trkpt><trkpt lat="43.6610066" lon="11.2924528"><ele>244.0</ele><time>2026-04-06T16:58:14.54Z</time></trkpt><trkpt lat="43.6637155" lon="11.2933285"><ele>242.0</ele><time>2026-04-06T16:58:30.541Z</time></trkpt><trkpt lat="43.6665135" lon="11.2930694"><ele>250.0</ele><time>2026-04-06T16:58:50.533Z</time></trkpt><trkpt lat="43.6699066" lon="11.2921279"><ele>225.0</ele><time>2026-04-06T16:59:15.545Z</time></trkpt><trkpt lat="43.6680296" lon="11.2948089"><ele>232.0</ele><time>2026-04-06T17:00:57.532Z</time></trkpt><trkpt lat="43.6687697" lon="11.2932067"><ele>243.0</ele><time>2026-04-06T17:03:11.542Z</time></trkpt><trkpt lat="43.6707831" lon="11.2927764"><ele>250.0</ele><time>2026-04-06T17:03:54.526Z</time></trkpt><trkpt lat="43.6721083" lon="11.2921162"><ele>251.0</ele><time>2026-04-06T17:05:07.525Z</time></trkpt><trkpt lat="43.6741773" lon="11.2920157"><ele>241.0</ele><time>2026-04-06T17:05:22.537Z</time></trkpt><trkpt lat="43.6768413" lon="11.2927935"><ele>233.0</ele><time>2026-04-06T17:05:44.526Z</time></trkpt><trkpt lat="43.679549" lon="11.292854"><ele>226.0</ele><time>2026-04-06T17:06:01.54Z</time></trkpt><trkpt lat="43.68302" lon="11.2935263"><ele>220.0</ele><time>2026-04-06T17:06:28.532Z</time></trkpt><trkpt lat="43.6852246" lon="11.2958311"><ele>205.0</ele><time>2026-04-06T17:06:52.535Z</time></trkpt><trkpt lat="43.6880436" lon="11.2961042"><ele>202.0</ele><time>2026-04-06T17:07:12.531Z</time></trkpt><trkpt lat="43.6915202" lon="11.2951319"><ele>208.0</ele><time>2026-04-06T17:07:33.528Z</time></trkpt><trkpt lat="43.6944646" lon="11.2928175"><ele>205.0</ele><time>2026-04-06T17:08:02.523Z</time></trkpt><trkpt lat="43.6978347" lon="11.2934385"><ele>200.0</ele><time>2026-04-06T17:08:21.534Z</time></trkpt><trkpt lat="43.7013844" lon="11.2930993"><ele>196.0</ele><time>2026-04-06T17:08:40.534Z</time></trkpt><trkpt lat="43.7047794" lon="11.2921167"><ele>183.0</ele><time>2026-04-06T17:09:00.533Z</time></trkpt><trkpt lat="43.707618" lon="11.2895342"><ele>178.0</ele><time>2026-04-06T17:09:18.545Z</time></trkpt><trkpt lat="43.7117569" lon="11.2905278"><ele>176.0</ele><time>2026-04-06T17:13:14.519Z</time></trkpt><trkpt lat="43.7151607" lon="11.289874"><ele>148.0</ele><time>2026-04-06T17:13:55.53Z</time></trkpt><trkpt lat="43.7161137" lon="11.2873914"><ele>103.0</ele><time>2026-04-06T17:14:20.524Z</time></trkpt><trkpt lat="43.7186747" lon="11.2858885"><ele>144.0</ele><time>2026-04-06T17:14:53.54Z</time></trkpt><trkpt lat="43.7166347" lon="11.2861199"><ele>116.0</ele><time>2026-04-06T17:15:37.524Z</time></trkpt><trkpt lat="43.7181" lon="11.2860526"><ele>94.0</ele><time>2026-04-06T17:17:37.525Z</time></trkpt><trkpt lat="43.7205271" lon="11.287878"><ele>100.0</ele><time>2026-04-06T17:18:23.512Z</time></trkpt><trkpt lat="43.7222553" lon="11.289428"><ele>91.0</ele><time>2026-04-06T17:18:49.504Z</time></trkpt><trkpt lat="43.7231026" lon="11.2919852"><ele>93.0</ele><time>2026-04-06T17:19:09.494Z</time></trkpt><trkpt lat="43.7251294" lon="11.2920609"><ele>89.0</ele><time>2026-04-06T17:19:30.513Z</time></trkpt><trkpt lat="43.7268928" lon="11.2934886"><ele>88.0</ele><time>2026-04-06T17:20:10.51Z</time></trkpt><trkpt lat="43.728399" lon="11.2954426"><ele>86.0</ele><time>2026-04-06T17:20:30.513Z</time></trkpt><trkpt lat="43.7311674" lon="11.2962197"><ele>86.0</ele><time>2026-04-06T17:20:51.517Z</time></trkpt><trkpt lat="43.7344957" lon="11.2971425"><ele>86.0</ele><time>2026-04-06T17:21:13.52Z</time></trkpt><trkpt lat="43.7365983" lon="11.2965464"><ele>79.0</ele><time>2026-04-06T17:21:43.587Z</time></trkpt><trkpt lat="43.7378777" lon="11.2942686"><ele>82.0</ele><time>2026-04-06T17:22:03.514Z</time></trkpt><trkpt lat="43.7386967" lon="11.290585"><ele>78.0</ele><time>2026-04-06T17:22:26.516Z</time></trkpt><trkpt lat="43.7403367" lon="11.2875263"><ele>77.0</ele><time>2026-04-06T17:22:44.498Z</time></trkpt><trkpt lat="43.7424058" lon="11.2878318"><ele>74.0</ele><time>2026-04-06T17:23:13.506Z</time></trkpt><trkpt lat="43.7433648" lon="11.2853618"><ele>95.0</ele><time>2026-04-06T17:23:31.512Z</time></trkpt><trkpt lat="43.7467554" lon="11.2861941"><ele>87.0</ele><time>2026-04-06T17:24:00.533Z</time></trkpt><trkpt lat="43.7482836" lon="11.2913746"><ele>67.0</ele><time>2026-04-06T17:24:18.501Z</time></trkpt><trkpt lat="43.7492746" lon="11.2968483"><ele>59.0</ele><time>2026-04-06T17:24:41.518Z</time></trkpt><trkpt lat="43.7514302" lon="11.2991015"><ele>57.0</ele><time>2026-04-06T17:25:01.525Z</time></trkpt><trkpt lat="43.753868" lon="11.3007166"><ele>59.0</ele><time>2026-04-06T17:25:17.53Z</time></trkpt><trkpt lat="43.7576378" lon="11.3029204"><ele>59.0</ele><time>2026-04-06T17:25:36.538Z</time></trkpt><trkpt lat="43.7618258" lon="11.3035926"><ele>56.0</ele><time>2026-04-06T17:25:56.531Z</time></trkpt><trkpt lat="43.7658519" lon="11.3026112"><ele>53.0</ele><time>2026-04-06T17:27:23.524Z</time></trkpt><trkpt lat="43.7664016" lon="11.2989384"><ele>51.0</ele><time>2026-04-06T17:33:24.537Z</time></trkpt><trkpt lat="43.7680327" lon="11.297279"><ele>52.0</ele><time>2026-04-06T17:34:09.51Z</time></trkpt><trkpt lat="43.770079" lon="11.2973436"><ele>55.0</ele><time>2026-04-06T17:34:31.527Z</time></trkpt><trkpt lat="43.7711499" lon="11.2985413"><ele>59.0</ele><time>2026-04-06T17:34:48.524Z</time></trkpt><trkpt lat="43.7730888" lon="11.2994561"><ele>61.0</ele><time>2026-04-06T17:35:08.518Z</time></trkpt><trkpt lat="43.7754782" lon="11.3013103"><ele>62.0</ele><time>2026-04-06T17:35:29.53Z</time></trkpt><trkpt lat="43.7781741" lon="11.301531"><ele>62.0</ele><time>2026-04-06T17:35:58.525Z</time></trkpt><trkpt lat="43.7787768" lon="11.2987751"><ele>60.0</ele><time>2026-04-06T17:36:21.519Z</time></trkpt><trkpt lat="43.7797029" lon="11.296216"><ele>61.0</ele><time>2026-04-06T17:36:41.519Z</time></trkpt><trkpt lat="43.7809642" lon="11.2928791"><ele>64.0</ele><time>2026-04-06T17:37:02.515Z</time></trkpt><trkpt lat="43.7822233" lon="11.2936324"><ele>67.0</ele><time>2026-04-06T17:37:19.513Z</time></trkpt><trkpt lat="43.7849048" lon="11.2943348"><ele>69.0</ele><time>2026-04-06T17:37:41.52Z</time></trkpt><trkpt lat="43.7850831" lon="11.2923804"><ele>71.0</ele><time>2026-04-06T17:38:01.506Z</time></trkpt><trkpt lat="43.7855745" lon="11.288628"><ele>66.0</ele><time>2026-04-06T17:38:22.516Z</time></trkpt><trkpt lat="43.7867402" lon="11.2862278"><ele>77.0</ele><time>2026-04-06T17:38:38.512Z</time></trkpt><trkpt lat="43.7870159" lon="11.283425"><ele>67.0</ele><time>2026-04-06T17:38:59.522Z</time></trkpt><trkpt lat="43.7856632" lon="11.2800679"><ele>67.0</ele><time>2026-04-06T17:39:18.52Z</time></trkpt><trkpt lat="43.7846274" lon="11.2776578"><ele>77.0</ele><time>2026-04-06T17:39:32.514Z</time></trkpt><trkpt lat="43.7844311" lon="11.2756691"><ele>63.0</ele><time>2026-04-06T17:40:17.519Z</time></trkpt><trkpt lat="43.7859695" lon="11.2713231"><ele>75.0</ele><time>2026-04-06T17:40:43.511Z</time></trkpt><trkpt lat="43.7869179" lon="11.2748282"><ele>75.0</ele><time>2026-04-06T17:43:11.526Z</time></trkpt></trkseg></trk></gpx>